# Wetter Temperatur Luftdruck Luftfeuchtigkeit Sichtweite Windgeschwindigkeit Windrichtung Zeit
1 Clouds 1 1006 88 10000 2.57 250 21:41 02.12.2021
2 Rain 1 1005 88 10000 3.09 290 20:46 02.12.2021
3 Rain 1 1004 88 10000 4.12 300 20:23 02.12.2021
4 Rain 1 1004 86 4249 4.87 299 19:22 02.12.2021
5 Clouds 2 1001 87 10000 2.06 300 16:53 02.12.2021
6 Clouds 3 1000 87 10000 2.57 300 15:41 02.12.2021
7 Clouds 3 999 86 10000 4.63 300 14:57 02.12.2021
8 Rain 3 999 86 10000 5.66 290 13:44 02.12.2021
9 Clouds 3 999 86 10000 3.09 280 12:46 02.12.2021
10 Snow 2 999 88 10000 3.6 300 11:52 02.12.2021
11 Clouds 4 998 85 10000 4.12 220 09:27 02.12.2021
12 Clouds 4 998 84 10000 3.09 230 08:19 02.12.2021
13 Clouds 5 997 88 10000 4.12 250 01:38 02.12.2021
14 Clouds 5 997 88 10000 5.14 250 00:50 02.12.2021
15 Clouds 6 997 88 10000 5.66 250 22:33 01.12.2021
16 Clouds 6 997 86 10000 5.66 240 21:54 01.12.2021
17 Rain 7 996 83 10000 8.75 240 20:35 01.12.2021
18 Clouds 7 995 83 10000 8.75 230 19:47 01.12.2021
19 Clouds 8 995 84 10000 6.69 230 18:55 01.12.2021
20 Clouds 8 995 83 10000 4.63 190 17:32 01.12.2021
21 Clouds 8 995 82 10000 5.14 190 16:36 01.12.2021
22 Rain 8 997 80 10000 4.12 180 14:39 01.12.2021
23 Clouds 8 998 79 10000 5.14 180 13:37 01.12.2021
24 Rain 7 1001 82 10000 5.14 190 11:26 01.12.2021
25 Rain 6 1001 83 10000 5.14 200 10:40 01.12.2021
26 Clouds 5 1004 86 10000 5.14 210 08:53 01.12.2021
27 Clouds 5 1004 87 10000 4.12 200 08:26 01.12.2021
28 Rain 5 1005 87 10000 4.63 210 07:32 01.12.2021
29 Clouds 4 1008 88 10000 4.12 210 03:59 01.12.2021
30 Clouds 4 1008 88 10000 5.14 230 03:28 01.12.2021
31 Clouds 4 1009 88 10000 7.2 250 00:45 01.12.2021
32 Clouds 4 1009 86 10000 8.75 250 23:33 30.11.2021
33 Clouds 4 1009 86 10000 8.23 250 22:39 30.11.2021
34 Clouds 4 1008 86 10000 9.77 250 20:48 30.11.2021
35 Clouds 4 1008 86 10000 8.23 250 20:27 30.11.2021
36 Clouds 4 1008 86 10000 8.75 250 19:47 30.11.2021
37 Clouds 3 1007 87 10000 9.77 250 18:57 30.11.2021
38 Clouds 3 1007 87 10000 8.75 250 17:57 30.11.2021
39 Clouds 2 1007 87 10000 9.77 250 16:25 30.11.2021
40 Snow 2 1006 87 7000 10.29 250 14:35 30.11.2021
41 Snow 1 1006 88 4500 8.75 240 13:48 30.11.2021
42 Snow 1 1007 88 3500 7.72 240 13:22 30.11.2021
43 Snow 1 1007 88 2800 7.2 240 12:41 30.11.2021
44 Snow 1 1009 88 2400 6.69 230 11:26 30.11.2021
45 Snow 0 1009 90 1700 5.14 220 10:37 30.11.2021
46 Snow 1 1010 88 2400 4.63 220 08:59 30.11.2021
47 Snow 1 1010 89 2400 4.63 220 08:40 30.11.2021
48 Snow 1 1011 89 3200 5.66 220 08:19 30.11.2021
49 Snow 1 1011 85 10000 8.75 240 07:34 30.11.2021
50 Clouds 1 1012 89 10000 5.14 250 01:52 30.11.2021
51 Clouds 1 1012 89 10000 4.63 250 01:31 30.11.2021
52 Clouds 1 1012 87 10000 5.14 260 23:54 29.11.2021
53 Clouds 1 1012 87 10000 4.63 250 23:20 29.11.2021
54 Clouds 1 1011 87 10000 5.14 260 22:44 29.11.2021
55 Snow 1 1011 89 10000 4.12 260 22:25 29.11.2021
56 Snow 1 1011 89 10000 3.09 270 21:21 29.11.2021
57 Snow 1 1010 89 8000 3.09 270 20:56 29.11.2021
58 Snow 1 1010 89 10000 3.6 270 20:22 29.11.2021
59 Snow 0 1010 91 6000 4.12 260 19:43 29.11.2021
60 Snow 1 1009 87 9000 3.6 260 19:25 29.11.2021
61 Snow 0 1011 97 139 4.43 274 18:45 29.11.2021
62 Snow 0 1010 96 3051 4.46 265 17:22 29.11.2021
63 Snow 0 1010 96 3051 4.46 265 16:54 29.11.2021
64 Clouds 0 1009 85 10000 4.46 270 16:25 29.11.2021
65 Clouds 2 1008 79 10000 4.4 276 14:52 29.11.2021
66 Clouds 2 1007 76 10000 4.3 278 14:29 29.11.2021
67 Clouds 2 1007 74 10000 4.53 282 13:23 29.11.2021
68 Clouds 2 1007 76 10000 4.26 276 12:20 29.11.2021
69 Clouds 2 1007 76 10000 4.26 276 11:30 29.11.2021
70 Clouds 1 1006 90 2755 3.41 291 09:59 29.11.2021
71 Snow 0 1002 93 5000 2.06 270 07:47 29.11.2021
72 Clouds 0 1000 93 5000 2.06 290 05:51 29.11.2021
73 Clouds 0 999 100 7000 0.51 0 01:30 29.11.2021
74 Clouds 0 998 100 8000 1.03 0 23:59 28.11.2021
75 Clouds 0 998 100 8000 1.03 0 23:40 28.11.2021
76 Snow 0 998 100 9000 1.03 0 22:20 28.11.2021
77 Snow 0 998 100 9000 1.03 0 21:39 28.11.2021
78 Clouds 1 997 93 10000 1.03 270 20:44 28.11.2021
79 Clouds 1 997 93 10000 1.54 270 19:51 28.11.2021
80 Clouds 1 997 93 10000 1.54 240 18:40 28.11.2021
81 Clouds 1 997 93 10000 1.03 250 18:18 28.11.2021
82 Snow 1 997 93 10000 1.03 260 17:34 28.11.2021
83 Clouds 1 996 93 10000 1.03 300 16:47 28.11.2021
84 Clouds 2 996 87 10000 1.54 280 16:28 28.11.2021
85 Clouds 1 996 93 10000 0.51 20 15:50 28.11.2021
86 Clouds 2 996 87 10000 1.03 0 14:55 28.11.2021
87 Clouds 2 996 87 10000 0.51 0 14:28 28.11.2021
88 Clouds 1 996 93 10000 0 0 12:54 28.11.2021
89 Clouds 1 996 93 10000 0.51 0 11:38 28.11.2021
90 Snow 0 996 93 8000 0.51 0 10:31 28.11.2021
91 Snow 0 996 93 10000 1.54 100 09:46 28.11.2021
92 Snow -1 996 100 10000 1.54 100 09:27 28.11.2021
93 Clear -3 996 100 10000 3.6 100 00:50 28.11.2021
94 Clouds 1 996 86 10000 1.03 0 21:49 27.11.2021
95 Clouds 2 995 93 10000 2.57 230 19:50 27.11.2021
96 Rain 2 994 93 10000 3.6 250 18:26 27.11.2021
97 Clouds 4 992 81 10000 6.69 190 16:18 27.11.2021
98 Clouds 5 991 75 10000 3.6 170 14:44 27.11.2021
99 Clouds 5 991 75 10000 3.09 180 13:38 27.11.2021
100 Clouds 3 991 87 10000 3.6 180 11:28 27.11.2021
101 Clouds 2 991 93 10000 4.12 170 10:19 27.11.2021
102 Rain 1 990 93 6000 3.6 130 08:53 27.11.2021
103 Clouds 2 989 80 10000 4.12 150 06:59 27.11.2021
104 Clouds 2 989 80 10000 4.12 120 04:40 27.11.2021
105 Clouds 0 992 93 10000 3.6 130 00:23 27.11.2021
106 Clouds 0 993 93 10000 3.6 150 22:50 26.11.2021
107 Clouds 0 994 93 10000 2.57 140 22:23 26.11.2021
108 Clouds 1 995 86 10000 3.6 170 21:23 26.11.2021
109 Clouds 1 995 86 10000 3.6 160 20:41 26.11.2021
110 Clouds 2 996 87 10000 2.57 170 19:55 26.11.2021
111 Clouds 2 996 87 10000 3.6 190 18:47 26.11.2021
112 Clouds 2 997 87 10000 3.09 190 17:45 26.11.2021
113 Clouds 2 997 87 10000 3.09 180 17:21 26.11.2021
114 Clouds 3 998 75 10000 2.57 220 15:22 26.11.2021
115 Clouds 2 999 85 9000 2.06 190 13:35 26.11.2021
116 Mist 1 1002 88 4500 2.06 230 10:45 26.11.2021
117 Snow 1 1002 88 3500 1.54 250 09:54 26.11.2021
118 Clouds 1 1003 86 10000 2.57 300 08:53 26.11.2021
119 Clouds 1 1003 86 10000 2.06 280 08:20 26.11.2021
120 Clouds 1 1004 86 10000 2.57 270 06:41 26.11.2021
121 Clouds 1 1004 86 10000 1.54 210 06:22 26.11.2021
122 Clouds 1 1006 88 10000 1.54 280 03:44 26.11.2021
123 Clouds 1 1008 85 10000 1.54 270 00:57 26.11.2021
124 Clouds 1 1009 85 10000 1.03 260 22:38 25.11.2021
125 Clouds 1 1009 82 10000 1.03 290 21:19 25.11.2021
126 Clouds 1 1010 84 10000 1.54 280 19:54 25.11.2021
127 Clouds 1 1009 85 10000 3.09 320 18:38 25.11.2021
128 Clouds 1 1009 85 10000 2.06 320 17:28 25.11.2021
129 Clouds 1 1009 85 9000 3.09 330 16:56 25.11.2021
130 Clouds 1 1009 83 9000 3.09 330 16:28 25.11.2021
131 Clouds 1 1009 85 9000 3.09 320 14:52 25.11.2021
132 Clouds 1 1010 83 9000 1.54 260 13:21 25.11.2021
133 Clouds 1 1010 83 9000 1.03 0 12:19 25.11.2021
134 Clouds 1 1010 83 9000 1.03 0 11:40 25.11.2021
135 Clouds 1 1011 85 9000 2.06 160 08:42 25.11.2021
136 Clouds 1 1012 84 10000 5.14 130 03:42 25.11.2021
137 Clouds 1 1013 84 10000 5.14 120 02:44 25.11.2021
138 Clouds 1 1015 83 10000 4.12 140 22:43 24.11.2021
139 Clouds 1 1016 84 10000 4.63 160 22:21 24.11.2021
140 Clouds 1 1016 83 10000 2.57 150 21:27 24.11.2021
141 Clouds 2 1017 83 10000 4.63 170 20:29 24.11.2021
142 Clouds 2 1017 81 10000 4.12 180 19:46 24.11.2021
143 Clouds 2 1018 84 10000 2.06 140 18:29 24.11.2021
144 Clouds 4 1018 77 10000 2.06 30 16:53 24.11.2021
145 Clouds 6 1019 72 10000 1.54 70 15:22 24.11.2021
146 Clouds 6 1020 69 10000 2.06 110 14:32 24.11.2021
147 Clouds 7 1021 69 10000 3.6 110 13:51 24.11.2021
148 Clouds 5 1023 76 10000 5.14 100 11:50 24.11.2021
149 Clouds 5 1023 78 10000 5.14 100 11:20 24.11.2021
150 Clouds 4 1024 82 10000 1.03 0 10:39 24.11.2021
151 Clouds 2 1024 85 10000 1.03 0 09:40 24.11.2021
152 Clouds 1 1024 88 10000 0.51 0 07:42 24.11.2021
153 Clouds 1 1025 88 10000 0.51 0 06:21 24.11.2021
154 Clouds 0 1026 87 10000 0.51 0 03:48 24.11.2021
155 Clouds 0 1027 92 10000 1.03 0 23:42 23.11.2021
156 Clear -1 1028 91 10000 0.51 0 22:39 23.11.2021
157 Clouds 0 1028 91 10000 0.51 10 21:46 23.11.2021
158 Clear -1 1028 93 10000 1.03 0 20:48 23.11.2021
159 Clear -1 1028 86 10000 0.51 0 19:37 23.11.2021
160 Clear 0 1028 83 10000 0.51 0 18:37 23.11.2021
161 Clear 0 1028 81 10000 1.03 360 17:57 23.11.2021
162 Clear 3 1028 75 10000 1.54 300 16:54 23.11.2021
163 Clear 4 1028 66 10000 1.54 290 15:57 23.11.2021
164 Clear 5 1028 65 10000 1.54 280 15:19 23.11.2021
165 Clear 5 1028 71 10000 1.54 300 13:43 23.11.2021
166 Clear 1 1029 83 10000 0.51 0 10:41 23.11.2021
167 Clear -1 1029 87 10000 0 0 09:57 23.11.2021
168 Clear -2 1029 90 10000 1.03 0 08:43 23.11.2021
169 Clear -3 1028 88 10000 0.51 0 05:57 23.11.2021
170 Clear -2 1028 86 10000 0.51 0 03:42 23.11.2021
171 Clear -1 1027 91 10000 0.51 0 00:28 23.11.2021
172 Clear 0 1027 88 10000 1.54 340 23:20 22.11.2021
173 Clear 0 1026 85 10000 1.03 280 22:32 22.11.2021
174 Clear 1 1026 85 10000 1.54 10 21:46 22.11.2021
175 Clear 1 1026 84 10000 1.54 360 21:26 22.11.2021
176 Clouds 2 1025 84 10000 2.57 350 20:49 22.11.2021
177 Clouds 1 1025 84 10000 2.57 350 20:49 22.11.2021
178 Clouds 3 1024 80 10000 2.57 360 19:26 22.11.2021
179 Clouds 4 1024 77 10000 3.09 20 18:50 22.11.2021
180 Clouds 4 1024 79 10000 3.6 360 18:31 22.11.2021
181 Clouds 5 1023 78 10000 2.57 350 16:50 22.11.2021
182 Clouds 6 1022 77 10000 4.63 360 15:39 22.11.2021
183 Clouds 6 1021 85 10000 3.09 10 12:52 22.11.2021
184 Clouds 6 1020 84 10000 3.09 350 11:39 22.11.2021
185 Drizzle 5 1020 88 10000 2.57 360 10:36 22.11.2021
186 Rain 5 1018 86 6000 3.09 340 08:46 22.11.2021
187 Drizzle 5 1017 86 6000 1.54 330 08:24 22.11.2021
188 Drizzle 4 1014 90 2800 1.54 310 02:31 22.11.2021
189 Drizzle 4 1013 90 2800 1.54 290 23:22 21.11.2021
190 Drizzle 4 1014 88 3500 1.03 270 22:46 21.11.2021
191 Drizzle 4 1013 88 4000 2.06 260 21:33 21.11.2021
192 Clouds 4 1013 89 10000 1.54 280 20:38 21.11.2021
193 Clouds 4 1012 86 10000 2.06 290 19:43 21.11.2021
194 Clouds 4 1012 87 10000 2.06 290 19:43 21.11.2021
195 Clouds 4 1011 86 10000 1.54 260 17:59 21.11.2021
196 Clouds 4 1011 86 10000 1.54 260 17:37 21.11.2021
197 Clouds 5 1011 84 10000 2.06 250 15:22 21.11.2021
198 Clouds 4 1011 84 10000 2.06 260 14:43 21.11.2021
199 Clouds 4 1011 86 10000 3.09 280 13:31 21.11.2021
200 Clouds 4 1012 89 10000 2.06 320 12:27 21.11.2021
201 Clouds 4 1012 87 10000 2.57 300 11:39 21.11.2021
202 Clouds 4 1012 88 10000 2.57 210 10:20 21.11.2021
203 Clouds 4 1012 88 10000 2.06 180 09:48 21.11.2021
204 Drizzle 4 1012 90 8000 3.09 190 08:34 21.11.2021
205 Drizzle 4 1012 88 7000 2.57 190 07:57 21.11.2021
206 Drizzle 4 1012 88 7000 2.57 180 07:39 21.11.2021
207 Clouds 4 1013 88 9000 3.09 230 05:47 21.11.2021
208 Clouds 5 1014 88 10000 2.57 180 04:35 21.11.2021
209 Clouds 5 1015 88 10000 3.6 210 03:18 21.11.2021
210 Clouds 5 1015 88 10000 3.6 170 02:42 21.11.2021
211 Clouds 5 1017 84 10000 2.57 170 00:53 21.11.2021
212 Clouds 6 1018 83 10000 3.09 180 23:22 20.11.2021
213 Clouds 6 1019 82 10000 3.6 200 21:39 20.11.2021
214 Clouds 6 1020 81 10000 3.6 200 20:39 20.11.2021
215 Clouds 7 1021 81 10000 2.57 180 18:46 20.11.2021
216 Clouds 7 1021 80 10000 2.57 190 18:25 20.11.2021
217 Clouds 8 1022 80 10000 1.54 190 17:22 20.11.2021
218 Clouds 8 1022 80 10000 2.06 220 16:41 20.11.2021
219 Clouds 9 1024 83 10000 0.51 0 14:40 20.11.2021
220 Clouds 9 1024 83 10000 0.51 0 14:21 20.11.2021
221 Clouds 8 1026 86 10000 1.54 190 11:56 20.11.2021
222 Clouds 7 1027 87 10000 1.54 180 10:29 20.11.2021
223 Clouds 6 1028 89 9000 1.54 100 08:57 20.11.2021
224 Clouds 6 1028 89 9000 1.03 0 07:20 20.11.2021
225 Clouds 7 1028 87 10000 2.57 190 05:25 20.11.2021
226 Clouds 7 1028 89 10000 1.54 170 04:50 20.11.2021
227 Clouds 6 1029 88 10000 1.54 150 01:41 20.11.2021
228 Clouds 6 1030 88 10000 1.54 220 00:38 20.11.2021
229 Clouds 6 1030 88 10000 1.03 0 22:55 19.11.2021
230 Drizzle 6 1030 89 7000 1.54 220 21:57 19.11.2021
231 Drizzle 6 1030 89 5000 1.54 210 20:54 19.11.2021
232 Drizzle 6 1030 89 5000 1.54 210 20:36 19.11.2021
233 Drizzle 6 1030 87 3500 2.06 210 19:49 19.11.2021
234 Drizzle 6 1030 89 3500 2.57 230 18:51 19.11.2021
235 Drizzle 6 1030 89 3500 3.09 250 18:19 19.11.2021
236 Clouds 6 1030 90 9000 3.6 270 16:47 19.11.2021
237 Clouds 7 1030 87 10000 2.57 280 15:31 19.11.2021
238 Clouds 8 1031 86 10000 3.6 290 13:24 19.11.2021
239 Clouds 6 1031 90 10000 4.12 250 10:27 19.11.2021
240 Clouds 6 1031 90 9000 3.6 250 09:33 19.11.2021
241 Clouds 5 1030 89 10000 2.57 240 07:34 19.11.2021
242 Clouds 5 1030 84 10000 3.09 220 04:28 19.11.2021
243 Clouds 5 1030 86 10000 2.57 220 01:32 19.11.2021
244 Clouds 5 1030 86 10000 2.06 220 23:50 18.11.2021
245 Clouds 6 1030 83 10000 3.6 250 21:48 18.11.2021
246 Clouds 6 1030 83 10000 3.6 260 20:48 18.11.2021
247 Clouds 6 1030 83 10000 4.63 280 20:29 18.11.2021
248 Clouds 6 1030 81 10000 4.63 270 19:43 18.11.2021
249 Clouds 6 1030 85 10000 1.54 260 18:41 18.11.2021
250 Clouds 6 1030 81 10000 2.06 240 18:20 18.11.2021
251 Clouds 6 1030 81 10000 3.09 230 17:44 18.11.2021
252 Clouds 7 1030 83 10000 2.06 250 16:44 18.11.2021
253 Clouds 7 1029 83 10000 2.57 270 15:25 18.11.2021
254 Clouds 7 1030 86 10000 3.09 260 13:29 18.11.2021
255 Clouds 7 1031 86 10000 2.57 230 12:33 18.11.2021
256 Clouds 7 1031 87 10000 2.57 270 11:41 18.11.2021
257 Clouds 7 1031 85 10000 2.57 230 11:23 18.11.2021
258 Clouds 6 1030 86 9000 3.09 260 09:33 18.11.2021
259 Clouds 5 1029 89 9000 1.54 230 07:34 18.11.2021
260 Clouds 5 1028 88 9000 1.54 230 05:47 18.11.2021
261 Mist 5 1028 89 4500 1.03 0 04:31 18.11.2021
262 Clouds 5 1027 88 10000 1.54 200 01:22 18.11.2021
263 Clouds 4 1026 90 10000 1.54 170 22:48 17.11.2021
264 Clouds 4 1026 89 10000 1.54 200 22:20 17.11.2021
265 Clouds 4 1026 89 10000 1.54 200 21:37 17.11.2021
266 Clouds 4 1026 89 10000 1.54 250 20:50 17.11.2021
267 Clouds 4 1023 88 10000 2.57 250 17:53 17.11.2021
268 Clouds 4 1023 88 10000 3.09 250 17:25 17.11.2021
269 Clouds 5 1022 87 10000 3.09 290 14:47 17.11.2021
270 Clouds 5 1022 87 9000 2.57 290 12:40 17.11.2021
271 Clouds 5 1022 88 9000 2.57 260 11:42 17.11.2021
272 Clouds 5 1022 88 10000 1.54 240 10:28 17.11.2021
273 Clouds 5 1021 87 9000 2.57 270 09:24 17.11.2021
274 Drizzle 5 1020 87 7000 1.54 240 07:43 17.11.2021
275 Drizzle 5 1020 88 4000 1.54 230 03:43 17.11.2021
276 Drizzle 5 1020 88 5000 1.54 240 01:18 17.11.2021
277 Mist 5 1020 88 3000 1.54 240 23:18 16.11.2021
278 Clouds 5 1020 84 8000 1.54 210 21:23 16.11.2021
279 Clouds 6 1020 83 10000 1.54 130 20:18 16.11.2021
280 Clouds 6 1020 83 10000 2.57 140 18:53 16.11.2021
281 Clouds 6 1020 83 10000 2.57 140 18:34 16.11.2021
282 Clouds 6 1020 83 10000 2.57 120 17:38 16.11.2021
283 Clouds 6 1020 82 10000 1.54 120 16:37 16.11.2021
284 Clouds 6 1021 80 10000 1.54 120 15:50 16.11.2021
285 Clouds 6 1021 80 10000 1.03 0 15:26 16.11.2021
286 Clouds 6 1022 82 10000 1.54 60 11:29 16.11.2021
287 Clouds 6 1022 83 10000 1.03 0 09:46 16.11.2021
288 Clouds 5 1022 86 10000 2.06 80 08:45 16.11.2021
289 Clouds 5 1021 89 10000 1.54 40 07:32 16.11.2021
290 Clouds 6 1022 89 10000 1.03 0 02:20 16.11.2021
291 Clouds 6 1022 88 10000 3.09 80 23:22 15.11.2021
292 Clouds 6 1022 88 10000 1.54 70 22:33 15.11.2021
293 Clouds 6 1023 88 10000 3.09 70 21:53 15.11.2021
294 Clouds 6 1023 86 10000 2.06 70 21:28 15.11.2021
295 Clouds 6 1022 85 10000 2.06 60 19:42 15.11.2021
296 Clouds 6 1022 85 10000 3.09 70 18:33 15.11.2021
297 Clouds 7 1022 82 10000 3.09 60 16:20 15.11.2021
298 Clouds 7 1022 80 10000 3.09 70 15:41 15.11.2021
299 Clouds 8 1022 80 10000 2.57 40 15:23 15.11.2021
300 Clouds 8 1023 82 10000 3.09 80 13:32 15.11.2021
301 Clouds 7 1023 85 10000 4.12 70 11:21 15.11.2021
302 Clouds 6 1024 88 10000 2.57 50 09:28 15.11.2021
303 Clouds 6 1023 88 10000 3.09 80 07:52 15.11.2021
304 Clouds 6 1023 88 10000 3.09 80 05:21 15.11.2021
305 Clouds 7 1024 85 10000 2.57 60 23:54 14.11.2021
306 Clouds 7 1023 85 10000 3.09 60 22:35 14.11.2021
307 Clouds 8 1022 85 10000 4.63 60 19:57 14.11.2021
308 Clouds 8 1022 85 10000 4.63 40 19:18 14.11.2021
309 Clouds 8 1022 85 10000 4.63 60 18:54 14.11.2021
310 Clouds 8 1022 85 10000 4.63 60 18:36 14.11.2021
311 Clouds 9 1022 83 10000 3.6 50 18:18 14.11.2021
312 Clouds 9 1021 83 10000 2.57 50 17:56 14.11.2021
313 Clouds 9 1021 83 10000 2.57 50 17:38 14.11.2021
314 Clouds 9 1021 82 10000 2.06 40 17:20 14.11.2021
315 Clouds 9 1021 82 10000 3.6 70 16:47 14.11.2021
316 Clouds 9 1021 82 10000 4.12 50 16:20 14.11.2021
317 Clouds 10 1020 81 10000 3.6 70 15:23 14.11.2021
318 Clouds 10 1020 81 10000 5.14 70 14:49 14.11.2021
319 Clouds 10 1020 83 10000 3.6 60 14:29 14.11.2021
320 Clouds 10 1020 83 10000 3.6 70 13:54 14.11.2021
321 Clouds 10 1020 82 10000 3.6 70 13:35 14.11.2021
322 Clouds 9 1020 83 10000 1.54 40 12:27 14.11.2021
323 Clouds 8 1020 83 10000 1.03 0 11:41 14.11.2021
324 Clouds 8 1020 84 10000 1.54 30 10:41 14.11.2021
325 Clouds 7 1020 85 10000 1.03 0 09:48 14.11.2021
326 Clouds 6 1019 86 10000 2.57 110 08:54 14.11.2021
327 Clouds 6 1018 86 9000 2.06 90 07:19 14.11.2021
328 Clouds 5 1016 89 8000 2.57 100 23:48 13.11.2021
329 Clouds 5 1016 89 9000 2.06 110 22:26 13.11.2021
330 Clouds 5 1016 89 9000 2.06 120 21:56 13.11.2021
331 Rain 5 1016 89 10000 2.57 120 21:22 13.11.2021
332 Clouds 5 1016 90 9000 3.09 110 19:47 13.11.2021
333 Clouds 6 1016 87 10000 3.09 120 18:33 13.11.2021
334 Clouds 6 1016 87 10000 3.09 120 17:55 13.11.2021
335 Clouds 6 1016 87 10000 3.09 120 16:37 13.11.2021
336 Clouds 6 1016 87 10000 4.63 130 15:29 13.11.2021
337 Clouds 6 1016 87 10000 5.14 130 14:20 13.11.2021
338 Clouds 5 1016 86 10000 3.6 130 13:18 13.11.2021
339 Rain 5 1016 86 10000 4.63 130 12:24 13.11.2021
340 Rain 4 1017 87 10000 4.63 130 11:34 13.11.2021
341 Rain 4 1017 85 10000 2.57 150 10:45 13.11.2021
342 Rain 3 1017 86 10000 3.6 130 10:20 13.11.2021
343 Rain 3 1017 87 10000 3.6 130 09:37 13.11.2021
344 Rain 3 1017 86 10000 4.12 120 08:56 13.11.2021
345 Clouds 3 1017 86 10000 2.06 170 08:23 13.11.2021
346 Clouds 3 1017 86 7000 2.57 190 04:47 13.11.2021
347 Clouds 3 1017 86 6000 2.06 180 04:28 13.11.2021
348 Mist 3 1017 88 4000 3.09 150 01:35 13.11.2021
349 Mist 3 1017 88 4000 3.09 0 22:58 12.11.2021
350 Clouds 4 1018 86 6000 3.09 130 21:45 12.11.2021
351 Clouds 4 1018 86 7000 3.09 120 19:54 12.11.2021
352 Clouds 4 1018 86 7000 2.06 100 19:27 12.11.2021
353 Clouds 4 1018 85 8000 2.06 100 18:29 12.11.2021
354 Clouds 4 1018 85 10000 2.57 140 16:34 12.11.2021
355 Clouds 4 1018 93 10000 3.6 140 15:32 12.11.2021
356 Clouds 3 1021 93 6000 3.09 130 11:54 12.11.2021
357 Clouds 2 1021 100 6000 3.09 140 10:51 12.11.2021
358 Mist 2 1021 100 4000 3.6 140 09:37 12.11.2021
359 Mist 1 1022 86 1800 3.09 140 08:38 12.11.2021
360 Mist 1 1022 86 1800 3.09 140 08:38 12.11.2021
361 Fog 1 1023 90 500 2.57 110 02:32 12.11.2021
362 Fog 1 1023 97 1800 1.03 0 23:41 11.11.2021
363 Fog 1 1024 96 4000 1.54 140 22:31 11.11.2021
364 Fog 1 1024 95 1800 0.51 10 21:27 11.11.2021
365 Fog 2 1024 92 8000 0.51 0 20:40 11.11.2021
366 Fog 3 1024 90 9000 0.51 0 19:20 11.11.2021
367 Clear 5 1023 86 10000 0.51 0 17:43 11.11.2021
368 Clear 6 1023 81 10000 1.54 270 16:54 11.11.2021
369 Clear 9 1023 78 10000 1.03 0 14:51 11.11.2021
370 Clear 9 1023 79 10000 1.03 0 14:28 11.11.2021
371 Clear 8 1023 85 10000 0.51 0 13:39 11.11.2021
372 Mist 6 1024 90 3300 1.54 280 12:50 11.11.2021
373 Fog 2 1024 92 300 1.54 320 10:44 11.11.2021
374 Fog 2 1024 92 300 0.51 0 09:36 11.11.2021
375 Fog 1 1023 92 300 1.03 0 07:59 11.11.2021
376 Fog 0 1023 97 900 0.51 0 05:55 11.11.2021
377 Fog 2 1024 92 4000 1.03 0 23:45 10.11.2021
378 Fog 2 1024 90 6000 0.51 0 22:24 10.11.2021
379 Clear 2 1024 91 10000 1.54 340 21:31 10.11.2021
380 Clear 3 1024 90 10000 0.51 0 20:47 10.11.2021
381 Clear 3 1024 88 10000 1.03 90 19:47 10.11.2021
382 Clear 3 1024 87 10000 0.51 0 19:27 10.11.2021
383 Clear 7 1024 78 10000 0.51 0 16:38 10.11.2021
384 Clear 8 1024 76 10000 1.03 0 15:40 10.11.2021
385 Clear 8 1024 75 10000 1.03 0 13:51 10.11.2021
386 Clear 8 1025 77 10000 2.06 170 12:59 10.11.2021
387 Clear 5 1025 83 10000 2.06 140 10:56 10.11.2021
388 Clear 1 1025 87 10000 1.54 120 08:51 10.11.2021
389 Clear 1 1025 87 10000 1.54 120 08:33 10.11.2021
390 Clear -1 1025 88 10000 1.03 110 06:40 10.11.2021
391 Fog -1 1025 90 10000 1.03 130 05:51 10.11.2021
392 Clear 1 1026 89 10000 0.51 0 00:27 10.11.2021
393 Clear 2 1026 87 10000 2.06 40 21:51 09.11.2021
394 Clear 3 1026 84 10000 1.54 110 20:32 09.11.2021
395 Clear 4 1026 82 10000 1.03 0 19:26 09.11.2021
396 Clear 4 1026 81 10000 1.54 40 18:37 09.11.2021
397 Clear 9 1027 61 10000 4.63 120 16:26 09.11.2021
398 Clouds 10 1027 59 10000 5.14 100 14:52 09.11.2021
399 Clouds 10 1028 66 10000 3.6 70 12:53 09.11.2021
400 Clouds 9 1029 72 10000 3.6 90 11:59 09.11.2021
401 Clear 7 1029 83 10000 1.54 300 10:46 09.11.2021
402 Clear 5 1028 85 10000 0.51 0 09:40 09.11.2021
403 Fog 2 1028 90 10000 1.03 360 08:27 09.11.2021
404 Clouds 3 1027 88 10000 2.06 100 05:57 09.11.2021
405 Clouds 4 1026 90 10000 0.51 0 02:28 09.11.2021
406 Clouds 4 1026 88 10000 0.51 0 01:48 09.11.2021
407 Clouds 4 1026 88 10000 1.03 30 00:18 09.11.2021
408 Clouds 4 1026 88 10000 0.51 0 22:59 08.11.2021
409 Clouds 4 1025 90 10000 0.51 120 22:28 08.11.2021
410 Clouds 4 1025 88 10000 1.54 110 21:20 08.11.2021
411 Clouds 4 1025 89 10000 1.03 340 19:56 08.11.2021
412 Clouds 6 1024 87 10000 0 0 18:57 08.11.2021
413 Clouds 7 1023 79 10000 1.03 320 17:22 08.11.2021
414 Clouds 8 1023 71 10000 1.54 250 15:27 08.11.2021
415 Clouds 8 1023 73 10000 1.54 260 14:43 08.11.2021
416 Clouds 8 1023 74 10000 1.54 330 13:55 08.11.2021
417 Clouds 8 1023 80 10000 1.54 320 12:44 08.11.2021
418 Clouds 7 1023 84 10000 2.06 320 11:26 08.11.2021
419 Clouds 6 1023 86 10000 1.03 0 09:59 08.11.2021
420 Clouds 5 1022 89 10000 1.03 120 08:55 08.11.2021
421 Clouds 4 1021 91 10000 1.03 190 07:36 08.11.2021
422 Clouds 5 1021 88 10000 1.54 240 06:20 08.11.2021
423 Clouds 5 1020 89 10000 2.57 250 03:33 08.11.2021
424 Clouds 7 1019 87 10000 2.57 260 23:51 07.11.2021
425 Clouds 7 1019 87 10000 2.06 290 22:26 07.11.2021
426 Clouds 7 1018 86 10000 4.12 260 21:21 07.11.2021
427 Clouds 7 1018 87 10000 4.63 250 19:55 07.11.2021
428 Clouds 7 1017 87 10000 4.12 270 18:26 07.11.2021
429 Clouds 7 1017 87 10000 4.63 240 17:38 07.11.2021
430 Clouds 7 1017 85 10000 6.69 250 15:55 07.11.2021
431 Clouds 7 1018 86 10000 4.63 280 14:40 07.11.2021
432 Clouds 7 1018 86 10000 4.12 240 13:55 07.11.2021
433 Clouds 6 1019 85 10000 3.09 0 11:53 07.11.2021
434 Clouds 5 1020 83 10000 3.09 210 10:19 07.11.2021
435 Clouds 3 1021 91 10000 3.6 190 08:48 07.11.2021
436 Mist 1 1024 89 4000 3.09 160 02:46 07.11.2021
437 Fog 2 1026 90 500 2.06 150 23:42 06.11.2021
438 Fog 2 1026 90 1600 2.06 130 22:52 06.11.2021
439 Fog 1 1026 90 4500 3.6 100 21:36 06.11.2021
440 Fog 2 1027 93 800 4.12 100 20:52 06.11.2021
441 Fog 2 1027 91 500 2.06 100 19:36 06.11.2021
442 Clouds 5 1028 88 10000 1.03 0 17:18 06.11.2021
443 Clouds 8 1028 85 10000 3.09 340 15:39 06.11.2021
444 Clouds 7 1030 85 8000 1.54 250 13:39 06.11.2021
445 Clouds 7 1030 89 6000 2.57 200 12:36 06.11.2021
446 Fog 4 1030 92 700 1.54 160 09:42 06.11.2021
447 Mist 4 1030 88 4000 2.57 120 07:58 06.11.2021
448 Clouds 4 1029 93 10000 2.57 100 03:20 06.11.2021
449 Clouds 4 1028 90 10000 1.03 140 23:38 05.11.2021
450 Fog 5 1028 90 9000 1.03 0 22:50 05.11.2021
451 Fog 4 1027 97 9000 1.54 180 21:55 05.11.2021
452 Fog 5 1026 91 10000 1.03 130 20:20 05.11.2021
453 Fog 5 1026 91 10000 0.51 140 19:49 05.11.2021
454 Clouds 5 1025 89 10000 1.03 0 18:41 05.11.2021
455 Clouds 7 1025 88 10000 1.54 260 17:31 05.11.2021
456 Clouds 8 1024 85 10000 2.06 260 15:48 05.11.2021
457 Clouds 8 1023 85 10000 4.12 290 13:58 05.11.2021
458 Clouds 7 1022 87 10000 4.12 270 11:42 05.11.2021
459 Clouds 6 1019 88 10000 3.09 230 08:41 05.11.2021
460 Clouds 6 1018 87 10000 2.57 230 07:39 05.11.2021
461 Clouds 6 1016 87 10000 3.09 200 05:33 05.11.2021
462 Rain 6 1015 86 10000 3.09 200 02:26 05.11.2021
463 Clouds 5 1014 86 10000 4.12 220 00:52 05.11.2021
464 Clouds 6 1013 88 10000 2.57 210 23:25 04.11.2021
465 Rain 6 1013 88 10000 3.09 220 22:20 04.11.2021
466 Rain 6 1012 87 10000 2.57 220 21:43 04.11.2021
467 Clouds 6 1011 87 10000 2.06 210 20:53 04.11.2021
468 Clouds 6 1011 87 10000 3.09 230 20:22 04.11.2021
469 Clouds 6 1011 87 10000 3.09 220 19:47 04.11.2021
470 Clouds 6 1010 87 10000 4.63 240 18:52 04.11.2021
471 Clouds 6 1009 87 10000 4.63 230 18:18 04.11.2021
472 Clouds 6 1008 88 10000 5.66 250 16:48 04.11.2021
473 Rain 7 1006 87 10000 5.14 230 15:18 04.11.2021
474 Clouds 7 1004 86 10000 5.14 230 12:53 04.11.2021
475 Rain 6 1001 87 10000 6.17 240 09:42 04.11.2021
476 Rain 6 1000 87 5000 4.63 270 08:31 04.11.2021
477 Rain 7 1000 86 3000 3.6 260 07:35 04.11.2021
478 Rain 6 999 89 3000 2.06 280 04:47 04.11.2021
479 Rain 7 1002 88 7000 1.03 200 22:53 03.11.2021
480 Rain 7 1001 88 10000 1.54 230 21:49 03.11.2021
481 Rain 7 1001 90 10000 1.03 290 21:30 03.11.2021
482 Rain 7 1001 88 10000 0.51 0 20:36 03.11.2021
483 Rain 7 1001 88 10000 1.54 270 19:58 03.11.2021
484 Rain 8 1000 85 10000 2.06 320 18:57 03.11.2021
485 Rain 8 1000 85 10000 2.57 320 18:23 03.11.2021
486 Rain 8 1000 85 10000 1.03 0 17:36 03.11.2021
487 Rain 9 999 81 10000 1.03 20 16:26 03.11.2021
488 Clear 9 999 79 10000 1.03 0 15:44 03.11.2021
489 Clear 9 999 80 10000 2.06 60 13:57 03.11.2021
490 Clear 8 1001 82 10000 2.06 80 11:59 03.11.2021
491 Clear 8 1001 82 10000 2.06 80 11:25 03.11.2021
492 Clear 7 1001 83 10000 2.06 110 10:46 03.11.2021
493 Clear 5 1002 86 10000 3.6 100 09:30 03.11.2021
494 Clouds 5 1002 88 10000 2.57 110 08:23 03.11.2021
495 Clouds 4 1002 88 10000 2.57 90 07:39 03.11.2021
496 Clouds 4 1002 89 10000 2.06 90 05:35 03.11.2021
497 Clouds 4 1004 89 10000 3.09 130 02:28 03.11.2021
498 Clouds 6 1005 87 10000 2.57 180 23:51 02.11.2021
499 Clouds 5 1004 87 10000 2.57 160 22:46 02.11.2021
500 Clouds 7 1004 85 10000 3.09 210 21:29 02.11.2021
501 Clouds 7 1004 87 10000 2.57 200 20:33 02.11.2021
502 Clouds 7 1003 87 10000 2.06 170 19:51 02.11.2021
503 Fog 7 1003 88 10000 1.54 110 18:59 02.11.2021
504 Clouds 8 1002 88 10000 1.03 250 17:59 02.11.2021
505 Clouds 8 1002 88 10000 1.03 250 17:38 02.11.2021
506 Clouds 8 1002 87 10000 1.03 0 16:30 02.11.2021
507 Clouds 8 1002 87 10000 2.57 240 15:32 02.11.2021
508 Rain 11 1001 70 10000 4.12 210 14:28 02.11.2021
509 Clouds 11 1002 73 10000 4.12 210 13:27 02.11.2021
510 Clouds 11 1002 79 10000 1.03 0 12:39 02.11.2021
511 Clouds 10 1002 86 10000 2.06 190 11:33 02.11.2021
512 Clouds 9 1003 87 10000 2.06 160 10:52 02.11.2021
513 Clouds 9 1003 89 10000 1.54 150 10:26 02.11.2021
514 Clouds 6 1002 89 10000 2.57 100 08:43 02.11.2021
515 Clouds 5 1002 87 10000 3.09 110 06:53 02.11.2021
516 Fog 5 1002 90 10000 2.57 120 03:48 02.11.2021
517 Clouds 6 1002 90 10000 3.09 100 02:18 02.11.2021
518 Clouds 8 1004 87 10000 3.09 140 22:44 01.11.2021
519 Clouds 8 1004 87 10000 2.57 140 20:52 01.11.2021
520 Clouds 8 1005 87 10000 2.57 150 20:33 01.11.2021
521 Clouds 8 1004 87 10000 2.57 140 20:33 01.11.2021
522 Clouds 8 1005 87 10000 3.09 150 19:52 01.11.2021
523 Clouds 8 1005 87 10000 3.09 150 19:24 01.11.2021
524 Rain 8 1004 85 10000 3.6 170 18:21 01.11.2021
525 Rain 9 1005 88 10000 3.6 170 17:19 01.11.2021
526 Rain 9 1005 87 10000 3.09 170 16:43 01.11.2021
527 Rain 9 1005 89 10000 2.57 160 15:47 01.11.2021
528 Rain 9 1005 87 10000 3.6 180 15:20 01.11.2021
529 Rain 9 1005 89 10000 4.12 170 14:42 01.11.2021
530 Rain 9 1006 89 10000 2.57 170 14:20 01.11.2021
531 Rain 9 1006 87 10000 2.57 180 13:19 01.11.2021
532 Rain 10 1006 87 10000 3.09 220 12:24 01.11.2021
533 Rain 10 1005 87 10000 1.03 0 10:23 01.11.2021
534 Clouds 9 1006 87 6000 2.06 110 08:53 01.11.2021
535 Clouds 9 1005 87 4500 1.03 0 07:47 01.11.2021
536 Clear 9 1003 85 10000 1.03 0 05:53 01.11.2021
537 Clear 9 1003 82 10000 2.06 110 03:40 01.11.2021
538 Clear 8 1004 85 10000 3.09 130 23:59 31.10.2021
539 Clear 10 1005 75 10000 3.09 110 21:31 31.10.2021
540 Clear 10 1005 71 10000 4.63 100 20:25 31.10.2021
541 Clear 12 1005 64 10000 3.6 100 18:51 31.10.2021
542 Clear 12 1006 60 10000 2.06 110 18:25 31.10.2021
543 Clear 16 1006 48 10000 3.09 120 16:48 31.10.2021
544 Clear 19 1007 44 10000 3.09 140 15:18 31.10.2021
545 Clear 18 1008 58 10000 2.57 150 13:27 31.10.2021
546 Clear 18 1010 58 10000 4.12 140 12:30 31.10.2021
547 Clear 14 1011 72 10000 3.6 140 10:51 31.10.2021
548 Clear 11 1012 78 10000 2.57 130 09:54 31.10.2021
549 Clear 9 1012 82 10000 2.57 120 08:48 31.10.2021
550 Clear 9 1012 84 10000 3.09 110 04:55 31.10.2021
551 Clear 9 1012 83 10000 2.06 160 00:47 31.10.2021
552 Clear 9 1010 84 10000 4.12 120 22:28 30.10.2021
553 Clear 8 1010 87 10000 2.06 120 21:30 30.10.2021
554 Clouds 8 1011 91 10000 3.02 174 20:19 30.10.2021
555 Rain 9 1009 83 10000 2.57 130 18:21 30.10.2021
556 Rain 11 1008 70 10000 3.09 150 15:58 30.10.2021
557 Clear 12 1007 67 10000 4.12 110 14:25 30.10.2021
558 Clear 11 1007 65 10000 3.6 130 13:38 30.10.2021
559 Clear 11 1008 69 10000 3.09 140 13:20 30.10.2021
560 Clear 7 1009 71 10000 2.06 150 11:50 30.10.2021
561 Clouds 6 1009 81 10000 3.09 110 10:58 30.10.2021
562 Clouds 5 1010 87 6000 2.06 80 09:40 30.10.2021
563 Mist 4 1011 87 4500 5.14 120 08:31 30.10.2021
564 Clouds 4 1012 88 5000 3.6 140 05:49 30.10.2021
565 Mist 4 1012 88 5000 3.09 130 04:54 30.10.2021
566 Mist 5 1014 88 5000 3.6 130 23:33 29.10.2021
567 Clouds 5 1014 88 6000 3.09 100 22:35 29.10.2021
568 Clouds 5 1014 87 6000 2.57 110 21:20 29.10.2021
569 Clouds 5 1014 88 8000 2.57 110 20:33 29.10.2021
570 Clouds 6 1013 88 8000 1.54 130 19:38 29.10.2021
571 Clouds 8 1013 84 10000 1.03 220 18:23 29.10.2021
572 Clear 9 1013 79 10000 1.54 160 16:34 29.10.2021
573 Clouds 7 1015 87 9000 2.06 140 13:34 29.10.2021
574 Mist 6 1016 87 3500 3.09 100 10:50 29.10.2021
575 Mist 4 1016 93 3500 3.09 100 10:31 29.10.2021
576 Mist 5 1016 89 4000 3.09 110 05:43 29.10.2021
577 Mist 6 1019 90 4000 3.6 130 00:35 29.10.2021
578 Mist 7 1019 88 5000 4.12 120 22:40 28.10.2021
579 Clouds 7 1019 88 7000 3.09 120 21:20 28.10.2021
580 Clouds 8 1019 86 9000 2.57 120 20:19 28.10.2021
581 Clouds 8 1020 86 10000 3.6 150 18:47 28.10.2021
582 Clouds 9 1020 84 10000 3.6 130 17:52 28.10.2021
583 Clouds 9 1020 79 10000 3.6 150 16:54 28.10.2021
584 Clouds 9 1021 81 10000 4.12 140 14:59 28.10.2021
585 Clouds 9 1021 81 10000 3.6 140 13:35 28.10.2021
586 Clouds 7 1022 93 10000 4.63 120 12:50 28.10.2021
587 Clouds 7 1022 87 6000 4.63 140 11:51 28.10.2021
588 Mist 7 1022 90 1200 3.09 130 10:47 28.10.2021
589 Fog 5 1023 100 450 3.09 100 09:37 28.10.2021
590 Fog 5 1023 88 200 3.6 90 08:37 28.10.2021
591 Fog 5 1023 88 250 2.57 130 07:41 28.10.2021
592 Fog 6 1024 89 500 2.06 120 03:51 28.10.2021
593 Fog 6 1025 91 900 3.09 120 22:57 27.10.2021
594 Fog 6 1025 93 600 2.57 100 22:29 27.10.2021
595 Clear 7 1025 91 10000 3.09 110 21:32 27.10.2021
596 Clear 7 1025 91 10000 2.06 90 20:48 27.10.2021
597 Clear 8 1025 88 10000 2.57 80 19:49 27.10.2021
598 Clear 9 1025 85 10000 2.06 10 18:56 27.10.2021
599 Clear 10 1025 85 10000 2.06 10 18:37 27.10.2021
600 Clouds 13 1026 75 10000 1.54 0 16:26 27.10.2021
601 Clouds 14 1026 75 10000 1.03 0 15:28 27.10.2021
602 Clouds 13 1027 81 10000 1.03 0 14:38 27.10.2021
603 Clouds 8 1028 89 10000 2.06 120 11:19 27.10.2021
604 Clouds 9 1027 77 10000 1.62 193 10:56 27.10.2021
605 Fog 5 1027 87 200 3.6 100 09:28 27.10.2021
606 Fog 4 1027 87 4400 2.57 100 07:47 27.10.2021
607 Fog 5 1027 90 7000 3.6 100 06:34 27.10.2021
608 Fog 6 1026 87 10000 2.57 110 01:26 27.10.2021
609 Fog 6 1026 90 10000 1.54 90 00:55 27.10.2021
610 Fog 6 1026 92 10000 2.57 120 23:56 26.10.2021
611 Fog 7 1026 90 10000 1.03 0 22:50 26.10.2021
612 Fog 7 1025 88 10000 1.54 140 22:27 26.10.2021
613 Fog 7 1025 90 10000 2.06 120 21:51 26.10.2021
614 Clouds 9 1025 85 10000 1.54 130 19:59 26.10.2021
615 Clouds 10 1024 84 10000 1.03 0 19:22 26.10.2021
616 Clouds 11 1024 79 10000 1.54 240 18:25 26.10.2021
617 Clouds 13 1023 79 10000 2.57 280 15:51 26.10.2021
618 Clouds 13 1024 78 10000 2.57 250 13:45 26.10.2021
619 Clouds 10 1024 86 10000 2.06 130 11:18 26.10.2021
620 Clouds 6 1023 86 10000 3.09 100 09:26 26.10.2021
621 Drizzle 6 1022 89 10000 3.6 100 07:22 26.10.2021
622 Clear 6 1021 93 10000 3.09 110 00:29 26.10.2021
623 Clear 6 1021 93 10000 3.09 110 00:29 26.10.2021
624 Clear 6 1021 91 10000 3.09 110 23:37 25.10.2021
625 Clear 7 1021 90 10000 3.09 110 22:34 25.10.2021
626 Clear 8 1020 90 10000 3.6 100 21:45 25.10.2021
627 Clear 8 1021 88 10000 3.6 110 20:38 25.10.2021
628 Clear 9 1020 86 10000 3.09 100 19:44 25.10.2021
629 Clear 9 1020 80 10000 2.57 100 19:23 25.10.2021
630 Clear 10 1020 78 10000 2.57 110 18:40 25.10.2021
631 Clear 13 1020 70 10000 2.57 110 17:35 25.10.2021
632 Clear 13 1021 67 10000 1.54 130 15:18 25.10.2021
633 Clear 9 1022 77 10000 2.57 120 12:33 25.10.2021
634 Clear 5 1023 84 10000 2.57 120 10:54 25.10.2021
635 Clear 2 1022 84 10000 2.06 110 08:59 25.10.2021
636 Clear 2 1023 87 10000 1.54 140 07:19 25.10.2021
637 Clear 1 1023 93 10000 2.06 120 04:35 25.10.2021
638 Clear 2 1024 89 10000 2.06 120 00:52 25.10.2021
639 Clear 2 1024 88 10000 2.57 100 00:33 25.10.2021
640 Clear 3 1024 87 10000 2.06 110 23:41 24.10.2021
641 Clear 4 1024 82 10000 2.57 90 22:38 24.10.2021
642 Clear 4 1024 83 10000 2.06 110 22:19 24.10.2021
643 Clear 5 1024 79 10000 3.09 90 21:18 24.10.2021
644 Clear 6 1025 75 10000 3.09 90 20:34 24.10.2021
645 Clear 7 1025 71 10000 3.6 100 19:39 24.10.2021
646 Clear 10 1025 57 10000 3.6 100 18:29 24.10.2021
647 Clear 12 1025 50 10000 3.09 100 17:44 24.10.2021
648 Clear 13 1026 43 10000 3.6 110 15:56 24.10.2021
649 Clear 13 1026 44 10000 3.6 110 15:56 24.10.2021
650 Clear 13 1027 51 10000 2.57 120 14:42 24.10.2021
651 Clear 10 1028 61 10000 3.6 110 12:58 24.10.2021
652 Clear 8 1028 70 10000 3.6 140 11:45 24.10.2021
653 Clear 7 1028 73 10000 3.09 110 11:25 24.10.2021
654 Clear 5 1028 82 10000 2.06 100 10:27 24.10.2021
655 Clear 0 1028 93 10000 0.51 0 07:51 24.10.2021
656 Clear 1 1030 92 10000 1.03 80 01:22 24.10.2021
657 Clear 2 1030 91 10000 2.06 100 23:48 23.10.2021
658 Clear 3 1030 90 10000 3.6 110 22:29 23.10.2021
659 Clear 4 1030 85 10000 2.57 100 20:37 23.10.2021
660 Clouds 7 1029 76 10000 1.03 0 18:59 23.10.2021
661 Clouds 8 1029 71 10000 1.54 330 18:30 23.10.2021
662 Clouds 9 1029 64 10000 1.54 330 17:43 23.10.2021
663 Clouds 11 1028 62 10000 3.6 350 16:24 23.10.2021
664 Clouds 10 1028 62 10000 3.6 320 14:35 23.10.2021
665 Clouds 6 1027 88 10000 2.06 250 09:45 23.10.2021
666 Clouds 8 1022 72 10000 6.69 250 00:22 23.10.2021
667 Clouds 8 1021 71 10000 7.72 250 23:18 22.10.2021
668 Clear 8 1020 68 10000 5.66 250 20:50 22.10.2021
669 Clouds 8 1019 65 10000 5.14 240 18:45 22.10.2021
670 Clouds 9 1019 64 10000 6.69 250 17:43 22.10.2021
671 Clouds 11 1018 50 10000 7.72 250 15:26 22.10.2021
672 Clouds 10 1018 57 10000 7.72 240 13:52 22.10.2021
673 Clouds 7 1019 83 10000 5.14 250 11:26 22.10.2021
674 Clouds 7 1018 83 10000 4.12 230 10:41 22.10.2021
675 Clouds 5 1018 87 10000 4.12 240 09:56 22.10.2021
676 Clouds 4 1017 88 10000 2.57 240 08:36 22.10.2021
677 Clouds 4 1017 90 10000 2.06 190 07:22 22.10.2021
678 Clouds 6 1015 88 10000 3.6 270 02:57 22.10.2021
679 Rain 8 1013 87 10000 4.63 290 23:55 21.10.2021
680 Rain 8 1013 87 10000 4.63 290 23:35 21.10.2021
681 Clouds 10 1011 73 10000 5.66 240 21:52 21.10.2021
682 Clear 11 1010 62 10000 3.09 180 20:40 21.10.2021
683 Clear 11 1010 63 10000 3.6 200 20:18 21.10.2021
684 Clouds 11 1010 60 10000 6.69 230 19:29 21.10.2021
685 Clouds 12 1009 61 10000 5.66 230 18:45 21.10.2021
686 Clouds 12 1010 59 10000 5.66 240 17:56 21.10.2021
687 Clouds 13 1010 59 10000 5.66 240 17:37 21.10.2021
688 Clouds 13 1010 61 10000 9.26 240 15:49 21.10.2021
689 Clouds 13 1010 61 10000 9.26 250 15:20 21.10.2021
690 Clouds 13 1010 60 10000 9.77 260 14:38 21.10.2021
691 Clouds 13 1009 66 10000 11.32 250 13:19 21.10.2021
692 -273 0 0 0 0 0 10:42 21.10.2021
693 -273 0 0 0 0 0 10:42 21.10.2021
694 Clouds 13 1004 65 10000 9.26 230 10:41 21.10.2021
695 Clouds 13 1004 65 10000 9.26 230 10:41 21.10.2021
696 Clouds 13 1001 78 10000 8.23 240 08:21 21.10.2021
697 Clouds 14 1000 86 10000 8.23 200 07:23 21.10.2021
698 Rain 13 1004 87 7000 1.54 0 03:29 21.10.2021
699 Clouds 15 1008 80 10000 2.57 20 23:25 20.10.2021
700 Clear 15 1008 77 10000 4.12 170 21:51 20.10.2021
701 Clouds 15 1008 77 10000 3.09 160 21:29 20.10.2021
702 Clear 16 1009 75 10000 3.6 180 20:49 20.10.2021
703 Clouds 16 1009 76 10000 4.12 170 20:28 20.10.2021
704 Clouds 16 1010 75 10000 4.63 160 19:40 20.10.2021
705 Clouds 17 1010 72 10000 3.6 170 18:53 20.10.2021
706 Clouds 18 1011 68 10000 3.6 170 17:41 20.10.2021
707 Clear 19 1012 61 10000 4.63 190 15:26 20.10.2021
708 Clear 11 1016 77 10000 3.6 130 10:25 20.10.2021
709 Clear 8 1016 90 10000 3.6 110 08:36 20.10.2021
710 Clear 8 1020 87 10000 3.6 100 02:58 20.10.2021
711 Clear 10 1021 86 10000 4.12 100 00:43 20.10.2021
712 Clear 10 1021 87 10000 3.6 110 23:45 19.10.2021
713 Clear 11 1022 85 10000 3.09 110 21:41 19.10.2021
714 Clear 12 1022 87 10000 2.57 120 20:48 19.10.2021
715 Clear 12 1022 87 10000 3.09 110 20:22 19.10.2021
716 Clear 12 1022 86 10000 3.09 120 19:40 19.10.2021
717 Clouds 13 1022 85 10000 3.09 130 18:52 19.10.2021
718 Clouds 13 1022 85 10000 3.09 140 17:57 19.10.2021
719 Clouds 12 1023 87 4000 3.09 160 15:38 19.10.2021
720 Clouds 12 1023 87 5000 4.12 180 15:18 19.10.2021
721 Clouds 11 1024 86 9000 3.09 150 14:23 19.10.2021
722 Rain 10 1025 84 10000 3.6 140 12:34 19.10.2021
723 Rain 9 1025 84 9000 3.6 140 11:31 19.10.2021
724 Rain 8 1025 89 8000 2.57 100 09:56 19.10.2021
725 Mist 6 1024 93 5000 3.09 100 08:57 19.10.2021
726 Fog 5 1025 89 3200 3.6 120 05:23 19.10.2021
727 Clouds 6 1026 90 9000 2.57 90 00:23 19.10.2021
728 Clear 6 1026 90 10000 2.57 100 23:49 18.10.2021
729 Clear 7 1026 88 10000 2.57 100 23:18 18.10.2021
730 Clouds 7 1026 87 10000 1.54 160 22:31 18.10.2021
731 Clouds 7 1026 87 10000 1.54 160 22:31 18.10.2021
732 Clear 8 1025 87 10000 3.09 180 20:57 18.10.2021
733 Clear 8 1025 87 10000 3.09 180 20:33 18.10.2021
734 Clear 9 1025 85 10000 3.09 190 19:50 18.10.2021
735 Clear 9 1025 82 10000 2.57 160 19:28 18.10.2021
736 Clear 10 1025 78 10000 3.09 160 18:50 18.10.2021
737 Clouds 13 1026 75 10000 2.06 0 14:59 18.10.2021
738 Clouds 11 1027 78 10000 2.06 160 12:53 18.10.2021
739 Clouds 9 1026 84 7000 3.09 130 10:26 18.10.2021
740 Clouds 8 1025 88 7000 2.06 80 09:26 18.10.2021
741 Clouds 9 1022 86 10000 2.06 90 02:28 18.10.2021
742 Clouds 9 1022 88 10000 3.6 100 23:20 17.10.2021
743 Clouds 10 1021 86 10000 3.09 100 21:46 17.10.2021
744 Clouds 10 1021 86 10000 1.54 80 20:59 17.10.2021
745 Clouds 10 1021 84 10000 1.54 80 20:31 17.10.2021
746 Clouds 10 1021 85 10000 1.54 60 19:39 17.10.2021
747 Clouds 11 1021 83 10000 1.47 30 18:54 17.10.2021
748 Clouds 12 1020 79 10000 1.54 20 17:32 17.10.2021
749 Clouds 13 1021 76 10000 1.54 340 14:58 17.10.2021
750 Clouds 13 1021 78 10000 1.54 320 14:24 17.10.2021
751 Clouds 11 1021 80 10000 1.54 340 13:34 17.10.2021
752 Clouds 7 1021 79 10000 0.51 0 11:54 17.10.2021
753 Clouds 5 1021 83 10000 1.03 0 10:23 17.10.2021
754 Clouds 4 1021 83 10000 2.06 100 09:28 17.10.2021
755 Clouds 1 1021 90 10000 2.06 120 06:58 17.10.2021
756 Clear 3 1021 92 10000 0.51 0 00:52 17.10.2021
757 Clear 3 1021 92 10000 0.51 0 00:21 17.10.2021
758 Clear 6 1021 85 10000 1.03 0 21:30 16.10.2021
759 Clear 7 1021 79 10000 2.06 20 20:31 16.10.2021
760 Clear 8 1021 79 10000 2.06 10 19:44 16.10.2021
761 Clear 9 1021 75 10000 2.06 10 19:21 16.10.2021
762 Clear 10 1020 73 10000 1.54 10 18:53 16.10.2021
763 Clear 11 1020 65 10000 2.06 10 18:29 16.10.2021
764 Clear 12 1020 61 10000 2.57 360 17:54 16.10.2021
765 Clouds 12 1020 58 10000 2.06 320 17:22 16.10.2021
766 Clouds 13 1021 57 10000 1.03 0 14:48 16.10.2021
767 Fog 8 1022 88 400 0.51 0 11:52 16.10.2021
768 Fog 7 1022 85 200 0.51 0 10:36 16.10.2021
769 Fog 4 1021 90 250 0 0 07:50 16.10.2021
770 Clouds 9 1020 88 10000 1.03 330 01:25 16.10.2021
771 Clouds 10 1020 88 10000 1.54 320 23:53 15.10.2021
772 Clouds 10 1020 89 10000 1.03 0 22:38 15.10.2021
773 Clouds 10 1020 89 10000 1.54 340 22:18 15.10.2021
774 Clouds 11 1019 86 10000 1.03 330 21:26 15.10.2021
775 Clouds 11 1019 85 10000 1.03 0 20:46 15.10.2021
776 Clouds 11 1018 83 10000 0.51 0 19:26 15.10.2021
777 Clouds 11 1018 79 10000 2.06 280 18:40 15.10.2021
778 Clouds 14 1018 68 10000 5.66 290 16:28 15.10.2021
779 Clouds 15 1018 67 10000 4.12 300 15:28 15.10.2021
780 Clear 13 1018 70 10000 2.06 230 12:41 15.10.2021
781 Clear 11 1019 77 10000 1.54 170 11:31 15.10.2021
782 Clear 10 1019 82 10000 2.06 130 10:43 15.10.2021
783 Clear 4 1018 94 10000 4.12 100 08:59 15.10.2021
784 Fog 4 1019 90 10000 2.57 100 05:31 15.10.2021
785 Fog 7 1022 90 10000 2.57 110 00:48 15.10.2021
786 Fog 7 1023 90 10000 2.06 110 00:21 15.10.2021
787 Clouds 9 1023 89 10000 2.06 150 22:51 14.10.2021
788 Clouds 9 1023 89 10000 2.06 150 22:51 14.10.2021
789 Clouds 9 1024 89 10000 1.54 160 21:44 14.10.2021
790 Clouds 9 1024 89 10000 1.03 0 20:38 14.10.2021
791 Clouds 9 1024 87 10000 1.03 0 20:18 14.10.2021
792 Clouds 9 1024 88 10000 1.54 160 19:33 14.10.2021
793 Clouds 9 1024 88 4800 2.06 220 17:30 14.10.2021
794 Clouds 10 1025 87 8000 2.57 270 16:49 14.10.2021
795 Clouds 10 1025 86 10000 2.06 250 15:35 14.10.2021
796 Drizzle 10 1025 85 10000 3.09 250 14:41 14.10.2021
797 Clouds 9 1026 86 10000 3.6 260 13:37 14.10.2021
798 Drizzle 8 1026 87 3100 3.09 230 11:44 14.10.2021
799 Clouds 7 1026 87 9000 2.57 230 09:55 14.10.2021
800 Clouds 6 1027 87 10000 1.92 242 06:55 14.10.2021
801 Clouds 6 1027 84 10000 1.86 250 00:58 14.10.2021
802 Clouds 5 1027 86 10000 2.01 252 00:22 14.10.2021
803 Clouds 5 1026 85 10000 0.51 0 21:53 13.10.2021
804 Clouds 5 1026 84 10000 0.51 0 21:32 13.10.2021
805 Clouds 7 1025 81 10000 1.54 280 19:48 13.10.2021
806 Clouds 8 1024 73 10000 2.57 300 18:49 13.10.2021
807 Clouds 8 1024 73 10000 2.57 300 18:49 13.10.2021
808 Clouds 10 1024 65 10000 3.09 280 17:49 13.10.2021
809 Clouds 11 1024 65 10000 4.12 290 15:24 13.10.2021
810 Clouds 10 1024 66 10000 2.06 340 14:44 13.10.2021
811 Clouds 9 1024 77 10000 2.57 250 12:58 13.10.2021
812 Clouds 8 1024 83 10000 1.54 0 11:59 13.10.2021
813 Clouds 7 1024 85 10000 2.06 270 10:39 13.10.2021
814 Clouds 5 1022 87 10000 2.06 280 07:58 13.10.2021
815 Clouds 5 1021 87 10000 1.54 260 06:33 13.10.2021
816 Clouds 6 1019 89 10000 3.09 310 02:24 13.10.2021
817 Clouds 7 1018 87 10000 3.09 310 00:18 13.10.2021
818 Clouds 7 1018 90 10000 2.57 320 23:29 12.10.2021
819 Clouds 7 1017 90 10000 3.09 290 22:44 12.10.2021
820 Clouds 7 1017 90 10000 1.54 270 21:30 12.10.2021
821 Rain 8 1016 88 9000 3.09 360 20:34 12.10.2021
822 Rain 8 1016 88 9000 3.6 250 19:52 12.10.2021
823 Clouds 10 1016 86 10000 4.63 260 18:27 12.10.2021
824 Rain 10 1016 86 10000 3.09 270 17:38 12.10.2021
825 Clouds 10 1016 82 10000 4.12 260 16:38 12.10.2021
826 Clouds 11 1017 79 10000 4.63 270 15:44 12.10.2021
827 Clouds 11 1017 79 10000 5.14 260 14:30 12.10.2021
828 Clouds 11 1018 78 10000 6.17 270 13:42 12.10.2021
829 Clouds 10 1020 82 10000 5.66 260 11:36 12.10.2021
830 Clouds 8 1020 88 10000 3.6 260 09:41 12.10.2021
831 Rain 8 1020 90 6000 2.57 280 08:42 12.10.2021
832 Mist 8 1021 88 5000 1.54 280 06:53 12.10.2021
833 Drizzle 8 1022 88 5000 1.03 210 05:29 12.10.2021
834 Clouds 8 1022 87 7000 1.03 200 04:31 12.10.2021
835 Mist 7 1024 90 5000 1.54 230 00:18 12.10.2021
836 Mist 8 1024 88 5000 1.03 0 23:39 11.10.2021
837 Mist 8 1024 90 4000 2.06 270 22:56 11.10.2021
838 Mist 8 1024 88 4000 1.03 0 21:43 11.10.2021
839 Clouds 9 1024 87 6000 1.54 280 20:32 11.10.2021
840 Clouds 9 1024 87 8000 2.06 290 19:38 11.10.2021
841 Clouds 10 1024 88 7000 3.6 320 18:24 11.10.2021
842 Clouds 12 1024 72 10000 4.63 330 16:49 11.10.2021
843 Clouds 12 1024 69 10000 4.63 320 16:31 11.10.2021
844 Clouds 13 1024 63 10000 4.63 300 15:45 11.10.2021
845 Clouds 14 1024 60 10000 4.12 300 14:54 11.10.2021
846 Clouds 14 1024 62 10000 1.54 320 14:22 11.10.2021
847 Clouds 13 1024 64 10000 1.54 320 13:36 11.10.2021
848 Clear 8 1026 74 10000 1.54 190 11:25 11.10.2021
849 Clear 4 1025 79 10000 2.57 100 09:47 11.10.2021
850 Clear 2 1025 80 10000 2.06 120 08:41 11.10.2021
851 Clear 1 1026 92 10000 2.06 100 03:47 11.10.2021
852 Clear 2 1026 95 10000 1.54 90 01:34 11.10.2021
853 Clear 3 1026 92 10000 3.09 100 00:43 11.10.2021
854 Clear 3 1026 89 10000 1.54 100 23:35 10.10.2021
855 Clear 5 1026 83 10000 1.03 0 21:51 10.10.2021
856 Clear 5 1026 82 10000 0.51 0 21:28 10.10.2021
857 Clear 6 1026 76 10000 0.51 0 20:41 10.10.2021
858 Clear 7 1026 72 10000 2.06 110 20:20 10.10.2021
859 Clear 7 1026 66 10000 1.03 100 19:51 10.10.2021
860 Clear 8 1026 67 10000 1.03 330 19:31 10.10.2021
861 Clear 11 1025 55 10000 1.05 323 18:24 10.10.2021
862 Clear 14 1026 46 10000 1.03 0 15:54 10.10.2021
863 Clear 14 1026 43 10000 1.03 0 15:36 10.10.2021
864 Clear 13 1027 51 10000 2.06 210 13:42 10.10.2021
865 Clear 12 1027 53 10000 1.03 0 12:44 10.10.2021
866 Clear 11 1027 58 10000 1.54 80 12:22 10.10.2021
867 Clear 6 1027 77 10000 0.51 0 10:31 10.10.2021
868 Clear 3 1027 84 10000 0.51 0 09:19 10.10.2021
869 Clear 2 1027 96 10000 0.51 0 08:51 10.10.2021
870 Clear 1 1027 88 10000 1.03 0 06:19 10.10.2021
871 Clear 3 1028 86 10000 1.03 60 02:20 10.10.2021
872 Clear 4 1028 80 10000 1.54 80 00:52 10.10.2021
873 Clear 5 1028 78 10000 1.03 0 23:46 09.10.2021
874 Clear 6 1028 75 10000 1.03 0 22:20 09.10.2021
875 Clear 8 1028 67 10000 3.6 70 21:30 09.10.2021
876 Clear 8 1028 67 10000 3.09 70 20:42 09.10.2021
877 Clear 9 1028 67 10000 2.06 70 19:41 09.10.2021
878 Clear 12 1027 59 10000 1.54 80 18:48 09.10.2021
879 Clear 13 1027 53 10000 2.06 70 18:26 09.10.2021
880 Clear 16 1027 43 10000 4.12 100 16:21 09.10.2021
881 Clear 15 1028 51 10000 4.12 60 14:37 09.10.2021
882 Clear 15 1028 58 10000 4.63 80 13:39 09.10.2021
883 Clear 13 1028 64 10000 5.66 90 12:28 09.10.2021
884 Clear 9 1028 75 10000 5.14 90 10:45 09.10.2021
885 Clear 8 1028 82 10000 4.12 70 10:19 09.10.2021
886 Clear 7 1028 84 10000 1.03 0 09:23 09.10.2021
887 Clear 5 1028 89 10000 1.54 20 08:20 09.10.2021
888 Clear 5 1027 88 10000 2.06 90 06:46 09.10.2021
889 Clear 6 1027 86 10000 3.09 70 04:55 09.10.2021
890 Clear 7 1028 84 10000 2.57 70 02:46 09.10.2021
891 Clear 8 1028 84 10000 1.03 0 00:30 09.10.2021
892 Clear 8 1028 86 10000 0.51 0 23:33 08.10.2021
893 Clear 8 1028 82 10000 2.57 60 22:46 08.10.2021
894 Clear 10 1028 81 10000 1.03 0 21:44 08.10.2021
895 Clouds 12 1028 76 10000 2.06 30 20:27 08.10.2021
896 Clouds 14 1027 63 10000 2.57 80 18:23 08.10.2021
897 Clouds 16 1027 60 10000 5.14 60 16:56 08.10.2021
898 Clouds 17 1027 60 10000 3.6 60 16:25 08.10.2021
899 Clouds 16 1028 65 10000 3.6 70 14:57 08.10.2021
900 Clouds 16 1028 71 10000 2.06 0 13:47 08.10.2021
901 Clouds 12 1028 82 10000 1.54 300 11:56 08.10.2021
902 Clouds 10 1029 84 10000 2.06 340 10:43 08.10.2021
903 Clouds 10 1029 83 10000 0.51 0 09:47 08.10.2021
904 Clouds 7 1028 91 10000 1.03 0 04:20 08.10.2021
905 Clouds 9 1028 88 10000 1.54 360 23:25 07.10.2021
906 Clouds 9 1028 87 10000 2.57 350 22:54 07.10.2021
907 Clouds 11 1028 85 10000 1.54 360 21:29 07.10.2021
908 Clear 11 1028 85 10000 1.54 360 20:41 07.10.2021
909 Clouds 12 1028 81 10000 1.03 360 19:34 07.10.2021
910 Clouds 13 1027 70 10000 1.03 0 18:41 07.10.2021
911 Clouds 14 1028 68 10000 1.03 0 17:33 07.10.2021
912 Clouds 15 1027 65 10000 1.54 0 16:42 07.10.2021
913 Clouds 14 1027 69 10000 1.03 0 14:55 07.10.2021
914 Clouds 14 1027 72 10000 2.57 280 13:43 07.10.2021
915 Clouds 13 1028 78 10000 2.57 350 12:54 07.10.2021
916 Clouds 11 1027 83 10000 1.03 0 10:59 07.10.2021
917 Clouds 11 1027 83 10000 1.03 0 10:40 07.10.2021
918 Clouds 10 1027 85 10000 1.54 320 09:43 07.10.2021
919 Clouds 9 1026 90 10000 1.03 340 08:54 07.10.2021
920 Clouds 8 1026 88 10000 1.03 0 07:58 07.10.2021
921 Clouds 8 1026 88 10000 1.03 0 07:38 07.10.2021
922 Clouds 8 1025 88 10000 0.51 0 06:38 07.10.2021
923 Clouds 9 1024 86 10000 1.54 150 00:48 07.10.2021
924 Clouds 8 1024 88 10000 1.54 120 23:18 06.10.2021
925 Clear 8 1023 88 10000 2.06 180 22:24 06.10.2021
926 Clouds 8 1023 86 10000 2.57 160 21:24 06.10.2021
927 Clouds 9 1022 83 10000 1.54 190 20:28 06.10.2021
928 Clouds 11 1021 72 10000 2.06 230 18:43 06.10.2021
929 Clouds 14 1020 66 10000 3.6 200 17:19 06.10.2021
930 Clouds 13 1020 74 10000 1.54 230 15:34 06.10.2021
931 Clouds 12 1020 79 10000 4.63 220 14:41 06.10.2021
932 Clouds 12 1020 76 10000 4.63 260 13:24 06.10.2021
933 Clouds 12 1019 78 10000 4.63 280 12:46 06.10.2021
934 Clouds 12 1019 81 10000 4.12 230 12:24 06.10.2021
935 Clouds 11 1019 85 10000 3.09 210 10:37 06.10.2021
936 Clouds 10 1018 86 10000 2.57 200 09:39 06.10.2021
937 Clouds 10 1017 87 10000 2.57 250 08:57 06.10.2021
938 Clouds 10 1017 86 10000 3.6 220 07:54 06.10.2021
939 Clouds 10 1016 87 10000 1.54 150 05:38 06.10.2021
940 Clouds 12 1014 86 10000 3.6 230 01:37 06.10.2021
941 Rain 12 1012 86 10000 2.57 170 00:20 06.10.2021
942 Clouds 12 1012 86 10000 3.6 170 23:50 05.10.2021
943 Clouds 12 1012 87 10000 3.6 170 23:29 05.10.2021
944 Clear 12 1011 87 10000 3.6 150 22:30 05.10.2021
945 Clear 12 1011 87 10000 3.6 150 21:51 05.10.2021
946 Clear 12 1011 88 10000 3.6 140 20:51 05.10.2021
947 Clouds 12 1011 88 10000 3.6 140 20:25 05.10.2021
948 Clouds 12 1011 88 10000 3.09 140 19:50 05.10.2021
949 Clouds 13 1011 89 10000 3.09 140 19:21 05.10.2021
950 Rain 14 1011 85 10000 1.54 160 17:23 05.10.2021
951 Rain 14 1010 81 10000 1.03 0 15:27 05.10.2021
952 Clouds 13 1011 85 10000 3.09 230 13:44 05.10.2021
953 Clouds 12 1011 85 10000 3.6 260 12:57 05.10.2021
954 Clouds 12 1011 85 10000 3.6 260 12:32 05.10.2021
955 Clouds 12 1011 88 9000 3.09 270 11:22 05.10.2021
956 Drizzle 11 1010 88 4500 3.6 300 10:21 05.10.2021
957 Mist 11 1011 89 4100 2.57 320 05:56 05.10.2021
958 Clouds 11 1016 88 10000 2.57 330 00:37 05.10.2021
959 Clear 11 1017 89 10000 1.03 0 22:49 04.10.2021
960 Clouds 12 1018 90 10000 1.03 10 20:45 04.10.2021
961 Clouds 13 1019 87 10000 1.03 30 18:47 04.10.2021
962 Clouds 13 1019 85 10000 0.51 0 16:44 04.10.2021
963 Rain 13 1020 85 10000 2.06 320 15:32 04.10.2021
964 Clouds 13 1020 85 10000 2.57 310 14:43 04.10.2021
965 Clouds 13 1020 88 10000 3.6 300 13:58 04.10.2021
966 Clouds 12 1020 88 9000 3.09 290 13:30 04.10.2021
967 Clouds 13 1020 88 9000 3.09 300 12:30 04.10.2021
968 Clouds 13 1019 84 10000 3.6 300 11:31 04.10.2021
969 Clouds 13 1019 84 10000 3.6 280 10:41 04.10.2021
970 Clouds 13 1018 85 10000 3.6 280 09:25 04.10.2021
971 Clouds 13 1017 84 10000 3.6 290 07:52 04.10.2021
972 Clouds 15 1016 79 10000 3.6 280 03:34 04.10.2021
973 Clouds 17 1013 70 10000 5.14 280 22:44 03.10.2021
974 Clear 18 1012 67 10000 2.57 300 21:43 03.10.2021
975 Clear 18 1012 66 10000 3.6 300 21:24 03.10.2021
976 Clear 19 1010 63 10000 3.6 300 20:25 03.10.2021
977 Clear 19 1009 69 10000 1.54 30 19:31 03.10.2021
978 Clear 20 1008 63 10000 1.54 0 18:28 03.10.2021
979 Clear 22 1008 57 10000 3.6 140 17:29 03.10.2021
980 Clear 22 1007 55 10000 5.14 130 14:49 03.10.2021
981 Clear 22 1008 54 10000 4.12 130 14:27 03.10.2021
982 Clear 21 1008 57 10000 6.17 120 13:34 03.10.2021
983 Clear 20 1008 57 10000 5.66 130 12:41 03.10.2021
984 Clear 18 1008 59 10000 5.14 130 10:52 03.10.2021
985 Clear 14 1008 73 10000 4.12 130 08:53 03.10.2021
986 Clear 14 1009 74 10000 5.14 120 03:29 03.10.2021
987 Clear 16 1010 71 10000 5.14 150 22:46 02.10.2021
988 Clear 16 1011 70 10000 6.17 130 21:30 02.10.2021
989 Clear 17 1011 68 10000 3.6 130 19:51 02.10.2021
990 Clear 19 1012 57 10000 5.14 130 18:55 02.10.2021
991 Clear 20 1012 56 10000 6.17 140 17:57 02.10.2021
992 Clear 21 1013 54 10000 6.69 130 17:26 02.10.2021
993 Clear 21 1014 48 10000 5.14 180 15:38 02.10.2021
994 Clear 5 1024 93 10000 1.54 110 06:59 01.10.2021
995 Clouds 15 1028 47 10000 3.09 240 15:37 30.09.2021
996 Clouds 14 1029 51 10000 3.09 230 13:45 30.09.2021
997 Clouds 13 1029 70 10000 3.09 230 11:37 30.09.2021
998 Clouds 11 1029 76 10000 2.57 230 10:44 30.09.2021
999 Clouds 9 1029 83 10000 3.09 220 09:41 30.09.2021
1000 Clear 6 1028 87 10000 2.57 180 08:29 30.09.2021
1001 Clear 6 1028 88 10000 2.57 160 07:33 30.09.2021
1002 Clear 7 1027 84 10000 1.54 210 04:58 30.09.2021
1003 Clouds 10 1025 81 10000 3.09 240 01:20 30.09.2021
1004 Clear 11 1024 87 10000 3.09 230 23:55 29.09.2021
1005 Clear 11 1023 81 10000 3.09 240 22:28 29.09.2021
1006 Clear 12 1023 82 10000 3.6 250 21:24 29.09.2021
1007 Clear 12 1022 78 10000 3.6 250 20:26 29.09.2021
1008 Clear 13 1022 78 10000 4.63 260 19:50 29.09.2021
1009 Rain 14 1020 77 10000 6.69 250 18:29 29.09.2021
1010 Clouds 14 1020 81 10000 4.63 270 17:34 29.09.2021
1011 Clear 18 1019 59 10000 5.14 220 16:46 29.09.2021
1012 Clear 19 1019 52 10000 5.66 220 15:49 29.09.2021
1013 Clouds 18 1019 52 10000 5.66 240 14:39 29.09.2021
1014 Clouds 18 1020 54 10000 4.63 230 13:41 29.09.2021
1015 Clouds 18 1020 58 10000 6.69 230 12:50 29.09.2021
1016 Clouds 18 1020 64 10000 3.6 250 11:54 29.09.2021
1017 Clouds 15 1020 75 10000 3.6 260 10:39 29.09.2021
1018 Clouds 14 1020 82 10000 3.09 240 09:48 29.09.2021
1019 Clouds 12 1019 84 10000 2.06 170 08:45 29.09.2021
1020 Rain 11 1018 88 10000 1.03 0 06:55 29.09.2021
1021 Clouds 11 1019 86 10000 1.03 0 03:29 29.09.2021
1022 Clear 11 1020 89 10000 1.03 0 23:23 28.09.2021
1023 Clear 12 1021 85 10000 2.57 80 22:22 28.09.2021
1024 Clear 12 1021 85 10000 2.06 70 21:33 28.09.2021
1025 Clear 13 1021 78 10000 2.06 40 20:27 28.09.2021
1026 Clear 14 1021 75 10000 1.54 30 19:42 28.09.2021
1027 Clear 15 1021 68 10000 1.54 20 18:44 28.09.2021
1028 Clouds 17 1021 60 10000 2.06 10 17:53 28.09.2021
1029 Clouds 18 1023 56 10000 2.57 350 15:21 28.09.2021
1030 Clouds 17 1024 67 10000 2.06 330 13:30 28.09.2021
1031 Clouds 16 1024 72 10000 4.63 290 12:28 28.09.2021
1032 Clouds 16 1024 74 10000 3.09 280 11:57 28.09.2021
1033 Clouds 15 1024 75 10000 3.09 280 11:39 28.09.2021
1034 Clouds 14 1024 81 10000 3.6 300 10:47 28.09.2021
1035 Clouds 13 1024 84 10000 3.6 300 09:45 28.09.2021
1036 Clouds 13 1024 84 10000 4.12 280 08:44 28.09.2021
1037 Clouds 13 1024 84 10000 3.6 280 08:25 28.09.2021
1038 Clouds 13 1023 85 10000 4.12 260 06:47 28.09.2021
1039 Clouds 14 1022 87 10000 3.6 280 04:48 28.09.2021
1040 Clouds 15 1020 87 10000 2.57 100 01:22 28.09.2021
1041 Clouds 16 1020 86 10000 2.06 100 00:20 28.09.2021
1042 Clouds 16 1020 86 10000 1.54 100 23:30 27.09.2021
1043 Clear 16 1020 89 10000 2.06 100 22:45 27.09.2021
1044 Clear 17 1020 86 10000 2.06 110 21:41 27.09.2021
1045 Clear 17 1019 83 10000 1.54 90 20:38 27.09.2021
1046 Rain 18 1019 82 10000 0.51 120 19:43 27.09.2021
1047 Rain 19 1018 79 10000 0.51 0 19:23 27.09.2021
1048 Clouds 21 1018 69 10000 1.03 0 18:27 27.09.2021
1049 Clouds 21 1018 67 10000 0.51 0 17:22 27.09.2021
1050 Clouds 22 1018 66 10000 1.54 110 16:41 27.09.2021
1051 Clouds 22 1018 65 10000 0.51 0 15:42 27.09.2021
1052 Clouds 21 1018 74 10000 1.54 360 14:32 27.09.2021
1053 Clouds 21 1018 76 10000 1.54 280 12:59 27.09.2021
1054 Clouds 18 1019 77 10000 2.06 200 10:52 27.09.2021
1055 Clouds 17 1019 83 9000 1.03 0 09:53 27.09.2021
1056 Clouds 16 1019 85 6000 1.54 190 08:38 27.09.2021
1057 Mist 16 1019 86 4500 0.51 0 05:21 27.09.2021
1058 Rain 16 1019 87 7000 1.03 0 01:48 27.09.2021
1059 Rain 18 1018 82 10000 2.06 280 22:28 26.09.2021
1060 Rain 18 1018 88 10000 3.09 140 21:45 26.09.2021
1061 Rain 19 1017 74 10000 1.54 260 20:52 26.09.2021
1062 Clouds 19 1017 77 10000 1.03 300 20:20 26.09.2021
1063 Clouds 19 1017 77 10000 1.03 300 20:20 26.09.2021
1064 Clouds 20 1017 70 10000 1.54 250 19:37 26.09.2021
1065 Clear 21 1017 69 10000 3.09 240 18:45 26.09.2021
1066 Clear 23 1017 63 10000 1.03 0 17:50 26.09.2021
1067 Clear 23 1017 72 10000 1.54 260 17:21 26.09.2021
1068 Clouds 23 1017 72 10000 1.54 280 16:28 26.09.2021
1069 Clouds 23 1017 68 10000 3.6 270 15:57 26.09.2021
1070 Clouds 25 1018 54 10000 1.54 0 14:45 26.09.2021
1071 Clouds 25 1018 58 10000 1.54 0 13:45 26.09.2021
1072 Clear 24 1018 61 10000 1.54 0 12:33 26.09.2021
1073 Clear 23 1018 64 10000 2.57 120 11:59 26.09.2021
1074 Clear 22 1018 65 10000 2.57 120 11:37 26.09.2021
1075 Clear 19 1018 72 10000 2.06 120 10:22 26.09.2021
1076 Clear 16 1018 79 10000 2.06 110 08:55 26.09.2021
1077 Clear 14 1018 84 10000 2.57 110 03:26 26.09.2021
1078 Clear 14 1017 84 10000 1.54 110 00:20 26.09.2021
1079 Clear 14 1018 81 10000 2.06 100 23:22 25.09.2021
1080 Clear 15 1018 80 10000 2.06 150 22:36 25.09.2021
1081 Clear 15 1017 77 10000 3.09 100 21:55 25.09.2021
1082 Clear 15 1017 78 10000 2.06 100 21:19 25.09.2021
1083 Clear 16 1017 76 10000 1.54 70 20:37 25.09.2021
1084 Clear 21 1017 55 10000 2.06 40 18:40 25.09.2021
1085 Clear 23 1017 53 10000 2.06 40 17:47 25.09.2021
1086 Clear 24 1017 49 10000 1.54 0 15:35 25.09.2021
1087 Clear 23 1018 55 10000 1.54 0 13:57 25.09.2021
1088 Clear 22 1019 57 10000 1.54 0 13:27 25.09.2021
1089 Clear 19 1019 71 10000 1.54 0 11:40 25.09.2021
1090 Clear 16 1019 72 10000 2.06 130 10:33 25.09.2021
1091 Clear 12 1019 78 10000 2.57 130 09:26 25.09.2021
1092 Clear 10 1018 81 10000 2.57 110 07:52 25.09.2021
1093 Clear 9 1018 89 10000 2.57 110 05:19 25.09.2021
1094 Clear 12 1018 86 10000 2.06 100 23:45 24.09.2021
1095 Clear 13 1018 86 10000 1.54 100 21:41 24.09.2021
1096 Clear 15 1018 76 10000 0.51 0 20:33 24.09.2021
1097 Clear 17 1017 69 10000 1.03 280 19:47 24.09.2021
1098 Clouds 20 1017 60 10000 3.09 260 18:32 24.09.2021
1099 Clouds 20 1017 58 10000 4.63 250 17:53 24.09.2021
1100 Clouds 20 1017 56 10000 4.63 250 17:35 24.09.2021
1101 Clouds 20 1017 57 10000 4.12 260 16:55 24.09.2021
1102 Clouds 19 1019 63 10000 4.12 240 13:57 24.09.2021
1103 Clouds 18 1019 67 10000 3.6 250 12:45 24.09.2021
1104 Clouds 18 1019 68 10000 3.6 230 12:27 24.09.2021
1105 Clouds 17 1019 71 10000 3.09 260 11:59 24.09.2021
1106 Clouds 14 1019 82 10000 2.57 240 10:25 24.09.2021
1107 Clouds 12 1018 87 10000 2.57 200 08:29 24.09.2021
1108 Clouds 12 1018 87 10000 1.54 220 07:32 24.09.2021
1109 Clouds 12 1018 87 10000 1.03 0 06:44 24.09.2021
1110 Clouds 12 1017 87 10000 2.57 220 04:53 24.09.2021
1111 Clear 16 1017 67 10000 3.6 260 22:46 23.09.2021
1112 Clear 16 1017 63 10000 3.09 240 22:20 23.09.2021
1113 Clear 16 1016 59 10000 4.12 240 21:44 23.09.2021
1114 Clear 16 1016 59 10000 3.6 230 20:33 23.09.2021
1115 Clouds 18 1017 68 10000 3.2 249 19:28 23.09.2021
1116 Clear 22 1017 40 10000 5.66 250 17:45 23.09.2021
1117 Clear 22 1019 43 10000 4.63 220 15:21 23.09.2021
1118 Clear 21 1019 46 10000 4.12 240 14:59 23.09.2021
1119 Clear 20 1020 52 10000 2.06 210 13:45 23.09.2021
1120 Clear 19 1020 55 10000 2.06 230 13:18 23.09.2021
1121 Clear 18 1021 59 10000 2.57 190 12:47 23.09.2021
1122 Clear 17 1021 59 10000 3.6 180 12:22 23.09.2021
1123 Clear 15 1022 63 10000 2.57 180 11:23 23.09.2021
1124 Clear 12 1022 76 10000 2.06 120 10:20 23.09.2021
1125 Clear 11 1022 82 10000 2.06 120 09:49 23.09.2021
1126 Clear 6 1023 100 10000 3.09 100 06:49 23.09.2021
1127 Clear 8 1026 93 10000 3.6 110 01:18 23.09.2021
1128 Clear 10 1026 93 10000 1.03 0 22:58 22.09.2021
1129 Clear 10 1026 87 10000 1.03 0 22:24 22.09.2021
1130 Clear 11 1026 87 10000 1.54 120 21:46 22.09.2021
1131 Clear 11 1026 87 10000 1.54 120 21:46 22.09.2021
1132 Clear 12 1026 87 10000 1.03 330 20:59 22.09.2021
1133 Clear 12 1026 87 10000 1.03 330 20:38 22.09.2021
1134 Clouds 16 1026 63 10000 1.54 290 19:27 22.09.2021
1135 Clouds 17 1026 59 10000 1.03 0 18:36 22.09.2021
1136 Clouds 17 1026 63 10000 0.33 340 17:39 22.09.2021
1137 Clouds 17 1026 57 10000 1.27 6 16:36 22.09.2021
1138 Clouds 17 1028 59 10000 3.09 300 14:37 22.09.2021
1139 Clouds 15 1029 67 10000 2.57 320 13:24 22.09.2021
1140 Clouds 14 1029 67 10000 1.03 0 11:34 22.09.2021
1141 Clouds 11 1029 76 10000 0.51 230 10:18 22.09.2021
1142 Clouds 7 1029 93 10000 0.51 0 08:52 22.09.2021
1143 Clouds 6 1029 93 10000 1.54 100 07:49 22.09.2021
1144 Clouds 6 1029 93 10000 1.03 0 06:56 22.09.2021
1145 Clouds 4 1029 100 10000 1.54 110 05:49 22.09.2021
1146 Clear 4 1029 100 10000 0.51 0 05:18 22.09.2021
1147 Clear 5 1029 93 10000 0.51 0 03:34 22.09.2021
1148 Clear 7 1030 93 10000 0.51 0 00:19 22.09.2021
1149 Clear 8 1030 87 10000 0.51 0 22:28 21.09.2021
1150 Clouds 9 1029 87 10000 1.54 120 21:31 21.09.2021
1151 Clouds 13 1028 64 10000 1.56 349 19:38 21.09.2021
1152 Clouds 14 1029 58 10000 1.54 20 19:20 21.09.2021
1153 Clouds 15 1028 47 10000 2.06 350 16:59 21.09.2021
1154 Clouds 15 1028 47 10000 3.09 10 16:27 21.09.2021
1155 Clouds 15 1029 47 10000 2.57 360 15:25 21.09.2021
1156 Clouds 15 1028 47 10000 1.03 0 14:49 21.09.2021
1157 Clouds 15 1028 51 10000 1.54 350 13:40 21.09.2021
1158 Clouds 15 1028 51 10000 1.54 350 13:40 21.09.2021
1159 Clouds 14 1028 58 10000 2.57 30 12:58 21.09.2021
1160 Clouds 13 1028 53 10000 1.87 43 11:19 21.09.2021
1161 Clouds 11 1027 76 10000 1.03 0 09:54 21.09.2021
1162 Clouds 9 1026 81 10000 1.54 350 07:47 21.09.2021
1163 Clouds 9 1025 87 10000 1.54 360 05:42 21.09.2021
1164 Clouds 11 1023 71 10000 1.03 0 23:58 20.09.2021
1165 Clouds 12 1023 66 10000 2.06 40 21:53 20.09.2021
1166 Clouds 12 1023 66 10000 2.06 40 21:32 20.09.2021
1167 Clouds 13 1022 67 10000 1.54 30 20:26 20.09.2021
1168 Clouds 13 1021 67 10000 1.03 40 19:20 20.09.2021
1169 Clouds 15 1020 58 10000 1.54 0 17:31 20.09.2021
1170 Clouds 15 1020 55 10000 2.06 0 16:26 20.09.2021
1171 Clouds 15 1020 55 10000 2.06 340 15:47 20.09.2021
1172 Clouds 15 1020 55 10000 1.54 0 14:50 20.09.2021
1173 Clouds 15 1020 55 10000 1.54 0 13:36 20.09.2021
1174 Clouds 13 1020 62 10000 2.06 80 12:34 20.09.2021
1175 Clouds 11 1020 76 10000 2.57 50 10:57 20.09.2021
1176 Clouds 11 1019 82 10000 1.03 0 09:52 20.09.2021
1177 Clouds 11 1019 82 10000 1.03 0 09:33 20.09.2021
1178 Clouds 10 1019 81 10000 1.03 0 08:55 20.09.2021
1179 Clouds 10 1018 81 10000 2.06 20 06:34 20.09.2021
1180 Clouds 12 1017 82 10000 2.06 360 23:30 19.09.2021
1181 Clouds 12 1016 82 10000 1.54 350 21:53 19.09.2021
1182 Clouds 12 1016 82 10000 1.54 350 21:21 19.09.2021
1183 Clouds 13 1015 76 10000 3.09 20 20:32 19.09.2021
1184 Clouds 15 1014 77 10000 3.09 30 18:54 19.09.2021
1185 Clouds 16 1014 67 10000 4.12 40 17:57 19.09.2021
1186 Clouds 16 1014 67 10000 3.6 30 17:21 19.09.2021
1187 Clouds 16 1014 67 10000 3.6 20 15:44 19.09.2021
1188 Clouds 17 1014 67 10000 3.09 40 14:49 19.09.2021
1189 Clouds 17 1014 67 10000 3.09 20 14:24 19.09.2021
1190 Clouds 16 1015 72 10000 3.09 40 12:56 19.09.2021
1191 Clouds 15 1015 77 10000 3.6 50 12:30 19.09.2021
1192 Clouds 14 1015 82 10000 3.6 70 11:25 19.09.2021
1193 Clouds 11 1015 87 10000 0.51 0 09:52 19.09.2021
1194 Fog 10 1015 93 10000 1.03 0 09:26 19.09.2021
1195 Clouds 7 1014 100 10000 1.03 340 06:49 19.09.2021
1196 Clear 9 1016 93 10000 0.51 0 01:38 19.09.2021
1197 Clear 11 1016 93 10000 1.03 50 23:25 18.09.2021
1198 Clear 13 1016 82 10000 2.06 30 21:58 18.09.2021
1199 Clear 14 1016 77 10000 1.54 50 20:48 18.09.2021
1200 Clear 16 1015 72 10000 2.57 30 19:58 18.09.2021
1201 Clear 16 1015 72 10000 2.57 30 19:37 18.09.2021
1202 Clouds 18 1015 63 10000 2.57 360 19:19 18.09.2021
1203 Clouds 19 1016 55 10000 3.6 350 18:30 18.09.2021
1204 Clouds 19 1016 55 10000 4.63 340 16:35 18.09.2021
1205 Clouds 19 1016 59 10000 4.12 330 14:32 18.09.2021
1206 Clouds 18 1017 68 10000 3.6 310 13:45 18.09.2021
1207 Clouds 18 1017 68 10000 4.63 310 13:21 18.09.2021
1208 Clouds 18 1017 68 10000 3.6 310 12:18 18.09.2021
1209 Clouds 17 1017 82 10000 1.54 0 11:30 18.09.2021
1210 Clear 15 1017 82 10000 0.51 0 10:31 18.09.2021
1211 Clear 11 1016 100 10000 0.51 0 09:24 18.09.2021
1212 Fog 9 1016 100 10000 1.03 0 08:28 18.09.2021
1213 Clouds 12 1016 88 10000 0.84 212 00:53 18.09.2021
1214 Clouds 14 1016 87 10000 0.68 209 23:56 17.09.2021
1215 Clouds 14 1016 86 10000 0.44 210 22:54 17.09.2021
1216 Clouds 14 1016 84 10000 0.25 218 22:25 17.09.2021
1217 Clear 14 1016 88 10000 2.06 100 21:33 17.09.2021
1218 Clouds 16 1015 77 10000 0.51 50 19:52 17.09.2021
1219 Clouds 17 1015 72 10000 1.54 280 18:42 17.09.2021
1220 Clouds 19 1016 59 10000 2.06 20 16:42 17.09.2021
1221 Clouds 18 1016 59 10000 2.06 310 15:21 17.09.2021
1222 Clouds 15 1017 82 10000 1.03 0 11:53 17.09.2021
1223 Clouds 13 1017 94 10000 1.03 0 10:23 17.09.2021
1224 Fog 10 1017 100 10000 0.51 0 07:48 17.09.2021
1225 Clear 11 1017 100 10000 1.54 130 05:45 17.09.2021
1226 Clear 10 1017 100 10000 0.51 250 00:32 17.09.2021
1227 Clear 13 1017 88 10000 1.03 300 22:42 16.09.2021
1228 Clear 13 1017 88 10000 1.03 300 22:23 16.09.2021
1229 Clear 13 1017 88 10000 2.06 290 21:35 16.09.2021
1230 Clouds 16 1016 77 10000 3.6 300 20:30 16.09.2021
1231 Clouds 17 1016 77 10000 3.09 280 18:52 16.09.2021
1232 Clouds 17 1016 77 10000 3.6 300 18:18 16.09.2021
1233 Clouds 17 1015 82 10000 5.14 300 16:37 16.09.2021
1234 Rain 17 1016 88 10000 3.6 290 14:49 16.09.2021
1235 Drizzle 17 1016 88 8000 3.6 310 13:34 16.09.2021
1236 Drizzle 17 1016 94 8000 4.12 310 12:45 16.09.2021
1237 Clouds 16 1015 94 10000 6.17 310 11:49 16.09.2021
1238 Clouds 17 1015 100 2500 2.06 210 10:54 16.09.2021
1239 Rain 17 1015 94 10000 1.54 190 10:21 16.09.2021
1240 Clouds 18 1015 88 10000 2.57 210 09:18 16.09.2021
1241 Clouds 17 1014 94 10000 2.57 190 07:48 16.09.2021
1242 Clouds 18 1014 88 10000 1.54 200 06:56 16.09.2021
1243 Rain 18 1014 88 10000 1.54 200 06:37 16.09.2021
1244 Clouds 18 1014 82 10000 1.54 200 03:22 16.09.2021
1245 Clouds 19 1014 77 10000 1.54 210 00:46 16.09.2021
1246 Clouds 19 1014 82 10000 1.54 180 23:24 15.09.2021
1247 Clouds 20 1014 77 10000 2.06 210 22:26 15.09.2021
1248 Clouds 20 1014 77 10000 3.09 200 21:30 15.09.2021
1249 Clouds 20 1013 77 10000 3.6 180 20:26 15.09.2021
1250 Clouds 21 1013 73 10000 3.09 180 19:31 15.09.2021
1251 Clouds 21 1013 73 10000 3.09 190 18:37 15.09.2021
1252 Clouds 22 1013 73 10000 3.09 190 17:33 15.09.2021
1253 Clouds 22 1014 68 10000 3.09 190 16:28 15.09.2021
1254 Rain 21 1015 83 10000 2.57 170 14:53 15.09.2021
1255 Rain 21 1015 83 10000 2.57 170 14:33 15.09.2021
1256 Rain 21 1015 83 10000 2.57 180 13:42 15.09.2021
1257 Rain 21 1015 83 10000 1.03 0 13:23 15.09.2021
1258 Clouds 20 1015 83 10000 2.06 260 12:23 15.09.2021
1259 Rain 20 1015 78 10000 1.03 0 11:49 15.09.2021
1260 Rain 20 1015 77 10000 2.57 170 10:56 15.09.2021
1261 Rain 19 1014 82 10000 3.09 130 09:44 15.09.2021
1262 Rain 18 1014 82 10000 3.09 130 08:41 15.09.2021
1263 Clear 18 1014 77 10000 2.06 90 05:55 15.09.2021
1264 Clear 19 1016 77 10000 2.06 110 00:37 15.09.2021
1265 Clear 20 1015 77 10000 4.12 100 21:59 14.09.2021
1266 Clear 21 1015 73 10000 3.09 100 20:56 14.09.2021
1267 Clear 23 1015 60 10000 2.06 120 19:54 14.09.2021
1268 Clear 26 1015 50 10000 2.57 170 18:24 14.09.2021
1269 Clear 27 1015 47 10000 2.57 200 17:28 14.09.2021
1270 Clouds 26 1016 50 10000 4.12 160 15:58 14.09.2021
1271 Clouds 27 1016 47 10000 5.66 140 14:32 14.09.2021
1272 Clouds 26 1016 53 10000 5.14 140 13:20 14.09.2021
1273 Clear 21 1017 68 10000 4.63 130 10:55 14.09.2021
1274 Clear 18 1017 77 10000 3.6 110 09:51 14.09.2021
1275 Clear 15 1017 88 10000 3.09 110 08:49 14.09.2021
1276 Clear 13 1017 94 10000 1.54 120 07:25 14.09.2021
1277 Clear 14 1018 94 10000 0.51 0 00:53 14.09.2021
1278 Clear 16 1018 82 10000 2.06 90 22:58 13.09.2021
1279 Clear 16 1018 82 10000 1.54 100 22:24 13.09.2021
1280 Clear 16 1018 82 10000 3.09 100 21:53 13.09.2021
1281 Clear 19 1017 72 10000 2.57 50 20:51 13.09.2021
1282 Clear 21 1017 64 10000 1.54 20 19:29 13.09.2021
1283 Clouds 22 1017 60 10000 1.54 50 18:43 13.09.2021
1284 Clouds 24 1018 50 10000 1.54 0 16:58 13.09.2021
1285 Clouds 24 1018 50 10000 3.09 360 15:39 13.09.2021
1286 Clouds 22 1019 53 10000 2.06 0 13:32 13.09.2021
1287 Clouds 20 1019 68 10000 0.51 0 11:20 13.09.2021
1288 Clear 15 1019 82 10000 1.03 0 09:42 13.09.2021
1289 Clear 10 1018 100 10000 2.57 100 07:28 13.09.2021
1290 Clouds 13 1018 94 10000 0.51 0 23:44 12.09.2021
1291 Clear 14 1018 88 10000 1.03 90 22:26 12.09.2021
1292 Clear 15 1018 82 10000 0.51 0 21:37 12.09.2021
1293 Clear 18 1017 72 10000 1.03 350 20:34 12.09.2021
1294 Clear 20 1017 64 10000 2.57 310 19:54 12.09.2021
1295 Clouds 21 1017 56 10000 3.09 310 19:28 12.09.2021
1296 Clouds 22 1017 53 10000 2.06 280 18:29 12.09.2021
1297 Clouds 23 1018 49 10000 3.09 300 16:33 12.09.2021
1298 Clouds 22 1018 60 10000 2.57 180 14:59 12.09.2021
1299 Clouds 20 1019 68 10000 2.06 250 13:49 12.09.2021
1300 Clouds 17 1020 88 10000 1.54 270 11:31 12.09.2021
1301 Clouds 16 1019 94 7000 1.54 280 09:35 12.09.2021
1302 Clouds 16 1019 94 10000 2.06 280 08:38 12.09.2021
1303 Clouds 17 1019 88 10000 1.03 0 02:39 12.09.2021
1304 Clouds 17 1019 94 10000 1.03 0 23:38 11.09.2021
1305 Clouds 18 1019 88 10000 1.54 120 21:56 11.09.2021
1306 Clouds 19 1018 82 10000 2.06 100 20:59 11.09.2021
1307 Clouds 22 1018 68 10000 1.54 180 19:25 11.09.2021
1308 Clouds 23 1018 64 10000 1.54 0 17:38 11.09.2021
1309 Clouds 22 1018 64 10000 2.57 290 15:51 11.09.2021
1310 Clouds 21 1019 73 10000 2.06 230 13:49 11.09.2021
1311 Clouds 20 1019 77 10000 3.09 230 12:50 11.09.2021
1312 Clouds 19 1019 82 10000 2.57 210 11:19 11.09.2021
1313 Clouds 19 1019 82 10000 2.57 210 09:38 11.09.2021
1314 Rain 18 1018 82 10000 1.54 200 07:45 11.09.2021
1315 Clouds 18 1018 82 10000 1.54 220 06:50 11.09.2021
1316 Clear 19 1017 82 10000 1.03 0 23:37 10.09.2021
1317 Clear 19 1017 82 10000 1.03 220 22:25 10.09.2021
1318 Clear 19 1017 82 10000 1.03 0 21:54 10.09.2021
1319 Rain 20 1016 77 10000 1.03 0 20:24 10.09.2021
1320 Clouds 25 1015 50 10000 2.57 250 18:27 10.09.2021
1321 Clouds 26 1015 47 10000 2.57 230 16:51 10.09.2021
1322 Clouds 26 1016 50 10000 3.6 240 14:41 10.09.2021
1323 Clear 23 1017 56 10000 2.06 240 11:56 10.09.2021
1324 Clear 17 1016 88 10000 1.54 100 08:36 10.09.2021
1325 Clear 14 1016 100 10000 3.09 110 07:49 10.09.2021
1326 Clear 18 1015 88 10000 2.06 110 00:42 10.09.2021
1327 Clouds 19 1015 88 10000 0.51 0 22:31 09.09.2021
1328 Clouds 19 1014 88 10000 1.03 0 21:45 09.09.2021
1329 Clouds 19 1014 88 10000 1.03 0 21:45 09.09.2021
1330 Clouds 19 1014 94 10000 1.54 340 20:46 09.09.2021
1331 Clouds 22 1013 68 9000 10.29 240 19:33 09.09.2021
1332 Clear 26 1013 50 10000 3.6 200 18:26 09.09.2021
1333 Clear 27 1013 47 10000 2.57 170 16:40 09.09.2021
1334 Clouds 27 1014 50 10000 2.57 210 15:27 09.09.2021
1335 Clear 25 1014 53 10000 1.54 0 12:48 09.09.2021
1336 Clear 22 1014 60 10000 3.6 130 11:33 09.09.2021
1337 Clear 17 1014 67 10000 4.12 120 09:50 09.09.2021
1338 Clear 13 1014 88 10000 2.06 110 08:32 09.09.2021
1339 Clear 12 1014 94 10000 2.57 110 06:24 09.09.2021
1340 Clear 13 1015 94 10000 1.54 100 02:18 09.09.2021
1341 Clear 17 1015 72 10000 1.54 90 22:39 08.09.2021
1342 Clear 18 1015 68 10000 1.54 80 21:22 08.09.2021
1343 Clear 22 1015 53 10000 2.06 100 19:56 08.09.2021
1344 Clear 25 1015 44 10000 3.09 90 18:50 08.09.2021
1345 Clear 25 1016 41 10000 3.6 100 18:27 08.09.2021
1346 Clear 25 1016 41 10000 4.12 90 17:55 08.09.2021
1347 Clear 25 1017 41 10000 4.12 120 16:28 08.09.2021
1348 Clear 24 1018 46 10000 3.6 0 13:56 08.09.2021
1349 Clear 23 1019 56 10000 2.06 80 12:42 08.09.2021
1350 Clear 22 1019 60 10000 1.54 0 12:24 08.09.2021
1351 Clear 20 1020 64 10000 2.06 90 11:29 08.09.2021
1352 Clear 20 1020 64 10000 2.06 120 10:32 08.09.2021
1353 Clear 17 1020 77 10000 2.57 100 09:58 08.09.2021
1354 Fog 11 1020 93 8000 0.51 0 07:55 08.09.2021
1355 Fog 11 1020 93 8000 0.51 0 07:32 08.09.2021
1356 Clear 12 1021 94 10000 1.03 0 03:41 08.09.2021
1357 Clear 17 1022 77 10000 1.54 90 22:35 07.09.2021
1358 Clear 17 1022 77 10000 2.06 80 21:46 07.09.2021
1359 Clear 21 1022 64 10000 2.06 50 19:47 07.09.2021
1360 Clear 22 1022 56 10000 2.06 10 18:39 07.09.2021
1361 Clear 24 1022 50 10000 2.06 20 17:43 07.09.2021
1362 Clear 26 1023 41 10000 1.54 0 15:57 07.09.2021
1363 Clear 25 1023 41 10000 1.54 180 15:33 07.09.2021
1364 Clouds 24 1024 46 10000 1.54 280 13:54 07.09.2021
1365 Clear 22 1024 56 10000 1.54 310 12:28 07.09.2021
1366 Clear 20 1025 60 10000 1.03 0 11:26 07.09.2021
1367 Clear 18 1025 68 10000 1.03 0 10:40 07.09.2021
1368 Clear 12 1024 94 10000 3.09 100 08:18 07.09.2021
1369 Clear 12 1024 94 10000 2.57 90 06:43 07.09.2021
1370 Clear 13 1024 100 10000 2.57 110 02:43 07.09.2021
1371 Clear 13 1024 94 10000 0.51 0 02:25 07.09.2021
1372 Clear 15 1024 88 10000 3.09 100 00:23 07.09.2021
1373 Clear 15 1024 88 10000 2.06 110 23:31 06.09.2021
1374 Clear 16 1024 88 10000 2.57 90 22:53 06.09.2021
1375 Clear 17 1024 82 10000 3.09 100 22:25 06.09.2021
1376 Clear 20 1023 64 10000 1.03 20 20:37 06.09.2021
1377 Clear 23 1023 56 10000 0.51 0 19:22 06.09.2021
1378 Clear 25 1023 44 10000 1.54 300 18:36 06.09.2021
1379 Clear 26 1024 36 10000 1.54 290 17:58 06.09.2021
1380 Clear 26 1024 36 10000 1.54 240 16:35 06.09.2021
1381 Clear 25 1024 41 10000 1.03 0 15:34 06.09.2021
1382 Clear 24 1024 46 10000 1.54 0 13:45 06.09.2021
1383 Clouds 23 1025 49 10000 1.54 0 12:45 06.09.2021
1384 Clear 20 1025 64 10000 2.57 120 10:37 06.09.2021
1385 Clear 11 1024 93 10000 1.03 110 07:54 06.09.2021
1386 Fog 11 1023 100 10000 2.57 100 04:38 06.09.2021
1387 Clear 15 1022 94 10000 1.03 0 23:24 05.09.2021
1388 Clear 16 1022 88 10000 1.03 0 22:33 05.09.2021
1389 Clear 16 1022 88 10000 0.51 0 21:56 05.09.2021
1390 Clear 17 1021 82 10000 1.03 0 21:21 05.09.2021
1391 Clear 22 1021 64 10000 1.03 40 19:47 05.09.2021
1392 Clear 25 1021 47 10000 1.03 0 17:53 05.09.2021
1393 Clear 26 1021 38 10000 2.06 0 16:53 05.09.2021
1394 Clear 25 1021 44 10000 2.06 0 15:21 05.09.2021
1395 Clouds 23 1021 53 10000 1.03 0 12:45 05.09.2021
1396 Clear 21 1021 64 10000 1.54 0 11:44 05.09.2021
1397 Clear 19 1021 68 10000 1.54 110 10:42 05.09.2021
1398 Clear 15 1021 82 10000 2.06 140 09:35 05.09.2021
1399 Clear 12 1020 100 10000 0.51 0 08:34 05.09.2021
1400 Clear 10 1019 93 10000 1.03 70 06:33 05.09.2021
1401 Clear 13 1018 94 10000 1.03 0 00:41 05.09.2021
1402 Clear 15 1018 94 10000 1.54 80 23:56 04.09.2021
1403 Clear 15 1018 88 10000 1.54 40 23:25 04.09.2021
1404 Clear 15 1018 88 10000 1.03 0 22:35 04.09.2021
1405 Clear 17 1017 82 10000 0 0 21:18 04.09.2021
1406 Clear 22 1016 56 10000 1.54 60 19:33 04.09.2021
1407 Clear 25 1017 41 10000 2.06 120 17:25 04.09.2021
1408 Clear 24 1018 43 10000 2.06 0 14:37 04.09.2021
1409 Clear 21 1018 60 10000 1.54 0 11:37 04.09.2021
1410 Clear 19 1018 68 10000 1.03 0 10:38 04.09.2021
1411 Clear 11 1018 100 10000 0.51 0 08:18 04.09.2021
1412 Clear 12 1019 94 10000 1.03 0 00:50 04.09.2021
1413 Clear 12 1019 94 10000 1.03 0 00:50 04.09.2021
1414 Clear 13 1019 88 10000 1.54 90 00:19 04.09.2021
1415 Clear 14 1019 88 10000 0.51 0 23:21 03.09.2021
1416 Clear 15 1018 94 10000 0.51 340 21:43 03.09.2021
1417 Clear 18 1018 72 10000 1.54 40 20:58 03.09.2021
1418 Clear 19 1018 72 10000 1.54 50 20:28 03.09.2021
1419 Clear 22 1018 53 10000 1.54 40 19:35 03.09.2021
1420 Clear 24 1018 43 10000 2.06 30 18:27 03.09.2021
1421 Clear 24 1019 43 10000 2.06 360 16:50 03.09.2021
1422 Clear 24 1020 43 10000 1.54 0 15:39 03.09.2021
1423 Clouds 23 1021 46 10000 2.06 0 14:28 03.09.2021
1424 Clouds 23 1021 46 10000 2.06 0 14:28 03.09.2021
1425 Clear 19 1022 68 10000 1.03 0 11:21 03.09.2021
1426 Clear 15 1022 77 10000 0.51 0 09:21 03.09.2021
1427 Clear 10 1022 100 10000 1.03 0 08:18 03.09.2021
1428 Clear 9 1022 100 10000 0.51 240 06:49 03.09.2021
1429 Clear 14 1024 82 10000 1.54 100 23:56 02.09.2021
1430 Clear 15 1024 77 10000 1.54 90 22:21 02.09.2021
1431 Clear 17 1024 72 10000 2.06 50 20:46 02.09.2021
1432 Clear 23 1025 46 10000 3.6 80 18:27 02.09.2021
1433 Clear 23 1025 46 10000 3.6 90 16:39 02.09.2021
1434 Clouds 22 1026 49 10000 4.12 60 15:30 02.09.2021
1435 Clouds 21 1026 52 10000 2.06 0 13:33 02.09.2021
1436 Clouds 19 1027 68 10000 2.57 110 11:43 02.09.2021
1437 Clouds 17 1027 72 10000 2.57 60 10:53 02.09.2021
1438 Clear 10 1027 93 10000 1.54 330 08:57 02.09.2021
1439 Fog 8 1026 100 10000 0.51 0 07:23 02.09.2021
1440 Fog 8 1026 100 10000 0.51 0 07:22 02.09.2021
1441 Clear 8 1026 100 10000 1.03 10 05:32 02.09.2021
1442 Clear 9 1027 100 10000 1.54 350 02:37 02.09.2021
1443 Clear 9 1027 100 10000 0.51 0 01:49 02.09.2021
1444 Clear 12 1027 93 10000 0.51 0 23:41 01.09.2021
1445 Clear 12 1026 94 10000 1.54 150 22:44 01.09.2021
1446 Clear 13 1026 94 10000 1.54 20 21:58 01.09.2021
1447 Clouds 14 1026 88 10000 2.06 20 21:29 01.09.2021
1448 Clouds 18 1025 68 10000 1.54 360 19:33 01.09.2021
1449 Clouds 21 1026 49 10000 3.09 350 17:51 01.09.2021
1450 Clouds 21 1026 49 10000 2.57 360 16:58 01.09.2021
1451 Clouds 20 1026 56 10000 4.12 360 16:35 01.09.2021
1452 Clouds 19 1027 59 10000 3.6 0 13:57 01.09.2021
1453 Clouds 16 1027 82 10000 1.03 0 11:47 01.09.2021
1454 Clouds 16 1027 82 10000 1.03 0 11:47 01.09.2021
1455 Fog 12 1027 100 400 0.51 0 09:41 01.09.2021
1456 Fog 9 1026 100 300 0.51 0 07:58 01.09.2021
1457 Fog 9 1026 100 6000 0.51 0 06:42 01.09.2021
1458 Clouds 12 1024 93 10000 0.51 320 23:29 31.08.2021
1459 Clouds 13 1023 96 10000 0.51 0 21:45 31.08.2021
1460 Clouds 16 1022 86 10000 0.51 0 19:49 31.08.2021
1461 Clouds 17 1022 82 10000 3.6 340 18:56 31.08.2021
1462 Clouds 18 1022 74 10000 2.57 290 17:39 31.08.2021
1463 Clouds 18 1022 73 10000 4.63 320 17:21 31.08.2021
1464 Clouds 18 1022 69 10000 4.63 320 16:24 31.08.2021
1465 Clouds 18 1022 72 10000 4.12 340 14:28 31.08.2021
1466 Clouds 16 1021 81 10000 3.6 350 11:41 31.08.2021
1467 Clouds 15 1021 83 10000 3.6 340 11:18 31.08.2021
1468 Clouds 15 1021 90 10000 3.6 340 10:22 31.08.2021
1469 Clouds 14 1021 94 10000 3.6 330 09:40 31.08.2021
1470 Clouds 14 1020 94 10000 2.96 324 07:39 31.08.2021
1471 Clouds 14 1019 94 10000 2.06 320 05:55 31.08.2021
1472 Clouds 14 1018 97 10000 3.09 310 23:36 30.08.2021
1473 Clouds 15 1017 93 10000 2.57 310 21:53 30.08.2021
1474 Rain 15 1017 93 10000 2.57 310 21:35 30.08.2021
1475 Rain 15 1017 93 10000 3.6 310 20:32 30.08.2021
1476 Clouds 16 1016 88 10000 3.09 320 19:30 30.08.2021
1477 Clouds 16 1016 86 10000 3.6 310 18:57 30.08.2021
1478 Clouds 19 1015 71 10000 1.54 300 17:48 30.08.2021
1479 Clouds 18 1015 76 10000 2.06 310 16:25 30.08.2021
1480 Clouds 19 1015 69 10000 2.06 0 15:39 30.08.2021
1481 Clouds 17 1015 81 10000 2.06 360 13:46 30.08.2021
1482 Clouds 16 1015 88 10000 2.57 330 12:40 30.08.2021
1483 Rain 15 1014 91 10000 3.09 330 10:34 30.08.2021
1484 Rain 14 1013 97 10000 2.57 300 02:37 30.08.2021
1485 Clouds 14 1014 97 10000 2.06 230 21:33 29.08.2021
1486 Clouds 14 1014 97 8000 2.06 160 20:27 29.08.2021
1487 Drizzle 14 1014 96 9000 2.06 100 19:20 29.08.2021
1488 Drizzle 14 1015 88 3500 1.54 270 17:58 29.08.2021
1489 Clouds 16 1015 82 10000 3.6 250 15:49 29.08.2021
1490 Drizzle 16 1015 80 10000 4.12 250 14:21 29.08.2021
1491 Rain 16 1015 78 10000 3.09 270 13:44 29.08.2021
1492 Clouds 16 1016 78 10000 2.06 290 12:40 29.08.2021
1493 Clouds 16 1016 81 10000 3.09 270 11:50 29.08.2021
1494 Clouds 15 1016 84 10000 1.54 0 11:23 29.08.2021
1495 Clouds 14 1016 91 10000 1.03 0 10:43 29.08.2021
1496 Clouds 14 1016 91 10000 1.03 0 10:24 29.08.2021
1497 Clouds 12 1016 94 10000 1.54 100 08:24 29.08.2021
1498 Clear 11 1017 93 10000 1.03 260 00:37 29.08.2021
1499 Clear 12 1018 92 10000 1.03 0 21:54 28.08.2021
1500 Clouds 13 1017 87 10000 0.51 0 20:28 28.08.2021
1501 Clouds 15 1017 84 10000 2.06 100 18:43 28.08.2021
1502 Clouds 15 1017 84 10000 1.54 70 18:19 28.08.2021
1503 Clouds 13 1017 89 10000 1.54 0 17:18 28.08.2021
1504 Clouds 18 1016 71 10000 5.14 290 15:46 28.08.2021
1505 Clouds 14 1017 89 10000 3.09 310 14:26 28.08.2021
1506 Rain 14 1016 81 10000 7.2 310 13:45 28.08.2021
1507 Rain 16 1016 80 10000 3.6 290 12:44 28.08.2021
1508 Clouds 16 1016 78 10000 2.57 290 11:54 28.08.2021
1509 Clouds 13 1016 90 10000 2.57 320 10:41 28.08.2021
1510 Clouds 12 1016 97 10000 3.09 300 08:40 28.08.2021
1511 Clouds 12 1016 94 10000 2.57 330 07:24 28.08.2021
1512 Rain 13 1015 94 7000 3.09 240 22:30 27.08.2021
1513 Rain 14 1015 90 10000 3.6 270 20:59 27.08.2021
1514 Clouds 14 1015 89 10000 3.6 260 20:30 27.08.2021
1515 Clouds 14 1014 88 10000 4.12 300 18:57 27.08.2021
1516 Rain 15 1014 84 10000 3.6 260 18:37 27.08.2021
1517 Clouds 16 1014 73 10000 6.69 260 16:56 27.08.2021
1518 Clouds 15 1015 79 10000 5.14 280 15:36 27.08.2021
1519 Clouds 15 1015 78 10000 5.66 250 14:43 27.08.2021
1520 Clouds 15 1015 84 10000 5.66 280 12:30 27.08.2021
1521 Clouds 14 1015 91 10000 4.12 280 11:25 27.08.2021
1522 Clouds 13 1015 91 10000 3.6 280 10:43 27.08.2021
1523 Clouds 12 1014 94 10000 3.09 280 09:30 27.08.2021
1524 Clouds 12 1014 94 10000 2.06 270 08:44 27.08.2021
1525 Clouds 11 1014 97 10000 2.57 280 05:54 27.08.2021
1526 Clouds 12 1013 94 10000 2.57 260 02:48 27.08.2021
1527 Clouds 12 1013 97 10000 2.06 250 00:32 27.08.2021
1528 Rain 13 1013 93 10000 2.57 290 22:29 26.08.2021
1529 Rain 13 1013 90 10000 2.06 300 21:57 26.08.2021
1530 Rain 14 1012 89 10000 2.06 50 20:18 26.08.2021
1531 Clear 18 1011 66 10000 5.66 300 18:49 26.08.2021
1532 Clear 20 1011 54 10000 5.14 290 17:34 26.08.2021
1533 Clouds 19 1011 53 10000 4.12 280 16:32 26.08.2021
1534 Clouds 19 1011 54 10000 4.63 290 15:53 26.08.2021
1535 Clouds 18 1012 63 10000 4.12 310 13:29 26.08.2021
1536 Clouds 17 1012 72 10000 4.63 310 12:49 26.08.2021
1537 Clouds 16 1012 76 10000 5.66 310 11:51 26.08.2021
1538 Clouds 14 1012 94 10000 4.12 290 09:40 26.08.2021
1539 Mist 13 1012 97 4000 3.09 270 08:33 26.08.2021
1540 Clear 14 1015 81 10000 2.57 240 01:30 26.08.2021
1541 Clear 14 1016 84 10000 0.51 0 22:47 25.08.2021
1542 Clear 16 1016 77 10000 1.54 260 22:28 25.08.2021
1543 Clear 18 1017 72 10000 1.54 300 20:58 25.08.2021
1544 Clear 19 1017 55 10000 2.57 300 20:31 25.08.2021
1545 Clear 19 1017 55 10000 3.09 300 19:55 25.08.2021
1546 Clouds 20 1018 53 10000 2.06 310 18:18 25.08.2021
1547 Clouds 22 1019 46 10000 1.03 0 16:31 25.08.2021
1548 Clouds 21 1019 49 10000 1.54 0 15:41 25.08.2021
1549 Clouds 20 1020 50 10000 2.57 40 14:47 25.08.2021
1550 Clouds 19 1021 54 10000 2.06 360 13:58 25.08.2021
1551 Clouds 19 1022 54 10000 1.54 0 12:40 25.08.2021
1552 Clouds 18 1022 64 10000 1.03 0 11:25 25.08.2021
1553 Clouds 16 1023 75 10000 0.51 0 10:26 25.08.2021
1554 Clear 14 1023 82 10000 0.51 0 09:42 25.08.2021
1555 Clear 12 1023 93 10000 1.03 0 08:39 25.08.2021
1556 Fog 8 1023 97 10000 0 0 07:32 25.08.2021
1557 Clear 11 1025 92 10000 2.57 30 01:26 25.08.2021
1558 Clear 12 1025 94 10000 0.51 10 23:40 24.08.2021
1559 Clear 14 1025 83 10000 2.06 40 21:41 24.08.2021
1560 Clouds 16 1025 79 10000 3.6 20 20:23 24.08.2021
1561 Clouds 17 1025 75 10000 3.6 20 19:44 24.08.2021
1562 Clouds 18 1025 71 10000 4.12 20 17:55 24.08.2021
1563 Clouds 19 1025 68 10000 5.14 360 17:22 24.08.2021
1564 Clouds 19 1025 68 10000 5.14 10 16:24 24.08.2021
1565 Clouds 18 1025 71 10000 4.12 40 13:55 24.08.2021
1566 Clouds 17 1024 72 10000 3.09 0 12:45 24.08.2021
1567 Clouds 15 1024 84 10000 3.6 350 11:24 24.08.2021
1568 Clouds 15 1024 82 10000 3.6 350 10:47 24.08.2021
1569 Clouds 13 1024 88 10000 2.57 330 09:55 24.08.2021
1570 Clouds 12 1024 94 10000 2.57 320 07:42 24.08.2021
1571 Clouds 12 1023 94 10000 2.06 320 05:57 24.08.2021
1572 Clear 12 1023 93 10000 2.06 310 03:47 24.08.2021
1573 Clouds 13 1023 88 10000 1.54 320 23:54 23.08.2021
1574 Clouds 14 1023 84 10000 2.06 350 22:46 23.08.2021
1575 Clouds 14 1022 88 10000 3.6 350 21:36 23.08.2021
1576 Clouds 16 1021 85 10000 7.2 340 19:55 23.08.2021
1577 Clouds 17 1020 90 10000 7.2 330 18:28 23.08.2021
1578 Clouds 17 1020 90 10000 5.14 300 16:25 23.08.2021
1579 Rain 18 1020 83 10000 5.66 290 13:57 23.08.2021
1580 Rain 17 1020 87 10000 5.14 300 12:33 23.08.2021
1581 Clouds 16 1020 90 10000 3.09 280 10:52 23.08.2021
1582 Clouds 16 1020 90 10000 3.09 270 10:26 23.08.2021
1583 Clouds 15 1020 94 10000 2.57 280 08:58 23.08.2021
1584 Clouds 15 1020 94 10000 2.57 250 07:43 23.08.2021
1585 Clouds 14 1020 94 10000 2.06 260 06:42 23.08.2021
1586 Clouds 15 1020 91 10000 1.54 240 04:23 23.08.2021
1587 Clouds 15 1020 88 10000 1.54 230 00:46 23.08.2021
1588 Clouds 14 1019 94 10000 1.54 210 22:43 22.08.2021
1589 Rain 14 1019 97 10000 2.06 200 21:35 22.08.2021
1590 Rain 15 1019 90 10000 2.57 310 20:20 22.08.2021
1591 Clouds 19 1018 90 10000 2.06 210 18:36 22.08.2021
1592 Clouds 18 1018 89 10000 2.06 230 16:22 22.08.2021
1593 Rain 21 1018 82 10000 4.63 240 14:54 22.08.2021
1594 Rain 20 1018 86 10000 5.14 240 13:50 22.08.2021
1595 Clouds 20 1018 89 10000 2.57 220 13:20 22.08.2021
1596 Clouds 19 1018 89 10000 1.54 240 12:49 22.08.2021
1597 Clouds 20 1018 86 10000 3.09 230 11:53 22.08.2021
1598 Clouds 20 1018 84 10000 2.57 200 11:32 22.08.2021
1599 Clouds 17 1018 94 10000 2.57 180 09:21 22.08.2021
1600 Clear 16 1017 96 10000 2.57 120 07:54 22.08.2021
1601 Rain 17 1017 84 10000 2.06 100 04:43 22.08.2021
1602 Clear 19 1017 80 10000 3.6 100 22:38 21.08.2021
1603 Clear 20 1017 76 10000 3.09 100 21:42 21.08.2021
1604 Clear 25 1017 53 10000 2.06 30 18:58 21.08.2021
1605 Clear 26 1017 52 10000 2.06 30 18:39 21.08.2021
1606 Clear 26 1018 49 10000 2.06 90 16:58 21.08.2021
1607 Clear 27 1018 48 10000 1.03 0 16:32 21.08.2021
1608 Clear 27 1019 48 10000 1.54 0 15:39 21.08.2021
1609 Clear 26 1019 49 10000 2.06 100 15:21 21.08.2021
1610 Clouds 25 1019 54 10000 1.54 0 13:43 21.08.2021
1611 Clouds 24 1020 58 10000 2.06 0 12:39 21.08.2021
1612 Clear 21 1020 70 10000 0.51 0 10:55 21.08.2021
1613 Clear 15 1020 82 10000 1.03 0 08:54 21.08.2021
1614 Clear 14 1020 91 10000 1.54 90 00:46 21.08.2021
1615 Clear 16 1019 80 10000 0.51 0 22:29 20.08.2021
1616 Clear 22 1018 53 10000 4.63 290 19:43 20.08.2021
1617 Clear 23 1017 59 10000 4.12 300 17:35 20.08.2021
1618 Clouds 21 1018 65 10000 3.09 290 14:34 20.08.2021
1619 Clouds 20 1018 70 10000 2.06 260 11:59 20.08.2021
1620 Clouds 21 1018 72 10000 2.06 230 11:29 20.08.2021
1621 Clouds 18 1018 83 10000 1.54 270 10:21 20.08.2021
1622 Clear 17 1017 94 10000 1.54 120 09:18 20.08.2021
1623 Clear 16 1017 94 10000 1.54 110 08:36 20.08.2021
1624 Clear 16 1017 93 10000 1.54 100 04:40 20.08.2021
1625 Clear 16 1017 93 10000 1.54 110 04:20 20.08.2021
1626 Clear 17 1017 82 10000 0.51 0 23:27 19.08.2021
1627 Clear 17 1017 82 10000 1.03 0 22:37 19.08.2021
1628 Clear 18 1017 82 10000 1.03 260 21:50 19.08.2021
1629 Clouds 19 1016 80 10000 0 0 20:19 19.08.2021
1630 Clouds 19 1016 71 10000 2.06 240 17:52 19.08.2021
1631 Clouds 19 1016 76 10000 3.09 280 16:42 19.08.2021
1632 Clouds 19 1017 71 10000 4.12 260 14:33 19.08.2021
1633 Clouds 18 1017 80 10000 4.12 250 12:46 19.08.2021
1634 Clouds 18 1017 78 10000 4.63 270 12:27 19.08.2021
1635 Clouds 18 1017 80 10000 4.12 270 10:47 19.08.2021
1636 Clouds 17 1017 84 10000 3.6 250 09:48 19.08.2021
1637 Clouds 17 1016 85 10000 3.09 250 09:26 19.08.2021
1638 Clouds 16 1016 89 10000 2.57 230 08:25 19.08.2021
1639 Clear 16 1016 85 10000 2.06 230 03:34 19.08.2021
1640 Clear 16 1016 82 10000 3.09 240 01:59 19.08.2021
1641 Clear 17 1016 77 10000 3.09 230 23:28 18.08.2021
1642 Clear 17 1017 77 10000 3.09 240 22:31 18.08.2021
1643 Clouds 18 1017 72 10000 2.57 230 20:41 18.08.2021
1644 Clouds 18 1016 77 10000 3.6 230 20:20 18.08.2021
1645 Clouds 19 1017 70 10000 3.6 250 18:58 18.08.2021
1646 Clouds 19 1017 69 10000 3.6 250 18:33 18.08.2021
1647 Clouds 19 1017 73 10000 4.63 240 16:52 18.08.2021
1648 Clouds 18 1018 74 10000 4.63 250 15:40 18.08.2021
1649 Clouds 18 1018 74 10000 5.14 250 15:21 18.08.2021
1650 Clouds 16 1018 87 10000 6.17 240 12:50 18.08.2021
1651 Clouds 15 1018 87 10000 6.17 260 12:27 18.08.2021
1652 Clouds 15 1018 90 10000 4.63 260 11:37 18.08.2021
1653 Clouds 13 1018 94 10000 2.57 240 07:53 18.08.2021
1654 Clouds 13 1018 94 10000 2.57 240 07:53 18.08.2021
1655 Clouds 12 1018 89 10000 2.57 220 01:29 18.08.2021
1656 Rain 13 1019 83 10000 3.09 240 22:39 17.08.2021
1657 Rain 15 1019 73 10000 3.09 240 21:46 17.08.2021
1658 Rain 15 1018 73 10000 2.57 240 21:22 17.08.2021
1659 Clouds 16 1019 68 10000 3.6 260 19:20 17.08.2021
1660 Rain 16 1019 66 10000 5.14 270 17:47 17.08.2021
1661 Clouds 17 1019 64 10000 4.63 260 17:21 17.08.2021
1662 Clouds 17 1019 64 10000 4.12 270 15:41 17.08.2021
1663 Clouds 17 1020 61 10000 6.69 260 14:47 17.08.2021
1664 Clouds 15 1020 69 10000 6.17 250 12:37 17.08.2021
1665 Clouds 12 1020 87 10000 3.6 260 09:27 17.08.2021
1666 Clouds 11 1020 90 10000 4.12 250 08:43 17.08.2021
1667 Clouds 10 1019 93 10000 4.12 250 06:55 17.08.2021
1668 Rain 13 1016 93 6000 4.63 280 23:24 16.08.2021
1669 Rain 14 1016 89 7000 6.17 280 22:52 16.08.2021
1670 Rain 14 1016 89 7000 6.17 280 22:34 16.08.2021
1671 Clouds 15 1015 88 5000 9.26 280 21:37 16.08.2021
1672 Clouds 19 1013 67 10000 10.8 250 20:50 16.08.2021
1673 Clear 20 1013 57 10000 6.69 240 19:27 16.08.2021
1674 Clear 21 1013 56 10000 5.66 260 18:25 16.08.2021
1675 Clear 22 1013 56 10000 5.14 270 17:52 16.08.2021
1676 Clear 23 1012 50 10000 8.23 270 16:25 16.08.2021
1677 Clouds 22 1012 51 10000 8.75 250 14:58 16.08.2021
1678 Clouds 23 1013 56 10000 7.2 260 13:41 16.08.2021
1679 Clouds 23 1013 55 10000 6.69 260 12:56 16.08.2021
1680 Clouds 21 1013 65 10000 8.75 280 11:30 16.08.2021
1681 Clouds 20 1012 94 10000 3.6 250 08:58 16.08.2021
1682 Rain 18 1011 97 10000 1.54 140 07:45 16.08.2021
1683 Rain 18 1011 94 10000 1.03 0 07:27 16.08.2021
1684 Clear 17 1011 94 10000 2.57 100 05:54 16.08.2021
1685 Clear 19 1013 93 10000 1.54 120 23:54 15.08.2021
1686 Clear 19 1013 93 10000 2.06 160 21:21 15.08.2021
1687 Clouds 20 1013 94 7000 1.54 170 19:25 15.08.2021
1688 Rain 21 1013 83 4000 5.66 160 18:38 15.08.2021
1689 Clear 29 1013 50 10000 1.54 30 17:42 15.08.2021
1690 Clear 29 1013 49 10000 1.54 0 16:29 15.08.2021
1691 Clear 30 1014 48 10000 1.54 0 15:32 15.08.2021
1692 Clear 29 1015 47 10000 1.54 0 14:31 15.08.2021
1693 Clear 28 1016 49 10000 1.54 0 12:39 15.08.2021
1694 Clear 23 1017 68 10000 1.03 0 09:56 15.08.2021
1695 Fog 14 1017 100 10000 1.03 0 06:31 15.08.2021
1696 Clear 19 1018 78 10000 1.03 100 00:44 15.08.2021
1697 Clear 20 1019 73 10000 1.03 0 23:45 14.08.2021
1698 Clear 24 1019 58 10000 0.51 0 21:21 14.08.2021
1699 Clear 28 1019 39 10000 3.6 260 19:44 14.08.2021
1700 Clear 28 1019 40 10000 3.09 290 19:25 14.08.2021
1701 Clear 30 1020 33 10000 4.12 270 17:31 14.08.2021
1702 Clear 30 1020 32 10000 2.06 240 16:35 14.08.2021
1703 Clear 30 1021 40 10000 2.57 250 14:57 14.08.2021
1704 Clouds 27 1022 53 10000 2.06 0 12:41 14.08.2021
1705 Clear 24 1023 69 10000 1.54 150 10:54 14.08.2021
1706 Clear 17 1023 90 10000 0.51 0 07:49 14.08.2021
1707 Clear 21 1022 82 10000 2.06 190 23:54 13.08.2021
1708 Clear 21 1022 84 10000 2.06 130 23:18 13.08.2021
1709 Clear 23 1022 77 10000 0 0 21:46 13.08.2021
1710 Clouds 28 1021 59 10000 2.57 250 18:53 13.08.2021
1711 Clouds 28 1021 59 10000 2.57 250 18:35 13.08.2021
1712 Clouds 29 1022 56 10000 3.09 280 16:34 13.08.2021
1713 Clouds 29 1022 55 10000 1.54 0 15:41 13.08.2021
1714 Clear 23 1023 73 10000 1.03 0 11:21 13.08.2021
1715 Rain 20 1022 88 10000 1.54 160 10:32 13.08.2021
1716 Rain 18 1022 88 10000 1.03 100 08:37 13.08.2021
1717 Clear 17 1022 93 10000 0.51 0 07:48 13.08.2021
1718 Clear 16 1021 92 10000 0.51 0 04:59 13.08.2021
1719 Clear 18 1020 90 10000 1.03 340 23:57 12.08.2021
1720 Clear 22 1020 70 10000 1.54 50 21:34 12.08.2021
1721 Clear 26 1019 58 10000 1.03 70 20:25 12.08.2021
1722 Clear 27 1019 47 10000 2.06 60 19:48 12.08.2021
1723 Clear 28 1020 47 10000 1.03 0 17:54 12.08.2021
1724 Clear 28 1020 46 10000 1.03 0 16:50 12.08.2021
1725 Clear 28 1020 47 10000 1.54 0 15:33 12.08.2021
1726 Clouds 27 1021 53 10000 1.54 0 13:21 12.08.2021
1727 Clear 24 1022 61 10000 1.54 130 11:32 12.08.2021
1728 Clear 15 1022 90 10000 0.51 0 07:59 12.08.2021
1729 Clear 13 1021 96 10000 1.03 10 06:18 12.08.2021
1730 Clear 18 1021 81 10000 1.03 0 22:56 11.08.2021
1731 Clear 21 1020 71 10000 1.03 50 21:29 11.08.2021
1732 Clear 24 1020 58 10000 3.09 360 18:34 11.08.2021
1733 Clear 25 1020 54 10000 2.06 350 17:42 11.08.2021
1734 Clouds 25 1020 56 10000 1.54 0 15:21 11.08.2021
1735 Clouds 24 1020 56 10000 2.57 0 14:23 11.08.2021
1736 Clouds 23 1021 59 10000 2.06 0 12:36 11.08.2021
1737 Clouds 22 1021 64 10000 1.03 0 11:47 11.08.2021
1738 Clear 22 1021 63 10000 1.03 0 11:22 11.08.2021
1739 Clouds 20 1021 70 10000 0.51 0 10:25 11.08.2021
1740 Clear 17 1020 84 10000 2.06 100 08:32 11.08.2021
1741 Clear 17 1019 76 10000 1.54 220 00:39 11.08.2021
1742 Clear 19 1018 65 10000 2.57 230 22:33 10.08.2021
1743 Clear 19 1018 63 10000 2.06 240 21:38 10.08.2021
1744 Clear 22 1017 53 10000 2.57 250 20:38 10.08.2021
1745 Clear 24 1017 48 10000 3.6 270 18:59 10.08.2021
1746 Clear 24 1018 49 10000 4.12 270 16:49 10.08.2021
1747 Clouds 24 1018 53 10000 3.6 270 15:22 10.08.2021
1748 Clouds 24 1019 55 10000 4.12 270 13:29 10.08.2021
1749 Clear 20 1019 71 10000 2.57 190 10:47 10.08.2021
1750 Clear 13 1019 94 10000 1.54 110 07:42 10.08.2021
1751 Clear 12 1019 93 10000 3.09 100 04:59 10.08.2021
1752 Clear 15 1020 85 10000 0.51 0 23:59 09.08.2021
1753 Clear 16 1019 78 10000 1.03 350 22:33 09.08.2021
1754 Clear 19 1019 64 10000 0 0 21:37 09.08.2021
1755 Clear 24 1019 41 10000 2.06 240 19:55 09.08.2021
1756 Clear 24 1019 43 10000 5.14 230 17:57 09.08.2021
1757 Clear 24 1019 44 10000 4.12 240 15:35 09.08.2021
1758 Clear 23 1019 46 10000 3.09 0 14:26 09.08.2021
1759 Clouds 22 1020 50 10000 2.57 230 13:28 09.08.2021
1760 Clouds 20 1020 58 10000 2.57 200 11:47 09.08.2021
1761 Clear 14 1020 90 10000 3.09 120 08:35 09.08.2021
1762 Clear 12 1020 94 10000 3.09 100 07:47 09.08.2021
1763 Clouds 17 1017 67 10000 2.06 260 21:28 08.08.2021
1764 Clouds 20 1016 49 10000 5.66 250 19:55 08.08.2021
1765 Rain 20 1014 57 10000 5.14 270 16:56 08.08.2021
1766 Clouds 21 1014 58 10000 4.12 280 15:43 08.08.2021
1767 Clouds 21 1014 55 10000 4.63 210 13:53 08.08.2021
1768 Clouds 20 1014 64 10000 5.66 220 11:53 08.08.2021
1769 Clouds 17 1014 82 10000 5.14 210 09:49 08.08.2021
1770 Clouds 13 1012 97 10000 3.09 160 06:40 08.08.2021
1771 Clouds 15 1009 94 10000 2.57 160 00:43 08.08.2021
1772 Clouds 15 1009 94 10000 2.06 170 00:24 08.08.2021
1773 Rain 15 1008 94 10000 4.63 170 21:42 07.08.2021
1774 Rain 16 1008 93 10000 4.63 160 20:55 07.08.2021
1775 Rain 17 1008 93 10000 3.09 220 17:57 07.08.2021
1776 Rain 18 1007 89 10000 2.06 170 16:50 07.08.2021
1777 Rain 21 1006 73 10000 4.12 180 14:56 07.08.2021
1778 Rain 23 1006 59 10000 4.12 170 13:33 07.08.2021
1779 Rain 23 1007 60 10000 4.63 160 13:33 07.08.2021
1780 Clear 20 1008 71 10000 2.06 140 10:25 07.08.2021
1781 Clear 12 1009 96 10000 2.06 120 06:31 07.08.2021
1782 Clear 14 1010 83 10000 2.06 120 01:50 07.08.2021
1783 Clear 14 1010 83 10000 2.06 120 01:50 07.08.2021
1784 Clear 18 1009 69 10000 2.57 250 21:38 06.08.2021
1785 Clear 19 1009 64 10000 4.12 250 20:33 06.08.2021
1786 Clouds 20 1008 61 10000 5.14 260 19:56 06.08.2021
1787 Clouds 22 1008 59 10000 6.69 260 18:32 06.08.2021
1788 Clouds 22 1008 59 10000 6.69 260 18:32 06.08.2021
1789 Clouds 22 1008 59 10000 6.69 260 18:32 06.08.2021
1790 Clouds 22 1008 59 10000 6.69 260 18:32 06.08.2021
1791 Clouds 22 1008 59 10000 6.69 260 18:32 06.08.2021
1792 Clouds 22 1008 59 10000 6.69 260 18:32 06.08.2021
1793 Clouds 21 1008 69 10000 5.14 240 15:48 06.08.2021
1794 Rain 16 1009 86 10000 4.12 220 10:51 06.08.2021
1795 Rain 17 1008 85 10000 2.06 170 09:56 06.08.2021
1796 Clouds 15 1008 86 10000 1.54 140 07:32 06.08.2021
1797 Rain 15 1009 89 10000 2.57 30 23:33 05.08.2021
1798 Thunderstorm 17 1008 74 10000 1.54 90 21:32 05.08.2021
1799 Clouds 19 1008 73 10000 1.54 50 20:43 05.08.2021
1800 Clouds 22 1008 57 10000 2.06 240 19:21 05.08.2021
1801 Clouds 22 1009 57 10000 2.06 250 16:24 05.08.2021
1802 Clouds 21 1010 63 10000 4.12 200 14:19 05.08.2021
1803 Clouds 18 1011 86 10000 0.51 0 10:56 05.08.2021
1804 Clouds 15 1011 87 10000 1.03 0 08:33 05.08.2021
1805 Rain 15 1012 87 10000 1.03 90 04:34 05.08.2021
1806 Rain 16 1013 83 9000 3.09 170 23:19 04.08.2021
1807 Clouds 17 1012 81 10000 1.54 40 21:43 04.08.2021
1808 Clouds 17 1012 82 10000 2.06 40 21:18 04.08.2021
1809 Clouds 20 1013 65 10000 1.54 230 17:25 04.08.2021
1810 Clouds 20 1013 65 10000 1.54 230 17:25 04.08.2021
1811 Clouds 20 1014 64 10000 2.06 170 15:32 04.08.2021
1812 Clouds 20 1014 62 10000 2.57 0 14:41 04.08.2021
1813 Clouds 17 1015 78 10000 2.06 250 09:51 04.08.2021
1814 Clear 16 1014 80 10000 3.6 220 23:32 03.08.2021
1815 Clouds 18 1013 79 10000 1.83 237 20:33 03.08.2021
1816 Clouds 20 1013 66 10000 4.12 220 18:59 03.08.2021
1817 Clouds 20 1013 71 10000 1.54 0 17:38 03.08.2021
1818 Rain 20 1014 57 10000 3.6 170 14:58 03.08.2021
1819 Clouds 20 1015 67 10000 2.57 110 11:44 03.08.2021
1820 Clouds 18 1016 77 10000 1.03 0 10:39 03.08.2021
1821 Clear 13 1016 88 10000 1.03 0 23:46 02.08.2021
1822 Clouds 19 1015 74 10000 1.03 270 17:28 02.08.2021
1823 Clouds 19 1015 72 10000 6.69 300 15:46 02.08.2021
1824 Clouds 19 1015 69 10000 3.09 230 12:54 02.08.2021
1825 Clouds 18 1016 77 10000 2.57 220 11:58 02.08.2021
1826 Clouds 18 1016 77 10000 2.57 220 11:58 02.08.2021
1827 Clouds 17 1016 80 10000 2.57 210 10:58 02.08.2021
1828 Clouds 16 1015 82 10000 3.6 250 09:45 02.08.2021
1829 Rain 17 1011 71 10000 5.66 240 20:29 01.08.2021
1830 Rain 20 1010 73 10000 1.54 190 17:47 01.08.2021
1831 Clouds 18 1010 75 10000 2.06 230 12:55 01.08.2021
1832 Clouds 17 1011 81 10000 1.54 270 11:35 01.08.2021
1833 Rain 15 1010 84 10000 2.06 100 04:53 01.08.2021
1834 Rain 15 1010 80 10000 0.51 0 03:46 01.08.2021
1835 Clear 17 1011 66 10000 0.51 170 22:41 31.07.2021
1836 Clear 22 1011 46 10000 4.63 250 19:47 31.07.2021
1837 Clear 24 1011 43 10000 6.17 270 16:38 31.07.2021
1838 Clear 23 1011 43 10000 5.66 250 15:27 31.07.2021
1839 Clouds 21 1012 53 10000 6.17 250 10:59 31.07.2021
1840 Clear 18 1011 68 10000 4.12 260 04:38 31.07.2021
1841 Clear 22 1009 64 10000 2.57 290 22:31 30.07.2021
1842 Rain 25 1008 50 10000 3.6 290 20:24 30.07.2021
1843 Clear 27 1010 41 10000 5.14 230 15:38 30.07.2021
1844 Clear 22 1014 51 10000 4.12 270 19:57 29.07.2021
1845 Clear 18 1016 83 10000 3.09 190 08:43 29.07.2021
1846 Clear 14 1015 90 10000 2.06 170 04:51 29.07.2021
1847 Clouds 18 1015 85 10000 2.06 180 22:48 28.07.2021
1848 Clouds 22 1014 72 10000 4.63 170 17:53 28.07.2021
1849 Clouds 21 1015 75 10000 3.6 180 16:54 28.07.2021
1850 Clouds 19 1015 79 10000 2.06 190 09:44 28.07.2021
1851 Rain 20 1013 76 10000 2.57 90 23:56 27.07.2021
1852 Rain 21 1013 73 10000 1.03 110 21:34 27.07.2021
1853 Clouds 25 1015 51 10000 1.54 0 14:54 27.07.2021
1854 Clouds 25 1015 54 10000 2.06 230 14:30 27.07.2021
1855 Clouds 22 1016 70 10000 1.03 0 10:20 27.07.2021
1856 Clear 17 1015 84 10000 2.57 160 01:53 27.07.2021
1857 Clouds 25 1013 64 10000 2.57 130 15:34 26.07.2021
1858 Clear 21 1013 77 10000 1.03 0 10:19 26.07.2021
1859 Clouds 24 1011 69 10000 1.54 290 20:57 25.07.2021
1860 Clouds 24 1010 64 10000 2.57 270 20:24 25.07.2021
1861 Rain 25 1011 62 10000 2.57 170 16:24 25.07.2021
1862 Clouds 23 1011 64 10000 3.09 130 12:51 25.07.2021
1863 Clouds 17 1011 84 10000 3.6 90 08:21 25.07.2021
1864 Clear 17 1011 84 10000 2.06 110 04:55 25.07.2021
1865 Clear 23 1010 70 10000 1.54 90 20:22 24.07.2021
1866 Rain 27 1011 48 10000 3.6 130 15:52 24.07.2021
1867 Clear 15 1012 85 10000 2.06 90 04:21 24.07.2021
1868 Clear 27 1015 47 10000 2.06 40 17:34 23.07.2021
1869 Clear 26 1016 48 10000 2.57 10 14:35 23.07.2021
1870 Clear 15 1018 84 10000 1.54 90 07:47 23.07.2021
1871 Clear 19 1018 64 10000 1.03 350 22:46 22.07.2021
1872 Clear 26 1020 41 10000 3.09 260 14:53 22.07.2021
1873 Clear 26 1020 41 10000 3.09 260 14:53 22.07.2021
1874 Clear 22 1022 61 10000 1.03 0 11:18 22.07.2021
1875 Clear 16 1022 78 10000 0.51 0 08:23 22.07.2021
1876 Clear 18 1022 65 10000 2.57 350 22:33 21.07.2021
1877 Clear 21 1021 60 10000 2.06 350 21:32 21.07.2021
1878 Clear 25 1021 40 10000 2.57 320 17:28 21.07.2021
1879 Clear 18 1023 67 10000 1.54 50 09:54 21.07.2021
1880 Clear 17 1023 71 10000 1.03 0 09:19 21.07.2021
1881 Clear 15 1021 77 10000 1.54 350 00:41 21.07.2021
1882 Clear 22 1019 49 10000 2.57 340 20:28 20.07.2021
1883 Clear 24 1019 46 10000 4.12 330 16:33 20.07.2021
1884 Clear 23 1019 48 10000 2.57 340 15:26 20.07.2021
1885 Clouds 20 1020 60 10000 2.06 0 11:19 20.07.2021
1886 Clouds 15 1019 79 10000 1.03 0 07:23 20.07.2021
1887 Clouds 17 1019 82 10000 2.06 360 00:21 20.07.2021
1888 Clouds 25 1018 51 10000 4.12 330 15:39 19.07.2021
1889 Clouds 25 1019 63 10000 3.09 30 12:38 19.07.2021
1890 Clear 25 1019 57 10000 2.57 10 20:44 18.07.2021
1891 Clouds 26 1019 50 10000 4.63 350 15:20 18.07.2021
1892 Clouds 20 1021 74 10000 5.14 350 10:19 18.07.2021
1893 Clouds 21 1020 81 10000 1.03 0 22:28 17.07.2021
1894 Clouds 21 1020 81 10000 0.51 0 21:55 17.07.2021
1895 Clouds 21 1020 83 10000 0.51 0 21:37 17.07.2021
1896 Clouds 21 1021 81 10000 5.14 320 12:34 17.07.2021
1897 Clouds 18 1021 87 10000 4.12 320 10:21 17.07.2021
1898 Clouds 17 1020 89 10000 1.54 320 04:47 17.07.2021
1899 Clouds 25 1018 53 10000 1.54 0 14:24 16.07.2021
1900 Clouds 19 1018 80 10000 2.06 250 09:45 16.07.2021
1901 Clouds 14 1017 88 10000 0.51 0 06:57 16.07.2021
1902 Clouds 20 1014 69 10000 3.6 110 14:39 15.07.2021
1903 Clouds 20 1013 73 10000 3.09 90 13:48 15.07.2021
1904 Clouds 15 1012 85 10000 2.57 110 07:58 15.07.2021
1905 Clouds 16 1012 84 10000 1.03 100 22:30 14.07.2021
1906 Clouds 20 1012 68 10000 1.54 230 16:48 14.07.2021
1907 Clouds 17 1012 81 10000 3.6 240 11:34 14.07.2021
1908 Clouds 16 1012 85 10000 2.57 220 23:30 13.07.2021
1909 Clouds 16 1012 85 10000 2.57 220 23:30 13.07.2021
1910 Rain 16 1010 85 10000 1.54 0 19:59 13.07.2021
1911 Rain 16 1010 86 10000 1.54 0 19:40 13.07.2021
1912 Rain 16 1010 86 10000 1.54 0 19:20 13.07.2021
1913 Rain 16 1011 86 10000 2.57 220 18:43 13.07.2021
1914 Rain 16 1012 84 10000 4.63 220 18:23 13.07.2021
1915 Clouds 25 1007 59 10000 1.54 0 13:22 13.07.2021
1916 Clear 20 1007 78 10000 1.54 360 09:27 13.07.2021
1917 Clear 24 1010 57 10000 2.06 90 20:29 12.07.2021
1918 Clouds 26 1010 50 10000 3.09 100 17:28 12.07.2021
1919 Clouds 24 1012 60 10000 3.6 70 14:37 12.07.2021
1920 Clear 15 1017 87 10000 1.54 80 23:22 11.07.2021
1921 Clouds 19 1017 78 10000 1.03 280 20:49 11.07.2021
1922 Clouds 18 1018 82 10000 2.06 200 14:24 11.07.2021
1923 Clear 17 1015 81 10000 1.54 90 23:57 10.07.2021
1924 Clouds 24 1017 55 10000 2.57 0 15:30 10.07.2021
1925 Clouds 14 1020 87 8000 2.06 150 07:50 10.07.2021
1926 Mist 13 1022 89 2000 1.54 150 02:18 10.07.2021
1927 Clouds 16 1021 86 10000 3.6 280 18:29 09.07.2021
1928 Rain 16 1020 85 10000 5.66 270 14:50 09.07.2021
1929 Rain 16 1019 86 10000 7.2 290 12:24 09.07.2021
1930 Rain 18 1018 89 10000 1.03 350 23:52 08.07.2021
1931 Clouds 18 1018 87 10000 0.51 60 22:48 08.07.2021
1932 Clouds 21 1018 76 10000 2.57 340 18:57 08.07.2021
1933 Clouds 20 1018 82 10000 2.06 300 17:43 08.07.2021
1934 Clouds 20 1020 68 10000 2.57 20 13:32 08.07.2021
1935 Clouds 19 1020 92 2565 3.44 325 12:44 08.07.2021
1936 Clouds 18 1020 82 10000 1.03 0 11:32 08.07.2021
1937 Rain 17 1020 85 10000 2.06 280 09:55 08.07.2021
1938 Clear 16 1020 88 10000 1.54 320 04:47 08.07.2021
1939 Rain 16 1020 89 10000 2.57 100 01:43 08.07.2021
1940 Clear 17 1020 87 10000 1.03 100 22:56 07.07.2021
1941 Clear 18 1020 84 10000 1.03 70 22:19 07.07.2021
1942 Clear 19 1020 81 10000 1.54 60 21:41 07.07.2021
1943 Clear 19 1020 81 10000 1.54 80 21:22 07.07.2021
1944 Clouds 20 1019 80 10000 1.54 30 19:57 07.07.2021
1945 Clouds 20 1019 76 10000 0.51 0 19:28 07.07.2021
1946 Rain 21 1019 70 10000 1.03 0 17:36 07.07.2021
1947 Rain 21 1019 71 10000 1.54 60 17:36 07.07.2021
1948 Clouds 21 1019 72 10000 1.03 0 15:30 07.07.2021
1949 Rain 17 1019 85 10000 2.06 110 12:25 07.07.2021
1950 Rain 16 1017 88 10000 0.51 0 07:56 07.07.2021
1951 Clouds 15 1016 88 10000 1.03 0 06:43 07.07.2021
1952 Rain 16 1016 88 10000 1.03 0 05:42 07.07.2021
1953 Rain 19 1013 87 10000 1.54 330 21:29 06.07.2021
1954 Rain 21 1013 69 10000 5.14 300 19:29 06.07.2021
1955 Clouds 22 1013 67 10000 4.63 300 18:46 06.07.2021
1956 Clear 22 1013 64 10000 4.63 300 18:27 06.07.2021
1957 Clear 27 1011 51 10000 3.6 170 13:45 06.07.2021
1958 Clear 25 1010 64 10000 3.6 130 10:57 06.07.2021
1959 Clear 22 1010 70 10000 4.63 140 09:41 06.07.2021
1960 Clear 20 1011 76 10000 4.12 130 08:32 06.07.2021
1961 Clear 14 1012 86 10000 2.57 110 04:50 06.07.2021
1962 Clear 16 1013 86 10000 3.09 100 00:59 06.07.2021
1963 Clear 17 1013 83 10000 2.06 150 22:36 05.07.2021
1964 Clouds 21 1012 68 10000 4.63 180 17:41 05.07.2021
1965 Clouds 21 1012 68 10000 3.6 190 14:29 05.07.2021
1966 Clouds 14 1013 83 10000 2.06 110 06:39 05.07.2021
1967 Fog 13 1013 85 10000 1.54 130 05:44 05.07.2021
1968 Clear 14 1013 84 10000 1.54 180 04:40 05.07.2021
1969 Clouds 16 1012 83 10000 1.54 170 23:18 04.07.2021
1970 Clouds 20 1009 72 10000 3.09 130 18:51 04.07.2021
1971 Clouds 23 1010 65 10000 3.6 120 16:23 04.07.2021
1972 Clouds 22 1012 67 10000 2.06 120 11:50 04.07.2021
1973 Clear 18 1013 80 10000 2.06 180 09:24 04.07.2021
1974 Clear 18 1014 73 10000 1.54 110 23:32 03.07.2021
1975 Clear 19 1014 70 10000 1.03 100 22:39 03.07.2021
1976 Clouds 24 1016 51 10000 2.57 0 14:26 03.07.2021
1977 Clouds 23 1017 54 10000 1.54 0 12:38 03.07.2021
1978 Clouds 18 1018 74 10000 1.54 180 09:29 03.07.2021
1979 Clouds 17 1018 80 10000 1.54 140 08:46 03.07.2021
1980 Clear 12 1018 87 10000 2.06 90 05:43 03.07.2021
1981 Clouds 17 1019 76 10000 3.09 280 12:52 02.07.2021
1982 Rain 13 1017 86 9000 2.06 280 07:41 02.07.2021
1983 Rain 13 1017 86 10000 2.57 230 04:49 02.07.2021
1984 Clouds 14 1017 84 10000 1.54 250 22:38 01.07.2021
1985 Rain 14 1017 85 10000 3.6 270 21:53 01.07.2021
1986 Clouds 14 1017 87 10000 4.63 250 21:20 01.07.2021
1987 Clouds 15 1017 83 10000 4.12 240 19:21 01.07.2021
1988 Clouds 14 1017 85 10000 4.63 270 18:59 01.07.2021
1989 Rain 15 1016 81 10000 6.17 250 17:52 01.07.2021
1990 Clouds 15 1016 78 10000 6.69 260 17:18 01.07.2021
1991 Clouds 15 1016 84 10000 6.17 270 15:26 01.07.2021
1992 Clouds 15 1016 85 10000 5.66 290 14:23 01.07.2021
1993 Clouds 15 1015 81 10000 6.17 260 10:56 01.07.2021
1994 Rain 13 1014 87 10000 3.6 240 07:36 01.07.2021
1995 Clouds 15 1014 80 10000 3.09 220 23:23 30.06.2021
1996 Clouds 15 1014 78 10000 3.6 210 22:20 30.06.2021
1997 Rain 16 1013 69 10000 3.6 240 21:22 30.06.2021
1998 Clouds 17 1013 63 10000 5.66 240 20:28 30.06.2021
1999 Clouds 18 1013 58 10000 6.69 230 19:19 30.06.2021
2000 Clouds 19 1013 65 10000 4.12 230 14:26 30.06.2021
2001 Clouds 19 1013 69 10000 4.63 240 13:24 30.06.2021
2002 Rain 15 1013 85 10000 3.09 240 08:19 30.06.2021
2003 Clouds 15 1012 84 10000 2.57 220 21:40 29.06.2021
2004 Rain 18 1012 73 10000 11.32 250 18:36 29.06.2021
2005 Rain 25 1010 55 10000 3.09 270 17:43 29.06.2021
2006 Clouds 26 1009 53 10000 2.06 10 16:59 29.06.2021
2007 Clouds 26 1010 55 10000 3.09 40 15:50 29.06.2021
2008 Clouds 25 1012 61 10000 2.57 0 13:59 29.06.2021
2009 Clouds 23 1012 65 10000 2.06 360 13:19 29.06.2021
2010 Rain 18 1016 85 10000 5.14 270 00:41 29.06.2021
2011 Clear 25 1012 57 10000 2.06 20 21:47 28.06.2021
2012 Clear 28 1012 50 10000 3.09 30 19:53 28.06.2021
2013 Clear 30 1014 46 10000 2.57 0 17:32 28.06.2021
2014 Clear 30 1015 45 10000 2.57 0 15:22 28.06.2021
2015 Clear 29 1015 45 10000 3.6 150 14:20 28.06.2021
2016 Clear 24 1016 63 10000 3.6 120 09:36 28.06.2021
2017 Clear 20 1016 73 10000 2.06 90 23:46 27.06.2021
2018 Clear 23 1015 60 10000 1.54 90 21:51 27.06.2021
2019 Clear 27 1015 48 10000 1.03 0 19:42 27.06.2021
2020 Clear 28 1015 45 10000 3.09 90 16:53 27.06.2021
2021 Clear 27 1016 48 10000 3.09 80 14:20 27.06.2021
2022 Clear 18 1017 82 10000 0.51 0 07:38 27.06.2021
2023 Clear 17 1018 80 10000 1.54 90 23:30 26.06.2021
2024 Clear 21 1017 68 10000 1.54 360 21:24 26.06.2021
2025 Clouds 23 1017 58 10000 1.54 10 20:42 26.06.2021
2026 Clouds 24 1017 56 10000 2.06 20 19:25 26.06.2021
2027 Clouds 25 1018 54 10000 1.54 80 15:33 26.06.2021
2028 Clouds 23 1019 66 10000 0.51 0 12:29 26.06.2021
2029 Mist 17 1020 82 4500 1.54 30 09:32 26.06.2021
2030 Clear 14 1019 89 10000 0 0 05:41 26.06.2021
2031 Clear 18 1018 80 10000 2.57 280 21:21 25.06.2021
2032 Rain 19 1018 78 10000 2.06 210 19:44 25.06.2021
2033 Rain 19 1018 72 10000 3.09 40 17:53 25.06.2021
2034 Clouds 21 1018 68 10000 2.57 340 16:51 25.06.2021
2035 Rain 20 1018 74 10000 3.09 310 14:59 25.06.2021
2036 Clouds 19 1018 80 10000 5.14 310 13:18 25.06.2021
2037 Clouds 17 1018 84 10000 3.6 270 09:28 25.06.2021
2038 Clouds 16 1018 85 10000 4.12 240 07:20 25.06.2021
2039 Clouds 15 1018 86 10000 1.54 100 03:54 25.06.2021
2040 Clear 15 1017 87 10000 1.03 0 22:41 24.06.2021
2041 Clear 17 1017 82 10000 1.54 260 21:41 24.06.2021
2042 Clear 18 1017 77 10000 2.06 260 20:41 24.06.2021
2043 Rain 19 1017 77 10000 2.57 340 18:47 24.06.2021
2044 Clouds 23 1017 64 10000 3.6 330 16:30 24.06.2021
2045 Clouds 23 1017 71 10000 4.63 310 15:22 24.06.2021
2046 Clouds 23 1017 72 10000 2.57 0 14:48 24.06.2021
2047 Clouds 20 1017 81 10000 1.03 0 11:26 24.06.2021
2048 Clouds 19 1017 81 10000 2.57 40 09:34 24.06.2021
2049 Clouds 17 1018 85 9000 3.09 350 08:23 24.06.2021
2050 Rain 17 1019 85 10000 2.06 360 03:32 24.06.2021
2051 Rain 19 1017 81 10000 0.51 0 23:20 23.06.2021
2052 Rain 20 1016 77 10000 3.09 360 21:44 23.06.2021
2053 Clouds 22 1017 68 10000 2.57 30 20:38 23.06.2021
2054 Clouds 24 1017 60 10000 3.6 50 18:35 23.06.2021
2055 Clouds 25 1017 60 10000 2.57 40 17:32 23.06.2021
2056 Clouds 25 1018 59 10000 3.6 330 15:47 23.06.2021
2057 Clouds 21 1019 78 10000 1.54 280 12:58 23.06.2021
2058 Clouds 21 1019 81 10000 1.54 0 11:56 23.06.2021
2059 Clouds 17 1019 90 6000 1.03 0 09:55 23.06.2021
2060 Rain 17 1018 85 6000 1.03 0 08:46 23.06.2021
2061 Mist 16 1018 85 5000 1.03 0 07:51 23.06.2021
2062 Rain 15 1017 86 6000 1.03 330 06:49 23.06.2021
2063 Rain 15 1017 87 8000 2.06 350 04:25 23.06.2021
2064 Clear 16 1016 85 10000 2.06 20 00:43 23.06.2021
2065 Clear 17 1016 84 10000 1.54 20 23:55 22.06.2021
2066 Clouds 18 1015 90 10000 2.57 320 22:44 22.06.2021
2067 Clouds 18 1015 85 10000 3.09 300 22:19 22.06.2021
2068 Clouds 19 1015 83 10000 1.54 330 21:36 22.06.2021
2069 Clouds 21 1014 73 10000 9.26 310 19:37 22.06.2021
2070 Clouds 23 1013 67 10000 3.09 320 18:53 22.06.2021
2071 Clouds 23 1013 66 10000 2.57 360 18:21 22.06.2021
2072 Clouds 24 1013 65 10000 3.6 360 17:21 22.06.2021
2073 Clouds 24 1012 66 10000 3.6 350 16:30 22.06.2021
2074 Clouds 24 1012 65 10000 2.57 0 14:36 22.06.2021
2075 Clouds 23 1012 70 10000 2.57 10 13:48 22.06.2021
2076 Clouds 23 1012 70 10000 2.57 10 13:48 22.06.2021
2077 Clouds 22 1012 76 10000 2.57 10 12:35 22.06.2021
2078 Clouds 20 1013 86 10000 2.06 40 11:18 22.06.2021
2079 Clouds 18 1012 87 10000 2.57 10 09:31 22.06.2021
2080 Fog 17 1011 86 10000 1.54 320 06:41 22.06.2021
2081 Rain 20 1011 76 10000 3.09 240 00:42 22.06.2021
2082 Rain 22 1009 63 10000 2.57 350 22:59 21.06.2021
2083 Rain 23 1008 59 10000 2.57 350 21:48 21.06.2021
2084 Clear 25 1008 50 10000 4.63 320 20:53 21.06.2021
2085 Clear 25 1009 53 10000 3.6 310 20:28 21.06.2021
2086 Clear 26 1008 44 10000 3.6 300 19:50 21.06.2021
2087 Clear 27 1008 48 10000 4.12 310 18:30 21.06.2021
2088 Clear 27 1009 49 10000 4.12 290 16:56 21.06.2021
2089 Clear 27 1009 49 10000 4.12 290 16:38 21.06.2021
2090 Clear 27 1009 49 10000 4.12 290 16:38 21.06.2021
2091 Clear 28 1009 47 10000 3.09 280 16:19 21.06.2021
2092 Clear 27 1009 49 10000 4.12 280 15:40 21.06.2021
2093 Clouds 26 1009 53 10000 2.57 0 13:55 21.06.2021
2094 Clouds 26 1009 54 10000 2.57 270 13:21 21.06.2021
2095 Clouds 25 1009 59 10000 1.03 0 12:35 21.06.2021
2096 Clouds 22 1009 73 10000 2.06 250 10:55 21.06.2021
2097 Clouds 22 1010 72 10000 2.57 220 10:23 21.06.2021
2098 Clouds 19 1009 77 10000 2.57 180 08:47 21.06.2021
2099 Clouds 19 1009 79 10000 1.54 170 08:19 21.06.2021
2100 Clouds 19 1009 79 10000 1.54 170 08:19 21.06.2021
2101 Fog 17 1008 85 10000 1.03 0 06:24 21.06.2021
2102 Rain 19 1008 83 3800 7.2 220 23:57 20.06.2021
2103 Rain 21 1005 83 10000 1.54 240 23:34 20.06.2021
2104 Rain 21 1005 83 10000 0.51 0 22:55 20.06.2021
2105 Clear 22 1006 88 10000 1.54 360 21:48 20.06.2021
2106 Clear 24 1008 72 10000 2.06 10 20:28 20.06.2021
2107 Clear 24 1008 68 10000 1.54 10 19:40 20.06.2021
2108 Clear 26 1009 65 10000 1.54 10 19:20 20.06.2021
2109 Clear 26 1010 65 10000 1.03 0 17:45 20.06.2021
2110 Clear 26 1010 66 10000 1.54 100 16:45 20.06.2021
2111 Clear 25 1011 68 10000 2.06 120 15:44 20.06.2021
2112 Clouds 25 1011 66 10000 1.22 338 15:25 20.06.2021
2113 Clouds 26 1010 66 10000 2.54 328 14:42 20.06.2021
2114 Rain 25 1013 75 10000 3.6 150 13:29 20.06.2021
2115 Rain 25 1013 73 10000 2.57 190 12:34 20.06.2021
2116 Rain 24 1013 68 10000 1.54 0 11:45 20.06.2021
2117 Rain 24 1013 68 10000 1.54 0 11:45 20.06.2021
2118 Rain 23 1014 79 10000 2.57 170 09:50 20.06.2021
2119 Rain 23 1013 77 10000 3.09 190 08:59 20.06.2021
2120 Clear 22 1010 75 10000 3.09 100 04:32 20.06.2021
2121 Clear 23 1012 73 10000 2.06 100 23:36 19.06.2021
2122 Clear 25 1012 65 10000 2.06 60 22:52 19.06.2021
2123 Clear 27 1012 57 10000 2.57 30 21:51 19.06.2021
2124 Clear 29 1012 51 10000 2.57 10 20:50 19.06.2021
2125 Clear 32 1013 41 10000 3.09 310 18:50 19.06.2021
2126 Clear 32 1013 42 10000 3.6 290 18:18 19.06.2021
2127 Clear 31 1013 42 10000 2.06 310 17:22 19.06.2021
2128 Clear 32 1014 42 10000 1.54 0 15:56 19.06.2021
2129 Clear 31 1015 44 10000 2.06 340 14:28 19.06.2021
2130 Clear 29 1016 54 10000 1.54 0 12:48 19.06.2021
2131 Clouds 27 1017 58 10000 2.06 0 11:53 19.06.2021
2132 Clear 25 1017 62 10000 1.54 290 10:42 19.06.2021
2133 Clear 25 1017 63 10000 1.03 0 10:22 19.06.2021
2134 Clear 21 1017 75 10000 2.06 100 08:57 19.06.2021
2135 Clear 21 1016 79 10000 2.06 100 07:44 19.06.2021
2136 Clear 19 1015 81 10000 0.51 50 05:55 19.06.2021
2137 Clear 20 1015 75 10000 0.51 110 01:27 19.06.2021
2138 Clear 22 1014 69 10000 2.57 100 00:18 19.06.2021
2139 Clear 23 1014 66 10000 1.54 0 23:26 18.06.2021
2140 Clear 24 1014 62 10000 1.54 50 22:49 18.06.2021
2141 Clear 25 1014 53 10000 1.03 0 22:18 18.06.2021
2142 Clear 28 1013 54 10000 1.54 360 21:29 18.06.2021
2143 Clear 31 1014 42 10000 1.54 350 20:58 18.06.2021
2144 Clear 31 1013 38 10000 1.54 0 19:38 18.06.2021
2145 Clear 32 1013 35 10000 2.06 270 18:23 18.06.2021
2146 Clear 32 1013 35 10000 1.54 90 17:20 18.06.2021
2147 Clear 33 1014 33 10000 2.06 250 16:21 18.06.2021
2148 Clear 32 1014 35 10000 3.6 260 15:29 18.06.2021
2149 Clear 32 1014 37 10000 2.06 40 14:32 18.06.2021
2150 Clear 31 1015 39 10000 2.06 140 13:37 18.06.2021
2151 Clear 30 1015 43 10000 2.06 140 12:45 18.06.2021
2152 Clear 29 1015 48 10000 2.06 0 11:57 18.06.2021
2153 Clear 28 1015 51 10000 1.54 60 11:25 18.06.2021
2154 Clear 27 1015 53 10000 2.57 110 10:52 18.06.2021
2155 Clear 26 1015 55 10000 2.57 90 10:21 18.06.2021
2156 Clear 25 1015 56 10000 2.06 90 09:43 18.06.2021
2157 Clear 23 1015 63 10000 2.06 100 08:48 18.06.2021
2158 Clear 22 1015 64 10000 3.09 100 08:21 18.06.2021
2159 Clear 19 1015 76 10000 2.06 110 07:23 18.06.2021
2160 Clear 19 1015 75 10000 0.51 0 01:41 18.06.2021
2161 Clear 21 1014 69 10000 0.51 0 23:41 17.06.2021
2162 Clear 22 1014 61 10000 1.03 0 22:52 17.06.2021
2163 Clear 24 1014 55 10000 1.03 80 22:24 17.06.2021
2164 Clear 27 1014 42 10000 1.54 80 21:41 17.06.2021
2165 Clear 30 1014 37 10000 2.06 70 20:57 17.06.2021
2166 Clear 29 1014 37 10000 2.06 80 20:24 17.06.2021
2167 Clear 31 1013 30 10000 2.06 70 19:47 17.06.2021
2168 Clear 31 1014 34 10000 3.09 90 18:40 17.06.2021
2169 Clear 32 1014 34 10000 2.57 20 17:43 17.06.2021
2170 Clear 33 1014 33 10000 1.03 0 17:19 17.06.2021
2171 Clear 32 1014 34 10000 1.54 0 16:25 17.06.2021
2172 Clear 32 1014 37 10000 1.03 0 15:38 17.06.2021
2173 Clear 31 1014 37 10000 3.09 100 14:23 17.06.2021
2174 Clear 30 1015 42 10000 2.57 130 12:53 17.06.2021
2175 Clear 29 1015 43 10000 2.06 0 12:27 17.06.2021
2176 Clear 27 1015 51 10000 1.54 0 10:57 17.06.2021
2177 Clear 27 1015 51 10000 1.54 0 10:37 17.06.2021
2178 Clear 25 1015 56 10000 0.51 0 09:58 17.06.2021
2179 Clear 24 1015 59 10000 0.51 0 09:35 17.06.2021
2180 Clear 22 1015 65 10000 2.06 110 08:23 17.06.2021
2181 Clear 17 1015 82 10000 1.03 0 06:57 17.06.2021
2182 Clear 16 1015 79 10000 2.06 100 04:31 17.06.2021
2183 Clear 20 1015 71 10000 3.6 90 00:18 17.06.2021
2184 Clear 20 1015 67 10000 3.09 100 23:36 16.06.2021
2185 Clear 22 1015 62 10000 2.06 100 22:40 16.06.2021
2186 Clear 25 1014 47 10000 2.57 90 21:48 16.06.2021
2187 Clear 25 1014 52 10000 2.57 100 21:26 16.06.2021
2188 Clear 26 1014 47 10000 3.09 100 20:52 16.06.2021
2189 Clear 26 1014 47 10000 3.09 100 20:52 16.06.2021
2190 Clear 27 1014 47 10000 3.09 110 20:21 16.06.2021
2191 Clear 28 1014 43 10000 4.12 110 19:44 16.06.2021
2192 Clear 28 1014 40 10000 4.12 120 19:19 16.06.2021
2193 Clear 28 1014 41 10000 3.6 110 18:38 16.06.2021
2194 Clear 30 1014 38 10000 1.54 100 17:56 16.06.2021
2195 Clear 29 1015 37 10000 2.57 120 17:27 16.06.2021
2196 Clear 30 1015 34 10000 2.06 130 16:45 16.06.2021
2197 Clear 30 1015 34 10000 2.06 130 16:45 16.06.2021
2198 Clear 30 1015 34 10000 2.06 130 16:45 16.06.2021
2199 Clear 30 1015 37 10000 3.6 100 16:23 16.06.2021
2200 Clear 29 1015 39 10000 2.57 140 15:43 16.06.2021
2201 Clear 29 1015 40 10000 1.54 130 14:59 16.06.2021
2202 Clear 29 1015 43 10000 1.54 130 14:40 16.06.2021
2203 Clear 29 1016 43 10000 2.06 50 14:22 16.06.2021
2204 Clear 28 1016 44 10000 2.06 70 13:43 16.06.2021
2205 Clear 28 1016 46 10000 1.03 0 13:21 16.06.2021
2206 Clear 27 1016 49 10000 1.54 0 12:34 16.06.2021
2207 Clouds 26 1017 52 10000 0.51 0 11:54 16.06.2021
2208 Clear 25 1017 55 10000 1.54 90 11:22 16.06.2021
2209 Clear 25 1017 58 10000 1.03 0 10:40 16.06.2021
2210 Clear 23 1017 62 10000 1.03 80 09:47 16.06.2021
2211 Clear 23 1017 62 10000 1.03 80 09:47 16.06.2021
2212 Clear 21 1017 68 10000 1.54 80 08:59 16.06.2021
2213 Clear 19 1017 79 10000 1.03 0 07:51 16.06.2021
2214 Clear 19 1017 79 10000 1.03 0 07:51 16.06.2021
2215 Clear 18 1017 82 10000 1.54 100 07:32 16.06.2021
2216 Clear 16 1017 77 10000 0.51 100 02:50 16.06.2021
2217 Clear 17 1018 71 10000 1.54 90 00:37 16.06.2021
2218 Clear 18 1018 68 10000 1.03 0 23:43 15.06.2021
2219 Clear 19 1018 65 10000 0.51 0 23:19 15.06.2021
2220 Clear 20 1018 57 10000 1.03 10 22:38 15.06.2021
2221 Clear 22 1017 50 10000 1.03 0 21:45 15.06.2021
2222 Clear 26 1017 41 10000 1.54 360 20:51 15.06.2021
2223 Clear 27 1017 33 10000 2.06 300 19:45 15.06.2021
2224 Clear 27 1017 40 10000 2.57 290 19:20 15.06.2021
2225 Clear 28 1018 36 10000 2.57 300 16:55 15.06.2021
2226 Clear 28 1018 36 10000 2.57 200 16:29 15.06.2021
2227 Clear 28 1018 37 10000 2.06 170 15:40 15.06.2021
2228 Clear 27 1019 42 10000 2.06 280 14:50 15.06.2021
2229 Clear 26 1019 44 10000 1.54 0 13:46 15.06.2021
2230 Clear 26 1019 44 10000 2.06 0 13:27 15.06.2021
2231 Clear 26 1019 45 10000 1.54 0 12:46 15.06.2021
2232 Clear 25 1020 45 10000 1.03 0 11:51 15.06.2021
2233 Clear 25 1020 45 10000 1.03 0 11:19 15.06.2021
2234 Clear 24 1020 48 10000 1.03 0 10:51 15.06.2021
2235 Clear 24 1020 48 10000 1.03 0 10:32 15.06.2021
2236 Clear 23 1020 52 10000 1.03 0 09:34 15.06.2021
2237 Clear 18 1020 74 10000 1.03 0 08:29 15.06.2021
2238 Clear 16 1020 79 10000 1.54 120 07:43 15.06.2021
2239 Clear 13 1020 87 10000 1.03 0 06:37 15.06.2021
2240 Clear 12 1019 85 10000 2.57 90 04:31 15.06.2021
2241 Clear 16 1020 76 10000 2.57 110 00:47 15.06.2021
2242 Clear 17 1020 68 10000 3.09 100 23:45 14.06.2021
2243 Clear 17 1020 67 10000 0.51 0 23:25 14.06.2021
2244 Clear 18 1020 63 10000 0.51 0 22:42 14.06.2021
2245 Clear 19 1019 66 10000 1.03 350 22:20 14.06.2021
2246 Clear 21 1019 56 10000 1.03 340 21:44 14.06.2021
2247 Clear 22 1019 46 10000 2.57 320 21:24 14.06.2021
2248 Clear 24 1019 41 10000 3.09 320 20:52 14.06.2021
2249 Clear 24 1018 44 10000 0.89 317 19:54 14.06.2021
2250 Clear 24 1018 44 10000 0.89 317 19:54 14.06.2021
2251 Clear 25 1019 43 10000 2.06 290 19:35 14.06.2021
2252 Clear 25 1019 41 10000 1.54 0 18:59 14.06.2021
2253 Clear 25 1019 40 10000 2.57 230 18:24 14.06.2021
2254 Clear 26 1020 40 10000 1.54 0 17:54 14.06.2021
2255 Clear 26 1020 39 10000 1.54 210 17:29 14.06.2021
2256 Clear 25 1020 40 10000 2.06 0 16:35 14.06.2021
2257 Clear 25 1021 40 10000 1.54 0 15:48 14.06.2021
2258 Clear 24 1021 39 10000 1.03 0 15:20 14.06.2021
2259 Clear 24 1021 43 10000 2.06 0 14:43 14.06.2021
2260 Clear 23 1023 44 10000 2.06 0 13:35 14.06.2021
2261 Clear 22 1023 48 10000 2.06 0 12:54 14.06.2021
2262 Clear 22 1023 48 10000 1.54 0 12:31 14.06.2021
2263 Clear 21 1024 48 10000 3.09 120 11:46 14.06.2021
2264 Clear 19 1024 53 10000 4.12 100 10:54 14.06.2021
2265 Clear 18 1024 55 10000 3.09 110 09:41 14.06.2021
2266 Clear 17 1024 61 10000 2.57 120 09:21 14.06.2021
2267 Clear 15 1025 68 10000 2.57 90 08:42 14.06.2021
2268 Clear 14 1025 79 10000 2.06 100 07:44 14.06.2021
2269 Clear 10 1025 85 10000 1.03 0 06:24 14.06.2021
2270 Clear 10 1025 82 10000 1.54 90 04:53 14.06.2021
2271 Clear 13 1026 66 10000 2.57 60 00:45 14.06.2021
2272 Clear 14 1025 61 10000 2.06 30 23:42 13.06.2021
2273 Clear 14 1025 66 10000 1.03 0 23:19 13.06.2021
2274 Clear 15 1025 67 10000 1.03 0 22:40 13.06.2021
2275 Clear 17 1025 55 10000 1.03 0 22:18 13.06.2021
2276 Clear 18 1025 52 10000 1.54 10 21:44 13.06.2021
2277 Clear 18 1025 45 10000 3.09 10 21:24 13.06.2021
2278 Clear 20 1025 46 10000 3.09 350 20:43 13.06.2021
2279 Clear 20 1025 47 10000 3.09 350 20:25 13.06.2021
2280 Clear 21 1025 44 10000 4.12 320 19:43 13.06.2021
2281 Clear 21 1025 44 10000 4.63 320 19:22 13.06.2021
2282 Clear 21 1025 40 10000 4.63 330 18:31 13.06.2021
2283 Clear 21 1025 44 10000 4.63 340 17:51 13.06.2021
2284 Clear 22 1025 42 10000 5.14 310 16:47 13.06.2021
2285 Clear 21 1026 42 10000 4.12 310 15:50 13.06.2021
2286 Clear 21 1026 44 10000 5.66 320 14:59 13.06.2021
2287 Clouds 20 1026 45 10000 4.63 320 14:27 13.06.2021
2288 Clouds 20 1026 48 10000 4.12 280 13:42 13.06.2021
2289 Clouds 20 1026 49 10000 4.63 300 13:23 13.06.2021
2290 Clouds 19 1027 51 10000 4.63 330 12:45 13.06.2021
2291 Clouds 19 1026 52 10000 4.12 280 12:24 13.06.2021
2292 Clouds 18 1026 55 10000 3.6 320 11:27 13.06.2021
2293 Clouds 17 1026 57 10000 3.09 310 10:46 13.06.2021
2294 Clouds 17 1026 62 10000 4.12 310 10:18 13.06.2021
2295 Clear 16 1026 63 10000 3.09 350 09:43 13.06.2021
2296 Clear 16 1026 63 10000 3.09 350 09:43 13.06.2021
2297 Clouds 16 1026 68 10000 2.57 10 09:22 13.06.2021
2298 Clouds 15 1026 70 10000 3.09 350 08:44 13.06.2021
2299 Clouds 15 1026 70 10000 3.09 350 08:25 13.06.2021
2300 Clear 13 1025 81 10000 0.51 0 06:50 13.06.2021
2301 Clear 17 1022 72 10000 4.12 310 00:52 13.06.2021
2302 Clear 17 1021 77 10000 2.57 280 23:21 12.06.2021
2303 Clear 17 1021 77 10000 2.57 280 23:21 12.06.2021
2304 Clear 18 1021 72 10000 4.12 270 22:34 12.06.2021
2305 Clear 19 1020 68 10000 3.09 280 21:52 12.06.2021
2306 Clear 19 1020 60 10000 3.09 280 21:33 12.06.2021
2307 Clouds 21 1019 58 10000 6.69 310 20:25 12.06.2021
2308 Clouds 21 1019 58 10000 6.69 310 20:25 12.06.2021
2309 Clouds 21 1019 59 10000 8.75 320 19:58 12.06.2021
2310 Clouds 22 1019 61 10000 8.75 310 19:27 12.06.2021
2311 Clouds 23 1018 53 10000 9.26 320 18:36 12.06.2021
2312 Clouds 24 1018 47 10000 8.75 290 17:50 12.06.2021
2313 Clouds 25 1018 47 10000 9.26 270 17:19 12.06.2021
2314 Clouds 26 1017 47 10000 8.23 280 16:31 12.06.2021
2315 Clouds 25 1018 53 10000 6.69 280 15:35 12.06.2021
2316 Clouds 26 1018 46 10000 7.2 270 14:38 12.06.2021
2317 Clouds 26 1018 51 10000 7.72 280 14:38 12.06.2021
2318 Clouds 26 1018 51 10000 7.72 280 14:19 12.06.2021
2319 Clouds 26 1019 54 10000 4.63 280 12:57 12.06.2021
2320 Clouds 25 1019 54 10000 4.63 280 12:37 12.06.2021
2321 Clouds 25 1018 52 10000 4.12 270 12:19 12.06.2021
2322 Clouds 24 1019 58 10000 2.06 290 11:19 12.06.2021
2323 Clear 23 1019 66 10000 1.54 270 10:29 12.06.2021
2324 Clear 23 1019 66 10000 1.54 270 10:29 12.06.2021
2325 Clear 22 1019 70 10000 1.03 0 09:49 12.06.2021
2326 Clear 22 1019 71 10000 1.03 0 09:23 12.06.2021
2327 Clear 18 1019 84 10000 2.06 110 07:42 12.06.2021
2328 Clear 15 1019 87 10000 3.09 90 06:20 12.06.2021
2329 Clear 18 1019 80 10000 2.06 110 00:54 12.06.2021
2330 Clear 19 1019 75 10000 1.03 0 22:53 11.06.2021
2331 Clear 21 1018 64 10000 2.06 110 22:19 11.06.2021
2332 Clear 22 1018 64 10000 0 0 21:46 11.06.2021
2333 Clear 23 1018 56 10000 0.51 0 21:26 11.06.2021
2334 Clear 24 1018 53 10000 2.06 300 20:22 11.06.2021
2335 Clear 26 1018 43 10000 3.6 280 19:29 11.06.2021
2336 Clear 26 1018 46 10000 4.12 280 18:41 11.06.2021
2337 Clear 26 1018 49 10000 2.57 280 17:50 11.06.2021
2338 Clear 26 1019 47 10000 3.09 300 16:41 11.06.2021
2339 Clouds 26 1019 46 10000 3.6 300 15:34 11.06.2021
2340 Clouds 25 1019 52 10000 3.09 270 14:44 11.06.2021
2341 Clouds 25 1020 52 10000 2.57 270 13:54 11.06.2021
2342 Clouds 23 1020 64 10000 1.54 0 12:29 11.06.2021
2343 Clouds 23 1020 65 10000 1.03 0 11:52 11.06.2021
2344 Clouds 22 1020 64 10000 0.51 270 11:24 11.06.2021
2345 Fog 18 1021 100 800 0.51 0 09:37 11.06.2021
2346 Fog 17 1020 100 250 0.51 0 08:57 11.06.2021
2347 Fog 15 1020 84 150 1.03 0 07:55 11.06.2021
2348 Fog 14 1020 87 150 1.54 100 06:27 11.06.2021
2349 Fog 15 1020 88 10000 1.03 60 23:59 10.06.2021
2350 Fog 16 1020 88 9000 0.51 70 22:42 10.06.2021
2351 Fog 16 1020 87 10000 0.51 0 22:23 10.06.2021
2352 Clouds 17 1020 88 10000 1.03 60 21:41 10.06.2021
2353 Rain 17 1020 85 10000 2.57 150 20:59 10.06.2021
2354 Rain 18 1021 81 10000 3.09 150 19:56 10.06.2021
2355 Rain 20 1018 71 10000 2.1 342 19:26 10.06.2021
2356 Rain 20 1020 72 10000 3.6 280 18:34 10.06.2021
2357 Rain 23 1019 55 10000 2.57 350 17:58 10.06.2021
2358 Rain 25 1019 55 10000 5.14 350 17:23 10.06.2021
2359 Clouds 25 1019 52 10000 4.12 270 16:43 10.06.2021
2360 Clouds 26 1019 52 10000 3.6 300 15:42 10.06.2021
2361 Clouds 25 1021 58 10000 2.57 320 13:43 10.06.2021
2362 Clouds 24 1021 61 10000 1.54 0 12:43 10.06.2021
2363 Clouds 22 1022 70 10000 1.54 0 11:29 10.06.2021
2364 Clouds 21 1022 75 10000 1.54 290 10:34 10.06.2021
2365 Fog 16 1021 85 800 1.03 0 08:25 10.06.2021
2366 Clear 16 1021 88 10000 1.03 0 00:58 10.06.2021
2367 Clear 16 1021 86 10000 0.51 0 00:20 10.06.2021
2368 Clear 18 1021 83 10000 2.06 330 22:51 09.06.2021
2369 Clear 18 1021 81 10000 1.03 340 22:19 09.06.2021
2370 Clear 20 1020 74 10000 2.06 340 21:31 09.06.2021
2371 Clouds 21 1020 72 10000 1.54 10 20:44 09.06.2021
2372 Rain 21 1020 66 10000 1.54 20 19:55 09.06.2021
2373 Rain 21 1020 65 10000 1.54 20 19:36 09.06.2021
2374 Clouds 23 1020 56 10000 3.09 20 17:45 09.06.2021
2375 Clouds 24 1021 57 10000 2.57 340 15:35 09.06.2021
2376 Clouds 23 1021 59 10000 1.03 0 14:41 09.06.2021
2377 Clear 22 1022 64 10000 2.06 120 13:34 09.06.2021
2378 Clear 22 1022 69 10000 1.03 0 12:59 09.06.2021
2379 Clear 22 1022 70 10000 2.06 0 12:37 09.06.2021
2380 Rain 19 1022 78 10000 3.6 60 11:20 09.06.2021
2381 Rain 17 1021 85 8000 2.57 360 09:43 09.06.2021
2382 Rain 16 1022 85 10000 2.57 360 08:46 09.06.2021
2383 Clouds 16 1021 86 9000 1.54 270 07:19 09.06.2021
2384 Fog 15 1021 87 5000 2.06 360 05:42 09.06.2021
2385 Fog 15 1021 88 5000 0.51 0 22:57 08.06.2021
2386 Mist 16 1021 88 5000 0.51 0 22:37 08.06.2021
2387 Clear 16 1021 88 10000 2.06 270 21:31 08.06.2021
2388 Rain 17 1020 87 10000 2.06 340 19:46 08.06.2021
2389 Rain 18 1021 82 10000 3.09 360 17:53 08.06.2021
2390 Rain 18 1021 82 10000 3.09 360 17:53 08.06.2021
2391 Rain 18 1021 82 10000 3.09 360 17:53 08.06.2021
2392 Rain 20 1021 71 10000 3.09 360 17:34 08.06.2021
2393 Rain 24 1020 57 10000 3.6 200 15:31 08.06.2021
2394 Clouds 25 1020 60 10000 2.57 310 13:33 08.06.2021
2395 Clouds 23 1021 62 10000 1.54 0 11:55 08.06.2021
2396 Clear 18 1021 82 10000 2.06 350 08:19 08.06.2021
2397 Clouds 16 1020 89 9000 1.03 0 04:26 08.06.2021
2398 Clear 17 1021 89 10000 1.03 320 23:53 07.06.2021
2399 Rain 19 1020 87 10000 2.06 10 20:42 07.06.2021
2400 Rain 20 1020 80 10000 1.03 150 18:56 07.06.2021
2401 Clouds 23 1020 70 10000 4.12 290 16:25 07.06.2021
2402 Clouds 22 1019 70 10000 3.09 230 14:35 07.06.2021
2403 Clouds 20 1021 78 10000 1.54 0 11:57 07.06.2021
2404 Clouds 19 1021 83 10000 1.03 0 10:27 07.06.2021
2405 Clouds 18 1021 85 9000 1.03 0 09:59 07.06.2021
2406 Clouds 18 1021 84 7000 0.51 0 09:25 07.06.2021
2407 Mist 17 1020 87 4500 1.54 340 07:41 07.06.2021
2408 Clouds 17 1020 87 10000 2.06 20 22:53 06.06.2021
2409 Rain 18 1019 85 10000 1.03 0 20:47 06.06.2021
2410 Rain 18 1019 83 10000 2.57 360 18:46 06.06.2021
2411 Rain 19 1019 81 10000 3.09 310 17:35 06.06.2021
2412 Rain 19 1019 92 10000 2.06 260 14:38 06.06.2021
2413 Rain 19 1019 88 9000 1.54 240 14:38 06.06.2021
2414 Rain 20 1019 77 10000 3.09 310 12:33 06.06.2021
2415 Rain 20 1020 78 10000 2.06 360 11:50 06.06.2021
2416 Clouds 18 1020 83 10000 3.6 310 10:25 06.06.2021
2417 Clouds 18 1020 85 10000 2.06 360 09:31 06.06.2021
2418 Clouds 17 1020 85 10000 2.06 360 08:57 06.06.2021
2419 Clouds 17 1020 86 9000 2.06 340 08:24 06.06.2021
2420 Clouds 17 1020 85 10000 2.06 300 05:23 06.06.2021
2421 Rain 17 1021 84 10000 2.57 230 23:19 05.06.2021
2422 Rain 17 1021 83 10000 0.51 0 22:21 05.06.2021
2423 Rain 18 1019 73 10000 7.2 340 20:42 05.06.2021
2424 Clouds 20 1019 70 10000 8.23 340 19:38 05.06.2021
2425 Clouds 24 1019 61 10000 5.14 250 17:20 05.06.2021
2426 Clouds 24 1019 61 10000 3.09 240 15:57 05.06.2021
2427 Rain 23 1019 62 10000 4.63 260 13:48 05.06.2021
2428 Clouds 23 1020 68 10000 2.57 330 11:45 05.06.2021
2429 Clouds 23 1020 68 10000 2.57 330 11:45 05.06.2021
2430 Clouds 22 1020 71 10000 2.57 340 10:35 05.06.2021
2431 Clouds 20 1020 77 10000 2.06 340 09:22 05.06.2021
2432 Clear 16 1020 84 10000 1.54 100 07:20 05.06.2021
2433 Clear 18 1020 75 10000 1.03 90 23:30 04.06.2021
2434 Clear 19 1020 70 10000 0.51 80 22:21 04.06.2021
2435 Rain 21 1020 64 10000 0.51 0 21:25 04.06.2021
2436 Clear 22 1020 61 10000 2.06 360 19:47 04.06.2021
2437 Clouds 22 1021 56 10000 2.06 240 18:26 04.06.2021
2438 Rain 23 1021 53 10000 5.66 250 16:57 04.06.2021
2439 Clouds 25 1021 34 10000 2.06 0 15:35 04.06.2021
2440 Clouds 22 1022 58 10000 4.12 110 11:53 04.06.2021
2441 Clear 19 1023 70 10000 4.63 100 10:39 04.06.2021
2442 Clouds 16 1021 69 10000 3.6 100 07:28 04.06.2021
2443 Clear 15 1021 68 10000 3.6 100 05:53 04.06.2021
2444 Clear 15 1021 68 10000 3.6 100 05:53 04.06.2021
2445 Clear 19 1021 60 10000 1.03 0 23:36 03.06.2021
2446 Clear 24 1020 35 10000 3.09 120 20:57 03.06.2021
2447 Clear 25 1020 31 10000 4.12 120 20:27 03.06.2021
2448 Clear 26 1020 34 10000 3.09 90 19:48 03.06.2021
2449 Clear 27 1020 32 10000 3.09 80 17:41 03.06.2021
2450 Clear 28 1021 32 10000 3.09 0 15:37 03.06.2021
2451 Clear 28 1021 31 10000 3.09 150 14:43 03.06.2021
2452 Clear 25 1022 37 10000 3.09 130 12:44 03.06.2021
2453 Clear 21 1022 49 10000 2.57 140 09:53 03.06.2021
2454 Clear 20 1022 54 10000 2.57 130 09:21 03.06.2021
2455 Clear 13 1021 79 10000 0.51 90 06:48 03.06.2021
2456 Clear 17 1019 51 10000 2.06 80 23:22 02.06.2021
2457 Clear 20 1018 33 10000 2.06 100 21:52 02.06.2021
2458 Clear 22 1017 28 10000 2.06 100 21:20 02.06.2021
2459 Clear 23 1017 27 10000 3.6 130 20:27 02.06.2021
2460 Clear 25 1016 30 10000 3.09 100 19:31 02.06.2021
2461 Clear 25 1017 28 10000 4.63 140 16:40 02.06.2021
2462 Clear 25 1017 28 10000 4.63 140 16:40 02.06.2021
2463 Clear 25 1017 30 10000 2.57 0 15:34 02.06.2021
2464 Clear 23 1017 35 10000 4.63 140 13:26 02.06.2021
2465 Clear 21 1017 40 10000 4.12 120 11:42 02.06.2021
2466 Clear 19 1017 49 10000 4.12 120 10:41 02.06.2021
2467 Clear 17 1017 57 10000 0.51 200 09:52 02.06.2021
2468 Clear 16 1017 58 10000 1.03 0 09:27 02.06.2021
2469 Clear 14 1017 68 10000 0 0 08:43 02.06.2021
2470 Clear 10 1017 83 10000 1.03 110 06:56 02.06.2021
2471 Clear 10 1016 78 10000 1.03 100 03:49 02.06.2021
2472 Clear 14 1016 57 10000 2.57 80 23:33 01.06.2021
2473 Clear 18 1015 42 10000 3.09 100 21:40 01.06.2021
2474 Clear 21 1015 30 10000 3.6 100 20:33 01.06.2021
2475 Clear 23 1016 35 10000 2.57 70 17:50 01.06.2021
2476 Clear 23 1016 35 10000 4.12 120 17:18 01.06.2021
2477 Clear 23 1017 36 10000 3.09 0 14:57 01.06.2021
2478 Clear 22 1018 38 10000 4.63 110 13:18 01.06.2021
2479 Clear 21 1019 39 10000 4.63 80 12:20 01.06.2021
2480 Clear 20 1019 42 10000 3.6 90 11:24 01.06.2021
2481 Clouds 18 1019 48 10000 3.09 50 10:39 01.06.2021
2482 Clear 16 1020 59 10000 1.03 0 09:51 01.06.2021
2483 Clear 13 1020 66 10000 1.03 0 08:38 01.06.2021
2484 Clear 10 1020 75 10000 0.51 0 07:36 01.06.2021
2485 Clear 11 1020 62 10000 3.09 90 23:46 31.05.2021
2486 Clear 12 1020 58 10000 2.57 100 23:24 31.05.2021
2487 Clear 12 1020 57 10000 2.57 100 22:55 31.05.2021
2488 Clear 16 1020 41 10000 2.06 80 21:39 31.05.2021
2489 Clear 18 1020 41 10000 2.57 90 20:29 31.05.2021
2490 Clear 19 1020 37 10000 2.57 80 19:41 31.05.2021
2491 Clear 20 1020 35 10000 4.12 80 18:20 31.05.2021
2492 Clear 20 1021 36 10000 3.09 40 17:25 31.05.2021
2493 Clear 20 1021 40 10000 3.09 50 16:25 31.05.2021
2494 Clear 19 1021 37 10000 2.06 0 14:42 31.05.2021
2495 Clear 18 1022 43 10000 3.6 110 13:24 31.05.2021
2496 Clear 18 1022 43 10000 3.6 90 12:39 31.05.2021
2497 Clear 17 1022 46 10000 3.6 0 11:54 31.05.2021
2498 Clouds 15 1023 51 10000 3.09 110 10:54 31.05.2021
2499 Clouds 14 1023 56 10000 3.6 100 09:53 31.05.2021
2500 Clear 12 1023 68 10000 3.6 80 08:55 31.05.2021
2501 Clear 11 1023 72 10000 1.54 0 08:18 31.05.2021
2502 Clear 9 1023 76 10000 0.51 0 07:37 31.05.2021
2503 Clear 5 1023 82 10000 0.51 0 04:55 31.05.2021
2504 Clear 11 1024 52 10000 2.06 30 23:26 30.05.2021
2505 Clear 11 1024 49 10000 2.06 20 22:49 30.05.2021
2506 Clear 13 1024 47 10000 2.57 20 22:27 30.05.2021
2507 Clear 13 1024 44 10000 2.57 20 21:43 30.05.2021
2508 Clear 14 1023 41 10000 3.09 10 21:20 30.05.2021
2509 Clear 16 1023 36 10000 4.12 30 20:44 30.05.2021
2510 Clear 17 1023 38 10000 5.14 20 19:55 30.05.2021
2511 Clear 17 1024 39 10000 5.66 10 19:31 30.05.2021
2512 Clear 18 1024 35 10000 6.17 20 18:28 30.05.2021
2513 Clear 19 1024 35 10000 6.69 50 17:20 30.05.2021
2514 Clear 19 1024 31 10000 5.66 30 16:42 30.05.2021
2515 Clear 19 1024 33 10000 4.63 350 15:54 30.05.2021
2516 Clear 19 1024 34 10000 4.63 350 15:27 30.05.2021
2517 Clear 18 1025 36 10000 5.14 360 13:43 30.05.2021
2518 Clear 17 1025 45 10000 4.63 30 12:28 30.05.2021
2519 Clouds 16 1025 52 10000 5.14 340 11:33 30.05.2021
2520 Clouds 15 1026 56 10000 4.63 340 10:51 30.05.2021
2521 Clouds 15 1026 64 10000 2.57 300 10:20 30.05.2021
2522 Clouds 13 1026 68 10000 2.06 300 09:45 30.05.2021
2523 Clouds 13 1026 71 10000 1.54 0 09:25 30.05.2021
2524 Clouds 13 1026 71 10000 1.54 0 09:25 30.05.2021
2525 Clouds 12 1026 75 10000 1.54 300 08:45 30.05.2021
2526 Clear 6 1026 87 10000 1.03 340 06:27 30.05.2021
2527 Clear 10 1025 76 10000 1.54 20 01:35 30.05.2021
2528 Clear 11 1025 71 10000 2.57 350 23:51 29.05.2021
2529 Clear 14 1024 51 10000 2.57 40 22:27 29.05.2021
2530 Clear 14 1024 44 10000 3.09 20 21:54 29.05.2021
2531 Clear 14 1023 44 10000 3.09 350 21:27 29.05.2021
2532 Clear 17 1023 36 10000 4.12 340 20:53 29.05.2021
2533 Clear 16 1023 39 10000 4.63 330 20:34 29.05.2021
2534 Clear 16 1023 44 10000 4.63 330 19:58 29.05.2021
2535 Clear 17 1023 43 10000 4.63 330 18:41 29.05.2021
2536 Clear 17 1023 46 10000 6.69 10 17:27 29.05.2021
2537 Clear 18 1023 47 10000 5.66 350 16:23 29.05.2021
2538 Clear 17 1023 47 10000 4.12 350 15:26 29.05.2021
2539 Clouds 17 1023 44 10000 4.63 350 14:27 29.05.2021
2540 Clouds 16 1023 54 10000 4.63 350 13:32 29.05.2021
2541 Clouds 16 1023 55 10000 5.14 310 12:44 29.05.2021
2542 Clouds 16 1023 55 10000 3.09 320 12:25 29.05.2021
2543 Clouds 15 1023 62 10000 2.06 0 11:31 29.05.2021
2544 Clouds 15 1023 65 10000 1.54 0 10:52 29.05.2021
2545 Clouds 14 1023 70 10000 2.06 360 10:26 29.05.2021
2546 Clouds 13 1023 75 10000 2.06 0 09:42 29.05.2021
2547 Clear 12 1023 79 10000 1.03 0 09:18 29.05.2021
2548 Clear 8 1023 86 10000 1.03 0 07:58 29.05.2021
2549 Clear 6 1023 91 10000 0 0 06:50 29.05.2021
2550 Clear 8 1022 88 10000 0.51 0 00:54 29.05.2021
2551 Clear 9 1022 80 10000 0.51 0 23:50 28.05.2021
2552 Clear 11 1022 77 10000 1.03 20 22:24 28.05.2021
2553 Clear 12 1022 71 10000 0.51 10 21:36 28.05.2021
2554 Clouds 13 1021 63 10000 2.06 330 20:47 28.05.2021
2555 Clouds 14 1021 58 10000 2.57 360 19:58 28.05.2021
2556 Clouds 15 1021 60 10000 2.57 360 19:37 28.05.2021
2557 Clouds 15 1021 60 10000 4.63 10 18:49 28.05.2021
2558 Clouds 15 1021 55 10000 2.06 360 18:27 28.05.2021
2559 Clouds 16 1022 52 10000 2.06 340 17:32 28.05.2021
2560 Clouds 15 1022 56 10000 2.06 360 16:42 28.05.2021
2561 Clouds 15 1022 57 10000 3.09 310 15:58 28.05.2021
2562 Clouds 16 1022 57 10000 3.09 310 15:33 28.05.2021
2563 Clouds 15 1022 61 10000 2.06 0 14:37 28.05.2021
2564 Clouds 14 1023 65 10000 2.06 20 13:46 28.05.2021
2565 Clouds 14 1023 71 10000 3.09 300 12:59 28.05.2021
2566 Clouds 14 1023 71 10000 3.09 300 12:37 28.05.2021
2567 Clouds 13 1023 76 10000 2.57 300 11:39 28.05.2021
2568 Clouds 12 1023 76 10000 2.06 300 10:53 28.05.2021
2569 Clouds 12 1023 81 10000 1.54 310 10:30 28.05.2021
2570 Clouds 11 1022 86 10000 2.06 300 09:31 28.05.2021
2571 Clouds 10 1022 87 10000 1.03 0 08:48 28.05.2021
2572 Clouds 10 1022 87 10000 2.06 300 08:28 28.05.2021
2573 Clouds 10 1022 87 10000 2.06 310 07:40 28.05.2021
2574 Clouds 9 1022 89 9000 1.03 0 07:22 28.05.2021
2575 Clouds 9 1022 89 9000 2.06 310 06:36 28.05.2021
2576 Clouds 9 1021 88 10000 0.51 0 03:38 28.05.2021
2577 Clouds 10 1021 87 10000 1.54 220 23:43 27.05.2021
2578 Rain 10 1021 86 10000 2.57 270 23:21 27.05.2021
2579 Clouds 10 1020 86 10000 3.09 240 22:21 27.05.2021
2580 Clouds 10 1020 85 10000 2.06 220 21:48 27.05.2021
2581 Clouds 10 1020 85 10000 1.54 260 21:27 27.05.2021
2582 Clouds 10 1020 83 10000 2.57 270 20:47 27.05.2021
2583 Clouds 10 1019 84 10000 3.09 260 20:24 27.05.2021
2584 Clouds 11 1019 83 10000 5.14 280 19:31 27.05.2021
2585 Clouds 11 1019 83 10000 7.2 290 18:44 27.05.2021
2586 Rain 11 1019 83 10000 7.2 290 18:25 27.05.2021
2587 Clouds 13 1018 69 10000 8.75 260 17:27 27.05.2021
2588 Rain 13 1018 64 10000 4.12 270 16:57 27.05.2021
2589 Clouds 14 1018 62 10000 6.17 260 16:31 27.05.2021
2590 Clouds 14 1018 64 10000 5.66 250 15:42 27.05.2021
2591 Clouds 14 1018 66 10000 6.17 270 15:18 27.05.2021
2592 Clouds 13 1018 66 10000 5.66 260 14:32 27.05.2021
2593 Clouds 13 1018 66 10000 6.69 250 13:55 27.05.2021
2594 Clouds 12 1018 67 10000 6.17 250 13:22 27.05.2021
2595 Clouds 13 1018 65 10000 7.2 250 12:59 27.05.2021
2596 Clouds 12 1018 65 10000 7.2 250 12:41 27.05.2021
2597 Clouds 12 1018 67 10000 5.66 240 12:22 27.05.2021
2598 Clouds 12 1018 70 10000 6.69 240 11:46 27.05.2021
2599 Clouds 12 1018 66 10000 6.17 230 10:54 27.05.2021
2600 Clouds 12 1018 68 10000 6.69 230 10:29 27.05.2021
2601 Clouds 11 1018 72 10000 5.66 220 09:54 27.05.2021
2602 Clouds 10 1018 79 10000 5.14 240 08:53 27.05.2021
2603 Clouds 10 1017 87 10000 3.6 240 08:26 27.05.2021
2604 Clouds 7 1017 87 10000 0.51 0 06:44 27.05.2021
2605 Clear 8 1016 83 10000 3.09 220 02:46 27.05.2021
2606 Clouds 9 1016 83 10000 2.57 220 00:35 27.05.2021
2607 Clear 9 1015 81 10000 3.09 240 23:33 26.05.2021
2608 Clouds 10 1015 81 10000 4.63 260 22:51 26.05.2021
2609 Clouds 10 1015 81 10000 4.12 250 22:32 26.05.2021
2610 Clouds 10 1015 81 10000 5.14 250 21:57 26.05.2021
2611 Rain 10 1015 81 10000 5.14 250 21:38 26.05.2021
2612 Clouds 11 1014 80 10000 7.72 250 21:18 26.05.2021
2613 Clouds 11 1014 77 10000 7.2 240 20:42 26.05.2021
2614 Clouds 11 1013 78 10000 5.66 220 20:22 26.05.2021
2615 Clouds 12 1013 79 10000 5.66 220 19:44 26.05.2021
2616 Rain 12 1013 80 10000 3.6 220 19:20 26.05.2021
2617 Clouds 12 1013 80 10000 4.12 220 18:43 26.05.2021
2618 Clouds 12 1013 81 10000 5.66 210 17:45 26.05.2021
2619 Clouds 12 1014 83 10000 5.14 200 16:56 26.05.2021
2620 Clouds 12 1014 79 10000 5.14 200 16:36 26.05.2021
2621 Clouds 11 1014 80 10000 5.14 210 16:18 26.05.2021
2622 Clouds 11 1014 80 10000 5.66 200 15:41 26.05.2021
2623 Clouds 11 1014 87 10000 5.66 210 15:23 26.05.2021
2624 Clouds 11 1015 88 10000 4.63 210 14:45 26.05.2021
2625 Rain 10 1015 85 10000 5.66 230 14:19 26.05.2021
2626 Rain 11 1015 85 10000 5.66 210 13:42 26.05.2021
2627 Rain 10 1015 83 10000 4.63 200 12:51 26.05.2021
2628 Rain 10 1015 83 10000 4.12 190 12:28 26.05.2021
2629 Rain 10 1015 83 10000 4.63 200 11:39 26.05.2021
2630 Rain 10 1015 83 10000 4.12 180 11:19 26.05.2021
2631 Rain 10 1015 83 10000 4.12 180 11:19 26.05.2021
2632 Rain 10 1015 83 10000 5.14 180 10:38 26.05.2021
2633 Rain 10 1016 79 10000 5.14 200 09:58 26.05.2021
2634 Rain 10 1016 78 10000 5.14 200 09:40 26.05.2021
2635 Rain 10 1016 75 10000 3.6 190 08:59 26.05.2021
2636 Rain 10 1016 75 10000 3.6 190 08:35 26.05.2021
2637 Clouds 9 1016 78 10000 4.63 180 07:35 26.05.2021
2638 Rain 9 1016 75 10000 4.63 190 06:24 26.05.2021
2639 Clear 8 1018 71 10000 3.6 200 01:46 26.05.2021
2640 Clear 9 1019 71 10000 1.54 290 23:50 25.05.2021
2641 Clear 10 1018 64 10000 3.09 190 22:55 25.05.2021
2642 Clear 10 1018 63 10000 2.06 210 22:26 25.05.2021
2643 Clear 11 1018 54 10000 2.06 230 21:45 25.05.2021
2644 Clear 11 1018 60 10000 3.09 250 21:25 25.05.2021
2645 Clear 12 1018 50 10000 5.14 250 20:37 25.05.2021
2646 Clouds 12 1018 58 10000 4.08 252 19:54 25.05.2021
2647 Clouds 13 1018 52 10000 5.01 261 19:35 25.05.2021
2648 Clouds 14 1017 50 10000 10.8 240 18:59 25.05.2021
2649 Clouds 14 1017 49 10000 10.8 240 18:40 25.05.2021
2650 Clouds 14 1017 49 10000 11.32 260 18:20 25.05.2021
2651 Clouds 13 1018 56 10000 8.75 260 16:55 25.05.2021
2652 Rain 13 1018 57 10000 8.75 260 16:36 25.05.2021
2653 Clouds 13 1018 59 10000 7.72 260 15:58 25.05.2021
2654 Clouds 12 1018 60 10000 10.29 250 15:30 25.05.2021
2655 Clouds 11 1018 54 10000 9.77 260 14:57 25.05.2021
2656 Clouds 12 1018 63 10000 9.77 260 14:39 25.05.2021
2657 Clouds 11 1017 64 10000 11.83 250 13:54 25.05.2021
2658 Clouds 11 1017 65 10000 11.83 250 13:35 25.05.2021
2659 Clouds 12 1017 60 10000 8.75 240 12:49 25.05.2021
2660 Clouds 11 1017 63 10000 9.26 240 12:29 25.05.2021
2661 Clouds 11 1017 68 10000 10.29 250 11:44 25.05.2021
2662 Rain 11 1017 60 10000 7.72 240 11:26 25.05.2021
2663 Clouds 10 1017 62 10000 8.75 230 10:45 25.05.2021
2664 Clouds 10 1016 69 10000 8.75 230 09:55 25.05.2021
2665 Clouds 10 1016 68 10000 8.75 230 09:32 25.05.2021
2666 Clouds 10 1016 72 10000 6.17 210 08:20 25.05.2021
2667 Clouds 8 1016 87 10000 2.57 180 06:52 25.05.2021
2668 Rain 9 1015 81 10000 3.6 220 03:58 25.05.2021
2669 Rain 10 1014 81 10000 6.17 230 02:30 25.05.2021
2670 Clouds 12 1013 76 10000 2.57 280 23:39 24.05.2021
2671 Clouds 12 1013 71 10000 3.6 290 23:19 24.05.2021
2672 Rain 13 1012 62 10000 4.12 190 22:40 24.05.2021
2673 Rain 13 1013 90 10000 3.65 270 22:20 24.05.2021
2674 Clear 14 1011 58 10000 4.12 170 21:23 24.05.2021
2675 Rain 14 1012 89 10000 1.99 231 20:55 24.05.2021
2676 Rain 14 1012 89 10000 1.99 231 20:55 24.05.2021
2677 Rain 15 1011 44 10000 3.6 160 20:24 24.05.2021
2678 Rain 16 1011 48 10000 3.09 180 19:51 24.05.2021
2679 Rain 16 1011 51 10000 4.12 180 19:31 24.05.2021
2680 Rain 16 1011 59 10000 3.6 170 18:59 24.05.2021
2681 Rain 16 1011 59 10000 3.6 170 18:33 24.05.2021
2682 Rain 18 1011 45 10000 4.12 210 17:56 24.05.2021
2683 Rain 18 1011 45 10000 4.63 230 17:25 24.05.2021
2684 Rain 19 1011 45 10000 2.57 200 16:48 24.05.2021
2685 Clear 19 1011 45 10000 2.57 160 15:55 24.05.2021
2686 Clear 19 1011 45 10000 4.12 150 15:30 24.05.2021
2687 Clear 19 1011 48 10000 4.12 140 14:50 24.05.2021
2688 Clear 18 1012 48 10000 5.14 150 14:22 24.05.2021
2689 Rain 18 1012 45 10000 5.14 150 13:43 24.05.2021
2690 Clear 18 1013 48 10000 5.14 130 13:19 24.05.2021
2691 Clear 17 1013 42 10000 6.69 140 12:29 24.05.2021
2692 Clear 17 1014 48 10000 6.17 130 11:56 24.05.2021
2693 Clear 17 1014 48 10000 6.69 130 11:27 24.05.2021
2694 Clear 15 1014 55 10000 6.17 130 10:56 24.05.2021
2695 Clear 14 1015 58 10000 3.6 120 10:21 24.05.2021
2696 Clear 13 1015 67 10000 2.57 140 09:42 24.05.2021
2697 Clear 11 1015 76 10000 2.06 120 09:18 24.05.2021
2698 Clear 11 1015 76 10000 2.06 120 09:18 24.05.2021
2699 Clear 10 1015 87 10000 0.51 0 08:37 24.05.2021
2700 Clear 7 1016 93 10000 1.03 0 07:30 24.05.2021
2701 Clear 6 1017 93 10000 2.06 120 04:29 24.05.2021
2702 Clear 6 1018 93 10000 1.54 130 03:30 24.05.2021
2703 Clear 7 1018 87 10000 4.12 100 00:52 24.05.2021
2704 Clear 8 1018 81 10000 4.12 100 23:50 23.05.2021
2705 Clear 9 1018 76 10000 3.6 100 23:21 23.05.2021
2706 Clear 9 1018 76 10000 3.6 100 22:35 23.05.2021
2707 Clouds 11 1018 71 10000 2.06 140 21:57 23.05.2021
2708 Clouds 12 1018 62 10000 0.51 0 21:23 23.05.2021
2709 Clouds 14 1017 58 10000 0.51 0 20:57 23.05.2021
2710 Clouds 14 1017 58 10000 0.51 0 20:34 23.05.2021
2711 Clouds 15 1017 51 10000 2.57 240 19:54 23.05.2021
2712 Clouds 15 1017 51 10000 2.57 240 19:36 23.05.2021
2713 Clouds 15 1017 51 10000 3.6 220 18:38 23.05.2021
2714 Clouds 16 1017 44 10000 6.69 250 17:52 23.05.2021
2715 Clouds 16 1017 48 10000 5.66 230 17:34 23.05.2021
2716 Clouds 16 1017 47 10000 4.63 280 16:54 23.05.2021
2717 Clouds 15 1017 47 10000 6.69 280 16:28 23.05.2021
2718 Clouds 15 1017 51 10000 6.69 270 15:59 23.05.2021
2719 Clouds 15 1017 51 10000 6.69 270 15:41 23.05.2021
2720 Clouds 15 1017 51 10000 7.72 290 15:22 23.05.2021
2721 Clouds 15 1017 51 10000 5.66 270 14:49 23.05.2021
2722 Clouds 14 1017 47 10000 6.17 260 14:24 23.05.2021
2723 Clouds 14 1017 51 10000 8.23 250 13:31 23.05.2021
2724 Clouds 13 1017 58 10000 5.66 250 12:35 23.05.2021
2725 Clouds 12 1016 58 10000 7.2 250 11:59 23.05.2021
2726 Rain 12 1016 62 10000 6.69 250 11:26 23.05.2021
2727 Clouds 12 1016 62 10000 6.69 250 10:43 23.05.2021
2728 Clouds 12 1016 67 10000 5.66 260 10:24 23.05.2021
2729 Clouds 11 1015 71 10000 4.63 230 09:51 23.05.2021
2730 Clouds 10 1015 87 10000 3.09 210 08:39 23.05.2021
2731 Rain 9 1014 93 10000 3.6 190 07:47 23.05.2021
2732 Rain 9 1014 81 10000 2.57 190 07:29 23.05.2021
2733 Rain 9 1013 76 10000 3.09 240 05:48 23.05.2021
2734 Clear 10 1012 58 10000 3.6 250 01:39 23.05.2021
2735 Clear 10 1011 50 10000 1.54 210 23:48 22.05.2021
2736 Clear 10 1011 50 10000 1.54 220 23:23 22.05.2021
2737 Clear 11 1011 50 10000 1.54 250 22:48 22.05.2021
2738 Clear 12 1011 41 10000 1.54 230 22:29 22.05.2021
2739 Clear 13 1011 44 10000 2.06 250 21:48 22.05.2021
2740 Clear 15 1010 38 10000 4.12 260 21:25 22.05.2021
2741 Clear 16 1010 39 10000 6.69 260 20:53 22.05.2021
2742 Clear 16 1010 34 10000 5.66 260 20:24 22.05.2021
2743 Clear 17 1009 31 10000 6.69 260 19:41 22.05.2021
2744 Clear 16 1009 29 10000 8.23 240 19:22 22.05.2021
2745 Clear 17 1009 32 10000 6.17 230 18:42 22.05.2021
2746 Clear 17 1009 31 10000 6.69 240 17:58 22.05.2021
2747 Clear 17 1009 31 10000 6.69 240 17:31 22.05.2021
2748 Clear 18 1009 29 10000 9.26 250 16:55 22.05.2021
2749 Clear 17 1009 34 10000 7.72 250 15:59 22.05.2021
2750 Clear 17 1009 34 10000 7.72 250 15:33 22.05.2021
2751 Clear 16 1009 36 10000 8.23 260 14:46 22.05.2021
2752 Clear 17 1009 39 10000 8.75 240 14:24 22.05.2021
2753 Clear 16 1009 44 10000 8.75 240 13:48 22.05.2021
2754 Clear 15 1009 47 10000 7.2 240 12:59 22.05.2021
2755 Clouds 15 1009 47 10000 8.23 240 12:25 22.05.2021
2756 Clouds 14 1010 51 10000 7.2 230 11:50 22.05.2021
2757 Clouds 13 1010 54 10000 7.72 250 10:52 22.05.2021
2758 Clouds 12 1010 58 10000 7.2 240 10:29 22.05.2021
2759 Clouds 11 1010 65 10000 7.72 240 09:38 22.05.2021
2760 Clouds 10 1009 74 10000 5.14 190 08:34 22.05.2021
2761 Clouds 9 1009 79 10000 2.57 190 07:48 22.05.2021
2762 Rain 9 1009 82 10000 2.06 220 06:37 22.05.2021
2763 Clear 10 1007 76 10000 6.17 190 03:25 22.05.2021
2764 Clear 11 1007 82 10000 3.6 210 00:25 22.05.2021
2765 Clear 11 1007 80 10000 4.12 180 23:20 21.05.2021
2766 Clear 12 1007 74 10000 4.12 170 22:30 21.05.2021
2767 Clear 12 1008 69 10000 5.14 190 21:51 21.05.2021
2768 Clear 13 1008 65 10000 5.66 190 21:27 21.05.2021
2769 Clear 13 1008 62 10000 6.17 200 20:52 21.05.2021
2770 Clear 13 1008 58 10000 7.2 200 20:31 21.05.2021
2771 Clear 14 1009 62 10000 5.14 190 19:59 21.05.2021
2772 Clear 14 1008 62 10000 5.66 190 19:31 21.05.2021
2773 Clouds 14 1009 67 10000 7.72 190 18:56 21.05.2021
2774 Clouds 15 1009 61 10000 6.17 190 18:28 21.05.2021
2775 Clouds 15 1009 63 10000 7.72 190 17:47 21.05.2021
2776 Clouds 15 1009 63 10000 7.72 180 17:29 21.05.2021
2777 Rain 15 1010 63 10000 8.23 190 16:45 21.05.2021
2778 Clouds 16 1010 59 10000 7.2 190 16:26 21.05.2021
2779 Clouds 16 1010 48 10000 7.72 230 15:44 21.05.2021
2780 Clouds 16 1010 48 10000 7.72 230 15:26 21.05.2021
2781 Clouds 16 1010 59 10000 5.66 190 14:52 21.05.2021
2782 Clouds 16 1010 59 10000 5.66 190 14:32 21.05.2021
2783 Rain 15 1010 58 10000 4.63 180 13:29 21.05.2021
2784 Rain 15 1010 58 10000 3.6 180 12:25 21.05.2021
2785 Rain 15 1010 58 10000 4.12 180 11:44 21.05.2021
2786 Rain 15 1011 58 10000 4.63 180 11:25 21.05.2021
2787 Rain 15 1011 58 10000 5.14 170 10:51 21.05.2021
2788 Rain 15 1011 62 10000 4.63 170 10:28 21.05.2021
2789 Clear 14 1011 62 10000 5.14 170 09:33 21.05.2021
2790 Clear 12 1012 67 10000 3.6 170 08:47 21.05.2021
2791 Clear 12 1012 71 10000 3.09 170 08:21 21.05.2021
2792 Clear 10 1013 81 10000 2.06 150 07:27 21.05.2021
2793 Clear 9 1013 81 10000 3.09 150 05:53 21.05.2021
2794 Clear 10 1017 81 10000 2.57 100 00:51 21.05.2021
2795 Clear 10 1017 81 10000 2.57 110 00:19 21.05.2021
2796 Clear 10 1017 76 10000 1.54 140 23:39 20.05.2021
2797 Clouds 11 1018 71 10000 2.57 180 23:19 20.05.2021
2798 Clouds 11 1018 66 10000 2.06 180 22:40 20.05.2021
2799 Clouds 11 1018 62 10000 2.57 200 22:18 20.05.2021
2800 Clouds 12 1018 67 10000 2.06 190 21:47 20.05.2021
2801 Clouds 12 1018 67 10000 2.06 170 21:19 20.05.2021
2802 Clouds 14 1019 58 10000 1.54 210 20:36 20.05.2021
2803 Clouds 15 1019 51 10000 2.06 280 20:18 20.05.2021
2804 Clouds 15 1019 51 10000 1.54 310 19:42 20.05.2021
2805 Clouds 15 1019 51 10000 2.06 300 19:21 20.05.2021
2806 Clouds 15 1019 47 10000 3.6 300 18:37 20.05.2021
2807 Clouds 15 1019 55 10000 4.12 270 17:49 20.05.2021
2808 Clouds 15 1020 58 10000 2.57 270 17:31 20.05.2021
2809 Clouds 16 1020 58 10000 3.09 260 16:53 20.05.2021
2810 Clouds 15 1020 58 10000 4.63 270 16:29 20.05.2021
2811 Clouds 14 1020 63 10000 4.12 290 15:43 20.05.2021
2812 Clouds 14 1020 72 10000 4.63 300 15:25 20.05.2021
2813 Clouds 13 1021 74 10000 5.14 310 14:41 20.05.2021
2814 Clouds 13 1021 76 10000 6.17 290 14:21 20.05.2021
2815 Clouds 12 1021 71 10000 4.63 250 13:38 20.05.2021
2816 Clouds 12 1021 78 10000 4.12 230 12:51 20.05.2021
2817 Rain 12 1021 76 10000 4.63 230 12:23 20.05.2021
2818 Clouds 12 1021 71 10000 3.09 240 11:59 20.05.2021
2819 Clouds 11 1021 78 10000 2.57 270 11:21 20.05.2021
2820 Clouds 11 1021 82 10000 3.6 280 10:53 20.05.2021
2821 Clouds 11 1021 81 10000 3.6 280 10:34 20.05.2021
2822 Clouds 10 1021 81 10000 4.12 280 09:58 20.05.2021
2823 Clouds 10 1021 81 10000 4.12 280 09:39 20.05.2021
2824 Clouds 10 1021 81 10000 4.12 260 09:18 20.05.2021
2825 Clouds 10 1021 81 10000 3.09 250 08:51 20.05.2021
2826 Clouds 9 1021 87 10000 1.54 250 08:22 20.05.2021
2827 Clouds 9 1021 81 10000 1.03 0 07:50 20.05.2021
2828 Clouds 8 1020 85 10000 1.03 0 07:19 20.05.2021
2829 Clouds 8 1020 86 10000 1.03 0 06:45 20.05.2021
2830 Clouds 7 1019 83 10000 2.57 240 05:27 20.05.2021
2831 Clear 9 1019 81 10000 2.06 250 03:25 20.05.2021
2832 Clear 9 1019 79 10000 2.06 310 00:57 20.05.2021
2833 Clouds 9 1018 80 10000 1.57 245 23:56 19.05.2021
2834 Clouds 9 1018 79 10000 1.56 244 23:37 19.05.2021
2835 Clouds 9 1019 92 10000 1.76 246 23:19 19.05.2021
2836 Clouds 10 1019 92 10000 1.76 246 22:41 19.05.2021
2837 Clouds 10 1017 80 10000 1.85 250 22:18 19.05.2021
2838 Clouds 12 1017 66 10000 4.12 250 21:41 19.05.2021
2839 Clouds 12 1017 62 10000 1.54 260 21:21 19.05.2021
2840 Clouds 12 1016 62 10000 1.54 300 20:57 19.05.2021
2841 Clouds 12 1016 62 10000 1.54 300 20:57 19.05.2021
2842 Clouds 13 1016 54 10000 2.57 300 20:24 19.05.2021
2843 Clouds 14 1016 51 10000 2.06 320 19:49 19.05.2021
2844 Clouds 14 1016 51 10000 3.09 320 19:25 19.05.2021
2845 Clouds 14 1016 54 10000 2.57 290 18:49 19.05.2021
2846 Clouds 15 1016 47 10000 3.09 310 18:28 19.05.2021
2847 Clouds 15 1016 47 10000 2.57 290 17:48 19.05.2021
2848 Clouds 15 1016 51 10000 2.57 0 17:21 19.05.2021
2849 Rain 15 1016 58 10000 3.6 280 16:41 19.05.2021
2850 Clouds 15 1016 54 10000 6.17 270 16:21 19.05.2021
2851 Clouds 15 1016 47 10000 5.66 310 15:45 19.05.2021
2852 Clouds 13 1016 57 10000 6.17 280 14:58 19.05.2021
2853 Rain 13 1016 57 10000 6.17 280 14:38 19.05.2021
2854 Clouds 13 1016 60 10000 9.26 270 13:54 19.05.2021
2855 Rain 13 1016 60 10000 9.26 270 13:36 19.05.2021
2856 Clouds 14 1016 47 10000 5.66 300 12:46 19.05.2021
2857 Clouds 14 1016 54 10000 5.14 290 12:23 19.05.2021
2858 Clouds 14 1016 62 10000 4.12 300 11:59 19.05.2021
2859 Clouds 13 1016 62 10000 4.12 300 11:41 19.05.2021
2860 Clouds 13 1017 66 10000 4.12 320 11:21 19.05.2021
2861 Clouds 13 1017 68 10000 2.57 340 10:52 19.05.2021
2862 Clouds 12 1017 74 10000 2.57 280 10:30 19.05.2021
2863 Clouds 11 1017 77 10000 3.09 330 09:51 19.05.2021
2864 Clouds 10 1017 83 10000 3.09 290 09:21 19.05.2021
2865 Clouds 9 1017 84 10000 2.06 290 08:48 19.05.2021
2866 Clouds 9 1017 87 10000 1.54 290 08:30 19.05.2021
2867 Clouds 8 1016 88 10000 1.03 0 07:46 19.05.2021
2868 Clear 7 1016 91 10000 1.03 0 06:45 19.05.2021
2869 Clouds 6 1015 94 10000 0.51 0 05:41 19.05.2021
2870 Clouds 6 1015 100 10000 1.03 220 03:18 19.05.2021
2871 Clouds 8 1014 90 10000 0.51 320 00:35 19.05.2021
2872 Clouds 8 1013 90 10000 1.03 150 23:52 18.05.2021
2873 Clouds 9 1014 87 10000 0.51 0 23:28 18.05.2021
2874 Rain 9 1014 84 10000 3.6 310 22:46 18.05.2021
2875 Clouds 9 1014 83 10000 3.6 230 22:25 18.05.2021
2876 Clouds 10 1014 78 10000 3.6 240 21:46 18.05.2021
2877 Clouds 10 1013 78 10000 4.63 200 21:28 18.05.2021
2878 Clouds 11 1013 74 10000 4.63 200 20:48 18.05.2021
2879 Clouds 12 1013 72 10000 4.12 210 20:20 18.05.2021
2880 Clouds 13 1013 66 10000 3.09 200 19:51 18.05.2021
2881 Clouds 13 1013 64 10000 4.63 290 19:31 18.05.2021
2882 Clouds 14 1013 55 10000 5.66 290 18:57 18.05.2021
2883 Clouds 14 1013 55 10000 5.66 290 18:37 18.05.2021
2884 Clouds 13 1013 64 10000 5.66 300 18:19 18.05.2021
2885 Clouds 14 1013 47 10000 6.69 260 17:35 18.05.2021
2886 Clouds 14 1015 85 10000 3.95 280 16:44 18.05.2021
2887 Clouds 15 1013 48 10000 6.69 220 16:26 18.05.2021
2888 Clouds 14 1013 55 10000 5.14 250 15:43 18.05.2021
2889 Rain 14 1013 51 10000 6.17 250 15:22 18.05.2021
2890 Clouds 14 1013 58 10000 5.14 220 14:39 18.05.2021
2891 Rain 14 1013 63 10000 4.12 260 13:55 18.05.2021
2892 Clouds 13 1013 71 10000 2.06 290 12:59 18.05.2021
2893 Clouds 13 1014 71 10000 4.63 310 12:23 18.05.2021
2894 Clouds 12 1014 66 10000 4.63 250 11:42 18.05.2021
2895 Clouds 12 1014 66 10000 6.69 250 11:24 18.05.2021
2896 Clouds 12 1014 71 10000 6.69 250 10:45 18.05.2021
2897 Clouds 12 1014 71 10000 6.17 240 10:26 18.05.2021
2898 Clouds 12 1014 76 10000 4.63 250 09:36 18.05.2021
2899 Clouds 11 1014 76 10000 4.63 260 08:53 18.05.2021
2900 Clouds 10 1013 81 10000 4.63 250 08:20 18.05.2021
2901 Clouds 10 1013 81 10000 5.14 260 07:43 18.05.2021
2902 Clouds 10 1013 81 10000 4.12 260 06:51 18.05.2021
2903 Clouds 10 1011 81 10000 4.12 250 02:44 18.05.2021
2904 Clouds 10 1011 81 10000 5.66 240 02:25 18.05.2021
2905 Clouds 10 1010 76 10000 4.12 240 00:49 18.05.2021
2906 Clear 10 1010 76 10000 5.14 240 00:27 18.05.2021
2907 Clear 11 1010 76 10000 4.12 240 23:43 17.05.2021
2908 Clear 11 1010 76 10000 4.12 240 23:21 17.05.2021
2909 Clouds 11 1010 82 10000 4.12 230 22:46 17.05.2021
2910 Clouds 11 1010 82 10000 6.17 250 22:25 17.05.2021
2911 Clouds 11 1010 82 10000 6.17 250 22:25 17.05.2021
2912 Clouds 11 1009 71 10000 6.17 250 21:59 17.05.2021
2913 Clouds 12 1009 71 10000 5.14 240 21:22 17.05.2021
2914 Clouds 12 1009 62 10000 6.17 250 20:48 17.05.2021
2915 Clouds 12 1008 62 10000 9.26 250 20:22 17.05.2021
2916 Clouds 13 1008 58 10000 7.2 250 19:48 17.05.2021
2917 Clouds 13 1008 51 10000 8.75 250 19:27 17.05.2021
2918 Clouds 13 1008 54 10000 8.23 250 18:53 17.05.2021
2919 Clouds 13 1008 54 10000 8.23 250 18:32 17.05.2021
2920 Clouds 14 1008 58 10000 6.17 270 17:59 17.05.2021
2921 Clouds 14 1008 58 10000 6.17 270 17:41 17.05.2021
2922 Clouds 14 1007 51 10000 8.23 240 16:58 17.05.2021
2923 Clouds 14 1007 51 10000 8.23 240 16:32 17.05.2021
2924 Clouds 13 1007 55 10000 8.23 240 15:54 17.05.2021
2925 Clouds 13 1007 58 10000 7.72 240 15:24 17.05.2021
2926 Clouds 14 1007 58 10000 7.2 250 14:47 17.05.2021
2927 Clouds 13 1007 62 10000 5.14 240 14:29 17.05.2021
2928 Clouds 13 1007 58 10000 8.23 230 13:56 17.05.2021
2929 Clouds 12 1007 62 10000 6.69 260 12:47 17.05.2021
2930 Clouds 12 1007 76 10000 7.72 230 12:27 17.05.2021
2931 Clouds 11 1007 76 10000 8.23 230 11:50 17.05.2021
2932 Rain 11 1006 76 10000 5.14 240 11:27 17.05.2021
2933 Clouds 11 1006 87 10000 5.14 240 10:57 17.05.2021
2934 Clouds 10 1006 87 10000 4.63 240 10:32 17.05.2021
2935 Rain 10 1006 93 10000 4.12 230 09:59 17.05.2021
2936 Rain 10 1006 93 10000 2.57 230 08:55 17.05.2021
2937 Clouds 10 1006 93 10000 2.57 230 08:24 17.05.2021
2938 Clouds 10 1005 76 10000 3.6 230 07:34 17.05.2021
2939 Clouds 10 1005 81 10000 3.09 230 06:47 17.05.2021
2940 Clouds 10 1005 81 10000 2.57 230 06:19 17.05.2021
2941 Clouds 10 1004 82 10000 3.6 200 03:33 17.05.2021
2942 Rain 10 1003 81 10000 2.06 160 01:30 17.05.2021
2943 Clear 10 1003 81 10000 3.09 160 00:39 17.05.2021
2944 Clear 10 1003 81 10000 3.6 170 23:34 16.05.2021
2945 Clear 10 1003 82 10000 3.6 170 22:58 16.05.2021
2946 Clear 11 1003 82 10000 2.06 160 22:30 16.05.2021
2947 Clear 11 1003 76 10000 3.09 180 21:58 16.05.2021
2948 Clear 11 1003 76 10000 3.09 180 21:58 16.05.2021
2949 Clear 11 1003 76 10000 3.09 180 21:39 16.05.2021
2950 Clear 12 1002 82 10000 3.6 130 21:20 16.05.2021
2951 Clouds 13 1003 67 10000 3.09 190 20:39 16.05.2021
2952 Clouds 13 1003 67 10000 3.09 190 20:19 16.05.2021
2953 Clouds 14 1002 72 10000 1.03 0 19:41 16.05.2021
2954 Clouds 15 1003 63 10000 2.57 190 19:20 16.05.2021
2955 Rain 15 1003 55 10000 1.03 0 18:43 16.05.2021
2956 Rain 16 1003 63 10000 4.63 330 18:23 16.05.2021
2957 Clouds 16 1003 51 10000 2.06 270 17:52 16.05.2021
2958 Clouds 16 1003 51 10000 3.09 260 17:29 16.05.2021
2959 Clouds 15 1004 58 10000 2.57 280 16:59 16.05.2021
2960 Clouds 15 1004 58 10000 2.57 280 16:41 16.05.2021
2961 Clouds 15 1004 67 10000 5.66 280 16:20 16.05.2021
2962 Clouds 14 1004 63 10000 2.57 170 15:46 16.05.2021
2963 Clouds 14 1004 67 10000 4.12 200 15:22 16.05.2021
2964 Clouds 16 1005 58 10000 1.54 0 14:47 16.05.2021
2965 Clouds 14 1005 67 10000 2.57 220 14:20 16.05.2021
2966 Clouds 13 1006 87 9000 6.17 260 13:55 16.05.2021
2967 Rain 14 1005 58 10000 4.12 250 13:21 16.05.2021
2968 Clouds 14 1006 67 10000 6.17 250 12:53 16.05.2021
2969 Clouds 13 1006 67 10000 6.17 250 12:33 16.05.2021
2970 Clouds 13 1006 67 10000 7.2 240 11:59 16.05.2021
2971 Rain 13 1006 67 10000 7.2 240 11:36 16.05.2021
2972 Clouds 12 1006 76 10000 3.09 210 10:54 16.05.2021
2973 Clouds 11 1006 76 10000 3.6 180 10:33 16.05.2021
2974 Clouds 11 1006 76 10000 3.6 180 10:33 16.05.2021
2975 Clouds 11 1006 76 10000 3.6 180 09:54 16.05.2021
2976 Clouds 10 1006 76 10000 2.57 180 09:28 16.05.2021
2977 Clouds 9 1006 81 10000 3.09 180 08:57 16.05.2021
2978 Clouds 9 1006 81 10000 2.57 170 08:27 16.05.2021
2979 Rain 8 1006 81 10000 2.57 160 07:33 16.05.2021
2980 Rain 8 1006 87 10000 2.06 140 07:33 16.05.2021
2981 Clouds 8 1006 87 10000 2.06 90 06:59 16.05.2021
2982 Clouds 8 1006 81 10000 3.09 220 04:43 16.05.2021
2983 Clear 9 1005 87 10000 2.57 170 00:47 16.05.2021
2984 Clear 9 1005 87 10000 4.63 170 23:56 15.05.2021
2985 Clear 10 1005 87 10000 3.6 170 23:21 15.05.2021
2986 Clouds 10 1005 81 10000 2.57 190 22:49 15.05.2021
2987 Rain 10 1005 87 10000 5.14 230 22:23 15.05.2021
2988 Rain 11 1005 76 10000 6.69 220 21:41 15.05.2021
2989 Rain 11 1004 82 10000 2.06 100 21:21 15.05.2021
2990 Clear 11 1004 82 10000 2.57 90 20:38 15.05.2021
2991 Clouds 12 1004 82 10000 3.6 90 20:19 15.05.2021
2992 Clouds 12 1004 71 10000 2.06 100 19:35 15.05.2021
2993 Clouds 12 1005 82 10000 1.03 0 18:43 15.05.2021
2994 Clouds 12 1005 82 10000 1.03 0 18:20 15.05.2021
2995 Clouds 12 1006 67 10000 2.06 170 17:25 15.05.2021
2996 Clouds 13 1006 71 10000 3.09 140 16:47 15.05.2021
2997 Clouds 14 1006 82 10000 2.57 20 16:25 15.05.2021
2998 Rain 13 1007 87 8000 5.66 250 15:58 15.05.2021
2999 Rain 15 1006 58 10000 3.6 270 14:59 15.05.2021
3000 Clouds 15 1007 55 10000 3.6 190 14:30 15.05.2021
3001 Clouds 15 1007 54 10000 3.09 230 13:54 15.05.2021
3002 Clouds 15 1008 54 10000 4.63 250 13:30 15.05.2021
3003 Clouds 15 1008 54 10000 5.66 180 12:30 15.05.2021
3004 Clouds 14 1009 58 10000 5.14 190 11:49 15.05.2021
3005 Clouds 13 1009 62 10000 4.12 190 10:55 15.05.2021
3006 Clouds 13 1010 62 10000 3.6 210 10:24 15.05.2021
3007 Clouds 12 1010 71 10000 3.6 210 09:25 15.05.2021
3008 Clear 11 1010 76 10000 3.09 200 08:32 15.05.2021
3009 Clear 8 1010 93 10000 2.06 110 07:36 15.05.2021
3010 Clouds 9 1010 87 10000 2.57 110 07:18 15.05.2021
3011 Clouds 9 1010 93 10000 2.57 100 06:41 15.05.2021
3012 Clear 8 1010 76 10000 1.54 170 04:22 15.05.2021
3013 Clear 9 1010 81 10000 0.51 0 01:41 15.05.2021
3014 Clear 10 1010 66 10000 2.06 280 23:49 14.05.2021
3015 Clear 11 1009 66 10000 3.09 260 23:19 14.05.2021
3016 Clouds 12 1009 67 10000 3.09 260 22:25 14.05.2021
3017 Clear 13 1008 62 10000 1.03 0 21:44 14.05.2021
3018 Clear 12 1008 67 10000 0.51 0 21:18 14.05.2021
3019 Clear 15 1008 51 10000 2.57 300 20:35 14.05.2021
3020 Clear 16 1008 48 10000 3.09 290 19:54 14.05.2021
3021 Clear 16 1007 48 10000 2.57 270 19:31 14.05.2021
3022 Clear 16 1008 48 10000 4.12 290 18:58 14.05.2021
3023 Clear 17 1008 48 10000 4.12 290 18:35 14.05.2021
3024 Clear 17 1008 48 10000 3.09 300 17:49 14.05.2021
3025 Clear 17 1008 48 10000 4.12 300 17:25 14.05.2021
3026 Clouds 17 1008 51 10000 4.12 290 16:59 14.05.2021
3027 Clouds 17 1008 51 10000 4.12 290 16:41 14.05.2021
3028 Clouds 17 1008 51 10000 4.12 280 16:22 14.05.2021
3029 Clouds 16 1008 51 10000 3.09 280 15:20 14.05.2021
3030 Clouds 16 1008 55 10000 4.63 270 14:40 14.05.2021
3031 Clouds 17 1008 51 10000 4.12 240 13:46 14.05.2021
3032 Clouds 16 1008 55 10000 4.12 280 13:27 14.05.2021
3033 Clouds 16 1008 58 10000 4.63 270 12:37 14.05.2021
3034 Clouds 15 1008 58 10000 5.14 280 12:18 14.05.2021
3035 Clouds 15 1008 58 10000 5.14 260 11:26 14.05.2021
3036 Clouds 15 1008 63 10000 4.12 270 10:43 14.05.2021
3037 Clouds 14 1008 62 10000 4.12 260 10:24 14.05.2021
3038 Clouds 13 1008 71 10000 3.6 270 09:44 14.05.2021
3039 Clouds 12 1008 71 10000 4.12 260 09:25 14.05.2021
3040 Clouds 10 1008 81 10000 2.06 250 08:34 14.05.2021
3041 Clouds 9 1008 81 10000 2.06 230 07:35 14.05.2021
3042 Clouds 9 1007 87 10000 2.06 210 06:43 14.05.2021
3043 Rain 9 1007 87 10000 2.57 250 02:46 14.05.2021
3044 Rain 10 1007 87 10000 3.09 250 00:59 14.05.2021
3045 Rain 10 1007 87 10000 2.57 250 23:54 13.05.2021
3046 Rain 10 1007 87 10000 2.57 250 23:32 13.05.2021
3047 Rain 11 1007 87 10000 2.57 240 22:59 13.05.2021
3048 Rain 11 1007 87 10000 2.57 240 22:39 13.05.2021
3049 Rain 11 1007 82 10000 1.54 190 22:21 13.05.2021
3050 Clear 12 1007 81 10000 2.06 220 21:41 13.05.2021
3051 Clouds 13 1007 81 10000 2.06 250 21:22 13.05.2021
3052 Clouds 13 1006 83 10000 2.57 200 20:46 13.05.2021
3053 Clouds 13 1006 80 10000 1.54 240 19:56 13.05.2021
3054 Clouds 14 1006 80 10000 1.54 240 19:37 13.05.2021
3055 Clouds 14 1006 71 10000 2.06 230 19:19 13.05.2021
3056 Clouds 15 1006 71 10000 0.51 0 18:45 13.05.2021
3057 Clouds 14 1006 82 10000 1.54 20 18:22 13.05.2021
3058 Rain 13 1006 87 10000 2.06 360 17:41 13.05.2021
3059 Rain 14 1007 93 10000 5.14 300 17:22 13.05.2021
3060 Rain 15 1007 71 10000 3.09 280 16:48 13.05.2021
3061 Rain 15 1006 67 10000 2.57 300 16:19 13.05.2021
3062 Rain 15 1006 67 10000 2.06 330 15:56 13.05.2021
3063 Rain 15 1006 67 10000 2.06 330 15:56 13.05.2021
3064 Rain 15 1006 67 10000 2.57 330 15:25 13.05.2021
3065 Rain 15 1007 71 10000 2.57 360 14:57 13.05.2021
3066 Rain 15 1007 71 10000 2.57 20 14:38 13.05.2021
3067 Rain 15 1007 71 10000 2.57 20 14:20 13.05.2021
3068 Rain 15 1007 76 10000 3.6 10 13:43 13.05.2021
3069 Rain 14 1007 82 10000 3.6 20 13:24 13.05.2021
3070 Rain 15 1007 71 10000 3.6 340 12:41 13.05.2021
3071 Rain 14 1007 76 10000 2.06 330 12:18 13.05.2021
3072 Clouds 14 1008 71 10000 2.57 330 11:39 13.05.2021
3073 Clouds 11 1007 80 10000 2.53 315 10:56 13.05.2021
3074 Rain 9 1008 87 10000 2.57 290 10:37 13.05.2021
3075 Rain 8 1008 87 10000 1.54 310 09:56 13.05.2021
3076 Rain 8 1008 87 10000 1.03 0 09:29 13.05.2021
3077 Rain 7 1008 93 10000 1.03 0 08:38 13.05.2021
3078 Rain 7 1008 93 10000 1.54 270 08:19 13.05.2021
3079 Rain 6 1008 93 10000 1.03 0 07:20 13.05.2021
3080 Rain 6 1008 100 7000 1.54 300 05:51 13.05.2021
3081 Clouds 7 1009 100 10000 1.03 280 02:39 13.05.2021
3082 Rain 7 1010 93 10000 2.06 300 00:51 13.05.2021
3083 Rain 8 1010 100 10000 3.09 270 23:43 12.05.2021
3084 Rain 8 1010 100 10000 2.57 280 22:56 12.05.2021
3085 Rain 8 1010 100 10000 2.57 280 22:56 12.05.2021
3086 Rain 8 1011 93 10000 2.57 270 22:21 12.05.2021
3087 Rain 8 1011 93 10000 2.06 290 21:53 12.05.2021
3088 Rain 8 1010 87 10000 2.57 310 21:18 12.05.2021
3089 Rain 8 1010 93 10000 2.57 330 20:48 12.05.2021
3090 Rain 9 1010 93 10000 3.6 300 19:52 12.05.2021
3091 Rain 9 1010 87 10000 4.12 300 18:58 12.05.2021
3092 Rain 10 1010 87 10000 4.12 300 18:27 12.05.2021
3093 Rain 10 1010 82 10000 5.14 330 17:55 12.05.2021
3094 Rain 10 1010 82 10000 5.14 330 17:34 12.05.2021
3095 Rain 10 1010 94 10000 4.63 300 16:53 12.05.2021
3096 Rain 10 1010 87 10000 4.12 320 16:26 12.05.2021
3097 Rain 12 1010 94 8000 3.6 320 15:42 12.05.2021
3098 Rain 12 1010 87 9000 5.14 280 15:19 12.05.2021
3099 Rain 12 1010 94 9000 4.63 300 14:36 12.05.2021
3100 Rain 12 1010 87 9000 5.66 300 13:53 12.05.2021
3101 Rain 12 1010 87 9000 5.66 300 13:33 12.05.2021
3102 Rain 12 1010 94 9000 5.66 290 12:37 12.05.2021
3103 Rain 12 1010 87 8000 6.69 290 11:52 12.05.2021
3104 Rain 11 1010 87 8000 6.69 290 11:32 12.05.2021
3105 Rain 11 1010 93 7000 5.14 290 10:59 12.05.2021
3106 Rain 11 1010 93 7000 5.14 290 10:29 12.05.2021
3107 Rain 11 1010 93 7000 5.14 290 10:29 12.05.2021
3108 Rain 11 1010 93 8000 5.66 280 09:45 12.05.2021
3109 Rain 11 1010 93 8000 4.12 280 09:26 12.05.2021
3110 Rain 11 1010 93 9000 5.66 280 08:48 12.05.2021
3111 Rain 11 1010 93 9000 5.14 280 08:28 12.05.2021
3112 Rain 11 1010 100 9000 4.12 280 07:33 12.05.2021
3113 Rain 11 1009 100 10000 3.6 270 06:22 12.05.2021
3114 Clouds 12 1010 94 10000 3.09 260 00:53 12.05.2021
3115 Clouds 12 1009 94 10000 3.6 290 00:29 12.05.2021
3116 Clouds 12 1010 94 10000 3.6 260 23:47 11.05.2021
3117 Rain 12 1009 94 10000 3.6 270 23:28 11.05.2021
3118 Rain 12 1009 94 10000 4.63 270 22:49 11.05.2021
3119 Rain 12 1009 94 10000 6.17 270 22:21 11.05.2021
3120 Clouds 12 1009 94 10000 5.66 270 21:52 11.05.2021
3121 Rain 12 1009 94 10000 5.66 270 21:33 11.05.2021
3122 Rain 13 1009 94 10000 5.66 270 21:33 11.05.2021
3123 Rain 13 1008 88 10000 5.14 270 20:55 11.05.2021
3124 Rain 13 1008 88 10000 5.14 270 20:37 11.05.2021
3125 Rain 14 1007 94 10000 6.17 300 20:19 11.05.2021
3126 Rain 14 1006 88 10000 7.2 290 19:39 11.05.2021
3127 Rain 14 1007 88 10000 5.14 280 19:20 11.05.2021
3128 Rain 15 1006 88 10000 6.17 260 18:43 11.05.2021
3129 Rain 15 1006 82 10000 5.66 280 18:24 11.05.2021
3130 Rain 16 1006 77 10000 5.14 290 17:38 11.05.2021
3131 Rain 16 1006 77 10000 5.14 290 17:38 11.05.2021
3132 Rain 16 1006 77 10000 3.6 300 17:19 11.05.2021
3133 Clouds 16 1006 77 10000 4.12 280 16:39 11.05.2021
3134 Clouds 16 1006 77 10000 5.66 270 16:20 11.05.2021
3135 Rain 17 1005 77 10000 4.12 290 15:42 11.05.2021
3136 Rain 17 1005 72 10000 3.09 290 15:18 11.05.2021
3137 Rain 17 1006 72 10000 3.09 290 14:43 11.05.2021
3138 Rain 17 1006 72 10000 3.09 300 14:22 11.05.2021
3139 Clear 16 1006 72 10000 1.54 270 13:42 11.05.2021
3140 Clear 16 1005 72 10000 1.54 310 13:21 11.05.2021
3141 Clouds 16 1006 72 10000 2.06 0 12:51 11.05.2021
3142 Clouds 15 1006 72 10000 2.06 0 12:27 11.05.2021
3143 Clouds 16 1006 72 10000 2.06 0 11:47 11.05.2021
3144 Clear 16 1006 72 10000 1.03 0 11:26 11.05.2021
3145 Clear 15 1006 77 10000 2.06 290 10:53 11.05.2021
3146 Clear 15 1006 77 10000 2.06 300 10:27 11.05.2021
3147 Clear 15 1006 77 10000 2.06 300 09:58 11.05.2021
3148 Clear 15 1006 77 10000 1.03 0 09:37 11.05.2021
3149 Clear 14 1007 82 10000 1.54 310 09:19 11.05.2021
3150 Clear 14 1006 82 10000 2.57 290 08:46 11.05.2021
3151 Clear 14 1006 82 10000 3.09 280 08:25 11.05.2021
3152 Clear 13 1007 82 10000 2.06 250 07:47 11.05.2021
3153 Clear 12 1006 82 10000 1.54 290 07:20 11.05.2021
3154 Clear 14 1007 77 10000 2.57 280 02:21 11.05.2021
3155 Clear 15 1008 67 10000 4.63 290 00:53 11.05.2021
3156 Rain 15 1008 63 10000 4.63 300 00:34 11.05.2021
3157 Clear 15 1008 63 10000 3.6 290 23:40 10.05.2021
3158 Clear 16 1008 59 10000 3.09 290 23:19 10.05.2021
3159 Clear 16 1008 59 10000 4.63 310 22:41 10.05.2021
3160 Clear 17 1009 55 10000 4.12 310 22:18 10.05.2021
3161 Clear 18 1008 52 10000 4.12 310 21:35 10.05.2021
3162 Rain 19 1008 49 10000 4.12 330 20:59 10.05.2021
3163 Rain 19 1008 49 10000 4.12 330 20:40 10.05.2021
3164 Rain 19 1009 49 10000 4.63 320 20:19 10.05.2021
3165 Clear 21 1009 49 10000 4.63 310 19:44 10.05.2021
3166 Clear 21 1009 52 10000 5.14 310 19:22 10.05.2021
3167 Clear 21 1008 49 10000 6.17 310 18:54 10.05.2021
3168 Clear 22 1009 49 10000 6.17 310 18:22 10.05.2021
3169 Clear 23 1009 46 10000 5.66 300 17:45 10.05.2021
3170 Clear 23 1009 49 10000 6.69 290 17:26 10.05.2021
3171 Clear 23 1009 46 10000 6.69 300 16:49 10.05.2021
3172 Clear 24 1009 43 10000 8.23 290 16:26 10.05.2021
3173 Clear 24 1009 41 10000 7.2 290 15:40 10.05.2021
3174 Clear 26 1008 38 10000 5.66 300 15:19 10.05.2021
3175 Clear 27 1008 36 10000 6.17 290 14:44 10.05.2021
3176 Clear 27 1008 32 10000 3.6 260 14:21 10.05.2021
3177 Clear 27 1008 29 10000 2.57 0 13:36 10.05.2021
3178 Clear 25 1008 29 10000 2.06 170 12:49 10.05.2021
3179 Clear 25 1008 33 10000 2.57 0 12:23 10.05.2021
3180 Clear 25 1008 33 10000 2.57 160 11:46 10.05.2021
3181 Clear 24 1008 31 10000 3.6 180 11:26 10.05.2021
3182 Clear 24 1008 36 10000 5.14 200 10:49 10.05.2021
3183 Clear 22 1008 38 10000 4.63 170 10:30 10.05.2021
3184 Clear 22 1008 38 10000 3.09 150 09:48 10.05.2021
3185 Clear 19 1008 38 10000 3.09 150 09:28 10.05.2021
3186 Clear 17 1008 48 10000 4.12 130 08:34 10.05.2021
3187 Clear 15 1007 63 10000 3.09 110 07:55 10.05.2021
3188 Clear 14 1007 63 10000 3.09 110 07:35 10.05.2021
3189 Clear 12 1007 67 10000 4.63 100 06:58 10.05.2021
3190 Clear 12 1007 62 10000 4.12 100 06:27 10.05.2021
3191 Clear 14 1007 58 10000 1.54 110 00:55 10.05.2021
3192 Clear 16 1007 48 10000 2.06 100 23:55 09.05.2021
3193 Clear 20 1007 40 10000 2.57 90 22:43 09.05.2021
3194 Clear 20 1007 42 10000 3.6 90 22:21 09.05.2021
3195 Clear 20 1007 48 10000 4.63 110 21:49 09.05.2021
3196 Clear 20 1007 48 10000 4.12 120 21:28 09.05.2021
3197 Clear 22 1007 40 10000 4.63 120 20:41 09.05.2021
3198 Clear 24 1007 33 10000 6.69 120 20:20 09.05.2021
3199 Clear 25 1007 36 10000 5.66 120 19:41 09.05.2021
3200 Clear 25 1007 38 10000 6.17 130 19:19 09.05.2021
3201 Clear 26 1007 38 10000 5.14 130 18:43 09.05.2021
3202 Clear 26 1008 34 10000 6.69 120 18:22 09.05.2021
3203 Clear 26 1008 34 10000 5.66 120 17:32 09.05.2021
3204 Clear 26 1008 34 10000 6.69 140 16:39 09.05.2021
3205 Clear 26 1009 34 10000 6.17 160 16:21 09.05.2021
3206 Clear 26 1009 29 10000 6.69 150 15:23 09.05.2021
3207 Clear 26 1010 28 10000 5.66 170 14:52 09.05.2021
3208 Clear 25 1010 33 10000 7.72 140 13:57 09.05.2021
3209 Clear 25 1011 33 10000 6.69 140 13:37 09.05.2021
3210 Clear 24 1011 33 10000 6.69 150 12:47 09.05.2021
3211 Clear 24 1011 33 10000 6.69 150 12:47 09.05.2021
3212 Clear 24 1012 35 10000 6.69 140 12:23 09.05.2021
3213 Clear 20 1012 40 10000 4.63 140 11:23 09.05.2021
3214 Clear 19 1012 45 10000 3.6 140 10:47 09.05.2021
3215 Clear 18 1013 48 10000 3.6 140 10:29 09.05.2021
3216 Clear 15 1013 55 10000 4.63 130 09:38 09.05.2021
3217 Clear 14 1013 55 10000 4.63 130 09:18 09.05.2021
3218 Clear 13 1013 54 10000 4.12 130 08:48 09.05.2021
3219 Clear 12 1013 62 10000 4.63 120 08:23 09.05.2021
3220 Clear 9 1013 76 10000 3.6 110 07:32 09.05.2021
3221 Clear 7 1013 81 10000 3.6 120 06:40 09.05.2021
3222 Clear 8 1014 71 10000 3.6 110 03:29 09.05.2021
3223 Clear 9 1014 66 10000 3.6 130 00:22 09.05.2021
3224 Clear 10 1014 66 10000 4.12 110 23:31 08.05.2021
3225 Clear 11 1014 58 10000 4.12 100 22:55 08.05.2021
3226 Clear 11 1014 58 10000 4.12 100 22:22 08.05.2021
3227 Clear 12 1014 54 10000 4.12 100 21:52 08.05.2021
3228 Clear 13 1014 50 10000 3.09 110 21:22 08.05.2021
3229 Clear 14 1014 47 10000 3.6 130 20:58 08.05.2021
3230 Clear 14 1014 47 10000 3.6 130 20:32 08.05.2021
3231 Clear 16 1015 36 10000 4.63 190 19:27 08.05.2021
3232 Clear 16 1015 36 10000 4.63 170 18:55 08.05.2021
3233 Clear 16 1015 36 10000 4.63 170 18:37 08.05.2021
3234 Clear 16 1016 39 10000 4.63 160 17:58 08.05.2021
3235 Clear 16 1016 39 10000 4.63 160 17:35 08.05.2021
3236 Clear 17 1016 31 10000 4.63 180 16:32 08.05.2021
3237 Clear 16 1017 33 10000 3.6 240 15:58 08.05.2021
3238 Clear 16 1017 33 10000 3.6 240 15:39 08.05.2021
3239 Clear 16 1017 33 10000 4.63 200 15:20 08.05.2021
3240 Clear 15 1018 36 10000 3.09 210 14:27 08.05.2021
3241 Clear 15 1018 38 10000 4.12 180 13:56 08.05.2021
3242 Clear 14 1019 38 10000 3.09 160 13:25 08.05.2021
3243 Clear 14 1019 38 10000 2.06 0 12:38 08.05.2021
3244 Clear 13 1020 44 10000 4.12 210 11:54 08.05.2021
3245 Clouds 12 1020 35 10000 3.09 0 11:29 08.05.2021
3246 Clouds 11 1020 47 10000 3.09 180 10:46 08.05.2021
3247 Clear 10 1020 46 10000 3.6 160 10:23 08.05.2021
3248 Clear 8 1020 53 10000 3.6 150 09:53 08.05.2021
3249 Clear 9 1020 53 10000 3.6 150 09:33 08.05.2021
3250 Clear 6 1020 75 10000 3.09 120 08:31 08.05.2021
3251 Clear 2 1020 87 10000 3.09 110 07:41 08.05.2021
3252 Clear 1 1020 93 10000 3.09 110 07:23 08.05.2021
3253 Clear -1 1020 93 10000 3.6 110 06:40 08.05.2021
3254 Clear 1 1020 86 10000 2.57 100 02:30 08.05.2021
3255 Clear 2 1020 75 10000 1.54 130 00:52 08.05.2021
3256 Clear 2 1020 75 10000 1.54 130 00:34 08.05.2021
3257 Clear 3 1020 75 10000 0.51 0 23:34 07.05.2021
3258 Clear 4 1020 65 10000 2.06 220 22:57 07.05.2021
3259 Clear 4 1020 65 10000 2.06 220 22:33 07.05.2021
3260 Clouds 6 1019 65 10000 1.54 270 21:45 07.05.2021
3261 Clouds 6 1019 65 10000 4.12 290 21:27 07.05.2021
3262 Clouds 7 1018 61 10000 4.12 300 20:50 07.05.2021
3263 Clouds 8 1018 53 10000 5.66 290 20:31 07.05.2021
3264 Clouds 9 1017 66 10000 4.63 280 19:49 07.05.2021
3265 Clouds 9 1017 61 10000 6.17 280 19:27 07.05.2021
3266 Clouds 9 1017 66 10000 7.2 270 18:47 07.05.2021
3267 Clouds 10 1016 57 10000 6.69 290 18:28 07.05.2021
3268 Clouds 10 1016 57 10000 6.69 290 18:28 07.05.2021
3269 Clouds 9 1016 57 10000 8.75 270 17:42 07.05.2021
3270 Clouds 9 1016 71 10000 7.2 280 17:20 07.05.2021
3271 Clouds 9 1016 66 10000 7.72 270 16:41 07.05.2021
3272 Clouds 8 1016 66 10000 7.72 290 16:22 07.05.2021
3273 Clouds 8 1015 75 10000 11.83 290 15:44 07.05.2021
3274 Rain 10 1013 43 10000 7.2 280 15:26 07.05.2021
3275 Clouds 10 1013 46 10000 7.2 280 14:38 07.05.2021
3276 Clouds 11 1013 46 10000 7.72 280 14:19 07.05.2021
3277 Clouds 10 1012 53 10000 7.2 290 13:27 07.05.2021
3278 Clouds 9 1012 53 10000 7.2 280 12:49 07.05.2021
3279 Clouds 9 1012 57 10000 7.2 280 12:28 07.05.2021
3280 Clouds 9 1011 57 10000 6.69 280 11:52 07.05.2021
3281 Clouds 9 1011 66 10000 6.69 300 11:28 07.05.2021
3282 Clouds 8 1010 71 10000 6.17 300 10:44 07.05.2021
3283 Clouds 7 1010 81 10000 6.17 280 10:23 07.05.2021
3284 Clouds 7 1010 81 10000 5.66 280 09:55 07.05.2021
3285 Clouds 6 1009 93 10000 4.12 270 08:57 07.05.2021
3286 Clouds 6 1009 93 10000 4.12 270 08:34 07.05.2021
3287 Rain 6 1008 87 10000 3.09 250 07:34 07.05.2021
3288 Rain 6 1009 87 10000 3.6 260 07:34 07.05.2021
3289 Rain 6 1008 87 10000 2.57 260 06:45 07.05.2021
3290 Clouds 6 1007 81 10000 5.66 270 04:28 07.05.2021
3291 Clouds 8 1006 95 10000 1.34 227 01:24 07.05.2021
3292 Clouds 7 1004 93 10000 3.6 150 23:18 06.05.2021
3293 Clouds 7 1004 93 10000 3.6 160 22:25 06.05.2021
3294 Clouds 7 1004 93 8000 5.66 140 21:43 06.05.2021
3295 Rain 7 1004 87 10000 4.12 190 20:48 06.05.2021
3296 Clouds 7 1004 93 10000 4.63 180 20:25 06.05.2021
3297 Rain 7 1004 87 10000 5.14 170 19:54 06.05.2021
3298 Rain 7 1005 93 10000 3.09 130 19:25 06.05.2021
3299 Clouds 7 1005 93 10000 2.06 110 18:57 06.05.2021
3300 Rain 7 1005 93 10000 2.06 110 18:34 06.05.2021
3301 Rain 8 1006 81 10000 1.54 160 17:51 06.05.2021
3302 Rain 8 1007 76 10000 3.09 170 17:28 06.05.2021
3303 Rain 8 1007 76 10000 3.6 180 16:57 06.05.2021
3304 Rain 8 1007 76 10000 3.6 180 16:35 06.05.2021
3305 Rain 8 1007 76 10000 3.6 180 16:35 06.05.2021
3306 Clouds 9 1008 66 10000 3.6 210 15:59 06.05.2021
3307 Clouds 9 1008 66 10000 3.6 210 15:40 06.05.2021
3308 Clouds 9 1008 71 10000 3.09 210 15:18 06.05.2021
3309 Clouds 8 1009 81 10000 1.03 0 14:25 06.05.2021
3310 Clouds 8 1009 81 10000 1.03 0 13:52 06.05.2021
3311 Clouds 8 1010 81 10000 3.09 350 13:23 06.05.2021
3312 Clouds 7 1010 87 10000 3.6 350 12:42 06.05.2021
3313 Rain 7 1010 81 10000 1.54 320 12:22 06.05.2021
3314 Rain 7 1010 76 10000 1.54 340 11:47 06.05.2021
3315 Rain 8 1010 66 10000 3.6 220 11:20 06.05.2021
3316 Rain 8 1010 66 10000 3.09 240 10:46 06.05.2021
3317 Rain 8 1010 61 10000 4.63 250 10:24 06.05.2021
3318 Clouds 8 1010 61 10000 5.14 240 09:44 06.05.2021
3319 Rain 7 1011 70 10000 5.14 240 09:23 06.05.2021
3320 Rain 6 1011 70 10000 5.66 230 08:37 06.05.2021
3321 Rain 6 1011 70 10000 5.66 210 08:19 06.05.2021
3322 Clear 5 1011 75 10000 4.63 210 07:47 06.05.2021
3323 Clear 4 1010 81 10000 3.09 190 06:45 06.05.2021
3324 Clear 4 1011 81 10000 3.6 210 06:25 06.05.2021
3325 Clear 4 1011 81 10000 2.57 220 05:46 06.05.2021
3326 Rain 3 1011 87 10000 2.57 170 04:31 06.05.2021
3327 Clouds 3 1012 87 10000 2.06 170 02:30 06.05.2021
3328 Clouds 5 1012 81 10000 2.57 230 23:38 05.05.2021
3329 Clouds 5 1012 75 10000 4.12 210 22:31 05.05.2021
3330 Rain 6 1012 70 10000 2.57 230 21:59 05.05.2021
3331 Clouds 6 1012 70 10000 2.57 230 21:38 05.05.2021
3332 Clouds 6 1012 70 10000 2.57 230 21:38 05.05.2021
3333 Clouds 6 1011 70 10000 4.12 260 20:58 05.05.2021
3334 Clouds 6 1011 70 10000 4.12 260 20:34 05.05.2021
3335 Clouds 7 1010 76 10000 6.17 250 19:43 05.05.2021
3336 Clouds 6 1010 70 10000 5.14 240 19:24 05.05.2021
3337 Clouds 6 1010 81 10000 3.09 220 18:39 05.05.2021
3338 Clouds 6 1010 87 10000 7.2 240 18:18 05.05.2021
3339 Rain 6 1011 81 10000 12.86 290 17:44 05.05.2021
3340 Rain 8 1009 53 10000 10.29 240 17:25 05.05.2021
3341 Clouds 9 1008 53 10000 10.8 250 16:48 05.05.2021
3342 Clouds 9 1008 53 10000 10.8 250 16:48 05.05.2021
3343 Clouds 9 1008 57 10000 9.77 240 16:29 05.05.2021
3344 Clouds 9 1008 66 10000 9.26 240 15:50 05.05.2021
3345 Clouds 9 1008 76 10000 7.72 240 15:20 05.05.2021
3346 Rain 7 1008 81 10000 9.77 250 14:42 05.05.2021
3347 Rain 10 1006 46 10000 9.77 240 14:23 05.05.2021
3348 Clouds 11 1006 46 10000 10.8 240 13:34 05.05.2021
3349 Rain 10 1005 46 10000 10.29 250 12:58 05.05.2021
3350 Clear 10 1005 43 10000 10.8 250 12:27 05.05.2021
3351 Clouds 10 1005 50 10000 9.26 240 11:49 05.05.2021
3352 Clouds 9 1005 61 10000 9.26 240 11:28 05.05.2021
3353 Clouds 9 1005 53 10000 8.75 250 10:51 05.05.2021
3354 Clouds 8 1005 71 10000 6.69 240 10:26 05.05.2021
3355 Clouds 7 1005 76 10000 5.66 240 09:47 05.05.2021
3356 Clouds 7 1005 87 10000 4.12 220 08:51 05.05.2021
3357 Clouds 6 1005 87 10000 4.12 220 08:32 05.05.2021
3358 Clouds 6 1004 93 10000 3.09 220 07:57 05.05.2021
3359 Clouds 6 1004 93 10000 3.09 220 07:38 05.05.2021
3360 Clouds 6 1004 93 10000 3.09 220 06:53 05.05.2021
3361 Rain 6 1004 93 10000 3.09 210 04:56 05.05.2021
3362 Rain 7 1005 81 10000 4.12 210 01:41 05.05.2021
3363 Clouds 8 1006 81 10000 5.66 240 23:46 04.05.2021
3364 Clouds 8 1006 81 10000 7.2 270 23:22 04.05.2021
3365 Clouds 9 1006 81 10000 7.72 260 22:42 04.05.2021
3366 Clouds 10 1005 71 10000 5.66 220 22:20 04.05.2021
3367 Clouds 10 1005 76 10000 4.63 180 21:50 04.05.2021
3368 Clouds 10 1005 76 10000 4.12 190 21:28 04.05.2021
3369 Clouds 10 1005 76 10000 5.14 230 20:48 04.05.2021
3370 Clouds 10 1006 71 10000 5.66 230 20:27 04.05.2021
3371 Clouds 10 1006 71 10000 4.63 250 19:57 04.05.2021
3372 Clouds 10 1006 71 10000 4.63 250 19:57 04.05.2021
3373 Rain 10 1006 71 10000 4.63 250 19:38 04.05.2021
3374 Rain 10 1006 71 10000 6.69 260 19:19 04.05.2021
3375 Rain 11 1006 58 10000 9.26 250 18:40 04.05.2021
3376 Clouds 12 1006 54 10000 8.75 240 17:59 04.05.2021
3377 Clouds 12 1006 54 10000 8.75 240 17:38 04.05.2021
3378 Clouds 12 1007 58 10000 7.72 250 17:18 04.05.2021
3379 Rain 12 1007 50 10000 7.2 260 16:37 04.05.2021
3380 Rain 12 1006 47 10000 8.75 270 16:19 04.05.2021
3381 Clear 13 1006 47 10000 8.23 280 15:23 04.05.2021
3382 Clear 14 1006 47 10000 8.23 280 15:23 04.05.2021
3383 Clear 14 1006 47 10000 8.23 280 15:23 04.05.2021
3384 Clear 16 1006 36 10000 9.26 250 14:37 04.05.2021
3385 Clear 16 1006 33 10000 10.29 240 13:43 04.05.2021
3386 Clear 15 1006 39 10000 8.75 230 13:22 04.05.2021
3387 Clear 15 1006 39 10000 8.75 230 13:22 04.05.2021
3388 Clear 15 1006 41 10000 8.23 220 12:56 04.05.2021
3389 Clear 13 1007 51 10000 6.69 190 12:29 04.05.2021
3390 Clear 13 1007 50 10000 6.69 190 11:47 04.05.2021
3391 Clear 12 1007 54 10000 6.17 180 11:27 04.05.2021
3392 Clear 12 1008 50 10000 5.66 180 10:47 04.05.2021
3393 Clear 11 1008 54 10000 5.66 180 10:25 04.05.2021
3394 Clear 11 1008 54 10000 5.66 180 09:44 04.05.2021
3395 Clear 10 1009 57 10000 6.17 170 09:21 04.05.2021
3396 Clear 9 1009 61 10000 5.66 160 08:49 04.05.2021
3397 Clear 9 1009 61 10000 5.66 160 08:20 04.05.2021
3398 Clear 8 1010 66 10000 5.14 160 07:48 04.05.2021
3399 Clear 7 1010 65 10000 4.63 160 07:24 04.05.2021
3400 Clear 5 1011 70 10000 4.12 160 06:22 04.05.2021
3401 Clear 4 1012 70 10000 4.12 140 03:58 04.05.2021
3402 Clear 3 1014 75 10000 3.6 100 02:28 04.05.2021
3403 Clear 4 1016 70 10000 3.6 100 00:28 04.05.2021
3404 Clear 5 1016 65 10000 3.6 100 23:36 03.05.2021
3405 Clear 6 1017 57 10000 2.57 110 22:47 03.05.2021
3406 Clear 6 1017 57 10000 2.06 130 22:28 03.05.2021
3407 Clear 8 1017 49 10000 1.03 160 21:48 03.05.2021
3408 Clear 9 1017 43 10000 1.54 200 21:30 03.05.2021
3409 Clear 10 1017 43 10000 2.06 220 20:57 03.05.2021
3410 Clear 10 1017 43 10000 2.06 220 20:39 03.05.2021
3411 Clear 12 1018 37 10000 4.12 250 19:56 03.05.2021
3412 Clear 12 1018 37 10000 4.12 250 19:34 03.05.2021
3413 Clear 12 1018 37 10000 4.12 260 18:42 03.05.2021
3414 Clear 13 1019 38 10000 3.6 280 17:57 03.05.2021
3415 Clear 13 1019 38 10000 3.6 280 17:34 03.05.2021
3416 Clear 12 1019 43 10000 1.54 280 16:53 03.05.2021
3417 Clear 13 1019 43 10000 1.54 280 16:32 03.05.2021
3418 Clouds 12 1020 43 10000 2.57 250 15:50 03.05.2021
3419 Clouds 12 1020 46 10000 5.14 260 15:31 03.05.2021
3420 Clouds 12 1021 43 10000 5.66 240 14:38 03.05.2021
3421 Clouds 11 1021 46 10000 4.63 270 14:18 03.05.2021
3422 Clouds 11 1021 50 10000 4.12 320 13:38 03.05.2021
3423 Clouds 11 1021 50 10000 3.09 290 13:20 03.05.2021
3424 Clouds 10 1022 50 10000 3.6 270 12:37 03.05.2021
3425 Clouds 10 1022 50 10000 3.6 270 12:37 03.05.2021
3426 Clouds 10 1022 53 10000 3.09 270 12:19 03.05.2021
3427 Clouds 10 1022 53 10000 4.12 290 11:38 03.05.2021
3428 Clouds 9 1022 53 10000 2.57 250 10:57 03.05.2021
3429 Clouds 9 1022 53 10000 2.57 250 10:38 03.05.2021
3430 Clouds 8 1022 61 10000 2.57 250 09:56 03.05.2021
3431 Clouds 8 1022 61 10000 2.57 250 09:38 03.05.2021
3432 Clouds 4 1022 81 10000 2.06 100 08:46 03.05.2021
3433 Clouds 4 1022 81 10000 2.06 100 08:46 03.05.2021
3434 Rain 3 1022 87 10000 2.57 110 08:24 03.05.2021
3435 Clouds 3 1022 87 10000 2.57 100 07:54 03.05.2021
3436 Clouds 1 1021 86 10000 3.09 90 06:34 03.05.2021
3437 Clouds 1 1021 86 10000 3.09 90 06:34 03.05.2021
3438 Clear 0 1021 93 10000 2.57 110 05:57 03.05.2021
3439 Clear 0 1020 93 10000 1.54 110 03:58 03.05.2021
3440 Clear 2 1020 87 10000 0.51 0 00:45 03.05.2021
3441 Clear 3 1019 75 10000 0.51 0 23:43 02.05.2021
3442 Clear 4 1019 70 10000 1.54 260 23:21 02.05.2021
3443 Clear 4 1019 70 10000 1.54 290 22:40 02.05.2021
3444 Clear 5 1019 75 10000 2.06 280 22:18 02.05.2021
3445 Clear 6 1018 61 10000 2.06 270 21:43 02.05.2021
3446 Clear 6 1018 61 10000 2.57 290 21:22 02.05.2021
3447 Clouds 9 1017 49 10000 6.17 300 20:26 02.05.2021
3448 Clouds 10 1017 50 10000 6.17 320 19:46 02.05.2021
3449 Clouds 10 1016 50 10000 6.17 310 19:23 02.05.2021
3450 Clouds 11 1016 50 10000 6.17 320 18:48 02.05.2021
3451 Clouds 11 1016 50 10000 6.69 320 18:29 02.05.2021
3452 Clouds 11 1016 40 10000 7.72 300 17:55 02.05.2021
3453 Clouds 12 1016 40 10000 7.72 300 17:36 02.05.2021
3454 Clouds 11 1016 47 10000 6.69 290 17:18 02.05.2021
3455 Clouds 11 1015 54 10000 5.66 290 16:40 02.05.2021
3456 Clouds 11 1016 58 10000 4.63 280 16:21 02.05.2021
3457 Clouds 11 1016 62 10000 4.12 270 15:44 02.05.2021
3458 Rain 9 1016 66 10000 3.6 280 15:23 02.05.2021
3459 Clouds 9 1016 71 10000 3.6 260 14:42 02.05.2021
3460 Clouds 9 1016 76 10000 4.63 290 14:23 02.05.2021
3461 Clouds 8 1016 71 10000 3.6 290 13:45 02.05.2021
3462 Clouds 8 1015 76 10000 3.09 300 13:22 02.05.2021
3463 Clouds 8 1015 76 10000 3.6 300 12:43 02.05.2021
3464 Rain 7 1015 81 10000 5.66 300 12:23 02.05.2021
3465 Rain 8 1015 76 10000 4.63 300 11:50 02.05.2021
3466 Rain 7 1015 81 10000 5.66 290 11:31 02.05.2021
3467 Clouds 7 1014 87 10000 6.69 290 10:56 02.05.2021
3468 Rain 6 1014 87 9000 6.69 290 10:21 02.05.2021
3469 Rain 6 1014 87 9000 6.17 280 09:47 02.05.2021
3470 Rain 6 1015 94 10000 1.34 256 09:28 02.05.2021
3471 Rain 6 1015 94 10000 1.34 256 09:28 02.05.2021
3472 Rain 6 1013 87 7000 6.69 290 08:54 02.05.2021
3473 Rain 5 1013 93 6000 5.66 290 08:31 02.05.2021
3474 Rain 5 1012 100 6000 5.14 300 07:53 02.05.2021
3475 Rain 5 1012 93 5000 5.66 310 07:21 02.05.2021
3476 Rain 7 1009 93 7000 5.14 320 05:27 02.05.2021
3477 Rain 7 1008 93 7000 4.12 320 01:43 02.05.2021
3478 Rain 8 1008 100 5000 3.09 320 23:49 01.05.2021
3479 Rain 8 1008 100 6000 3.6 330 23:28 01.05.2021
3480 Rain 8 1009 93 7000 3.09 340 22:54 01.05.2021
3481 Rain 8 1009 93 7000 4.12 340 22:31 01.05.2021
3482 Rain 8 1009 93 8000 3.6 330 21:56 01.05.2021
3483 Rain 9 1009 93 8000 3.09 330 21:38 01.05.2021
3484 Rain 9 1009 93 8000 3.09 330 21:20 01.05.2021
3485 Rain 9 1009 93 8000 3.09 320 20:42 01.05.2021
3486 Rain 9 1009 87 10000 2.57 320 20:24 01.05.2021
3487 Rain 10 1009 87 10000 3.09 360 19:50 01.05.2021
3488 Rain 10 1009 76 10000 3.6 350 19:28 01.05.2021
3489 Rain 11 1009 71 10000 4.12 350 18:48 01.05.2021
3490 Rain 11 1009 66 10000 3.09 350 18:23 01.05.2021
3491 Rain 12 1009 66 10000 1.54 10 17:38 01.05.2021
3492 Rain 12 1010 66 10000 2.06 50 17:20 01.05.2021
3493 Rain 12 1010 66 10000 1.54 100 16:43 01.05.2021
3494 Rain 12 1010 66 10000 1.03 0 16:24 01.05.2021
3495 Rain 12 1010 66 10000 2.06 40 15:22 01.05.2021
3496 Clouds 11 1011 66 10000 1.54 30 13:59 01.05.2021
3497 Clouds 11 1011 71 10000 2.57 20 13:27 01.05.2021
3498 Clouds 12 1012 76 10000 2.57 20 12:52 01.05.2021
3499 Clouds 10 1012 76 10000 2.57 20 12:25 01.05.2021
3500 Clouds 10 1012 81 10000 1.54 60 11:53 01.05.2021
3501 Clouds 10 1012 81 10000 1.54 60 11:34 01.05.2021
3502 Clouds 8 1012 76 10000 2.06 40 10:58 01.05.2021
3503 Clouds 8 1012 81 10000 1.54 350 10:30 01.05.2021
3504 Clouds 8 1012 81 10000 1.03 0 09:44 01.05.2021
3505 Clouds 8 1012 81 10000 1.03 0 09:24 01.05.2021
3506 Clouds 7 1012 87 9000 0.51 0 08:32 01.05.2021
3507 Clouds 7 1012 87 9000 1.03 200 07:39 01.05.2021
3508 Clouds 6 1012 93 9000 1.03 250 06:20 01.05.2021
3509 Clouds 6 1013 93 10000 1.03 280 03:44 01.05.2021
3510 Rain 6 1013 93 10000 2.57 280 00:32 01.05.2021
3511 Rain 6 1013 93 10000 2.06 280 23:57 30.04.2021
3512 Rain 6 1012 93 10000 2.06 290 22:56 30.04.2021
3513 Rain 7 1012 93 10000 2.06 290 22:37 30.04.2021
3514 Rain 7 1012 93 10000 3.09 290 22:18 30.04.2021
3515 Rain 7 1012 93 10000 2.06 300 21:43 30.04.2021
3516 Rain 7 1012 87 10000 1.54 280 21:23 30.04.2021
3517 Rain 7 1011 87 10000 2.57 300 20:41 30.04.2021
3518 Rain 8 1011 81 10000 3.09 340 19:57 30.04.2021
3519 Rain 8 1011 81 10000 3.09 350 19:19 30.04.2021
3520 Rain 8 1011 81 10000 5.14 340 18:43 30.04.2021
3521 Rain 8 1011 81 10000 5.14 340 18:24 30.04.2021
3522 Rain 8 1011 81 10000 5.14 330 17:48 30.04.2021
3523 Rain 8 1011 81 10000 6.17 320 17:22 30.04.2021
3524 Rain 8 1011 76 10000 6.17 320 16:51 30.04.2021
3525 Rain 9 1011 62 10000 6.17 310 16:28 30.04.2021
3526 Rain 10 1011 50 10000 5.14 310 15:41 30.04.2021
3527 Rain 11 1011 50 10000 5.14 310 15:20 30.04.2021
3528 Rain 11 1011 47 10000 3.09 300 14:46 30.04.2021
3529 Rain 11 1011 43 10000 1.54 0 14:24 30.04.2021
3530 Clear 11 1011 50 10000 2.06 350 13:50 30.04.2021
3531 Clear 11 1011 50 10000 2.57 280 13:30 30.04.2021
3532 Clear 11 1011 53 10000 1.54 290 12:43 30.04.2021
3533 Clear 11 1012 53 10000 2.57 260 12:24 30.04.2021
3534 Clear 10 1012 57 10000 2.06 300 11:24 30.04.2021
3535 Clear 10 1012 53 10000 1.54 320 10:52 30.04.2021
3536 Clear 10 1012 53 10000 1.54 320 10:34 30.04.2021
3537 Clear 8 1012 66 10000 2.06 320 09:57 30.04.2021
3538 Clear 7 1013 65 10000 1.54 330 09:27 30.04.2021
3539 Clear 7 1012 70 10000 0.51 0 08:49 30.04.2021
3540 Clear 3 1012 87 10000 1.03 70 07:45 30.04.2021
3541 Clear 3 1012 87 10000 0.51 0 07:25 30.04.2021
3542 Clear 2 1012 93 10000 1.54 130 06:51 30.04.2021
3543 Clear 2 1012 93 10000 1.54 350 06:25 30.04.2021
3544 Clear 2 1012 87 10000 0.51 0 05:27 30.04.2021
3545 Clouds 4 1012 77 10000 1.61 265 02:47 30.04.2021
3546 Clear 6 1011 65 10000 4.12 320 01:42 30.04.2021
3547 Clear 9 1009 66 10000 2.06 240 23:45 29.04.2021
3548 Clear 9 1008 62 10000 3.6 230 23:24 29.04.2021
3549 Clear 10 1008 62 10000 3.09 210 22:43 29.04.2021
3550 Clear 10 1008 66 10000 4.12 230 22:22 29.04.2021
3551 Clear 11 1008 66 10000 2.06 210 21:44 29.04.2021
3552 Clear 11 1007 62 10000 2.57 210 21:24 29.04.2021
3553 Clear 11 1007 62 10000 2.57 210 21:24 29.04.2021
3554 Clear 13 1007 58 10000 2.06 240 20:48 29.04.2021
3555 Clear 13 1007 54 10000 3.09 260 20:29 29.04.2021
3556 Clear 14 1007 54 10000 4.12 290 19:58 29.04.2021
3557 Clear 14 1007 54 10000 4.12 290 19:58 29.04.2021
3558 Clear 14 1007 54 10000 4.12 290 19:39 29.04.2021
3559 Clear 14 1007 54 10000 7.2 300 19:20 29.04.2021
3560 Clear 15 1006 41 10000 7.2 270 18:41 29.04.2021
3561 Clear 15 1006 41 10000 8.23 260 17:49 29.04.2021
3562 Clouds 15 1006 58 10000 3.6 190 17:31 29.04.2021
3563 Clouds 15 1006 54 10000 3.09 200 16:56 29.04.2021
3564 Clouds 15 1006 54 10000 3.09 200 16:38 29.04.2021
3565 Clouds 15 1006 54 10000 3.09 200 16:38 29.04.2021
3566 Rain 14 1006 58 10000 5.14 270 16:18 29.04.2021
3567 Rain 13 1006 62 10000 6.17 250 15:29 29.04.2021
3568 Clouds 13 1006 67 10000 4.63 270 14:54 29.04.2021
3569 Clouds 13 1006 67 10000 4.63 270 14:54 29.04.2021
3570 Clouds 13 1006 67 10000 4.12 230 14:30 29.04.2021
3571 Clouds 14 1006 58 10000 4.63 230 13:58 29.04.2021
3572 Clouds 14 1006 58 10000 4.63 230 13:39 29.04.2021
3573 Clouds 15 1006 55 10000 5.14 220 12:58 29.04.2021
3574 Clouds 14 1006 54 10000 5.66 250 12:32 29.04.2021
3575 Clouds 14 1006 62 10000 4.12 240 11:57 29.04.2021
3576 Clouds 14 1006 62 10000 4.12 240 11:38 29.04.2021
3577 Clouds 13 1006 67 10000 5.66 240 11:19 29.04.2021
3578 Clouds 13 1006 62 10000 6.17 250 10:43 29.04.2021
3579 Rain 12 1005 67 10000 5.66 260 10:18 29.04.2021
3580 Clouds 12 1005 71 10000 7.72 260 09:37 29.04.2021
3581 Clouds 12 1005 71 10000 7.72 260 09:18 29.04.2021
3582 Clouds 11 1004 82 10000 5.66 270 08:35 29.04.2021
3583 Clouds 11 1004 82 10000 4.12 230 07:56 29.04.2021
3584 Clouds 11 1004 76 10000 3.6 230 07:29 29.04.2021
3585 Clouds 11 1003 76 10000 2.57 200 06:36 29.04.2021
3586 Clouds 10 1003 76 10000 1.54 170 05:21 29.04.2021
3587 Clear 11 1002 58 10000 1.54 120 00:27 29.04.2021
3588 Clear 11 1002 58 10000 4.12 100 23:22 28.04.2021
3589 Clear 12 1002 58 10000 4.12 100 22:53 28.04.2021
3590 Clear 13 1002 51 10000 3.6 90 22:25 28.04.2021
3591 Clear 13 1002 51 10000 3.09 90 21:50 28.04.2021
3592 Clear 14 1002 47 10000 2.57 100 21:23 28.04.2021
3593 Clear 16 1002 44 10000 4.12 130 20:57 28.04.2021
3594 Clear 16 1002 44 10000 4.12 130 20:38 28.04.2021
3595 Clear 16 1002 39 10000 4.12 140 20:20 28.04.2021
3596 Clear 18 1002 34 10000 3.09 150 19:32 28.04.2021
3597 Clear 17 1002 36 10000 2.57 130 18:55 28.04.2021
3598 Clear 18 1002 36 10000 2.57 130 18:37 28.04.2021
3599 Clear 19 1003 30 10000 3.6 190 17:57 28.04.2021
3600 Clear 19 1003 30 10000 3.6 190 17:37 28.04.2021
3601 Rain 19 1003 30 10000 2.06 270 17:18 28.04.2021
3602 Clear 20 1004 26 10000 4.12 200 16:21 28.04.2021
3603 Clear 20 1004 28 10000 2.57 0 15:47 28.04.2021
3604 Clear 20 1004 26 10000 1.54 0 15:25 28.04.2021
3605 Clear 19 1004 27 10000 2.57 0 14:41 28.04.2021
3606 Clear 19 1004 30 10000 3.6 140 14:21 28.04.2021
3607 Clear 19 1005 30 10000 3.09 160 13:46 28.04.2021
3608 Clear 18 1005 27 10000 3.09 0 13:24 28.04.2021
3609 Clear 17 1005 29 10000 2.57 140 12:53 28.04.2021
3610 Clear 17 1005 31 10000 3.6 110 12:25 28.04.2021
3611 Clear 16 1005 36 10000 3.6 100 11:40 28.04.2021
3612 Clear 15 1006 41 10000 3.09 120 11:20 28.04.2021
3613 Clear 13 1006 44 10000 2.57 110 10:41 28.04.2021
3614 Clear 12 1006 47 10000 2.57 110 10:20 28.04.2021
3615 Clear 12 1006 47 10000 2.57 110 10:20 28.04.2021
3616 Clear 11 1006 50 10000 3.09 90 09:48 28.04.2021
3617 Clear 10 1006 53 10000 3.6 100 09:29 28.04.2021
3618 Clear 9 1006 57 10000 4.63 110 08:52 28.04.2021
3619 Clear 4 1006 65 10000 2.57 100 07:32 28.04.2021
3620 Clear 2 1006 75 10000 3.09 100 06:48 28.04.2021
3621 Clear 3 1006 70 10000 1.54 90 05:28 28.04.2021
3622 Clear 5 1006 60 10000 3.6 110 02:43 28.04.2021
3623 Clear 6 1006 49 10000 3.6 90 01:56 28.04.2021
3624 Clear 7 1007 46 10000 3.09 90 00:28 28.04.2021
3625 Clear 8 1006 43 10000 3.09 80 23:43 27.04.2021
3626 Clear 9 1006 43 10000 3.09 70 22:57 27.04.2021
3627 Clear 9 1006 43 10000 3.09 70 22:38 27.04.2021
3628 Clear 10 1007 40 10000 2.57 60 22:19 27.04.2021
3629 Clear 10 1006 40 10000 2.57 60 21:44 27.04.2021
3630 Clear 10 1006 40 10000 2.57 60 21:44 27.04.2021
3631 Clear 11 1006 37 10000 2.57 60 21:22 27.04.2021
3632 Clear 13 1006 35 10000 2.57 60 20:48 27.04.2021
3633 Clear 13 1006 33 10000 3.09 80 20:29 27.04.2021
3634 Clear 15 1006 33 10000 4.12 90 19:46 27.04.2021
3635 Clear 15 1006 29 10000 3.09 60 19:22 27.04.2021
3636 Clear 15 1006 27 10000 3.6 90 18:51 27.04.2021
3637 Clear 16 1006 29 10000 3.09 90 18:32 27.04.2021
3638 Clear 16 1006 27 10000 2.06 70 17:45 27.04.2021
3639 Clear 16 1006 31 10000 3.09 0 17:25 27.04.2021
3640 Clear 16 1007 29 10000 2.57 0 16:47 27.04.2021
3641 Clear 16 1007 29 10000 2.57 0 16:47 27.04.2021
3642 Clear 16 1007 31 10000 2.57 0 16:26 27.04.2021
3643 Clear 15 1008 29 10000 2.57 0 15:49 27.04.2021
3644 Clear 16 1008 25 10000 2.57 0 15:26 27.04.2021
3645 Clear 16 1008 31 10000 4.12 0 14:53 27.04.2021
3646 Clear 14 1008 31 10000 2.57 0 14:29 27.04.2021
3647 Clear 14 1009 35 10000 3.09 90 13:58 27.04.2021
3648 Clear 14 1009 35 10000 3.09 90 13:33 27.04.2021
3649 Clear 13 1009 35 10000 4.12 100 12:47 27.04.2021
3650 Clear 12 1010 37 10000 5.14 80 12:22 27.04.2021
3651 Clear 11 1010 40 10000 4.12 100 11:40 27.04.2021
3652 Clear 11 1010 40 10000 4.12 0 11:19 27.04.2021
3653 Clear 10 1010 40 10000 4.12 80 10:34 27.04.2021
3654 Clear 8 1010 43 10000 3.09 80 09:59 27.04.2021
3655 Clear 8 1010 43 10000 3.09 80 09:39 27.04.2021
3656 Clear 6 1011 45 10000 4.63 100 08:40 27.04.2021
3657 Clear 4 1011 52 10000 1.54 0 07:53 27.04.2021
3658 Clear 4 1011 52 10000 1.03 0 07:30 27.04.2021
3659 Clear 3 1011 52 10000 2.06 60 06:41 27.04.2021
3660 Clear 2 1011 52 10000 1.54 40 05:52 27.04.2021
3661 Clear 4 1012 48 10000 2.57 70 03:25 27.04.2021
3662 Clear 5 1013 45 10000 2.57 30 00:39 27.04.2021
3663 Clear 6 1013 42 10000 3.09 30 23:58 26.04.2021
3664 Clear 6 1013 42 10000 2.06 20 23:25 26.04.2021
3665 Clear 6 1014 42 10000 2.57 30 22:55 26.04.2021
3666 Clear 7 1014 36 10000 2.57 40 22:32 26.04.2021
3667 Clear 8 1013 34 10000 3.6 30 21:44 26.04.2021
3668 Clear 8 1013 29 10000 2.57 20 21:24 26.04.2021
3669 Clear 10 1013 28 10000 3.09 10 20:57 26.04.2021
3670 Clear 12 1013 24 10000 4.63 360 20:36 26.04.2021
3671 Clear 13 1013 22 10000 4.63 10 19:53 26.04.2021
3672 Clear 13 1013 22 10000 4.63 10 19:35 26.04.2021
3673 Clear 13 1013 24 10000 3.6 10 18:48 26.04.2021
3674 Clear 13 1013 23 10000 3.09 30 18:30 26.04.2021
3675 Clear 14 1013 23 10000 3.6 20 17:53 26.04.2021
3676 Clear 14 1014 21 10000 3.6 320 17:33 26.04.2021
3677 Clear 14 1014 21 10000 2.57 360 16:50 26.04.2021
3678 Clear 14 1015 23 10000 2.06 0 16:30 26.04.2021
3679 Clear 14 1015 24 10000 2.06 0 15:58 26.04.2021
3680 Clear 14 1015 24 10000 2.06 0 15:39 26.04.2021
3681 Clear 14 1016 24 10000 2.06 0 15:20 26.04.2021
3682 Clear 13 1016 28 10000 3.6 0 14:44 26.04.2021
3683 Clear 13 1017 28 10000 2.06 0 14:24 26.04.2021
3684 Clear 13 1017 28 10000 4.63 10 13:44 26.04.2021
3685 Clear 12 1017 35 10000 2.06 0 13:23 26.04.2021
3686 Clear 11 1018 37 10000 3.09 340 12:24 26.04.2021
3687 Clear 10 1018 34 10000 3.6 10 11:39 26.04.2021
3688 Clear 9 1019 40 10000 3.6 70 10:58 26.04.2021
3689 Clear 9 1019 40 10000 3.6 70 10:38 26.04.2021
3690 Clear 8 1019 46 10000 2.57 70 10:19 26.04.2021
3691 Clear 8 1019 45 10000 3.6 80 09:46 26.04.2021
3692 Clear 6 1019 49 10000 3.09 50 09:21 26.04.2021
3693 Clear 6 1019 49 10000 3.09 50 09:21 26.04.2021
3694 Clear 6 1019 52 10000 3.09 50 08:38 26.04.2021
3695 Clear 5 1019 56 10000 1.03 0 08:19 26.04.2021
3696 Clear 3 1019 65 10000 1.54 320 07:49 26.04.2021
3697 Clear 2 1019 75 10000 1.03 330 06:56 26.04.2021
3698 Clear 2 1019 75 10000 1.54 350 06:20 26.04.2021
3699 Clear 3 1020 75 10000 1.03 0 04:40 26.04.2021
3700 Clear 3 1021 60 10000 1.03 0 03:59 26.04.2021
3701 Clear 4 1021 56 10000 2.57 70 01:52 26.04.2021
3702 Clear 5 1022 52 10000 2.57 60 00:48 26.04.2021
3703 Clear 6 1022 56 10000 3.09 60 00:21 26.04.2021
3704 Clear 6 1022 61 10000 2.06 60 23:42 25.04.2021
3705 Clear 6 1022 57 10000 3.6 40 23:24 25.04.2021
3706 Clear 8 1022 53 10000 3.09 40 22:40 25.04.2021
3707 Clear 8 1022 49 10000 3.6 40 22:19 25.04.2021
3708 Clear 10 1021 46 10000 3.6 30 21:42 25.04.2021
3709 Clear 10 1021 43 10000 3.6 20 21:24 25.04.2021
3710 Clear 11 1020 37 10000 5.14 340 20:48 25.04.2021
3711 Clear 11 1020 33 10000 4.63 340 20:27 25.04.2021
3712 Clear 13 1020 28 10000 5.14 340 19:51 25.04.2021
3713 Clear 13 1020 28 10000 3.6 330 19:28 25.04.2021
3714 Clear 13 1020 30 10000 3.6 0 18:58 25.04.2021
3715 Clear 14 1020 29 10000 2.06 310 18:39 25.04.2021
3716 Clear 14 1020 29 10000 2.06 310 18:21 25.04.2021
3717 Clear 14 1020 29 10000 4.12 340 17:41 25.04.2021
3718 Clear 15 1020 25 10000 5.14 330 17:21 25.04.2021
3719 Clear 14 1020 30 10000 4.12 330 16:43 25.04.2021
3720 Clear 14 1021 30 10000 3.6 20 16:24 25.04.2021
3721 Clear 14 1021 33 10000 4.12 330 15:39 25.04.2021
3722 Clear 14 1021 30 10000 3.09 0 15:18 25.04.2021
3723 Clear 13 1021 33 10000 3.6 310 14:22 25.04.2021
3724 Clear 13 1021 33 10000 3.6 310 14:22 25.04.2021
3725 Clear 14 1021 35 10000 3.09 0 13:52 25.04.2021
3726 Clear 13 1022 37 10000 5.14 340 13:23 25.04.2021
3727 Clear 12 1022 35 10000 3.09 0 12:49 25.04.2021
3728 Clear 11 1022 35 10000 3.09 0 12:30 25.04.2021
3729 Clear 11 1022 40 10000 4.12 350 11:58 25.04.2021
3730 Clear 11 1022 40 10000 4.12 350 11:32 25.04.2021
3731 Clouds 10 1022 40 10000 3.6 40 10:51 25.04.2021
3732 Clouds 9 1022 43 10000 3.6 10 10:21 25.04.2021
3733 Clouds 9 1022 43 10000 3.6 10 10:21 25.04.2021
3734 Clear 8 1022 49 10000 3.6 30 09:48 25.04.2021
3735 Clear 7 1022 61 10000 2.57 350 09:25 25.04.2021
3736 Clear 5 1022 70 10000 2.06 340 08:24 25.04.2021
3737 Clear 4 1021 75 10000 2.57 350 07:48 25.04.2021
3738 Clear 4 1021 75 10000 2.57 350 07:48 25.04.2021
3739 Clear 3 1021 80 10000 3.09 350 07:20 25.04.2021
3740 Clear 3 1021 80 10000 2.06 350 06:50 25.04.2021
3741 Clear 3 1021 87 10000 1.54 340 05:29 25.04.2021
3742 Clear 3 1021 87 10000 1.54 340 05:29 25.04.2021
3743 Clear 4 1021 81 10000 2.06 350 04:39 25.04.2021
3744 Clear 6 1022 75 10000 1.03 0 01:46 25.04.2021
3745 Clear 6 1022 75 10000 1.03 350 01:18 25.04.2021
3746 Clear 7 1021 66 10000 3.6 360 00:24 25.04.2021
3747 Clear 8 1021 61 10000 2.06 360 23:49 24.04.2021
3748 Clear 9 1021 57 10000 3.09 30 23:25 24.04.2021
3749 Clear 9 1021 57 10000 4.12 40 22:43 24.04.2021
3750 Clear 11 1021 47 10000 1.54 350 21:56 24.04.2021
3751 Clear 11 1021 47 10000 1.54 350 21:56 24.04.2021
3752 Clear 11 1021 41 10000 2.57 360 21:29 24.04.2021
3753 Clear 12 1020 38 10000 3.6 360 20:51 24.04.2021
3754 Clear 14 1020 38 10000 3.6 360 20:33 24.04.2021
3755 Clear 16 1020 33 10000 4.12 320 19:59 24.04.2021
3756 Clear 16 1020 33 10000 4.12 320 19:32 24.04.2021
3757 Clear 16 1020 31 10000 2.06 320 18:59 24.04.2021
3758 Clear 16 1020 29 10000 2.06 0 18:34 24.04.2021
3759 Clear 16 1021 33 10000 4.12 330 17:58 24.04.2021
3760 Clear 16 1021 31 10000 3.6 290 17:26 24.04.2021
3761 Clear 16 1021 31 10000 3.6 0 16:52 24.04.2021
3762 Clear 17 1021 31 10000 3.09 0 16:32 24.04.2021
3763 Clear 16 1022 31 10000 3.6 300 15:39 24.04.2021
3764 Clear 16 1022 29 10000 4.12 300 15:20 24.04.2021
3765 Clear 16 1022 29 10000 3.6 280 14:33 24.04.2021
3766 Clear 16 1023 36 10000 3.09 300 13:52 24.04.2021
3767 Clear 15 1023 36 10000 3.09 300 13:32 24.04.2021
3768 Clear 14 1023 35 10000 2.57 270 12:39 24.04.2021
3769 Clear 14 1024 35 10000 1.54 0 12:18 24.04.2021
3770 Clear 13 1024 41 10000 1.54 0 11:44 24.04.2021
3771 Clear 12 1024 50 10000 1.03 0 10:56 24.04.2021
3772 Clear 11 1024 50 10000 1.03 0 10:38 24.04.2021
3773 Clear 11 1024 50 10000 1.03 0 10:38 24.04.2021
3774 Clear 9 1024 61 10000 1.03 0 09:57 24.04.2021
3775 Clear 7 1024 61 10000 0.51 0 09:29 24.04.2021
3776 Clear 3 1024 80 10000 0.51 0 07:53 24.04.2021
3777 Clear 0 1024 86 10000 0.51 0 06:58 24.04.2021
3778 Clear 1 1024 80 10000 0.51 360 04:38 24.04.2021
3779 Clear 4 1025 70 10000 0.51 0 00:50 24.04.2021
3780 Clear 5 1025 56 10000 0.51 0 23:36 23.04.2021
3781 Clear 6 1025 56 10000 0.51 0 22:47 23.04.2021
3782 Clear 8 1025 46 10000 1.54 30 22:20 23.04.2021
3783 Clear 9 1025 53 10000 1.03 360 21:46 23.04.2021
3784 Clear 10 1025 37 10000 1.54 10 21:27 23.04.2021
3785 Clear 13 1025 33 10000 2.06 360 20:42 23.04.2021
3786 Clear 13 1025 30 10000 3.09 350 20:21 23.04.2021
3787 Clear 14 1025 35 10000 3.09 310 19:52 23.04.2021
3788 Clear 15 1025 33 10000 3.09 290 19:31 23.04.2021
3789 Clear 14 1025 33 10000 3.09 280 18:51 23.04.2021
3790 Clear 15 1025 33 10000 3.6 290 18:31 23.04.2021
3791 Clear 15 1025 33 10000 3.6 280 17:57 23.04.2021
3792 Clear 15 1025 31 10000 4.63 290 17:29 23.04.2021
3793 Clear 15 1025 31 10000 4.63 290 17:29 23.04.2021
3794 Clear 15 1025 33 10000 3.09 320 16:59 23.04.2021
3795 Clear 15 1025 33 10000 3.09 320 16:37 23.04.2021
3796 Clear 14 1026 35 10000 3.6 310 15:55 23.04.2021
3797 Clear 13 1026 35 10000 3.6 310 15:35 23.04.2021
3798 Clear 13 1026 38 10000 3.09 0 14:39 23.04.2021
3799 Clouds 12 1026 40 10000 3.09 310 13:41 23.04.2021
3800 Clouds 12 1026 43 10000 3.09 290 12:54 23.04.2021
3801 Clouds 12 1026 46 10000 3.09 0 12:31 23.04.2021
3802 Clouds 11 1027 50 10000 2.57 280 11:46 23.04.2021
3803 Clouds 11 1027 46 10000 1.54 0 11:28 23.04.2021
3804 Clouds 9 1027 53 10000 1.03 0 10:50 23.04.2021
3805 Clouds 9 1027 57 10000 1.54 280 10:23 23.04.2021
3806 Clear 7 1027 65 10000 1.54 300 09:43 23.04.2021
3807 Clear 6 1026 65 10000 0.51 0 08:51 23.04.2021
3808 Clear 3 1026 75 10000 1.03 110 08:32 23.04.2021
3809 Clear 1 1026 75 10000 1.03 0 07:41 23.04.2021
3810 Clear -1 1025 86 10000 1.54 90 06:52 23.04.2021
3811 Clear -1 1025 86 10000 1.03 90 05:28 23.04.2021
3812 Clear 1 1024 80 10000 1.03 100 03:30 23.04.2021
3813 Clear 3 1024 69 10000 1.54 100 00:53 23.04.2021
3814 Clear 5 1024 52 10000 1.03 0 23:53 22.04.2021
3815 Clear 6 1023 53 10000 2.06 350 22:46 22.04.2021
3816 Clear 7 1023 46 10000 2.06 350 22:23 22.04.2021
3817 Clear 7 1023 46 10000 2.06 350 22:23 22.04.2021
3818 Clear 8 1023 43 10000 3.6 350 21:59 22.04.2021
3819 Clear 9 1023 43 10000 3.6 350 21:39 22.04.2021
3820 Clear 8 1023 43 10000 3.09 340 21:18 22.04.2021
3821 Clear 9 1022 37 10000 2.57 340 20:43 22.04.2021
3822 Clear 9 1022 32 10000 4.12 340 20:25 22.04.2021
3823 Clear 12 1022 28 10000 5.14 330 19:49 22.04.2021
3824 Clear 12 1021 28 10000 5.66 330 19:30 22.04.2021
3825 Clear 11 1021 30 10000 4.63 350 18:44 22.04.2021
3826 Clear 12 1021 30 10000 4.63 310 18:20 22.04.2021
3827 Clear 12 1021 30 10000 5.14 320 17:40 22.04.2021
3828 Clear 12 1021 30 10000 5.14 320 17:40 22.04.2021
3829 Clear 13 1021 28 10000 5.66 320 17:19 22.04.2021
3830 Clear 13 1021 33 10000 5.14 310 16:46 22.04.2021
3831 Clear 13 1021 30 10000 5.14 320 16:26 22.04.2021
3832 Clear 12 1021 32 10000 5.66 300 15:48 22.04.2021
3833 Clear 12 1021 30 10000 6.17 300 15:23 22.04.2021
3834 Clear 11 1021 35 10000 4.63 320 14:45 22.04.2021
3835 Clear 11 1021 37 10000 5.14 310 14:27 22.04.2021
3836 Clear 11 1021 37 10000 4.12 310 13:42 22.04.2021
3837 Clear 11 1022 40 10000 5.14 300 13:23 22.04.2021
3838 Clear 11 1022 43 10000 5.14 310 12:52 22.04.2021
3839 Clouds 9 1021 46 10000 5.14 290 12:31 22.04.2021
3840 Clouds 9 1021 40 10000 4.63 340 11:50 22.04.2021
3841 Clouds 9 1021 53 10000 4.63 310 11:27 22.04.2021
3842 Clouds 8 1021 57 10000 4.12 330 10:59 22.04.2021
3843 Clouds 8 1021 57 10000 4.12 330 10:40 22.04.2021
3844 Clouds 7 1021 61 10000 3.6 340 10:19 22.04.2021
3845 Clouds 7 1021 61 10000 5.14 350 09:36 22.04.2021
3846 Clouds 6 1020 65 10000 5.66 350 08:51 22.04.2021
3847 Clouds 6 1020 81 10000 4.63 340 08:23 22.04.2021
3848 Clouds 6 1019 81 10000 4.12 330 07:49 22.04.2021
3849 Clouds 6 1018 87 10000 3.09 320 07:31 22.04.2021
3850 Clear 6 1018 87 10000 2.57 360 06:44 22.04.2021
3851 Clear 6 1018 93 10000 2.06 330 06:18 22.04.2021
3852 Clear 6 1018 100 10000 1.03 340 05:23 22.04.2021
3853 Fog 6 1017 100 10000 0.51 0 02:25 22.04.2021
3854 Clear 7 1016 100 10000 1.03 0 23:59 21.04.2021
3855 Clear 7 1016 100 10000 1.03 0 23:39 21.04.2021
3856 Clear 8 1016 93 10000 1.03 0 23:19 21.04.2021
3857 Clear 8 1016 87 10000 1.03 0 22:40 21.04.2021
3858 Clear 8 1015 81 10000 3.09 210 22:19 21.04.2021
3859 Rain 9 1015 81 10000 3.6 190 21:41 21.04.2021
3860 Rain 9 1016 81 10000 6.17 260 21:19 21.04.2021
3861 Rain 10 1015 66 10000 3.6 250 20:31 21.04.2021
3862 Clouds 12 1015 66 10000 2.06 90 19:49 21.04.2021
3863 Clouds 13 1014 62 10000 5.14 160 19:27 21.04.2021
3864 Clouds 15 1014 62 10000 7.2 170 18:52 21.04.2021
3865 Clouds 15 1014 62 10000 7.2 170 18:34 21.04.2021
3866 Clouds 15 1014 51 10000 1.54 170 17:59 21.04.2021
3867 Clouds 15 1014 51 10000 1.54 170 17:40 21.04.2021
3868 Clouds 15 1014 51 10000 2.06 350 17:22 21.04.2021
3869 Clouds 15 1015 58 10000 4.63 360 16:40 21.04.2021
3870 Rain 16 1014 41 10000 3.09 190 15:52 21.04.2021
3871 Rain 16 1015 41 10000 2.06 240 15:25 21.04.2021
3872 Rain 16 1015 41 10000 3.6 330 14:45 21.04.2021
3873 Rain 15 1015 47 10000 7.72 330 14:25 21.04.2021
3874 Clouds 16 1015 42 10000 2.06 300 13:50 21.04.2021
3875 Clouds 16 1015 48 10000 2.06 0 13:22 21.04.2021
3876 Clouds 16 1015 51 10000 2.06 220 12:46 21.04.2021
3877 Clouds 15 1015 55 10000 2.57 0 12:20 21.04.2021
3878 Clouds 15 1016 54 10000 2.06 0 11:43 21.04.2021
3879 Clouds 14 1016 62 10000 2.06 220 11:23 21.04.2021
3880 Clear 13 1016 67 10000 1.03 0 10:39 21.04.2021
3881 Clear 11 1016 71 10000 0.51 0 09:56 21.04.2021
3882 Clear 9 1015 76 10000 0.51 0 09:21 21.04.2021
3883 Clear 7 1015 81 10000 1.54 100 08:46 21.04.2021
3884 Clear 7 1015 87 10000 2.06 100 08:24 21.04.2021
3885 Clear 6 1015 93 10000 0.51 0 07:52 21.04.2021
3886 Clear 6 1015 93 10000 1.03 0 07:28 21.04.2021
3887 Clear 6 1015 87 10000 2.57 90 05:57 21.04.2021
3888 Clear 7 1015 81 10000 2.06 80 02:28 21.04.2021
3889 Clear 9 1015 81 10000 2.06 110 00:20 21.04.2021
3890 Clear 9 1015 71 10000 2.57 110 23:39 20.04.2021
3891 Clear 9 1015 71 10000 3.09 90 22:49 20.04.2021
3892 Clear 10 1015 66 10000 2.57 100 22:24 20.04.2021
3893 Clear 10 1015 66 10000 2.06 100 21:56 20.04.2021
3894 Clear 11 1015 62 10000 1.54 80 21:33 20.04.2021
3895 Clear 12 1015 66 10000 2.06 120 20:59 20.04.2021
3896 Clear 12 1015 66 10000 2.06 120 20:38 20.04.2021
3897 Clouds 13 1015 58 10000 1.54 30 20:18 20.04.2021
3898 Clear 14 1015 51 10000 1.03 0 19:46 20.04.2021
3899 Clear 14 1014 47 10000 2.06 350 19:28 20.04.2021
3900 Clouds 14 1015 44 10000 2.06 360 18:44 20.04.2021
3901 Clear 15 1015 44 10000 2.57 340 18:23 20.04.2021
3902 Clouds 14 1015 51 10000 4.12 270 17:41 20.04.2021
3903 Rain 16 1015 44 10000 3.09 360 16:50 20.04.2021
3904 Clouds 16 1015 47 10000 2.06 0 16:25 20.04.2021
3905 Clouds 16 1015 44 10000 3.09 260 15:36 20.04.2021
3906 Clouds 16 1015 48 10000 2.06 0 15:18 20.04.2021
3907 Clouds 15 1016 47 10000 3.09 290 14:39 20.04.2021
3908 Clouds 15 1016 55 10000 2.06 0 14:20 20.04.2021
3909 Clouds 13 1016 58 10000 2.06 310 13:27 20.04.2021
3910 Clouds 13 1017 54 10000 2.06 0 12:53 20.04.2021
3911 Clouds 12 1017 62 10000 2.57 0 12:23 20.04.2021
3912 Clouds 12 1017 66 10000 1.54 0 11:46 20.04.2021
3913 Clouds 12 1017 66 10000 1.54 0 11:46 20.04.2021
3914 Clouds 11 1017 76 10000 2.06 300 11:25 20.04.2021
3915 Clouds 10 1017 76 8000 1.03 0 10:47 20.04.2021
3916 Mist 9 1017 81 6000 1.03 0 10:24 20.04.2021
3917 Fog 8 1017 87 2800 0.51 0 09:45 20.04.2021
3918 Fog 7 1017 100 250 0.51 0 08:59 20.04.2021
3919 Fog 6 1017 100 250 0.51 0 08:35 20.04.2021
3920 Fog 5 1017 100 500 1.54 90 07:52 20.04.2021
3921 Fog 5 1017 100 700 1.03 90 07:21 20.04.2021
3922 Mist 5 1017 100 9000 1.03 0 05:42 20.04.2021
3923 Clouds 5 1017 100 9000 1.03 320 04:43 20.04.2021
3924 Clear 6 1017 100 10000 1.54 280 02:58 20.04.2021
3925 Clouds 6 1018 87 10000 0.51 140 00:50 20.04.2021
3926 Clouds 6 1018 93 10000 0.51 0 23:52 19.04.2021
3927 Clouds 7 1018 93 10000 0.51 350 23:29 19.04.2021
3928 Clouds 7 1018 87 10000 1.03 360 22:38 19.04.2021
3929 Clouds 7 1018 93 10000 1.03 0 22:19 19.04.2021
3930 Clouds 8 1018 81 10000 1.03 200 21:38 19.04.2021
3931 Clouds 8 1018 81 10000 2.06 260 21:19 19.04.2021
3932 Clouds 8 1018 87 10000 1.03 0 20:40 19.04.2021
3933 Rain 9 1018 81 10000 2.57 270 20:20 19.04.2021
3934 Clouds 9 1017 81 10000 2.57 270 19:44 19.04.2021
3935 Clouds 9 1017 81 10000 3.09 280 19:25 19.04.2021
3936 Clouds 10 1017 76 10000 4.12 290 18:48 19.04.2021
3937 Clouds 10 1017 76 10000 4.12 290 18:48 19.04.2021
3938 Clouds 11 1017 71 10000 2.57 280 18:24 19.04.2021
3939 Clouds 10 1017 66 10000 2.06 280 17:56 19.04.2021
3940 Rain 11 1017 66 10000 2.06 280 17:35 19.04.2021
3941 Clouds 11 1017 71 10000 3.09 240 16:59 19.04.2021
3942 Clouds 11 1017 71 10000 3.09 240 16:40 19.04.2021
3943 Rain 10 1018 76 10000 2.57 250 16:21 19.04.2021
3944 Rain 10 1018 76 10000 3.6 280 15:40 19.04.2021
3945 Clouds 10 1018 76 10000 3.09 240 15:20 19.04.2021
3946 Rain 10 1018 81 10000 2.06 240 14:38 19.04.2021
3947 Clouds 9 1018 87 10000 1.54 200 14:19 19.04.2021
3948 Clouds 9 1018 93 6000 2.57 70 13:44 19.04.2021
3949 Rain 10 1018 81 10000 2.06 290 13:24 19.04.2021
3950 Clouds 10 1018 76 10000 2.57 260 12:42 19.04.2021
3951 Clouds 9 1019 81 9000 2.06 250 12:23 19.04.2021
3952 Clouds 9 1019 81 9000 0.51 0 11:54 19.04.2021
3953 Clouds 9 1019 87 8000 0.51 0 11:25 19.04.2021
3954 Clouds 8 1018 81 8000 0.51 0 10:46 19.04.2021
3955 Clouds 8 1018 87 8000 1.54 230 10:25 19.04.2021
3956 Clouds 7 1018 93 7000 1.03 0 09:49 19.04.2021
3957 Clouds 7 1018 93 7000 1.54 100 09:28 19.04.2021
3958 Rain 6 1018 100 6000 1.54 90 08:58 19.04.2021
3959 Rain 6 1018 93 6000 2.06 90 08:26 19.04.2021
3960 Rain 6 1018 93 6000 2.06 100 07:48 19.04.2021
3961 Rain 6 1018 93 6000 2.06 90 07:19 19.04.2021
3962 Rain 6 1018 93 9000 1.54 100 06:28 19.04.2021
3963 Rain 6 1019 93 10000 2.06 100 02:35 19.04.2021
3964 Rain 6 1019 93 10000 2.06 120 00:47 19.04.2021
3965 Rain 7 1019 87 10000 1.03 0 23:49 18.04.2021
3966 Rain 8 1019 76 10000 0.51 0 23:18 18.04.2021
3967 Rain 8 1019 76 10000 0.51 310 22:46 18.04.2021
3968 Clouds 8 1019 76 10000 0.51 0 22:24 18.04.2021
3969 Clouds 8 1019 71 10000 1.54 310 21:29 18.04.2021
3970 Clouds 9 1019 71 10000 2.06 310 20:57 18.04.2021
3971 Clouds 9 1019 71 10000 2.06 310 20:38 18.04.2021
3972 Clouds 9 1019 71 10000 2.06 310 20:38 18.04.2021
3973 Clouds 9 1019 71 10000 2.06 320 20:20 18.04.2021
3974 Clouds 9 1019 66 10000 1.54 320 19:44 18.04.2021
3975 Clouds 9 1018 62 10000 2.57 330 19:23 18.04.2021
3976 Clouds 9 1018 57 10000 2.06 290 18:50 18.04.2021
3977 Clouds 10 1018 62 10000 1.54 290 18:30 18.04.2021
3978 Clouds 11 1018 57 10000 2.57 300 17:50 18.04.2021
3979 Clouds 11 1018 54 10000 2.06 300 17:30 18.04.2021
3980 Clouds 11 1018 58 10000 2.57 310 16:54 18.04.2021
3981 Clouds 11 1018 58 10000 2.57 310 16:35 18.04.2021
3982 Clouds 10 1018 62 10000 3.09 310 15:51 18.04.2021
3983 Clouds 10 1019 62 10000 4.12 320 15:30 18.04.2021
3984 Clouds 10 1019 57 10000 2.06 270 14:58 18.04.2021
3985 Clouds 10 1019 57 10000 2.06 270 14:39 18.04.2021
3986 Clouds 9 1019 66 10000 3.09 290 14:18 18.04.2021
3987 Clouds 9 1019 71 10000 2.57 280 13:44 18.04.2021
3988 Clouds 8 1019 71 10000 2.06 290 13:24 18.04.2021
3989 Clouds 8 1019 71 10000 2.06 330 12:35 18.04.2021
3990 Clouds 8 1019 66 10000 1.03 0 11:51 18.04.2021
3991 Clouds 7 1019 70 10000 1.03 0 11:26 18.04.2021
3992 Clouds 7 1019 81 10000 1.54 310 10:51 18.04.2021
3993 Clouds 6 1019 81 10000 1.54 310 10:32 18.04.2021
3994 Clouds 6 1019 87 10000 1.03 0 09:57 18.04.2021
3995 Rain 6 1019 87 10000 1.03 0 09:38 18.04.2021
3996 Clouds 5 1019 87 10000 1.54 270 09:19 18.04.2021
3997 Rain 4 1019 87 10000 1.54 280 08:39 18.04.2021
3998 Rain 4 1019 87 10000 1.03 0 08:18 18.04.2021
3999 Rain 3 1019 87 10000 1.03 0 07:39 18.04.2021
4000 Rain 3 1019 93 10000 1.54 330 05:45 18.04.2021
4001 Rain 3 1019 93 10000 1.54 320 05:24 18.04.2021
4002 Clouds 3 1020 87 10000 1.54 290 03:26 18.04.2021
4003 Clouds 3 1020 87 10000 1.54 320 02:22 18.04.2021
4004 Clouds 3 1021 87 10000 2.06 340 00:40 18.04.2021
4005 Clouds 4 1021 87 10000 1.54 320 23:39 17.04.2021
4006 Clouds 4 1021 87 10000 2.06 340 22:54 17.04.2021
4007 Clouds 4 1021 87 10000 2.57 350 22:31 17.04.2021
4008 Clouds 4 1021 87 10000 2.06 330 21:51 17.04.2021
4009 Clouds 4 1021 81 10000 2.06 340 21:31 17.04.2021
4010 Clouds 4 1021 81 10000 2.06 340 20:59 17.04.2021
4011 Clouds 4 1021 81 10000 2.06 360 20:28 17.04.2021
4012 Rain 4 1020 75 10000 2.57 350 19:46 17.04.2021
4013 Rain 5 1020 75 10000 3.09 360 19:22 17.04.2021
4014 Clouds 5 1020 75 10000 4.63 350 18:57 17.04.2021
4015 Clouds 5 1020 75 10000 4.63 350 18:36 17.04.2021
4016 Clouds 5 1020 75 10000 5.14 360 17:58 17.04.2021
4017 Clouds 5 1020 75 10000 5.14 360 17:39 17.04.2021
4018 Clouds 6 1020 70 10000 4.12 350 16:54 17.04.2021
4019 Clouds 6 1020 70 10000 3.09 10 16:28 17.04.2021
4020 Clouds 6 1021 65 10000 4.12 20 15:50 17.04.2021
4021 Clouds 6 1021 70 10000 4.63 340 14:50 17.04.2021
4022 Clouds 6 1021 70 10000 4.63 340 14:50 17.04.2021
4023 Clouds 6 1021 70 10000 5.14 350 14:31 17.04.2021
4024 Clouds 6 1021 70 10000 5.14 360 13:48 17.04.2021
4025 Drizzle 6 1021 70 10000 5.14 10 13:22 17.04.2021
4026 Rain 6 1022 65 10000 5.14 10 12:41 17.04.2021
4027 Rain 6 1022 70 10000 4.12 10 12:18 17.04.2021
4028 Clouds 6 1022 61 10000 5.14 360 11:39 17.04.2021
4029 Clouds 7 1022 57 10000 4.12 360 11:21 17.04.2021
4030 Rain 6 1022 61 10000 3.6 350 10:41 17.04.2021
4031 Rain 6 1022 61 10000 5.14 350 10:23 17.04.2021
4032 Clouds 5 1022 81 10000 1.54 310 09:22 17.04.2021
4033 Rain 3 1022 87 10000 2.06 330 08:38 17.04.2021
4034 Rain 3 1022 93 10000 2.06 320 08:19 17.04.2021
4035 Clouds 1 1022 93 10000 0.51 0 06:43 17.04.2021
4036 Clear 2 1022 87 10000 0.51 360 03:51 17.04.2021
4037 Clear 3 1023 81 10000 1.54 350 02:40 17.04.2021
4038 Clear 3 1024 81 10000 1.54 280 00:44 17.04.2021
4039 Clear 3 1024 81 10000 1.54 290 00:23 17.04.2021
4040 Clear 4 1024 81 10000 1.03 330 23:43 16.04.2021
4041 Clouds 4 1024 75 10000 1.54 350 23:20 16.04.2021
4042 Clouds 4 1024 75 10000 1.54 350 22:42 16.04.2021
4043 Clouds 4 1024 75 10000 1.54 350 22:20 16.04.2021
4044 Clouds 4 1024 75 10000 2.06 350 21:49 16.04.2021
4045 Clouds 4 1024 75 10000 1.54 360 21:28 16.04.2021
4046 Clouds 4 1024 75 10000 2.06 350 20:47 16.04.2021
4047 Clouds 4 1023 75 10000 3.6 360 20:24 16.04.2021
4048 Clouds 4 1023 75 10000 3.6 10 19:50 16.04.2021
4049 Clouds 4 1023 70 10000 4.12 10 19:22 16.04.2021
4050 Clouds 5 1023 65 10000 5.14 360 18:28 16.04.2021
4051 Clouds 5 1023 70 10000 4.12 10 17:54 16.04.2021
4052 Clouds 5 1023 65 10000 4.63 360 17:21 16.04.2021
4053 Clouds 5 1023 65 10000 4.63 350 16:58 16.04.2021
4054 Clouds 5 1023 65 10000 4.63 350 16:40 16.04.2021
4055 Clouds 5 1023 65 10000 4.12 360 16:21 16.04.2021
4056 Clouds 5 1024 65 10000 4.63 360 15:40 16.04.2021
4057 Clouds 5 1024 65 10000 4.63 350 14:59 16.04.2021
4058 Clouds 5 1024 65 10000 4.63 350 14:40 16.04.2021
4059 Clouds 5 1024 65 10000 3.09 10 13:59 16.04.2021
4060 Clouds 5 1024 65 10000 3.09 10 13:37 16.04.2021
4061 Clouds 5 1024 65 10000 1.54 30 13:18 16.04.2021
4062 Clouds 5 1024 60 10000 3.09 340 12:44 16.04.2021
4063 Clouds 5 1024 56 10000 4.12 10 12:23 16.04.2021
4064 Clouds 4 1024 65 10000 4.12 10 11:43 16.04.2021
4065 Clouds 5 1024 65 10000 4.12 20 11:23 16.04.2021
4066 Clouds 4 1024 65 10000 3.6 340 10:43 16.04.2021
4067 Clouds 4 1024 70 10000 3.09 350 10:23 16.04.2021
4068 Clouds 3 1024 70 10000 3.6 10 09:45 16.04.2021
4069 Clouds 3 1024 70 10000 3.6 10 09:45 16.04.2021
4070 Clouds 3 1024 75 10000 4.63 350 09:23 16.04.2021
4071 Clouds 2 1024 75 10000 4.12 350 08:45 16.04.2021
4072 Clouds 2 1024 87 10000 2.57 350 08:24 16.04.2021
4073 Clouds 1 1023 86 10000 3.09 340 07:46 16.04.2021
4074 Clouds 1 1023 86 10000 3.09 340 07:25 16.04.2021
4075 Snow 1 1023 86 10000 3.09 340 06:41 16.04.2021
4076 Snow 1 1023 86 10000 3.09 320 05:32 16.04.2021
4077 Clouds 1 1024 80 10000 2.06 330 03:59 16.04.2021
4078 Clouds 2 1025 75 10000 1.54 330 00:47 16.04.2021
4079 Clear 2 1025 75 10000 1.03 0 00:22 16.04.2021
4080 Clear 2 1025 69 10000 1.03 0 23:57 15.04.2021
4081 Clear 2 1025 69 10000 1.03 0 23:34 15.04.2021
4082 Clear 2 1025 65 10000 2.06 20 22:50 15.04.2021
4083 Clouds 3 1025 65 10000 3.09 20 22:24 15.04.2021
4084 Clear 3 1025 56 10000 4.63 20 21:47 15.04.2021
4085 Clear 4 1025 52 10000 3.6 10 21:29 15.04.2021
4086 Clear 5 1025 48 10000 4.63 10 20:56 15.04.2021
4087 Clear 5 1024 45 10000 4.12 10 20:37 15.04.2021
4088 Clear 5 1024 45 10000 4.12 10 20:18 15.04.2021
4089 Clear 6 1024 42 10000 4.12 360 19:41 15.04.2021
4090 Clear 6 1024 42 10000 5.14 360 19:21 15.04.2021
4091 Clear 7 1024 36 10000 5.14 360 18:41 15.04.2021
4092 Clouds 7 1024 39 10000 7.2 360 18:19 15.04.2021
4093 Clouds 7 1024 34 10000 5.14 360 17:54 15.04.2021
4094 Clouds 8 1024 31 10000 4.63 350 17:31 15.04.2021
4095 Clouds 8 1025 45 10000 3.09 280 16:44 15.04.2021
4096 Clouds 8 1025 49 10000 4.12 300 16:25 15.04.2021
4097 Snow 7 1025 56 10000 6.17 320 15:51 15.04.2021
4098 Clouds 7 1025 56 10000 2.06 200 15:28 15.04.2021
4099 Clouds 7 1026 65 10000 3.6 240 14:45 15.04.2021
4100 Clouds 5 1026 75 10000 3.6 280 14:27 15.04.2021
4101 Clouds 6 1026 52 10000 3.09 40 13:57 15.04.2021
4102 Snow 7 1026 52 10000 3.09 40 13:39 15.04.2021
4103 Clouds 6 1026 56 10000 3.09 340 12:53 15.04.2021
4104 Clouds 6 1026 60 10000 4.12 360 12:27 15.04.2021
4105 Clouds 6 1026 60 10000 3.09 330 11:48 15.04.2021
4106 Clouds 5 1026 60 10000 2.06 330 11:30 15.04.2021
4107 Clouds 4 1027 75 10000 1.54 300 10:59 15.04.2021
4108 Clouds 4 1027 75 10000 1.54 300 10:40 15.04.2021
4109 Clouds 3 1026 75 10000 2.06 350 10:22 15.04.2021
4110 Clouds 1 1026 86 10000 1.54 320 09:31 15.04.2021
4111 Clear -1 1026 86 10000 1.03 0 08:53 15.04.2021
4112 Clear -2 1026 93 10000 0.51 0 08:34 15.04.2021
4113 Clear -4 1026 93 10000 1.3 356 07:37 15.04.2021
4114 Clear -4 1026 93 10000 0.51 360 06:57 15.04.2021
4115 Clear -4 1026 93 10000 0.51 350 06:36 15.04.2021
4116 Clear -4 1026 93 10000 1.03 350 04:57 15.04.2021
4117 Clear -3 1026 80 10000 1.07 15 03:59 15.04.2021
4118 Clear 0 1026 69 10000 0.51 0 00:18 15.04.2021
4119 Clear 0 1026 69 10000 1.03 0 23:34 14.04.2021
4120 Clear 1 1026 64 10000 3.09 360 22:58 14.04.2021
4121 Clear 1 1026 64 10000 3.09 360 22:37 14.04.2021
4122 Clear 1 1026 60 10000 2.06 30 22:19 14.04.2021
4123 Clear 2 1026 56 10000 2.06 20 21:41 14.04.2021
4124 Clouds 3 1026 65 10000 1.03 350 21:22 14.04.2021
4125 Clouds 3 1025 48 10000 1.03 0 20:45 14.04.2021
4126 Clouds 4 1025 48 10000 2.57 360 20:27 14.04.2021
4127 Clouds 5 1025 45 10000 1.03 0 19:46 14.04.2021
4128 Clouds 7 1025 42 10000 1.54 30 19:19 14.04.2021
4129 Clouds 6 1025 52 10000 3.09 20 18:54 14.04.2021
4130 Clouds 6 1026 49 10000 5.66 350 18:20 14.04.2021
4131 Clouds 7 1026 45 10000 3.09 350 17:57 14.04.2021
4132 Clouds 7 1026 49 10000 6.17 330 17:24 14.04.2021
4133 Clouds 7 1026 45 10000 4.63 350 16:48 14.04.2021
4134 Clouds 7 1026 42 10000 5.14 340 16:24 14.04.2021
4135 Clouds 7 1026 45 10000 4.63 10 15:41 14.04.2021
4136 Clouds 7 1026 49 10000 5.14 320 15:22 14.04.2021
4137 Clouds 7 1026 49 10000 5.14 320 15:22 14.04.2021
4138 Clouds 7 1026 42 10000 4.12 340 14:44 14.04.2021
4139 Clouds 7 1027 42 10000 3.6 350 14:23 14.04.2021
4140 Clouds 6 1027 45 10000 4.63 360 13:53 14.04.2021
4141 Clouds 6 1027 48 10000 3.6 350 13:19 14.04.2021
4142 Clouds 6 1027 52 10000 3.6 310 12:36 14.04.2021
4143 Clouds 5 1028 49 10000 3.09 360 11:43 14.04.2021
4144 Clouds 6 1028 60 10000 3.09 340 11:25 14.04.2021
4145 Clouds 4 1028 65 10000 2.57 20 10:38 14.04.2021
4146 Clear 3 1028 75 10000 1.54 300 09:59 14.04.2021
4147 Clear 3 1028 75 10000 1.54 300 09:41 14.04.2021
4148 Clear 2 1028 80 10000 1.03 0 09:20 14.04.2021
4149 Clear 0 1028 80 10000 1.03 0 08:34 14.04.2021
4150 Clear -2 1028 86 10000 0.51 0 07:58 14.04.2021
4151 Clear -4 1028 93 10000 0.51 0 06:48 14.04.2021
4152 Clear -4 1028 93 10000 0.51 0 06:23 14.04.2021
4153 Clear -2 1028 93 10000 0.51 0 03:59 14.04.2021
4154 Clear -1 1029 80 10000 0.51 0 01:42 14.04.2021
4155 Clear 0 1029 74 10000 0.51 0 00:34 14.04.2021
4156 Clear 1 1029 69 10000 1.54 340 23:39 13.04.2021
4157 Clear 2 1029 60 10000 0.51 270 22:59 13.04.2021
4158 Clear 2 1029 60 10000 0.51 270 22:40 13.04.2021
4159 Clear 2 1029 64 10000 0.51 310 22:18 13.04.2021
4160 Clear 2 1028 60 10000 1.03 10 21:44 13.04.2021
4161 Clear 3 1028 52 10000 1.03 350 21:24 13.04.2021
4162 Clear 4 1028 48 10000 2.57 340 20:41 13.04.2021
4163 Clear 5 1028 45 10000 3.09 340 20:21 13.04.2021
4164 Clear 6 1028 49 10000 4.12 360 19:40 13.04.2021
4165 Clear 7 1027 49 10000 4.63 340 19:22 13.04.2021
4166 Clear 7 1027 45 10000 5.14 360 18:37 13.04.2021
4167 Clouds 8 1027 33 10000 6.17 330 17:47 13.04.2021
4168 Clouds 8 1027 34 10000 6.69 310 17:25 13.04.2021
4169 Clouds 8 1027 36 10000 5.66 320 16:59 13.04.2021
4170 Clouds 8 1027 36 10000 5.66 320 16:41 13.04.2021
4171 Clear 8 1028 39 10000 5.66 330 16:20 13.04.2021
4172 Clear 8 1028 36 10000 6.17 330 15:41 13.04.2021
4173 Clouds 8 1028 36 10000 5.14 320 15:18 13.04.2021
4174 Clouds 7 1028 39 10000 5.66 340 14:41 13.04.2021
4175 Clouds 7 1028 39 10000 5.66 340 14:41 13.04.2021
4176 Clouds 7 1028 42 10000 4.12 340 14:18 13.04.2021
4177 Clouds 6 1029 52 10000 5.14 300 13:45 13.04.2021
4178 Clouds 6 1029 49 10000 4.63 320 13:23 13.04.2021
4179 Clouds 6 1029 56 10000 3.09 310 12:53 13.04.2021
4180 Clouds 6 1029 56 10000 3.09 320 12:24 13.04.2021
4181 Clouds 6 1029 56 10000 3.09 320 12:24 13.04.2021
4182 Clouds 5 1029 60 10000 3.09 340 11:52 13.04.2021
4183 Clouds 5 1029 60 10000 4.12 340 11:29 13.04.2021
4184 Clouds 4 1029 70 10000 3.09 320 10:45 13.04.2021
4185 Clouds 3 1029 75 10000 3.09 310 10:20 13.04.2021
4186 Clouds 2 1029 80 10000 3.6 310 09:53 13.04.2021
4187 Clouds 2 1029 80 10000 3.6 310 09:34 13.04.2021
4188 Clear 1 1029 86 10000 2.06 320 08:51 13.04.2021
4189 Clear 0 1029 86 10000 2.06 320 08:26 13.04.2021
4190 Clear 0 1028 93 10000 2.06 340 07:59 13.04.2021
4191 Clear -1 1028 100 10000 1.03 0 07:35 13.04.2021
4192 Clear -1 1028 93 10000 1.54 340 06:31 13.04.2021
4193 Clear 0 1028 86 10000 0.51 0 04:45 13.04.2021
4194 Clear 1 1028 93 10000 1.03 350 01:37 13.04.2021
4195 Clear 2 1027 75 10000 1.54 250 00:18 13.04.2021
4196 Clear 2 1027 80 10000 0.51 0 23:42 12.04.2021
4197 Clouds 2 1027 75 10000 0.51 0 23:20 12.04.2021
4198 Clouds 2 1027 75 10000 2.06 100 22:38 12.04.2021
4199 Clouds 3 1027 65 10000 1.54 110 21:56 12.04.2021
4200 Clear 4 1027 56 10000 1.03 220 21:36 12.04.2021
4201 Clear 4 1027 56 10000 1.03 220 21:18 12.04.2021
4202 Clouds 4 1027 56 10000 1.54 240 20:38 12.04.2021
4203 Clouds 4 1026 56 10000 1.03 0 20:20 12.04.2021
4204 Clouds 5 1026 56 10000 1.54 300 19:42 12.04.2021
4205 Clouds 6 1026 52 10000 1.54 290 19:22 12.04.2021
4206 Clouds 5 1026 52 10000 1.54 310 18:56 12.04.2021
4207 Clouds 6 1026 52 10000 1.54 310 18:37 12.04.2021
4208 Clouds 6 1026 56 10000 1.54 320 18:18 12.04.2021
4209 Clouds 5 1026 56 10000 2.57 350 17:42 12.04.2021
4210 Clouds 6 1026 56 10000 3.6 310 17:20 12.04.2021
4211 Clouds 5 1026 65 10000 3.6 320 16:43 12.04.2021
4212 Clouds 5 1025 60 10000 4.63 290 16:24 12.04.2021
4213 Rain 5 1025 65 10000 5.14 310 15:47 12.04.2021
4214 Rain 5 1025 70 10000 5.14 310 15:21 12.04.2021
4215 Rain 4 1025 70 10000 4.63 300 14:49 12.04.2021
4216 Rain 4 1025 70 10000 5.66 300 14:29 12.04.2021
4217 Rain 4 1024 75 10000 5.14 300 13:43 12.04.2021
4218 Rain 4 1024 81 10000 5.14 310 13:21 12.04.2021
4219 Rain 4 1024 81 10000 2.57 320 12:44 12.04.2021
4220 Rain 3 1024 87 10000 4.12 310 12:23 12.04.2021
4221 Rain 3 1024 87 10000 4.63 330 11:51 12.04.2021
4222 Rain 3 1023 87 10000 5.14 310 10:54 12.04.2021
4223 Rain 3 1023 87 10000 4.63 320 10:28 12.04.2021
4224 Rain 2 1022 93 10000 5.14 320 09:59 12.04.2021
4225 Rain 2 1022 93 10000 5.14 320 09:40 12.04.2021
4226 Snow 1 1021 100 5000 6.17 310 08:59 12.04.2021
4227 Snow 2 1021 93 5000 5.66 320 08:30 12.04.2021
4228 Rain 1 1019 100 9000 5.66 320 07:31 12.04.2021
4229 Rain 2 1018 93 8000 6.69 310 06:49 12.04.2021
4230 Rain 2 1018 93 10000 6.17 320 05:51 12.04.2021
4231 Clouds 4 1016 87 10000 6.17 320 03:58 12.04.2021
4232 Clouds 7 1014 81 10000 6.69 330 00:50 12.04.2021
4233 Clouds 8 1013 81 10000 4.12 300 00:23 12.04.2021
4234 Clouds 9 1013 76 10000 4.63 310 23:45 11.04.2021
4235 Clouds 10 1013 81 10000 4.63 310 23:23 11.04.2021
4236 Clouds 10 1012 76 10000 5.66 300 22:41 11.04.2021
4237 Clouds 10 1012 76 10000 5.66 300 22:22 11.04.2021
4238 Clear 11 1012 71 10000 7.72 310 21:45 11.04.2021
4239 Clouds 11 1011 76 10000 9.77 290 21:27 11.04.2021
4240 Clear 14 1010 58 10000 8.75 280 20:52 11.04.2021
4241 Rain 14 1008 39 10000 1.54 170 20:27 11.04.2021
4242 Clear 17 1008 39 10000 1.54 180 19:44 11.04.2021
4243 Clear 18 1008 34 10000 3.6 200 19:22 11.04.2021
4244 Clear 18 1008 34 10000 4.12 210 19:00 11.04.2021
4245 Clear 18 1008 34 10000 4.12 210 18:41 11.04.2021
4246 Clear 19 1008 37 10000 5.14 180 18:22 11.04.2021
4247 Clear 19 1008 32 10000 3.09 170 17:44 11.04.2021
4248 Clear 19 1008 37 10000 3.6 160 17:24 11.04.2021
4249 Clear 19 1008 37 10000 3.09 200 16:46 11.04.2021
4250 Clear 19 1009 34 10000 4.12 210 16:22 11.04.2021
4251 Clear 19 1009 37 10000 5.66 190 15:48 11.04.2021
4252 Clear 19 1009 39 10000 5.14 190 15:26 11.04.2021
4253 Clear 19 1009 37 10000 6.69 210 14:52 11.04.2021
4254 Clear 19 1009 39 10000 5.14 200 14:31 11.04.2021
4255 Clear 19 1009 42 10000 4.12 190 13:51 11.04.2021
4256 Clear 18 1009 42 10000 4.63 210 13:30 11.04.2021
4257 Clear 18 1009 42 10000 4.63 190 12:48 11.04.2021
4258 Clear 17 1009 45 10000 3.6 190 12:21 11.04.2021
4259 Clear 16 1010 44 10000 1.54 0 11:49 11.04.2021
4260 Clear 16 1010 48 10000 2.57 140 11:22 11.04.2021
4261 Clear 15 1010 54 10000 3.09 110 10:47 11.04.2021
4262 Clear 15 1010 54 10000 3.09 110 10:47 11.04.2021
4263 Clear 13 1010 62 10000 2.57 120 10:27 11.04.2021
4264 Clear 11 1010 62 10000 3.09 120 09:56 11.04.2021
4265 Clear 11 1010 62 10000 3.09 120 09:32 11.04.2021
4266 Clear 9 1010 71 10000 3.09 110 08:42 11.04.2021
4267 Clear 9 1010 76 10000 3.6 110 08:21 11.04.2021
4268 Clear 7 1010 81 10000 2.57 130 07:21 11.04.2021
4269 Clear 8 1009 76 10000 3.09 120 06:26 11.04.2021
4270 Clear 8 1009 76 10000 2.06 110 05:37 11.04.2021
4271 Clear 8 1009 76 10000 3.6 110 05:18 11.04.2021
4272 Clear 8 1010 81 10000 2.57 120 04:33 11.04.2021
4273 Clear 9 1011 76 10000 3.09 110 01:40 11.04.2021
4274 Clear 10 1011 71 10000 3.09 100 00:33 11.04.2021
4275 Clear 9 1011 76 10000 2.06 120 23:47 10.04.2021
4276 Clear 10 1012 76 10000 3.09 100 22:59 10.04.2021
4277 Clear 9 1012 76 10000 3.09 100 22:32 10.04.2021
4278 Clear 10 1012 71 10000 4.63 100 21:57 10.04.2021
4279 Clear 10 1012 71 10000 4.63 100 21:57 10.04.2021
4280 Clear 10 1012 71 10000 3.6 110 21:37 10.04.2021
4281 Clear 10 1012 71 10000 3.6 110 21:19 10.04.2021
4282 Clear 11 1012 66 10000 4.12 110 20:41 10.04.2021
4283 Clear 12 1012 62 10000 3.09 110 20:22 10.04.2021
4284 Clear 13 1012 58 10000 1.54 140 19:43 10.04.2021
4285 Clear 13 1012 58 10000 2.57 140 19:25 10.04.2021
4286 Clouds 14 1012 51 10000 3.09 170 18:44 10.04.2021
4287 Clouds 14 1013 55 10000 1.54 210 18:25 10.04.2021
4288 Clouds 14 1013 55 10000 3.6 200 17:37 10.04.2021
4289 Clouds 14 1013 55 10000 1.54 0 16:57 10.04.2021
4290 Clouds 14 1014 54 10000 2.06 220 16:27 10.04.2021
4291 Clouds 13 1014 54 10000 2.57 240 15:53 10.04.2021
4292 Clouds 13 1014 54 10000 2.57 210 15:19 10.04.2021
4293 Clouds 13 1015 58 10000 3.09 0 14:41 10.04.2021
4294 Clouds 13 1015 58 10000 3.09 0 14:18 10.04.2021
4295 Clouds 13 1015 58 10000 4.12 270 13:40 10.04.2021
4296 Clouds 12 1015 62 10000 5.14 230 12:49 10.04.2021
4297 Clouds 12 1015 62 10000 4.63 240 12:26 10.04.2021
4298 Clouds 11 1015 62 10000 5.14 230 11:47 10.04.2021
4299 Clouds 11 1015 62 10000 5.66 230 11:25 10.04.2021
4300 Clouds 11 1014 58 10000 5.14 240 10:52 10.04.2021
4301 Clouds 11 1014 58 10000 5.14 230 10:31 10.04.2021
4302 Clouds 10 1014 62 10000 4.63 210 09:45 10.04.2021
4303 Clouds 9 1014 57 10000 3.09 170 09:19 10.04.2021
4304 Clouds 8 1013 61 10000 2.57 130 08:46 10.04.2021
4305 Clouds 8 1013 61 10000 3.09 140 08:28 10.04.2021
4306 Clouds 6 1013 65 10000 2.57 140 07:29 10.04.2021
4307 Clear 6 1012 61 10000 2.06 110 06:49 10.04.2021
4308 Rain 5 1012 61 10000 3.6 110 05:54 10.04.2021
4309 Clear 4 1013 60 10000 3.09 110 03:46 10.04.2021
4310 Clear 5 1013 56 10000 3.09 120 02:50 10.04.2021
4311 Clear 5 1013 61 10000 4.12 110 02:18 10.04.2021
4312 Rain 6 1014 65 10000 4.12 110 00:40 10.04.2021
4313 Clear 6 1014 56 10000 3.6 110 23:59 09.04.2021
4314 Clear 6 1014 56 10000 3.6 110 23:36 09.04.2021
4315 Clear 6 1014 56 10000 2.06 100 22:57 09.04.2021
4316 Clear 6 1014 56 10000 2.06 100 22:37 09.04.2021
4317 Clear 9 1014 37 10000 1.54 130 21:44 09.04.2021
4318 Clear 9 1014 40 10000 1.54 200 21:23 09.04.2021
4319 Clear 12 1014 35 10000 1.54 220 20:59 09.04.2021
4320 Clear 12 1014 35 10000 1.54 220 20:40 09.04.2021
4321 Clear 12 1014 33 10000 3.09 230 20:21 09.04.2021
4322 Clear 14 1014 30 10000 4.63 240 19:43 09.04.2021
4323 Clear 14 1014 28 10000 5.14 240 19:22 09.04.2021
4324 Clear 14 1014 26 10000 5.66 230 18:44 09.04.2021
4325 Clear 14 1014 26 10000 7.2 240 18:25 09.04.2021
4326 Clear 15 1014 23 10000 7.2 250 17:49 09.04.2021
4327 Clear 15 1014 27 10000 6.17 230 17:31 09.04.2021
4328 Clear 15 1014 33 10000 6.17 190 16:55 09.04.2021
4329 Clear 14 1014 33 10000 6.17 200 16:30 09.04.2021
4330 Clear 15 1015 31 10000 6.69 190 15:47 09.04.2021
4331 Clear 15 1015 33 10000 5.66 200 15:24 09.04.2021
4332 Clear 15 1015 33 10000 3.6 180 14:47 09.04.2021
4333 Clear 15 1016 33 10000 5.66 210 14:29 09.04.2021
4334 Clear 13 1016 33 10000 4.12 190 13:47 09.04.2021
4335 Clear 13 1016 33 10000 3.6 220 13:22 09.04.2021
4336 Clear 12 1017 35 10000 4.12 190 12:47 09.04.2021
4337 Clear 12 1017 35 10000 4.12 190 12:47 09.04.2021
4338 Clear 12 1017 40 10000 1.54 140 12:24 09.04.2021
4339 Clear 10 1017 43 10000 3.09 180 11:43 09.04.2021
4340 Clear 9 1018 53 10000 2.57 180 11:20 09.04.2021
4341 Clear 7 1018 53 10000 3.09 170 10:38 09.04.2021
4342 Clear 5 1018 65 10000 4.63 160 09:59 09.04.2021
4343 Clear 3 1019 65 10000 4.12 150 09:28 09.04.2021
4344 Clear 2 1019 69 10000 3.6 130 08:56 09.04.2021
4345 Clear 1 1019 69 10000 3.6 130 08:33 09.04.2021
4346 Clear -2 1019 80 10000 3.6 120 07:34 09.04.2021
4347 Clear -2 1019 80 10000 3.6 110 06:30 09.04.2021
4348 Clear -2 1019 74 10000 3.09 110 05:44 09.04.2021
4349 Clear -2 1020 74 10000 3.6 100 03:43 09.04.2021
4350 Clear -2 1022 74 10000 3.6 100 00:39 09.04.2021
4351 Clear -1 1022 74 10000 3.6 100 00:21 09.04.2021
4352 Clear -1 1022 74 10000 3.6 100 23:56 08.04.2021
4353 Clear -1 1023 69 10000 4.63 100 22:56 08.04.2021
4354 Clear 0 1023 64 10000 4.12 90 22:36 08.04.2021
4355 Clear 0 1023 64 10000 4.12 90 22:18 08.04.2021
4356 Clear 1 1023 64 10000 2.06 100 21:41 08.04.2021
4357 Clear 1 1023 64 10000 1.03 90 21:22 08.04.2021
4358 Clear 2 1023 64 10000 1.03 0 20:59 08.04.2021
4359 Clear 2 1023 64 10000 1.03 0 20:40 08.04.2021
4360 Clear 4 1023 52 10000 0.51 0 20:19 08.04.2021
4361 Clear 5 1023 48 10000 0.51 0 19:41 08.04.2021
4362 Clear 6 1023 48 10000 1.54 290 19:19 08.04.2021
4363 Clouds 6 1024 45 10000 1.54 280 18:43 08.04.2021
4364 Clouds 6 1024 48 10000 2.06 280 18:19 08.04.2021
4365 Clouds 6 1024 48 10000 3.6 270 17:42 08.04.2021
4366 Clouds 5 1024 45 10000 3.6 250 17:21 08.04.2021
4367 Clouds 5 1024 48 10000 3.6 250 16:45 08.04.2021
4368 Clouds 6 1024 48 10000 3.6 260 16:23 08.04.2021
4369 Clouds 6 1024 52 10000 4.12 270 15:46 08.04.2021
4370 Clouds 5 1025 48 10000 3.6 280 15:28 08.04.2021
4371 Clouds 5 1025 52 10000 4.12 270 14:44 08.04.2021
4372 Clouds 4 1025 52 10000 3.09 270 14:22 08.04.2021
4373 Clouds 4 1025 56 10000 4.12 270 13:49 08.04.2021
4374 Clouds 4 1025 56 10000 4.12 270 13:24 08.04.2021
4375 Clouds 4 1025 60 10000 4.63 260 12:58 08.04.2021
4376 Clouds 4 1025 60 10000 6.69 270 12:34 08.04.2021
4377 Clouds 3 1025 60 10000 4.63 280 11:57 08.04.2021
4378 Clouds 3 1025 69 10000 5.14 270 11:27 08.04.2021
4379 Clouds 2 1025 69 10000 5.14 260 10:56 08.04.2021
4380 Clouds 1 1024 75 10000 4.12 270 10:26 08.04.2021
4381 Clouds 1 1024 69 10000 4.12 270 09:46 08.04.2021
4382 Clouds 1 1024 69 10000 4.12 270 09:27 08.04.2021
4383 Clouds 0 1024 74 10000 3.6 260 08:44 08.04.2021
4384 Clouds 0 1023 74 10000 4.12 260 08:22 08.04.2021
4385 Clouds 0 1023 74 10000 4.12 270 07:46 08.04.2021
4386 Clouds 0 1022 74 10000 4.12 280 06:46 08.04.2021
4387 Clouds 1 1020 80 10000 5.14 270 01:27 08.04.2021
4388 Snow 1 1020 86 10000 7.2 280 00:32 08.04.2021
4389 Snow 1 1019 86 3000 4.63 270 23:50 07.04.2021
4390 Snow 0 1019 100 4000 5.14 270 23:27 07.04.2021
4391 Snow 1 1019 86 10000 6.69 260 22:58 07.04.2021
4392 Snow 1 1018 86 10000 6.17 260 22:39 07.04.2021
4393 Snow 1 1018 86 10000 6.17 260 22:20 07.04.2021
4394 Snow 0 1018 93 5000 6.17 260 21:34 07.04.2021
4395 Snow 0 1018 100 5000 5.66 250 21:34 07.04.2021
4396 Mist 0 1017 93 2800 5.14 250 20:56 07.04.2021
4397 Mist 0 1017 93 2800 5.14 250 20:37 07.04.2021
4398 Mist 0 1017 93 2000 5.66 230 20:18 07.04.2021
4399 Snow 0 1017 86 1600 7.72 250 19:40 07.04.2021
4400 Snow 1 1017 69 10000 8.23 250 19:22 07.04.2021
4401 Clouds 1 1017 75 10000 8.23 250 18:42 07.04.2021
4402 Snow 1 1017 69 10000 9.77 250 18:18 07.04.2021
4403 Snow 1 1017 75 10000 7.2 260 17:47 07.04.2021
4404 Snow 1 1017 69 10000 8.75 260 17:28 07.04.2021
4405 Snow 1 1016 80 5000 8.23 250 16:46 07.04.2021
4406 Snow 2 1016 75 10000 8.75 250 16:21 07.04.2021
4407 Snow 2 1016 75 10000 7.2 250 15:53 07.04.2021
4408 Clouds 2 1016 75 10000 7.2 250 15:34 07.04.2021
4409 Snow 2 1016 80 10000 5.66 250 14:47 07.04.2021
4410 Snow 1 1016 80 4000 8.23 260 14:24 07.04.2021
4411 Snow 1 1016 64 10000 8.23 260 13:45 07.04.2021
4412 Clouds 2 1016 64 10000 7.72 240 13:20 07.04.2021
4413 Clouds 2 1016 64 10000 7.2 250 12:46 07.04.2021
4414 Snow 2 1015 64 10000 8.23 270 12:19 07.04.2021
4415 Snow 1 1015 64 10000 8.23 280 11:45 07.04.2021
4416 Clouds 1 1015 69 10000 8.23 280 11:24 07.04.2021
4417 Clouds 1 1015 69 10000 7.72 270 10:50 07.04.2021
4418 Clouds 0 1014 74 10000 8.23 280 09:51 07.04.2021
4419 Clouds -1 1014 80 10000 6.17 270 09:28 07.04.2021
4420 Clouds -1 1013 86 10000 6.17 270 08:53 07.04.2021
4421 Clouds -1 1013 86 10000 6.17 270 08:32 07.04.2021
4422 Clouds -1 1012 86 10000 5.14 270 07:54 07.04.2021
4423 Clouds -1 1012 86 10000 4.63 270 07:29 07.04.2021
4424 Clouds -2 1012 80 10000 4.63 280 06:44 07.04.2021
4425 Snow -1 1011 86 10000 5.14 280 05:43 07.04.2021
4426 Snow -1 1010 86 10000 3.6 270 03:18 07.04.2021
4427 Clouds -1 1009 86 10000 3.09 230 23:50 06.04.2021
4428 Clouds -1 1009 86 10000 3.09 240 23:23 06.04.2021
4429 Clouds -1 1009 93 10000 3.09 240 22:57 06.04.2021
4430 Clouds -1 1009 93 10000 3.09 240 22:57 06.04.2021
4431 Snow -1 1009 86 3000 4.12 250 22:21 06.04.2021
4432 Snow -1 1009 100 3500 3.6 240 21:55 06.04.2021
4433 Snow -1 1009 100 3500 3.6 240 21:37 06.04.2021
4434 Snow -1 1009 86 4000 3.6 260 21:18 06.04.2021
4435 Snow 0 1009 86 10000 4.63 260 20:41 06.04.2021
4436 Snow -1 1009 100 3300 6.17 270 20:20 06.04.2021
4437 Snow 0 1009 86 7000 6.17 240 19:44 06.04.2021
4438 Snow 1 1009 75 10000 6.17 250 19:25 06.04.2021
4439 Snow 2 1008 69 10000 6.69 260 18:45 06.04.2021
4440 Rain 3 1008 70 10000 8.75 240 18:22 06.04.2021
4441 Clouds 3 1008 70 10000 3.6 300 17:45 06.04.2021
4442 Clouds 2 1008 80 10000 3.6 280 17:20 06.04.2021
4443 Snow 2 1009 100 1000 8.75 290 16:49 06.04.2021
4444 Snow 2 1009 75 10000 7.72 270 16:30 06.04.2021
4445 Clouds 2 1009 86 10000 5.14 250 15:28 06.04.2021
4446 Clouds 1 1010 93 300 9.26 310 14:51 06.04.2021
4447 Snow 2 1010 70 10000 8.23 270 14:32 06.04.2021
4448 Clouds 3 1010 93 10000 3.09 310 13:59 06.04.2021
4449 Snow 2 1010 86 1200 8.75 260 13:39 06.04.2021
4450 Snow 1 1010 86 1200 8.75 260 13:20 06.04.2021
4451 Snow 2 1010 69 10000 9.26 250 12:38 06.04.2021
4452 Clouds 2 1010 69 10000 7.2 260 12:19 06.04.2021
4453 Snow 1 1011 75 10000 8.75 250 11:48 06.04.2021
4454 Snow 1 1010 75 10000 8.75 260 11:20 06.04.2021
4455 Snow 0 1011 75 10000 7.2 260 10:46 06.04.2021
4456 Snow 0 1011 80 10000 6.17 260 10:24 06.04.2021
4457 Snow 0 1010 74 6000 7.2 260 09:47 06.04.2021
4458 Snow -1 1010 80 5000 6.17 240 09:26 06.04.2021
4459 Snow -1 1010 74 10000 7.2 240 08:38 06.04.2021
4460 Snow -1 1010 74 10000 7.72 240 07:47 06.04.2021
4461 Snow -2 1010 80 10000 5.66 230 06:55 06.04.2021
4462 Clouds -2 1011 80 10000 4.12 210 05:18 06.04.2021
4463 Clear -3 1012 74 10000 3.09 210 01:54 06.04.2021
4464 Clouds -2 1011 74 10000 5.14 260 00:43 06.04.2021
4465 Clouds -2 1011 74 10000 4.12 270 00:20 06.04.2021
4466 Clouds -1 1011 80 10000 4.12 290 23:42 05.04.2021
4467 Clear -1 1010 80 10000 5.14 280 23:19 05.04.2021
4468 Clear -1 1010 80 10000 5.14 280 22:43 05.04.2021
4469 Clouds -1 1010 80 10000 5.14 290 22:24 05.04.2021
4470 Clear -1 1010 80 10000 6.69 280 21:39 05.04.2021
4471 Snow 0 1009 80 10000 5.66 280 21:20 05.04.2021
4472 Clouds 0 1009 80 10000 5.14 280 20:42 05.04.2021
4473 Snow 0 1008 86 10000 5.14 310 20:23 05.04.2021
4474 Snow 0 1008 86 2500 6.69 340 19:39 05.04.2021
4475 Snow 0 1007 93 2000 8.23 330 19:19 05.04.2021
4476 Snow 2 1006 87 10000 9.26 290 18:42 05.04.2021
4477 Rain 3 1006 87 10000 6.69 300 18:23 05.04.2021
4478 Rain 2 1005 87 10000 10.29 310 17:47 05.04.2021
4479 Rain 3 1004 81 10000 11.83 260 17:24 05.04.2021
4480 Rain 6 1004 87 8000 6.69 270 16:56 05.04.2021
4481 Rain 7 1004 87 8000 6.69 270 16:37 05.04.2021
4482 Rain 6 1004 76 10000 9.77 260 16:18 05.04.2021
4483 Rain 7 1003 70 10000 9.77 260 15:40 05.04.2021
4484 Rain 8 1004 57 10000 9.77 260 15:21 05.04.2021
4485 Rain 9 1004 53 10000 10.29 250 14:36 05.04.2021
4486 Rain 9 1004 53 10000 7.2 240 13:54 05.04.2021
4487 Clouds 9 1005 53 10000 9.26 250 13:29 05.04.2021
4488 Clouds 9 1005 50 10000 8.23 250 12:47 05.04.2021
4489 Clear 9 1005 49 10000 9.26 250 12:26 05.04.2021
4490 Clear 9 1006 49 10000 8.75 240 11:52 05.04.2021
4491 Clouds 9 1006 49 10000 7.2 250 11:30 05.04.2021
4492 Rain 8 1006 49 10000 9.26 250 10:56 05.04.2021
4493 Rain 8 1008 60 10000 3.13 257 10:36 05.04.2021
4494 Clear 8 1007 61 10000 6.69 240 09:49 05.04.2021
4495 Clear 7 1007 65 10000 4.12 210 09:26 05.04.2021
4496 Clear 5 1008 70 10000 2.57 170 08:54 05.04.2021
4497 Clear 6 1008 70 10000 2.57 170 08:36 05.04.2021
4498 Clear 4 1008 70 10000 2.57 170 08:18 05.04.2021
4499 Clear 3 1008 70 10000 3.09 160 07:33 05.04.2021
4500 Clear 1 1013 80 10000 3.09 110 03:42 05.04.2021
4501 Clear 3 1015 70 10000 1.54 130 00:57 05.04.2021
4502 Clear 3 1016 70 10000 1.54 160 00:20 05.04.2021
4503 Clear 4 1016 65 10000 1.66 231 23:32 04.04.2021
4504 Clear 4 1017 60 10000 0.51 0 22:58 04.04.2021
4505 Clear 5 1017 60 10000 0.51 0 22:40 04.04.2021
4506 Clear 6 1017 56 10000 0.51 0 22:21 04.04.2021
4507 Clear 6 1017 53 10000 1.03 250 21:22 04.04.2021
4508 Clear 8 1017 53 10000 1.03 260 20:43 04.04.2021
4509 Clear 8 1017 46 10000 1.54 280 20:23 04.04.2021
4510 Clear 10 1017 43 10000 2.57 290 19:40 04.04.2021
4511 Clear 10 1018 40 10000 4.12 270 19:20 04.04.2021
4512 Clear 11 1018 40 10000 4.12 270 18:51 04.04.2021
4513 Clear 11 1018 37 10000 3.6 270 18:25 04.04.2021
4514 Clear 12 1019 37 10000 3.09 280 17:59 04.04.2021
4515 Clear 12 1019 37 10000 3.6 260 17:25 04.04.2021
4516 Clear 12 1019 37 10000 3.6 260 17:25 04.04.2021
4517 Clear 12 1019 37 10000 4.12 310 16:57 04.04.2021
4518 Clear 12 1020 35 10000 2.57 310 16:39 04.04.2021
4519 Clear 12 1020 37 10000 2.57 270 15:54 04.04.2021
4520 Clear 11 1020 40 10000 3.6 260 15:32 04.04.2021
4521 Clear 11 1021 40 10000 3.6 310 14:40 04.04.2021
4522 Clear 11 1021 40 10000 3.09 0 14:21 04.04.2021
4523 Clear 10 1022 43 10000 4.12 320 13:27 04.04.2021
4524 Clear 10 1022 40 10000 3.09 340 12:52 04.04.2021
4525 Clouds 9 1022 46 10000 2.57 320 12:28 04.04.2021
4526 Clouds 9 1022 49 10000 2.06 0 11:50 04.04.2021
4527 Clouds 7 1023 53 10000 1.03 0 11:30 04.04.2021
4528 Clear 7 1023 57 10000 1.03 0 10:54 04.04.2021
4529 Clear 6 1023 61 10000 1.03 0 10:32 04.04.2021
4530 Clear 5 1023 60 10000 0.51 0 09:50 04.04.2021
4531 Clear 4 1023 65 10000 0.51 0 09:23 04.04.2021
4532 Clear 2 1023 80 10000 2.06 100 08:48 04.04.2021
4533 Clear 0 1023 86 10000 0.51 0 08:30 04.04.2021
4534 Clear -1 1023 80 10000 1.54 80 06:40 04.04.2021
4535 Clear 0 1023 80 10000 1.54 60 05:44 04.04.2021
4536 Clear 0 1023 80 10000 1.54 60 05:44 04.04.2021
4537 Clear 1 1023 75 10000 1.03 0 02:59 04.04.2021
4538 Clear 3 1023 65 10000 1.03 320 00:55 04.04.2021
4539 Clear 3 1023 60 10000 1.03 0 00:18 04.04.2021
4540 Clear 3 1023 70 10000 1.03 0 23:41 03.04.2021
4541 Clear 4 1023 65 10000 1.54 340 22:58 03.04.2021
4542 Clear 4 1023 65 10000 1.54 340 22:40 03.04.2021
4543 Clear 4 1023 60 10000 1.03 290 22:19 03.04.2021
4544 Clear 5 1023 52 10000 1.03 0 21:46 03.04.2021
4545 Clear 5 1023 52 10000 2.57 290 21:22 03.04.2021
4546 Clear 6 1022 49 10000 2.06 290 20:43 03.04.2021
4547 Clear 7 1022 42 10000 3.6 310 20:24 03.04.2021
4548 Clear 8 1022 37 10000 5.66 340 19:46 03.04.2021
4549 Clear 9 1022 37 10000 5.14 350 19:20 03.04.2021
4550 Clear 9 1022 34 10000 6.69 320 18:46 03.04.2021
4551 Clear 9 1022 40 10000 6.17 320 18:23 03.04.2021
4552 Clear 9 1022 40 10000 5.14 340 17:50 03.04.2021
4553 Clear 10 1022 37 10000 7.2 320 17:21 03.04.2021
4554 Clear 9 1022 40 10000 4.63 350 16:45 03.04.2021
4555 Clouds 9 1022 34 10000 4.63 320 16:21 03.04.2021
4556 Clouds 9 1023 43 10000 4.63 360 15:46 03.04.2021
4557 Clear 9 1023 43 10000 3.6 350 15:21 03.04.2021
4558 Clouds 8 1023 46 10000 3.6 360 14:43 03.04.2021
4559 Clouds 8 1023 42 10000 5.14 360 14:22 03.04.2021
4560 Clouds 8 1023 46 10000 5.14 330 13:48 03.04.2021
4561 Clouds 8 1023 46 10000 5.14 350 13:23 03.04.2021
4562 Clouds 8 1023 46 10000 5.14 340 12:49 03.04.2021
4563 Clouds 7 1023 57 10000 5.66 350 12:21 03.04.2021
4564 Clouds 7 1023 57 10000 5.66 350 12:21 03.04.2021
4565 Clouds 6 1023 56 10000 4.12 350 11:38 03.04.2021
4566 Clouds 6 1023 53 10000 4.63 350 10:51 03.04.2021
4567 Clouds 5 1022 61 10000 4.63 340 10:31 03.04.2021
4568 Clouds 5 1022 65 10000 4.12 340 09:54 03.04.2021
4569 Clouds 5 1022 65 10000 4.63 320 09:28 03.04.2021
4570 Clouds 4 1021 70 10000 4.63 310 08:47 03.04.2021
4571 Clouds 4 1021 70 10000 4.12 330 08:28 03.04.2021
4572 Clouds 3 1020 75 10000 3.6 320 07:28 03.04.2021
4573 Clear 4 1020 65 10000 3.09 270 05:50 03.04.2021
4574 Clouds 4 1020 65 10000 2.06 290 03:52 03.04.2021
4575 Clouds 4 1020 65 10000 3.6 300 02:51 03.04.2021
4576 Clouds 4 1020 60 10000 3.6 310 02:25 03.04.2021
4577 Clouds 5 1019 70 10000 4.63 350 00:21 03.04.2021
4578 Clouds 5 1019 65 10000 5.14 340 23:48 02.04.2021
4579 Clouds 6 1019 61 10000 4.12 320 23:24 02.04.2021
4580 Clouds 6 1019 70 10000 1.54 20 22:52 02.04.2021
4581 Clouds 6 1019 70 10000 1.54 20 22:33 02.04.2021
4582 Clouds 7 1018 53 10000 4.12 340 21:46 02.04.2021
4583 Clouds 7 1018 57 10000 3.6 340 21:23 02.04.2021
4584 Clouds 8 1018 61 10000 1.54 350 20:48 02.04.2021
4585 Clouds 8 1017 53 10000 0.51 40 20:28 02.04.2021
4586 Clouds 9 1018 50 10000 2.57 340 19:57 02.04.2021
4587 Clouds 9 1018 50 10000 2.57 340 19:38 02.04.2021
4588 Clouds 10 1018 50 10000 6.17 320 19:20 02.04.2021
4589 Clouds 11 1018 46 10000 7.2 310 18:38 02.04.2021
4590 Clouds 11 1017 50 10000 4.12 320 18:20 02.04.2021
4591 Clouds 11 1017 50 10000 6.17 290 17:37 02.04.2021
4592 Clouds 11 1018 53 10000 4.12 330 16:48 02.04.2021
4593 Clouds 10 1019 61 10000 2.57 310 15:54 02.04.2021
4594 Clouds 10 1019 61 10000 2.57 310 15:32 02.04.2021
4595 Clouds 8 1019 66 10000 3.09 360 14:48 02.04.2021
4596 Clouds 8 1019 66 10000 3.6 20 14:27 02.04.2021
4597 Clouds 8 1020 61 10000 3.6 350 13:42 02.04.2021
4598 Clouds 8 1020 66 10000 5.14 350 13:19 02.04.2021
4599 Clouds 8 1020 70 10000 3.6 350 12:40 02.04.2021
4600 Clouds 7 1020 70 10000 3.6 350 12:20 02.04.2021
4601 Clouds 8 1020 70 10000 3.09 10 11:53 02.04.2021
4602 Clouds 7 1020 65 10000 3.6 20 11:20 02.04.2021
4603 Clouds 7 1020 65 10000 3.6 20 11:20 02.04.2021
4604 Clouds 7 1020 65 10000 3.6 20 10:45 02.04.2021
4605 Clouds 7 1020 70 10000 3.09 360 10:27 02.04.2021
4606 Clouds 7 1020 65 10000 4.12 10 09:52 02.04.2021
4607 Clouds 7 1020 65 10000 3.6 20 09:26 02.04.2021
4608 Clouds 6 1020 65 10000 2.06 360 08:49 02.04.2021
4609 Clouds 6 1020 70 10000 1.54 20 08:28 02.04.2021
4610 Clouds 5 1019 70 10000 3.09 10 07:23 02.04.2021
4611 Clouds 6 1019 70 10000 1.54 30 06:47 02.04.2021
4612 Clouds 8 1018 76 10000 2.57 360 04:18 02.04.2021
4613 Clear 10 1018 71 10000 1.54 360 02:20 02.04.2021
4614 Clear 12 1018 58 10000 4.12 350 00:47 02.04.2021
4615 Clear 13 1018 58 10000 2.06 350 00:18 02.04.2021
4616 Clear 13 1018 58 10000 2.06 350 00:18 02.04.2021
4617 Clear 14 1017 51 10000 4.63 360 23:30 01.04.2021
4618 Clear 16 1017 44 10000 4.63 350 22:52 01.04.2021
4619 Clear 16 1017 42 10000 4.12 330 22:19 01.04.2021
4620 Clear 15 1016 44 10000 3.6 330 21:49 01.04.2021
4621 Clear 15 1016 44 10000 2.06 300 21:25 01.04.2021
4622 Clear 17 1015 42 10000 2.57 290 20:43 01.04.2021
4623 Clear 17 1015 39 10000 2.57 270 20:24 01.04.2021
4624 Clear 19 1015 34 10000 2.06 280 19:46 01.04.2021
4625 Clear 20 1015 30 10000 3.09 300 19:27 01.04.2021
4626 Clear 21 1016 30 10000 4.12 320 18:45 01.04.2021
4627 Clear 21 1016 26 10000 5.14 300 18:18 01.04.2021
4628 Clear 22 1016 26 10000 6.17 320 17:51 01.04.2021
4629 Clear 22 1016 28 10000 5.66 290 17:32 01.04.2021
4630 Clear 22 1016 28 10000 5.66 310 16:51 01.04.2021
4631 Clear 22 1017 30 10000 5.14 290 16:27 01.04.2021
4632 Clear 22 1017 30 10000 5.66 300 15:46 01.04.2021
4633 Clear 22 1017 35 10000 4.12 320 15:19 01.04.2021
4634 Clear 22 1017 35 10000 4.12 320 15:19 01.04.2021
4635 Clear 22 1017 32 10000 4.12 330 14:43 01.04.2021
4636 Clear 22 1018 35 10000 4.12 320 14:24 01.04.2021
4637 Clear 21 1018 35 10000 3.09 300 13:55 01.04.2021
4638 Clear 21 1018 37 10000 3.09 320 13:30 01.04.2021
4639 Clear 20 1018 42 10000 2.57 320 12:51 01.04.2021
4640 Clear 19 1019 39 10000 2.06 310 12:31 01.04.2021
4641 Clear 18 1019 45 10000 1.54 330 11:49 01.04.2021
4642 Clear 17 1019 42 10000 1.03 0 11:24 01.04.2021
4643 Clear 18 1019 48 10000 0.51 0 10:53 01.04.2021
4644 Clear 17 1019 48 10000 0.51 0 10:35 01.04.2021
4645 Clear 14 1019 58 10000 2.06 130 09:54 01.04.2021
4646 Clear 12 1019 66 10000 2.06 110 09:27 01.04.2021
4647 Clear 9 1019 71 10000 3.09 100 08:33 01.04.2021
4648 Clear 7 1019 75 10000 3.09 100 07:59 01.04.2021
4649 Clear 6 1019 81 10000 3.09 110 07:20 01.04.2021
4650 Clear 6 1019 87 10000 2.06 130 06:48 01.04.2021
4651 Clear 7 1019 75 10000 2.57 120 03:52 01.04.2021
4652 Clear 9 1020 66 10000 2.57 110 01:52 01.04.2021
4653 Clear 10 1020 58 10000 2.57 110 23:51 31.03.2021
4654 Clear 11 1020 54 10000 2.06 120 23:31 31.03.2021
4655 Clear 12 1020 47 10000 3.09 110 22:41 31.03.2021
4656 Clear 12 1020 50 10000 1.54 110 22:21 31.03.2021
4657 Clear 13 1021 44 10000 3.09 110 21:47 31.03.2021
4658 Clear 14 1021 41 10000 1.54 100 21:24 31.03.2021
4659 Clear 16 1021 36 10000 0.51 0 20:57 31.03.2021
4660 Clear 16 1021 36 10000 0.51 0 20:39 31.03.2021
4661 Clear 18 1020 32 10000 1.03 20 20:18 31.03.2021
4662 Clear 21 1020 30 10000 1.54 300 19:40 31.03.2021
4663 Clear 22 1021 26 10000 2.06 300 19:19 31.03.2021
4664 Clear 22 1021 26 10000 2.06 280 18:49 31.03.2021
4665 Clear 22 1021 25 10000 2.57 320 18:21 31.03.2021
4666 Clear 23 1022 23 10000 2.57 300 17:37 31.03.2021
4667 Clear 23 1022 23 10000 2.57 300 17:18 31.03.2021
4668 Clear 23 1022 22 10000 2.06 250 16:48 31.03.2021
4669 Clear 24 1022 20 10000 2.06 210 16:25 31.03.2021
4670 Clear 23 1023 20 10000 2.57 200 15:50 31.03.2021
4671 Clear 23 1023 21 10000 2.06 0 15:19 31.03.2021
4672 Clear 23 1023 23 10000 1.54 0 14:45 31.03.2021
4673 Clear 22 1024 26 10000 2.57 210 14:24 31.03.2021
4674 Clear 22 1024 24 10000 2.57 190 13:42 31.03.2021
4675 Clear 21 1025 26 10000 1.03 0 13:18 31.03.2021
4676 Clear 20 1025 30 10000 1.54 170 12:36 31.03.2021
4677 Clear 19 1025 32 10000 1.54 130 12:18 31.03.2021
4678 Clear 16 1026 44 10000 1.03 0 11:21 31.03.2021
4679 Clear 15 1026 44 10000 1.03 0 10:47 31.03.2021
4680 Clear 13 1026 54 10000 1.03 0 10:26 31.03.2021
4681 Clear 11 1026 62 10000 1.03 0 09:45 31.03.2021
4682 Clear 9 1026 71 10000 1.54 110 09:26 31.03.2021
4683 Clear 6 1026 75 10000 1.54 110 08:39 31.03.2021
4684 Clear 5 1026 81 10000 3.09 100 07:54 31.03.2021
4685 Clear 5 1026 81 10000 1.54 110 06:49 31.03.2021
4686 Clear 6 1027 75 10000 2.06 100 03:52 31.03.2021
4687 Clear 7 1028 75 10000 1.03 100 02:30 31.03.2021
4688 Clear 8 1028 61 10000 2.06 100 00:53 31.03.2021
4689 Clear 9 1028 53 10000 1.54 110 00:21 31.03.2021
4690 Clear 9 1028 53 10000 0.51 0 23:47 30.03.2021
4691 Clear 10 1028 50 10000 2.57 110 23:19 30.03.2021
4692 Clear 11 1028 53 10000 1.54 110 22:42 30.03.2021
4693 Clear 11 1028 54 10000 0.97 118 22:24 30.03.2021
4694 Clear 13 1029 35 10000 3.09 100 21:53 30.03.2021
4695 Clear 14 1029 35 10000 0.51 0 21:23 30.03.2021
4696 Clear 15 1029 33 10000 0.51 340 20:57 30.03.2021
4697 Clear 16 1029 32 10000 1.54 320 20:29 30.03.2021
4698 Clear 19 1029 27 10000 1.54 340 19:52 30.03.2021
4699 Clear 19 1029 24 10000 2.06 310 19:28 30.03.2021
4700 Clear 19 1029 24 10000 2.06 310 19:28 30.03.2021
4701 Clear 21 1029 23 10000 2.06 310 18:47 30.03.2021
4702 Clear 21 1029 18 10000 2.57 340 18:24 30.03.2021
4703 Clear 21 1029 20 10000 2.06 330 17:42 30.03.2021
4704 Clear 22 1030 21 10000 2.57 330 17:24 30.03.2021
4705 Clear 22 1030 23 10000 2.57 290 16:46 30.03.2021
4706 Clear 23 1030 21 10000 2.06 0 16:25 30.03.2021
4707 Clear 22 1031 21 10000 1.54 0 15:21 30.03.2021
4708 Clear 21 1031 26 10000 1.54 200 14:58 30.03.2021
4709 Clear 21 1032 24 10000 2.06 0 14:39 30.03.2021
4710 Clear 21 1032 24 10000 2.06 0 14:18 30.03.2021
4711 Clear 20 1032 26 10000 1.03 0 13:38 30.03.2021
4712 Clear 19 1033 27 10000 1.03 0 12:49 30.03.2021
4713 Clear 18 1033 36 10000 0.51 0 12:29 30.03.2021
4714 Clear 17 1033 41 10000 1.03 0 11:58 30.03.2021
4715 Clear 15 1033 44 10000 1.03 0 11:23 30.03.2021
4716 Clear 13 1033 50 10000 1.03 0 10:47 30.03.2021
4717 Clear 11 1033 57 10000 1.54 120 10:28 30.03.2021
4718 Clear 8 1033 66 10000 2.06 110 09:50 30.03.2021
4719 Clear 8 1033 70 10000 1.54 120 09:31 30.03.2021
4720 Clear 4 1033 81 10000 2.06 130 08:56 30.03.2021
4721 Clear 3 1033 80 10000 2.06 110 08:38 30.03.2021
4722 Clear 2 1033 86 10000 2.06 100 07:52 30.03.2021
4723 Clear 3 1032 80 10000 2.06 110 07:22 30.03.2021
4724 Clear 4 1032 80 10000 3.09 110 05:40 30.03.2021
4725 Clear 4 1032 81 10000 2.06 110 05:19 30.03.2021
4726 Clear 7 1032 65 10000 2.06 110 00:40 30.03.2021
4727 Clear 8 1032 57 10000 2.06 100 23:36 29.03.2021
4728 Clear 9 1032 53 10000 0.51 0 22:52 29.03.2021
4729 Clear 9 1032 50 10000 0.51 0 22:30 29.03.2021
4730 Clear 11 1032 41 10000 2.06 100 21:47 29.03.2021
4731 Clear 12 1032 38 10000 0.51 0 21:29 29.03.2021
4732 Clear 13 1031 36 10000 0.51 0 20:48 29.03.2021
4733 Clear 14 1031 36 10000 1.54 280 20:27 29.03.2021
4734 Clear 17 1031 31 10000 2.57 280 19:49 29.03.2021
4735 Clear 18 1031 32 10000 3.09 280 19:24 29.03.2021
4736 Clear 19 1031 27 10000 3.6 260 18:44 29.03.2021
4737 Clear 19 1031 27 10000 4.63 270 18:26 29.03.2021
4738 Clear 19 1031 26 10000 3.09 250 17:50 29.03.2021
4739 Clear 19 1031 26 10000 4.63 260 17:31 29.03.2021
4740 Clear 19 1031 26 10000 4.63 260 17:30 29.03.2021
4741 Clear 19 1031 27 10000 5.14 260 16:41 29.03.2021
4742 Clear 19 1031 26 10000 5.14 260 16:20 29.03.2021
4743 Clear 19 1031 29 10000 5.66 260 15:35 29.03.2021
4744 Clear 19 1032 29 10000 5.14 270 14:57 29.03.2021
4745 Clear 18 1032 29 10000 5.14 270 14:38 29.03.2021
4746 Clear 18 1032 29 10000 4.63 260 13:54 29.03.2021
4747 Clear 17 1032 31 10000 4.12 240 13:30 29.03.2021
4748 Clear 16 1032 33 10000 4.12 240 12:51 29.03.2021
4749 Clear 16 1032 38 10000 4.12 250 12:30 29.03.2021
4750 Clear 15 1033 44 10000 2.57 210 11:43 29.03.2021
4751 Clear 13 1033 50 10000 3.09 220 11:24 29.03.2021
4752 Clear 11 1032 54 10000 2.57 190 10:40 29.03.2021
4753 Clear 10 1032 57 10000 1.54 160 09:56 29.03.2021
4754 Clear 8 1032 70 10000 2.06 110 09:23 29.03.2021
4755 Clear 4 1031 81 10000 3.6 110 08:30 29.03.2021
4756 Clear 4 1031 81 10000 4.12 100 07:51 29.03.2021
4757 Clear 4 1031 70 10000 3.6 100 06:42 29.03.2021
4758 Clear 4 1031 75 10000 3.6 100 05:18 29.03.2021
4759 Clear 4 1030 70 10000 3.6 110 02:21 29.03.2021
4760 Clear 5 1030 61 10000 3.09 110 00:24 29.03.2021
4761 Clear 6 1030 61 10000 2.57 120 23:51 28.03.2021
4762 Clear 6 1030 57 10000 1.54 140 23:20 28.03.2021
4763 Clear 7 1030 61 10000 2.06 150 22:42 28.03.2021
4764 Clouds 8 1030 53 10000 1.03 0 22:23 28.03.2021
4765 Clear 8 1029 61 10000 1.54 350 21:45 28.03.2021
4766 Clear 9 1029 46 10000 1.54 140 21:23 28.03.2021
4767 Clear 10 1029 37 10000 1.54 210 20:50 28.03.2021
4768 Clear 10 1029 37 10000 1.54 210 20:32 28.03.2021
4769 Clear 12 1028 38 10000 2.57 260 19:46 28.03.2021
4770 Clear 12 1028 38 10000 3.09 240 19:23 28.03.2021
4771 Clear 14 1028 33 10000 4.12 240 18:58 28.03.2021
4772 Clear 14 1028 33 10000 4.12 240 18:33 28.03.2021
4773 Clear 14 1028 31 10000 4.63 220 17:56 28.03.2021
4774 Clear 15 1028 33 10000 3.6 220 17:34 28.03.2021
4775 Clear 14 1029 35 10000 4.63 220 16:55 28.03.2021
4776 Clear 14 1029 38 10000 3.6 210 16:24 28.03.2021
4777 Clear 14 1029 35 10000 5.14 200 15:48 28.03.2021
4778 Clear 13 1029 38 10000 3.09 0 15:22 28.03.2021
4779 Clear 13 1030 38 10000 5.66 220 14:38 28.03.2021
4780 Clouds 12 1030 43 10000 5.14 230 13:52 28.03.2021
4781 Clouds 11 1031 46 10000 4.63 230 13:33 28.03.2021
4782 Clouds 11 1031 50 10000 4.63 230 12:53 28.03.2021
4783 Clouds 11 1031 50 10000 4.63 230 12:33 28.03.2021
4784 Clouds 11 1031 57 10000 4.12 230 11:49 28.03.2021
4785 Clear 9 1031 57 10000 3.6 220 11:26 28.03.2021
4786 Clouds 8 1031 66 10000 2.57 210 10:45 28.03.2021
4787 Clouds 7 1031 65 10000 2.06 210 10:27 28.03.2021
4788 Clear 7 1031 65 10000 2.57 220 09:49 28.03.2021
4789 Clear 6 1030 70 10000 2.06 210 09:25 28.03.2021
4790 Clear 6 1030 70 10000 2.06 210 09:25 28.03.2021
4791 Clear 5 1030 75 10000 1.54 190 08:47 28.03.2021
4792 Clouds 4 1030 81 10000 1.54 180 07:52 28.03.2021
4793 Clouds 4 1030 81 10000 1.54 180 07:33 28.03.2021
4794 Clouds 3 1029 81 10000 2.57 90 04:54 28.03.2021
4795 Clear 3 1029 87 10000 1.54 120 01:38 28.03.2021
4796 Clear 3 1029 87 10000 1.03 0 00:22 28.03.2021
4797 Clear 4 1029 81 10000 2.06 260 23:44 27.03.2021
4798 Clear 4 1029 81 10000 1.03 0 23:21 27.03.2021
4799 Clouds 4 1029 87 10000 1.03 0 22:38 27.03.2021
4800 Clouds 5 1028 81 10000 1.03 0 21:59 27.03.2021
4801 Clouds 5 1028 81 10000 1.03 0 21:40 27.03.2021
4802 Clouds 5 1028 75 10000 2.57 300 21:19 27.03.2021
4803 Clouds 5 1027 81 10000 2.57 270 20:44 27.03.2021
4804 Clear 5 1027 75 10000 2.57 300 20:24 27.03.2021
4805 Clouds 5 1027 75 10000 4.63 260 19:44 27.03.2021
4806 Clouds 5 1027 81 10000 4.63 270 19:23 27.03.2021
4807 Clouds 5 1026 81 10000 4.63 260 18:50 27.03.2021
4808 Clouds 7 1025 57 10000 11.32 280 18:29 27.03.2021
4809 Rain 8 1025 46 10000 8.23 260 17:56 27.03.2021
4810 Clouds 9 1024 43 10000 10.8 270 17:26 27.03.2021
4811 Clear 9 1024 46 10000 8.75 270 16:51 27.03.2021
4812 Clear 9 1024 46 10000 8.75 270 16:51 27.03.2021
4813 Clouds 10 1024 43 10000 10.29 260 16:30 27.03.2021
4814 Clouds 9 1024 43 10000 11.32 260 15:54 27.03.2021
4815 Clouds 10 1023 40 10000 9.26 260 15:27 27.03.2021
4816 Clouds 10 1023 40 10000 9.77 250 14:50 27.03.2021
4817 Clouds 10 1023 43 10000 8.75 260 13:56 27.03.2021
4818 Clouds 10 1023 43 10000 9.26 250 13:26 27.03.2021
4819 Clouds 10 1023 46 10000 8.23 260 12:56 27.03.2021
4820 Clouds 10 1023 49 10000 8.75 260 12:27 27.03.2021
4821 Clouds 9 1023 49 10000 9.26 260 11:46 27.03.2021
4822 Clouds 9 1023 53 10000 9.26 270 11:25 27.03.2021
4823 Clouds 9 1022 49 10000 10.8 270 10:45 27.03.2021
4824 Clouds 8 1022 53 10000 10.29 250 10:23 27.03.2021
4825 Clouds 8 1021 76 10000 8.75 270 09:28 27.03.2021
4826 Clouds 7 1020 70 10000 9.77 270 08:43 27.03.2021
4827 Rain 7 1019 76 10000 9.26 260 08:21 27.03.2021
4828 Clouds 8 1018 81 10000 4.12 230 07:34 27.03.2021
4829 Rain 9 1017 76 10000 7.2 240 06:47 27.03.2021
4830 Rain 9 1016 66 10000 5.14 210 06:27 27.03.2021
4831 Clear 9 1015 62 10000 5.14 190 04:39 27.03.2021
4832 Clear 9 1016 57 10000 2.57 110 00:50 27.03.2021
4833 Clear 9 1016 61 10000 2.57 130 00:29 27.03.2021
4834 Rain 9 1016 57 10000 2.06 130 23:54 26.03.2021
4835 Rain 9 1016 57 10000 2.06 130 23:54 26.03.2021
4836 Clear 9 1016 57 10000 2.57 120 23:19 26.03.2021
4837 Clear 9 1016 50 10000 2.06 130 22:35 26.03.2021
4838 Clear 10 1016 54 10000 3.6 110 21:36 26.03.2021
4839 Clear 10 1016 54 10000 3.09 110 21:18 26.03.2021
4840 Clear 11 1016 44 10000 2.57 110 20:33 26.03.2021
4841 Clouds 11 1016 53 10000 2.44 176 19:57 26.03.2021
4842 Clear 12 1016 38 10000 2.06 110 19:39 26.03.2021
4843 Clouds 12 1016 50 10000 1.99 177 19:20 26.03.2021
4844 Clear 15 1016 38 10000 2.57 180 18:42 26.03.2021
4845 Clear 15 1016 36 10000 2.57 190 18:20 26.03.2021
4846 Clear 17 1016 31 10000 3.6 200 17:46 26.03.2021
4847 Clear 17 1017 31 10000 3.6 190 16:56 26.03.2021
4848 Clear 17 1017 34 10000 4.63 190 16:33 26.03.2021
4849 Clear 17 1017 36 10000 3.6 200 15:53 26.03.2021
4850 Clear 17 1018 39 10000 4.12 200 15:21 26.03.2021
4851 Clear 17 1019 41 10000 3.6 180 14:30 26.03.2021
4852 Clear 16 1019 41 10000 2.06 0 13:34 26.03.2021
4853 Clouds 16 1020 44 10000 1.54 0 12:54 26.03.2021
4854 Clouds 15 1021 47 10000 1.54 0 12:24 26.03.2021
4855 Clouds 13 1021 51 10000 1.03 0 11:35 26.03.2021
4856 Clear 12 1022 58 10000 1.03 130 10:55 26.03.2021
4857 Clear 11 1022 58 10000 1.03 130 10:35 26.03.2021
4858 Clear 10 1022 62 10000 1.03 0 09:44 26.03.2021
4859 Clear 8 1021 66 10000 1.03 0 09:22 26.03.2021
4860 Clear 8 1021 76 10000 2.06 100 08:40 26.03.2021
4861 Clear 7 1021 76 10000 2.06 100 08:21 26.03.2021
4862 Clear 4 1021 81 10000 2.57 100 07:23 26.03.2021
4863 Clear 4 1021 81 10000 3.09 90 06:58 26.03.2021
4864 Clear 3 1021 87 10000 3.6 100 06:32 26.03.2021
4865 Clear 4 1021 81 10000 2.57 100 05:30 26.03.2021
4866 Clear 5 1021 81 10000 1.03 80 01:59 26.03.2021
4867 Clear 6 1021 70 10000 1.54 100 00:31 26.03.2021
4868 Clear 7 1021 66 10000 0.51 0 23:44 25.03.2021
4869 Clear 8 1021 66 10000 0.51 0 22:57 25.03.2021
4870 Clear 8 1021 61 10000 0.51 0 22:30 25.03.2021
4871 Clear 8 1021 66 10000 1.54 350 21:53 25.03.2021
4872 Clear 9 1021 66 10000 1.54 350 21:34 25.03.2021
4873 Clear 10 1020 54 10000 1.54 250 20:45 25.03.2021
4874 Clear 11 1020 50 10000 1.54 270 20:25 25.03.2021
4875 Clear 12 1020 50 10000 2.06 280 19:46 25.03.2021
4876 Clear 12 1019 47 10000 3.09 280 19:27 25.03.2021
4877 Clear 14 1019 44 10000 3.09 280 18:49 25.03.2021
4878 Clear 14 1019 38 10000 4.63 280 18:27 25.03.2021
4879 Clear 16 1019 36 10000 5.14 260 17:52 25.03.2021
4880 Clear 16 1019 36 10000 5.14 260 17:33 25.03.2021
4881 Clear 16 1019 36 10000 5.14 270 16:52 25.03.2021
4882 Clear 16 1019 36 10000 5.14 270 16:31 25.03.2021
4883 Clear 17 1019 34 10000 3.6 240 15:45 25.03.2021
4884 Clear 16 1019 34 10000 3.09 230 15:22 25.03.2021
4885 Clear 16 1019 34 10000 2.57 0 14:46 25.03.2021
4886 Clear 17 1020 34 10000 3.6 190 13:56 25.03.2021
4887 Clear 16 1020 36 10000 2.57 190 13:24 25.03.2021
4888 Clear 16 1020 39 10000 3.09 200 12:45 25.03.2021
4889 Clear 15 1021 41 10000 2.06 150 12:21 25.03.2021
4890 Clear 15 1021 44 10000 1.54 0 11:53 25.03.2021
4891 Clear 13 1021 47 10000 1.54 160 11:30 25.03.2021
4892 Clear 12 1021 54 10000 1.54 130 10:57 25.03.2021
4893 Clear 12 1021 54 10000 1.54 130 10:38 25.03.2021
4894 Clear 10 1021 61 10000 2.06 150 10:18 25.03.2021
4895 Clear 10 1021 61 10000 2.06 150 10:18 25.03.2021
4896 Clear 9 1021 66 10000 2.06 110 09:42 25.03.2021
4897 Clear 6 1021 81 10000 2.57 110 08:58 25.03.2021
4898 Clear 3 1021 87 10000 2.06 100 08:29 25.03.2021
4899 Clear 0 1021 93 10000 3.09 110 07:24 25.03.2021
4900 Clear -1 1021 93 10000 2.57 110 06:27 25.03.2021
4901 Clear -1 1021 93 10000 2.06 120 05:49 25.03.2021
4902 Clear -1 1021 93 10000 2.06 120 05:49 25.03.2021
4903 Clear -1 1021 100 10000 3.6 110 04:33 25.03.2021
4904 Clear 2 1022 87 10000 3.09 110 00:44 25.03.2021
4905 Clear 2 1022 81 10000 2.57 100 00:18 25.03.2021
4906 Clear 3 1022 81 10000 2.57 110 23:36 24.03.2021
4907 Clear 4 1022 81 10000 3.6 100 22:51 24.03.2021
4908 Clear 4 1021 76 10000 1.2 184 22:32 24.03.2021
4909 Clear 4 1022 75 10000 2.06 90 21:47 24.03.2021
4910 Clear 4 1022 75 10000 2.06 90 21:47 24.03.2021
4911 Clear 5 1022 70 10000 2.57 100 21:25 24.03.2021
4912 Clear 6 1022 70 10000 1.03 90 20:46 24.03.2021
4913 Clear 6 1022 70 10000 1.03 90 20:46 24.03.2021
4914 Clear 7 1022 70 10000 0.51 0 20:21 24.03.2021
4915 Clear 7 1021 64 10000 0.63 204 19:59 24.03.2021
4916 Clear 9 1022 57 10000 1.03 360 19:31 24.03.2021
4917 Clear 12 1022 50 10000 1.54 320 18:52 24.03.2021
4918 Clear 12 1022 47 10000 2.06 260 18:24 24.03.2021
4919 Clear 12 1022 44 10000 2.57 270 17:53 24.03.2021
4920 Clear 13 1022 41 10000 1.03 0 17:32 24.03.2021
4921 Clear 13 1022 44 10000 2.06 300 16:54 24.03.2021
4922 Clear 14 1022 44 10000 2.06 300 16:31 24.03.2021
4923 Clear 14 1023 44 10000 1.54 0 15:57 24.03.2021
4924 Clear 13 1023 44 10000 1.54 0 15:33 24.03.2021
4925 Clear 13 1023 47 10000 2.06 250 14:55 24.03.2021
4926 Clear 13 1024 43 10000 1.54 0 14:28 24.03.2021
4927 Clear 12 1024 46 10000 1.54 0 13:57 24.03.2021
4928 Clear 12 1024 46 10000 3.09 0 13:28 24.03.2021
4929 Clear 11 1025 46 10000 1.54 250 12:48 24.03.2021
4930 Clear 10 1025 50 10000 1.54 0 12:27 24.03.2021
4931 Clear 10 1025 50 10000 1.03 0 11:49 24.03.2021
4932 Clear 9 1025 53 10000 2.57 170 11:20 24.03.2021
4933 Clear 8 1025 57 10000 1.54 0 10:44 24.03.2021
4934 Clear 8 1026 57 10000 1.54 0 10:25 24.03.2021
4935 Clear 8 1026 57 10000 1.54 0 09:54 24.03.2021
4936 Clear 7 1026 57 10000 1.54 180 09:23 24.03.2021
4937 Clear 6 1026 57 10000 1.54 180 08:55 24.03.2021
4938 Clouds 4 1025 81 10000 1.03 160 08:29 24.03.2021
4939 Clouds 3 1026 81 10000 1.03 0 07:42 24.03.2021
4940 Clouds 3 1025 87 10000 0.51 0 06:54 24.03.2021
4941 Clouds 3 1025 75 10000 0.51 350 05:52 24.03.2021
4942 Clouds 4 1026 81 10000 0.51 0 00:56 24.03.2021
4943 Clouds 4 1026 81 10000 1.03 0 00:28 24.03.2021
4944 Clouds 4 1026 75 10000 1.03 0 23:22 23.03.2021
4945 Clouds 4 1026 75 10000 0.51 0 22:58 23.03.2021
4946 Clouds 4 1026 75 10000 0.51 0 22:40 23.03.2021
4947 Clouds 5 1026 75 10000 1.54 270 21:59 23.03.2021
4948 Clouds 5 1025 75 10000 2.06 270 21:40 23.03.2021
4949 Clouds 5 1025 75 10000 2.06 270 21:19 23.03.2021
4950 Clouds 5 1025 75 10000 1.54 280 20:40 23.03.2021
4951 Clouds 5 1025 75 10000 1.03 290 20:22 23.03.2021
4952 Clouds 5 1025 75 10000 2.06 300 19:44 23.03.2021
4953 Clouds 5 1025 70 10000 2.57 300 19:23 23.03.2021
4954 Clouds 6 1025 70 10000 2.57 300 18:43 23.03.2021
4955 Clouds 6 1025 65 10000 3.6 310 18:21 23.03.2021
4956 Clouds 6 1025 70 10000 3.6 300 17:44 23.03.2021
4957 Clouds 7 1024 61 10000 3.6 290 17:21 23.03.2021
4958 Clouds 7 1025 65 10000 3.6 270 16:26 23.03.2021
4959 Clouds 7 1025 61 10000 3.09 290 15:55 23.03.2021
4960 Clouds 7 1025 61 10000 3.09 290 15:36 23.03.2021
4961 Clouds 7 1025 61 10000 3.6 280 14:49 23.03.2021
4962 Clouds 7 1025 61 10000 4.12 280 14:20 23.03.2021
4963 Clouds 7 1025 61 10000 3.6 280 13:49 23.03.2021
4964 Clouds 7 1025 65 10000 4.63 270 13:25 23.03.2021
4965 Clouds 6 1025 65 10000 3.6 280 12:46 23.03.2021
4966 Clouds 6 1025 65 10000 4.12 300 12:26 23.03.2021
4967 Clouds 6 1025 65 10000 3.09 290 11:49 23.03.2021
4968 Clouds 5 1025 70 10000 2.57 300 11:30 23.03.2021
4969 Clouds 5 1025 75 10000 2.06 300 10:43 23.03.2021
4970 Clouds 5 1025 75 10000 2.06 290 10:21 23.03.2021
4971 Clouds 4 1025 81 10000 1.03 0 09:54 23.03.2021
4972 Clouds 4 1025 87 10000 1.03 0 09:25 23.03.2021
4973 Clouds 3 1025 87 10000 1.03 130 08:57 23.03.2021
4974 Clouds 3 1025 87 10000 1.54 110 08:38 23.03.2021
4975 Clouds 2 1025 87 10000 1.54 110 08:20 23.03.2021
4976 Clouds 2 1024 86 10000 2.06 100 07:28 23.03.2021
4977 Clouds 1 1024 86 10000 2.06 100 06:54 23.03.2021
4978 Clouds 1 1024 93 10000 1.03 70 05:48 23.03.2021
4979 Clouds 0 1024 93 10000 1.54 100 03:20 23.03.2021
4980 Clear 1 1024 86 10000 0.51 0 00:22 23.03.2021
4981 Clear 2 1023 75 10000 1.03 280 23:23 22.03.2021
4982 Clear 2 1023 75 10000 1.54 290 22:45 22.03.2021
4983 Clear 2 1023 75 10000 1.03 250 22:22 22.03.2021
4984 Clear 2 1023 81 10000 1.03 280 21:51 22.03.2021
4985 Clear 3 1023 81 10000 2.06 270 21:27 22.03.2021
4986 Clear 3 1023 75 10000 2.57 260 20:54 22.03.2021
4987 Clouds 4 1022 70 10000 2.06 250 20:30 22.03.2021
4988 Clouds 4 1022 65 10000 1.54 240 19:58 22.03.2021
4989 Clouds 4 1022 65 10000 1.54 240 19:40 22.03.2021
4990 Clouds 4 1022 65 10000 1.54 240 19:40 22.03.2021
4991 Clouds 4 1022 70 10000 1.54 260 19:21 22.03.2021
4992 Clouds 4 1022 65 10000 2.57 270 18:42 22.03.2021
4993 Clouds 5 1021 61 10000 2.57 280 18:23 22.03.2021
4994 Clouds 6 1021 61 10000 3.6 280 17:50 22.03.2021
4995 Clouds 6 1021 61 10000 3.6 300 17:22 22.03.2021
4996 Clouds 6 1021 56 10000 3.6 300 16:57 22.03.2021
4997 Clouds 6 1021 56 10000 2.57 300 16:39 22.03.2021
4998 Clouds 6 1021 56 10000 2.57 10 15:43 22.03.2021
4999 Clouds 6 1021 56 10000 2.06 360 15:25 22.03.2021
5000 Clouds 5 1021 60 10000 3.6 340 14:59 22.03.2021
5001 Clouds 6 1020 56 10000 3.09 290 14:34 22.03.2021
5002 Clouds 5 1021 60 10000 3.09 300 13:52 22.03.2021
5003 Clouds 5 1021 60 10000 3.09 300 13:34 22.03.2021
5004 Clouds 5 1021 60 10000 3.6 330 12:59 22.03.2021
5005 Clouds 5 1021 60 10000 3.6 330 12:38 22.03.2021
5006 Clouds 5 1021 60 10000 3.6 330 12:18 22.03.2021
5007 Clouds 4 1021 65 10000 4.63 300 11:40 22.03.2021
5008 Clouds 4 1021 65 10000 4.63 300 11:20 22.03.2021
5009 Clouds 4 1020 65 10000 5.14 300 10:42 22.03.2021
5010 Clouds 4 1020 65 10000 5.14 300 10:42 22.03.2021
5011 Clouds 4 1020 65 10000 4.12 320 10:20 22.03.2021
5012 Clouds 3 1020 70 10000 3.09 310 09:37 22.03.2021
5013 Clouds 3 1019 70 10000 3.09 300 08:59 22.03.2021
5014 Clouds 3 1019 70 10000 3.09 300 08:40 22.03.2021
5015 Clouds 2 1019 75 10000 2.57 310 08:21 22.03.2021
5016 Clouds 1 1019 80 10000 2.06 320 07:43 22.03.2021
5017 Clouds 1 1019 86 10000 1.54 320 06:52 22.03.2021
5018 Clouds 1 1018 75 10000 2.06 290 05:19 22.03.2021
5019 Clouds 3 1018 70 10000 3.09 310 01:40 22.03.2021
5020 Clear 3 1018 70 10000 3.6 310 00:21 22.03.2021
5021 Clear 3 1018 70 10000 3.6 310 23:52 21.03.2021
5022 Clear 4 1018 70 10000 3.6 310 23:19 21.03.2021
5023 Clear 4 1018 65 10000 3.6 320 22:54 21.03.2021
5024 Clear 4 1018 65 10000 3.6 310 21:48 21.03.2021
5025 Clear 4 1017 65 10000 4.63 310 21:27 21.03.2021
5026 Clear 5 1017 60 10000 4.12 320 20:58 21.03.2021
5027 Clear 5 1017 60 10000 4.12 320 20:40 21.03.2021
5028 Clouds 5 1017 60 10000 4.63 310 20:21 21.03.2021
5029 Clear 4 1017 65 10000 5.14 310 19:50 21.03.2021
5030 Clear 4 1017 65 10000 5.14 310 19:50 21.03.2021
5031 Clouds 5 1016 65 10000 5.14 310 19:21 21.03.2021
5032 Clouds 5 1016 61 10000 6.17 320 18:46 21.03.2021
5033 Clouds 5 1016 61 10000 6.69 330 18:27 21.03.2021
5034 Clouds 6 1016 61 10000 6.69 340 17:45 21.03.2021
5035 Clouds 6 1015 65 10000 6.69 300 17:19 21.03.2021
5036 Clouds 6 1015 75 10000 6.17 280 16:54 21.03.2021
5037 Clouds 6 1016 75 10000 6.69 270 16:28 21.03.2021
5038 Clouds 6 1016 75 10000 6.17 270 15:49 21.03.2021
5039 Clouds 5 1016 81 10000 6.69 250 15:23 21.03.2021
5040 Clouds 5 1016 75 10000 6.69 250 14:59 21.03.2021
5041 Clouds 6 1016 75 10000 6.69 250 14:40 21.03.2021
5042 Clouds 4 1016 81 10000 5.66 250 14:21 21.03.2021
5043 Clouds 4 1017 75 10000 5.66 260 13:52 21.03.2021
5044 Clouds 4 1017 81 10000 5.66 260 12:46 21.03.2021
5045 Clouds 4 1018 81 10000 5.14 250 12:26 21.03.2021
5046 Clouds 3 1018 81 10000 3.6 270 11:49 21.03.2021
5047 Clouds 3 1018 87 10000 4.63 270 11:27 21.03.2021
5048 Clouds 3 1018 70 10000 5.66 270 10:53 21.03.2021
5049 Clouds 3 1018 70 10000 5.66 270 10:32 21.03.2021
5050 Clouds 3 1018 60 10000 4.12 260 09:56 21.03.2021
5051 Clouds 3 1018 60 10000 4.12 260 09:37 21.03.2021
5052 Clouds 2 1018 64 10000 3.6 260 09:19 21.03.2021
5053 Snow 2 1019 64 10000 3.6 250 08:38 21.03.2021
5054 Snow 1 1019 60 10000 3.09 260 08:19 21.03.2021
5055 Snow 1 1019 64 10000 2.06 210 07:30 21.03.2021
5056 Clouds 1 1020 60 10000 2.06 210 06:30 21.03.2021
5057 Clouds 0 1021 60 10000 2.06 220 04:58 21.03.2021
5058 Clear 0 1023 55 10000 1.54 190 00:59 21.03.2021
5059 Clear 0 1023 55 10000 1.54 190 00:39 21.03.2021
5060 Clear 0 1024 55 10000 1.03 200 00:20 21.03.2021
5061 Clear -1 1024 55 10000 1.03 220 23:46 20.03.2021
5062 Clear -1 1024 55 10000 1.03 200 23:20 20.03.2021
5063 Clear 0 1024 55 10000 1.54 270 22:36 20.03.2021
5064 Clear 0 1024 51 10000 1.03 250 22:18 20.03.2021
5065 Clear 0 1024 51 10000 0.51 0 21:42 20.03.2021
5066 Clear 0 1025 51 10000 0.81 279 21:24 20.03.2021
5067 Clear 0 1025 51 10000 1.03 50 20:42 20.03.2021
5068 Clear 1 1025 47 10000 1.03 0 20:21 20.03.2021
5069 Clear 1 1025 47 10000 2.06 360 19:44 20.03.2021
5070 Clear 1 1025 47 10000 2.57 350 19:25 20.03.2021
5071 Clear 1 1025 47 10000 3.09 340 18:46 20.03.2021
5072 Clear 1 1025 44 10000 3.09 360 18:24 20.03.2021
5073 Clear 1 1025 44 10000 3.6 10 17:51 20.03.2021
5074 Clear 2 1025 38 10000 2.57 360 17:27 20.03.2021
5075 Clouds 2 1025 38 10000 4.12 330 16:44 20.03.2021
5076 Clouds 2 1025 38 10000 4.12 330 16:44 20.03.2021
5077 Clouds 2 1025 41 10000 2.57 340 16:20 20.03.2021
5078 Clouds 3 1025 38 10000 4.12 20 15:56 20.03.2021
5079 Clouds 2 1025 38 10000 4.12 20 15:38 20.03.2021
5080 Clouds 2 1025 48 10000 4.63 330 14:44 20.03.2021
5081 Clouds 2 1026 38 10000 2.57 360 14:22 20.03.2021
5082 Clouds 2 1026 44 10000 3.09 30 13:32 20.03.2021
5083 Clouds 1 1026 51 10000 4.63 360 12:51 20.03.2021
5084 Clouds 1 1026 47 10000 2.57 0 12:26 20.03.2021
5085 Clouds 0 1027 55 10000 4.12 360 11:45 20.03.2021
5086 Clouds 1 1026 51 10000 2.57 0 11:27 20.03.2021
5087 Clouds 0 1026 64 10000 5.14 360 10:54 20.03.2021
5088 Clouds -1 1027 64 10000 4.12 350 10:27 20.03.2021
5089 Clouds -1 1027 69 10000 3.6 350 09:55 20.03.2021
5090 Clouds -2 1026 69 10000 3.09 350 09:27 20.03.2021
5091 Clouds -2 1026 64 10000 3.6 350 08:56 20.03.2021
5092 Clouds -3 1026 68 10000 3.6 350 08:29 20.03.2021
5093 Clear -3 1025 68 10000 2.06 360 07:51 20.03.2021
5094 Clouds -4 1025 75 10000 2.68 355 07:31 20.03.2021
5095 Clear -4 1025 80 10000 2.06 330 06:46 20.03.2021
5096 Clear -4 1024 74 10000 3.6 350 05:37 20.03.2021
5097 Clear -3 1024 74 10000 2.57 340 03:46 20.03.2021
5098 Clear -2 1024 74 10000 3.6 350 02:42 20.03.2021
5099 Clouds -1 1023 80 10000 1.54 330 23:56 19.03.2021
5100 Clouds -1 1023 80 10000 1.54 290 23:29 19.03.2021
5101 Clouds -1 1023 86 10000 1.54 300 22:46 19.03.2021
5102 Clouds -1 1022 74 10000 3.09 340 22:26 19.03.2021
5103 Clouds 0 1022 74 10000 3.09 360 21:53 19.03.2021
5104 Clear 0 1022 74 10000 3.09 360 21:21 19.03.2021
5105 Clouds 1 1021 69 10000 4.63 350 20:46 19.03.2021
5106 Clouds 1 1021 64 10000 2.57 360 20:27 19.03.2021
5107 Clouds 0 1021 60 10000 2.06 10 19:59 19.03.2021
5108 Clouds 0 1021 60 10000 2.06 10 19:39 19.03.2021
5109 Clouds 1 1021 55 10000 2.57 30 19:19 19.03.2021
5110 Clouds 2 1020 52 10000 4.63 20 18:39 19.03.2021
5111 Clouds 2 1020 52 10000 4.63 20 18:18 19.03.2021
5112 Clouds 2 1020 56 10000 5.14 20 17:50 19.03.2021
5113 Clouds 3 1019 56 10000 4.63 20 17:27 19.03.2021
5114 Clouds 3 1019 56 10000 5.66 20 16:51 19.03.2021
5115 Clouds 4 1019 60 10000 5.14 10 16:26 19.03.2021
5116 Clouds 4 1018 60 10000 7.2 360 15:43 19.03.2021
5117 Clouds 4 1018 65 10000 5.66 10 15:22 19.03.2021
5118 Clouds 3 1018 70 10000 7.2 360 14:42 19.03.2021
5119 Clouds 4 1018 56 10000 4.63 10 14:21 19.03.2021
5120 Clouds 4 1018 60 10000 4.63 20 13:34 19.03.2021
5121 Clouds 3 1018 70 10000 5.66 360 12:49 19.03.2021
5122 Clouds 3 1018 75 10000 4.12 40 12:30 19.03.2021
5123 Clouds 3 1018 87 10000 3.6 30 11:39 19.03.2021
5124 Clouds 2 1018 86 10000 3.09 30 10:53 19.03.2021
5125 Snow 2 1017 93 7000 2.06 10 10:26 19.03.2021
5126 Snow 1 1017 93 6000 2.06 10 09:47 19.03.2021
5127 Snow 1 1017 93 6000 2.06 10 09:27 19.03.2021
5128 Snow 1 1017 93 6000 1.54 10 08:53 19.03.2021
5129 Snow 1 1016 100 1800 0.51 0 08:30 19.03.2021
5130 Snow 0 1016 100 1600 0.51 30 07:51 19.03.2021
5131 Snow 0 1016 93 1900 0.51 0 07:32 19.03.2021
5132 Snow 0 1016 93 2100 0.51 0 06:36 19.03.2021
5133 Clouds 0 1016 100 10000 1.03 200 02:37 19.03.2021
5134 Snow 1 1017 93 10000 1.54 270 23:58 18.03.2021
5135 Snow 1 1017 80 10000 0.51 310 23:30 18.03.2021
5136 Snow 1 1017 80 10000 0.51 310 23:30 18.03.2021
5137 Snow 2 1017 80 10000 1.54 230 22:58 18.03.2021
5138 Snow 2 1017 80 10000 1.03 240 22:27 18.03.2021
5139 Snow 2 1017 80 10000 1.03 0 21:56 18.03.2021
5140 Clouds 2 1017 80 10000 1.03 0 21:38 18.03.2021
5141 Clear 2 1017 80 10000 2.06 250 20:43 18.03.2021
5142 Snow 2 1017 80 10000 2.06 280 20:23 18.03.2021
5143 Clouds 2 1018 80 10000 1.54 310 19:45 18.03.2021
5144 Clouds 2 1018 80 10000 2.57 280 19:24 18.03.2021
5145 Clouds 3 1018 81 10000 5.14 270 18:53 18.03.2021
5146 Clouds 3 1018 81 10000 5.14 270 18:53 18.03.2021
5147 Clouds 4 1018 56 10000 2.06 260 18:27 18.03.2021
5148 Clouds 4 1018 48 10000 2.57 290 17:47 18.03.2021
5149 Clouds 5 1018 48 10000 3.09 290 17:25 18.03.2021
5150 Clouds 6 1018 49 10000 2.06 260 16:42 18.03.2021
5151 Clouds 6 1019 49 10000 1.03 0 16:23 18.03.2021
5152 Clouds 6 1019 60 10000 1.54 0 15:43 18.03.2021
5153 Clouds 5 1020 70 10000 2.57 200 15:23 18.03.2021
5154 Clouds 5 1020 70 10000 2.57 200 15:23 18.03.2021
5155 Clouds 4 1020 75 10000 4.12 280 14:52 18.03.2021
5156 Clouds 4 1021 65 10000 2.06 10 14:29 18.03.2021
5157 Snow 4 1021 70 10000 3.09 10 13:48 18.03.2021
5158 Rain 5 1021 60 10000 1.54 300 13:25 18.03.2021
5159 Clouds 4 1021 60 10000 3.09 290 12:42 18.03.2021
5160 Clouds 5 1022 56 10000 2.06 350 12:24 18.03.2021
5161 Clouds 5 1022 56 10000 2.57 290 11:50 18.03.2021
5162 Clouds 4 1022 70 10000 2.06 310 11:27 18.03.2021
5163 Clouds 4 1022 65 10000 2.06 300 10:44 18.03.2021
5164 Clouds 3 1023 75 10000 2.06 290 10:25 18.03.2021
5165 Clouds 2 1023 86 10000 2.57 320 09:54 18.03.2021
5166 Clouds 1 1023 86 10000 2.06 300 09:28 18.03.2021
5167 Clouds 0 1023 93 10000 1.54 280 08:46 18.03.2021
5168 Clouds 0 1023 86 10000 0.51 0 08:27 18.03.2021
5169 Clouds -1 1023 93 10000 1.03 0 07:50 18.03.2021
5170 Clouds -2 1023 93 10000 1.03 320 06:54 18.03.2021
5171 Clouds -2 1023 93 10000 0.51 90 06:27 18.03.2021
5172 Clouds -2 1023 100 10000 1.03 110 05:40 18.03.2021
5173 Clear -1 1023 86 10000 1.54 340 00:57 18.03.2021
5174 Clear -1 1023 86 10000 2.06 320 23:58 17.03.2021
5175 Clear -1 1023 80 10000 1.03 0 22:44 17.03.2021
5176 Clear -1 1023 80 10000 1.54 340 22:24 17.03.2021
5177 Clear -1 1023 75 10000 2.06 360 21:53 17.03.2021
5178 Clear 0 1023 75 10000 2.06 360 21:33 17.03.2021
5179 Clear 0 1022 80 10000 1.03 0 20:58 17.03.2021
5180 Clouds 1 1022 80 10000 0.51 0 20:40 17.03.2021
5181 Clouds 1 1022 80 10000 0.51 0 20:20 17.03.2021
5182 Clouds 1 1022 75 10000 1.03 0 19:43 17.03.2021
5183 Clouds 2 1022 75 10000 3.09 350 19:21 17.03.2021
5184 Clouds 2 1021 70 10000 4.12 350 18:52 17.03.2021
5185 Clouds 2 1021 70 10000 4.63 330 18:32 17.03.2021
5186 Clouds 3 1021 70 10000 4.12 330 17:43 17.03.2021
5187 Clouds 4 1021 65 10000 4.12 340 17:23 17.03.2021
5188 Clouds 4 1020 65 10000 4.12 350 16:43 17.03.2021
5189 Clouds 4 1020 65 10000 4.12 320 16:21 17.03.2021
5190 Clouds 5 1020 65 10000 4.12 320 15:49 17.03.2021
5191 Clouds 4 1020 70 10000 4.63 320 15:30 17.03.2021
5192 Clouds 5 1020 65 10000 4.12 300 14:43 17.03.2021
5193 Clouds 4 1021 70 10000 3.09 330 14:21 17.03.2021
5194 Clouds 3 1021 80 10000 3.09 10 13:55 17.03.2021
5195 Rain 3 1021 70 10000 6.17 330 13:27 17.03.2021
5196 Clouds 4 1020 65 10000 5.14 280 12:50 17.03.2021
5197 Clouds 4 1021 60 10000 5.14 310 12:29 17.03.2021
5198 Clouds 4 1021 70 10000 4.12 310 11:50 17.03.2021
5199 Clouds 4 1021 65 10000 2.57 340 11:23 17.03.2021
5200 Clouds 4 1021 81 10000 1.03 0 10:54 17.03.2021
5201 Clouds 3 1021 87 10000 2.57 320 10:25 17.03.2021
5202 Clouds 2 1021 87 10000 2.57 330 09:48 17.03.2021
5203 Clouds 2 1021 87 10000 2.57 330 09:48 17.03.2021
5204 Clouds 2 1021 93 9000 3.09 330 09:25 17.03.2021
5205 Mist 2 1021 100 5000 2.06 330 08:56 17.03.2021
5206 Mist 1 1020 93 4500 2.06 320 08:36 17.03.2021
5207 Mist 1 1020 100 4000 1.03 320 07:49 17.03.2021
5208 Mist 1 1020 100 4000 1.03 300 07:30 17.03.2021
5209 Mist 1 1020 100 5000 0.51 330 06:42 17.03.2021
5210 Clouds 0 1020 93 10000 0.51 0 04:21 17.03.2021
5211 Clouds 1 1020 93 10000 1.54 280 02:50 17.03.2021
5212 Clouds 1 1020 93 10000 1.03 0 00:40 17.03.2021
5213 Rain 1 1021 100 10000 0.51 0 23:29 16.03.2021
5214 Rain 1 1021 93 10000 0.51 220 22:51 16.03.2021
5215 Rain 1 1021 93 10000 0.51 220 22:33 16.03.2021
5216 Clouds 1 1021 93 10000 1.03 0 21:49 16.03.2021
5217 Rain 1 1020 100 10000 1.03 0 21:31 16.03.2021
5218 Clear 1 1020 100 10000 1.03 80 20:59 16.03.2021
5219 Clear 1 1020 100 10000 1.03 80 20:59 16.03.2021
5220 Snow 2 1020 93 10000 1.54 140 20:20 16.03.2021
5221 Clouds 2 1021 93 10000 1.03 0 19:58 16.03.2021
5222 Clouds 2 1021 93 10000 1.03 0 19:40 16.03.2021
5223 Clouds 2 1021 93 2000 6.69 320 19:20 16.03.2021
5224 Rain 4 1020 75 10000 4.63 310 18:40 16.03.2021
5225 Rain 4 1020 65 10000 5.14 260 18:21 16.03.2021
5226 Clouds 5 1020 61 10000 5.66 250 17:47 16.03.2021
5227 Clouds 6 1020 61 10000 5.14 270 17:29 16.03.2021
5228 Clouds 6 1020 61 10000 5.14 280 16:52 16.03.2021
5229 Clouds 6 1020 61 10000 5.66 280 16:28 16.03.2021
5230 Clouds 6 1021 56 10000 6.17 290 15:47 16.03.2021
5231 Clouds 5 1021 61 10000 6.69 280 15:21 16.03.2021
5232 Clouds 5 1021 65 10000 6.69 290 14:58 16.03.2021
5233 Clouds 5 1021 65 10000 6.69 290 14:40 16.03.2021
5234 Clouds 5 1021 65 10000 7.72 280 14:20 16.03.2021
5235 Clouds 6 1021 60 10000 7.2 300 13:49 16.03.2021
5236 Clouds 5 1021 65 10000 7.2 300 13:26 16.03.2021
5237 Clouds 5 1020 60 10000 6.69 300 12:53 16.03.2021
5238 Clouds 5 1020 60 10000 6.69 300 12:34 16.03.2021
5239 Clouds 5 1020 60 10000 5.66 310 11:53 16.03.2021
5240 Clouds 4 1020 70 10000 6.69 300 11:24 16.03.2021
5241 Clouds 4 1020 70 10000 6.17 310 10:28 16.03.2021
5242 Clouds 4 1020 70 10000 7.72 300 09:59 16.03.2021
5243 Clouds 4 1020 70 10000 7.72 300 09:38 16.03.2021
5244 Clouds 4 1019 75 10000 6.17 310 09:18 16.03.2021
5245 Clouds 3 1019 81 10000 7.2 290 08:45 16.03.2021
5246 Clouds 3 1018 81 10000 6.17 290 08:26 16.03.2021
5247 Clouds 3 1018 81 10000 5.14 290 07:36 16.03.2021
5248 Clouds 3 1017 81 10000 5.66 280 06:40 16.03.2021
5249 Clouds 3 1017 81 10000 5.14 280 05:59 16.03.2021
5250 Clouds 3 1017 81 10000 5.14 280 05:34 16.03.2021
5251 Clouds 3 1015 75 10000 6.17 290 02:46 16.03.2021
5252 Clouds 3 1015 81 10000 6.69 280 02:24 16.03.2021
5253 Clouds 3 1014 81 10000 5.66 290 23:59 15.03.2021
5254 Clouds 3 1014 81 10000 6.17 280 23:29 15.03.2021
5255 Clouds 3 1013 81 10000 6.17 280 22:55 15.03.2021
5256 Clouds 3 1013 81 10000 6.17 280 22:36 15.03.2021
5257 Clouds 3 1013 87 10000 5.66 280 21:55 15.03.2021
5258 Clouds 3 1013 87 10000 5.66 280 21:36 15.03.2021
5259 Clouds 4 1013 87 10000 4.12 290 21:18 15.03.2021
5260 Rain 3 1012 87 10000 4.12 290 20:40 15.03.2021
5261 Rain 4 1012 87 6000 7.2 280 20:22 15.03.2021
5262 Rain 4 1011 75 10000 5.14 250 19:51 15.03.2021
5263 Clouds 4 1011 75 10000 5.14 250 19:32 15.03.2021
5264 Clouds 4 1011 75 10000 2.06 260 18:57 15.03.2021
5265 Clouds 5 1011 70 10000 2.06 290 18:32 15.03.2021
5266 Clouds 5 1010 65 10000 4.63 300 17:56 15.03.2021
5267 Clouds 5 1010 65 10000 4.63 300 17:32 15.03.2021
5268 Clouds 6 1010 61 10000 6.69 300 16:55 15.03.2021
5269 Clouds 7 1010 70 10000 4.12 300 16:35 15.03.2021
5270 Clouds 6 1010 81 10000 6.17 330 15:47 15.03.2021
5271 Clouds 6 1009 81 10000 4.63 320 15:26 15.03.2021
5272 Clouds 5 1009 81 10000 7.2 310 14:45 15.03.2021
5273 Clouds 5 1009 87 10000 6.69 300 14:24 15.03.2021
5274 Clouds 5 1009 87 10000 6.69 300 13:53 15.03.2021
5275 Clouds 5 1009 87 10000 6.69 300 13:34 15.03.2021
5276 Clouds 5 1009 87 10000 6.17 280 12:51 15.03.2021
5277 Clouds 4 1009 87 10000 5.14 260 12:20 15.03.2021
5278 Clouds 4 1009 87 10000 5.14 230 11:56 15.03.2021
5279 Rain 4 1009 87 10000 4.12 210 11:38 15.03.2021
5280 Rain 4 1009 87 10000 5.14 200 10:59 15.03.2021
5281 Rain 3 1009 93 10000 4.63 200 10:33 15.03.2021
5282 Rain 4 1009 81 10000 5.14 200 09:59 15.03.2021
5283 Clouds 4 1009 81 10000 5.14 200 09:40 15.03.2021
5284 Rain 4 1009 81 10000 3.6 220 08:59 15.03.2021
5285 Rain 4 1009 81 10000 3.6 220 08:41 15.03.2021
5286 Rain 3 1010 81 10000 2.57 210 08:18 15.03.2021
5287 Clouds 3 1010 75 10000 3.6 230 07:32 15.03.2021
5288 Clouds 3 1010 87 10000 2.06 190 06:44 15.03.2021
5289 Clouds 3 1011 87 10000 1.54 230 05:34 15.03.2021
5290 Clouds 3 1012 81 10000 3.09 260 01:47 15.03.2021
5291 Clear 3 1013 87 10000 2.06 200 23:59 14.03.2021
5292 Clouds 3 1013 87 10000 2.06 200 23:21 14.03.2021
5293 Clouds 3 1013 81 10000 1.54 190 22:47 14.03.2021
5294 Clouds 3 1013 87 10000 1.03 0 22:23 14.03.2021
5295 Clouds 3 1013 87 10000 1.03 0 22:23 14.03.2021
5296 Clouds 2 1013 81 10000 2.57 250 21:49 14.03.2021
5297 Clouds 3 1013 81 10000 3.09 260 21:20 14.03.2021
5298 Clouds 3 1013 75 10000 5.66 270 20:50 14.03.2021
5299 Clouds 3 1013 75 10000 5.66 270 20:50 14.03.2021
5300 Clouds 3 1013 75 10000 3.6 270 20:27 14.03.2021
5301 Clouds 3 1012 75 10000 4.63 260 19:50 14.03.2021
5302 Clouds 4 1012 70 10000 5.14 270 19:24 14.03.2021
5303 Clouds 5 1012 70 10000 5.14 270 18:56 14.03.2021
5304 Clouds 5 1011 70 10000 4.63 270 18:28 14.03.2021
5305 Clouds 5 1011 70 10000 4.12 260 17:41 14.03.2021
5306 Clouds 6 1011 61 10000 5.14 270 17:23 14.03.2021
5307 Clouds 6 1011 61 10000 6.17 270 16:49 14.03.2021
5308 Clouds 6 1011 61 10000 7.2 270 16:28 14.03.2021
5309 Clouds 6 1011 61 10000 5.66 270 15:56 14.03.2021
5310 Clouds 6 1011 61 10000 5.66 270 15:36 14.03.2021
5311 Clouds 6 1010 61 10000 6.69 260 14:41 14.03.2021
5312 Clouds 7 1010 61 10000 8.75 270 14:23 14.03.2021
5313 Clouds 6 1010 57 10000 8.23 270 13:49 14.03.2021
5314 Clouds 6 1010 61 10000 7.72 270 13:29 14.03.2021
5315 Clouds 6 1010 61 10000 7.72 270 13:29 14.03.2021
5316 Clouds 6 1011 70 10000 8.23 260 12:47 14.03.2021
5317 Clouds 5 1011 70 10000 7.72 270 12:28 14.03.2021
5318 Clouds 5 1011 75 10000 7.72 270 11:51 14.03.2021
5319 Clouds 5 1011 75 10000 7.72 270 11:33 14.03.2021
5320 Clouds 4 1010 81 10000 7.2 260 10:56 14.03.2021
5321 Clouds 4 1010 81 10000 7.2 260 10:37 14.03.2021
5322 Clouds 4 1010 81 10000 7.2 260 10:18 14.03.2021
5323 Clouds 4 1010 81 10000 7.2 260 10:18 14.03.2021
5324 Clouds 4 1010 81 10000 6.69 260 09:43 14.03.2021
5325 Clouds 3 1009 87 8000 7.2 260 09:22 14.03.2021
5326 Clouds 3 1009 87 8000 7.2 260 09:22 14.03.2021
5327 Clouds 3 1008 81 10000 7.2 260 08:41 14.03.2021
5328 Clouds 3 1008 87 10000 5.66 250 08:18 14.03.2021
5329 Clouds 3 1007 87 10000 5.14 250 07:35 14.03.2021
5330 Clouds 2 1006 87 10000 4.12 240 06:41 14.03.2021
5331 Clouds 2 1003 93 10000 1.03 0 03:54 14.03.2021
5332 Rain 4 1003 75 10000 7.72 230 00:51 14.03.2021
5333 Rain 4 1003 75 10000 6.17 240 00:19 14.03.2021
5334 Rain 5 1002 75 10000 7.72 220 23:42 13.03.2021
5335 Clouds 5 1003 75 10000 7.2 230 23:22 13.03.2021
5336 Clouds 5 1003 75 10000 7.2 220 22:50 13.03.2021
5337 Rain 5 1003 75 10000 4.63 210 22:25 13.03.2021
5338 Clouds 5 1003 75 10000 7.72 210 21:41 13.03.2021
5339 Clouds 5 1003 70 10000 6.17 220 21:20 13.03.2021
5340 Clouds 5 1003 70 10000 6.69 230 20:49 13.03.2021
5341 Clouds 5 1003 70 10000 6.17 220 20:30 13.03.2021
5342 Clouds 5 1003 70 10000 5.66 210 19:47 13.03.2021
5343 Clouds 5 1003 70 10000 5.66 230 19:29 13.03.2021
5344 Clouds 5 1002 70 10000 7.2 230 18:43 13.03.2021
5345 Clouds 5 1002 70 10000 7.72 230 18:21 13.03.2021
5346 Clouds 5 1002 75 10000 7.2 230 17:56 13.03.2021
5347 Rain 5 1002 75 10000 8.23 230 17:34 13.03.2021
5348 Rain 5 1003 75 10000 10.8 250 16:57 13.03.2021
5349 Rain 5 1003 75 10000 10.8 250 16:39 13.03.2021
5350 Rain 6 1003 81 10000 9.77 260 15:58 13.03.2021
5351 Rain 8 1000 62 10000 8.23 210 15:22 13.03.2021
5352 Clouds 9 1001 66 10000 10.29 220 14:43 13.03.2021
5353 Clouds 10 1001 57 10000 11.32 220 14:24 13.03.2021
5354 Rain 10 1001 50 10000 9.77 220 13:30 13.03.2021
5355 Clouds 10 1002 50 10000 9.26 220 12:56 13.03.2021
5356 Rain 10 1002 53 10000 7.2 200 12:38 13.03.2021
5357 Rain 10 1002 57 10000 7.2 200 11:58 13.03.2021
5358 Clouds 10 1002 57 10000 7.2 200 11:39 13.03.2021
5359 Clouds 9 1003 61 10000 9.26 200 11:21 13.03.2021
5360 Clouds 8 1003 61 10000 7.2 190 10:36 13.03.2021
5361 Clouds 8 1004 66 10000 8.75 190 10:18 13.03.2021
5362 Clouds 7 1005 76 10000 6.69 190 09:33 13.03.2021
5363 Clouds 6 1005 70 10000 6.69 190 08:54 13.03.2021
5364 Clouds 6 1005 75 10000 6.17 180 08:26 13.03.2021
5365 Clouds 6 1006 75 10000 5.14 190 07:58 13.03.2021
5366 Clouds 5 1006 75 10000 5.14 190 07:39 13.03.2021
5367 Clouds 4 1007 87 10000 4.63 190 05:31 13.03.2021
5368 Rain 4 1009 81 10000 4.63 220 02:42 13.03.2021
5369 Rain 6 1008 61 10000 5.14 220 00:36 13.03.2021
5370 Clear 6 1008 61 10000 5.66 200 23:46 12.03.2021
5371 Clear 6 1008 61 10000 6.17 190 23:28 12.03.2021
5372 Clear 6 1008 61 10000 5.66 180 22:41 12.03.2021
5373 Clear 6 1009 65 10000 4.12 170 22:20 12.03.2021
5374 Clear 6 1009 61 10000 5.14 180 21:38 12.03.2021
5375 Clear 6 1009 61 10000 5.14 180 21:38 12.03.2021
5376 Clear 6 1009 61 10000 5.14 180 21:19 12.03.2021
5377 Clear 6 1009 61 10000 5.14 180 20:48 12.03.2021
5378 Clear 6 1009 56 10000 4.63 170 20:24 12.03.2021
5379 Clear 6 1009 53 10000 2.06 190 19:45 12.03.2021
5380 Clear 6 1009 53 10000 3.09 210 19:27 12.03.2021
5381 Clear 7 1009 49 10000 4.12 230 18:53 12.03.2021
5382 Clear 7 1010 49 10000 4.12 240 18:29 12.03.2021
5383 Clear 8 1010 46 10000 6.17 240 17:45 12.03.2021
5384 Clear 9 1010 43 10000 9.26 240 17:27 12.03.2021
5385 Clear 9 1010 46 10000 7.2 250 16:44 12.03.2021
5386 Clear 9 1010 49 10000 7.2 250 16:25 12.03.2021
5387 Clouds 9 1011 46 10000 9.26 250 15:38 12.03.2021
5388 Clouds 9 1011 49 10000 7.72 260 14:58 12.03.2021
5389 Clouds 9 1011 49 10000 7.72 260 14:38 12.03.2021
5390 Clouds 8 1011 57 10000 8.75 270 14:18 12.03.2021
5391 Clouds 8 1012 61 10000 8.75 260 13:38 12.03.2021
5392 Clouds 8 1012 70 10000 8.23 250 13:19 12.03.2021
5393 Clouds 8 1012 57 10000 9.26 250 12:49 12.03.2021
5394 Clouds 8 1012 57 10000 7.72 240 12:28 12.03.2021
5395 Clouds 7 1013 57 10000 8.75 250 11:54 12.03.2021
5396 Clouds 7 1013 57 10000 8.75 250 11:54 12.03.2021
5397 Clouds 7 1013 65 10000 7.72 250 11:24 12.03.2021
5398 Clouds 7 1013 61 10000 7.2 240 10:57 12.03.2021
5399 Clouds 6 1013 70 10000 5.14 240 10:28 12.03.2021
5400 Clouds 6 1013 70 10000 5.14 240 10:28 12.03.2021
5401 Clouds 6 1013 70 10000 7.2 240 09:57 12.03.2021
5402 Clouds 5 1013 75 10000 6.69 230 09:27 12.03.2021
5403 Clouds 5 1012 75 10000 4.12 220 08:50 12.03.2021
5404 Clouds 4 1012 70 10000 5.14 230 08:30 12.03.2021
5405 Clouds 4 1011 75 10000 5.14 250 07:41 12.03.2021
5406 Clouds 4 1010 81 10000 6.17 250 06:59 12.03.2021
5407 Clouds 4 1010 81 10000 6.69 250 06:29 12.03.2021
5408 Rain 4 1007 76 10000 6.17 230 02:58 12.03.2021
5409 Clouds 6 1006 81 10000 7.2 240 00:52 12.03.2021
5410 Rain 6 1006 87 10000 4.12 250 23:40 11.03.2021
5411 Rain 7 1005 87 10000 5.66 250 22:52 11.03.2021
5412 Clouds 7 1005 87 10000 6.17 260 22:32 11.03.2021
5413 Rain 7 1005 87 10000 7.72 250 21:58 11.03.2021
5414 Rain 7 1005 87 10000 7.72 250 21:39 11.03.2021
5415 Rain 7 1004 87 10000 4.63 240 21:20 11.03.2021
5416 Clouds 7 1004 81 8000 10.29 280 20:44 11.03.2021
5417 Rain 9 1003 76 10000 6.17 240 20:21 11.03.2021
5418 Clouds 9 1003 76 10000 6.69 270 19:46 11.03.2021
5419 Clouds 9 1003 76 10000 6.17 240 19:27 11.03.2021
5420 Clouds 9 1002 76 10000 5.66 230 18:49 11.03.2021
5421 Clouds 9 1002 76 10000 7.72 250 18:31 11.03.2021
5422 Rain 10 1003 76 10000 14.4 250 17:45 11.03.2021
5423 Rain 11 1002 82 10000 9.77 240 17:24 11.03.2021
5424 Rain 12 1003 67 10000 8.23 240 16:29 11.03.2021
5425 Rain 12 1003 67 10000 7.72 230 15:49 11.03.2021
5426 Clouds 12 1004 67 10000 8.75 230 15:22 11.03.2021
5427 Clouds 12 1004 67 10000 7.2 220 14:49 11.03.2021
5428 Clouds 12 1004 66 10000 5.66 220 14:20 11.03.2021
5429 Clouds 12 1004 66 10000 6.69 220 13:59 11.03.2021
5430 Rain 11 1004 66 10000 6.69 220 13:38 11.03.2021
5431 Rain 11 1005 62 10000 5.14 220 13:18 11.03.2021
5432 Clouds 11 1005 62 10000 4.63 230 12:43 11.03.2021
5433 Clouds 11 1005 62 10000 4.12 170 12:25 11.03.2021
5434 Clouds 10 1006 66 10000 4.63 180 11:43 11.03.2021
5435 Clouds 10 1006 66 10000 4.63 190 11:25 11.03.2021
5436 Clouds 8 1006 66 10000 4.63 170 10:42 11.03.2021
5437 Clouds 8 1007 66 10000 4.63 160 10:20 11.03.2021
5438 Clouds 7 1007 70 10000 3.6 160 09:44 11.03.2021
5439 Clouds 6 1007 75 10000 4.12 150 09:23 11.03.2021
5440 Clouds 5 1007 75 10000 4.63 140 08:47 11.03.2021
5441 Clouds 5 1008 75 10000 4.63 140 08:19 11.03.2021
5442 Clouds 4 1008 81 10000 4.63 140 07:30 11.03.2021
5443 Clouds 4 1008 81 10000 4.63 140 06:50 11.03.2021
5444 Clouds 4 1009 75 10000 4.63 150 06:30 11.03.2021
5445 Clear 4 1011 65 10000 5.14 150 03:53 11.03.2021
5446 Clear 2 1013 75 10000 3.6 130 01:19 11.03.2021
5447 Clear 2 1015 80 10000 3.6 110 23:33 10.03.2021
5448 Clear 2 1016 80 10000 3.09 110 22:59 10.03.2021
5449 Clear 2 1016 80 10000 3.6 100 22:33 10.03.2021
5450 Clear 2 1016 75 10000 4.12 100 21:47 10.03.2021
5451 Clear 3 1017 70 10000 3.6 100 21:26 10.03.2021
5452 Clear 3 1017 70 10000 2.57 110 20:51 10.03.2021
5453 Clear 3 1017 65 10000 2.57 110 20:33 10.03.2021
5454 Clear 4 1017 60 10000 2.06 120 19:54 10.03.2021
5455 Clear 4 1017 60 10000 2.06 120 19:33 10.03.2021
5456 Clear 5 1017 61 10000 0.51 0 18:55 10.03.2021
5457 Clear 5 1017 61 10000 0.51 0 18:36 10.03.2021
5458 Clear 6 1017 57 10000 1.03 290 18:18 10.03.2021
5459 Clouds 7 1017 57 10000 2.06 250 17:41 10.03.2021
5460 Clouds 7 1018 53 10000 2.57 240 17:19 10.03.2021
5461 Clouds 8 1018 53 10000 3.6 250 16:47 10.03.2021
5462 Clouds 8 1018 53 10000 2.57 260 16:25 10.03.2021
5463 Clouds 8 1018 57 10000 3.09 280 15:49 10.03.2021
5464 Clouds 7 1018 57 10000 3.6 280 15:25 10.03.2021
5465 Clouds 8 1018 49 10000 4.12 270 14:57 10.03.2021
5466 Clouds 7 1019 53 10000 4.63 270 14:22 10.03.2021
5467 Clouds 7 1019 53 10000 5.66 260 13:54 10.03.2021
5468 Clouds 7 1019 53 10000 5.14 260 13:31 10.03.2021
5469 Clouds 6 1019 61 10000 4.12 270 12:48 10.03.2021
5470 Clouds 6 1019 65 10000 3.6 270 12:24 10.03.2021
5471 Clouds 6 1019 75 10000 4.12 280 11:50 10.03.2021
5472 Clouds 6 1019 81 10000 3.09 270 11:22 10.03.2021
5473 Clouds 5 1019 81 10000 2.57 270 10:50 10.03.2021
5474 Clouds 5 1019 87 9000 2.57 270 10:31 10.03.2021
5475 Clouds 4 1019 87 9000 2.57 280 09:55 10.03.2021
5476 Clouds 4 1019 87 9000 2.57 280 09:37 10.03.2021
5477 Clouds 3 1019 93 8000 1.54 250 09:18 10.03.2021
5478 Clouds 3 1019 93 8000 1.03 0 08:42 10.03.2021
5479 Clouds 2 1018 93 6000 1.03 0 08:23 10.03.2021
5480 Clouds 2 1018 93 6000 0.51 0 07:42 10.03.2021
5481 Clouds 2 1018 93 6000 1.03 0 07:21 10.03.2021
5482 Clouds 2 1018 93 7000 2.62 291 06:49 10.03.2021
5483 Clouds 2 1017 81 10000 2.06 180 02:42 10.03.2021
5484 Clouds 2 1018 87 10000 2.06 140 23:59 09.03.2021
5485 Clouds 2 1018 87 10000 1.54 170 23:27 09.03.2021
5486 Clouds 3 1018 81 10000 1.03 0 22:49 09.03.2021
5487 Rain 3 1018 75 10000 1.03 220 22:28 09.03.2021
5488 Clouds 3 1018 70 10000 1.03 0 21:57 09.03.2021
5489 Clouds 3 1018 70 10000 1.03 0 21:37 09.03.2021
5490 Clouds 3 1018 70 10000 0.51 110 21:18 09.03.2021
5491 Clouds 3 1018 70 10000 1.54 130 20:43 09.03.2021
5492 Clouds 3 1018 70 10000 1.03 10 20:21 09.03.2021
5493 Clouds 4 1017 65 10000 1.54 20 19:53 09.03.2021
5494 Clouds 4 1017 60 10000 2.06 260 19:28 09.03.2021
5495 Clouds 4 1017 56 10000 3.09 280 18:51 09.03.2021
5496 Clouds 4 1017 52 10000 1.54 270 18:29 09.03.2021
5497 Clouds 5 1016 52 10000 2.57 260 17:54 09.03.2021
5498 Clouds 6 1016 48 10000 2.57 270 17:34 09.03.2021
5499 Clouds 6 1016 48 10000 3.09 280 16:55 09.03.2021
5500 Clouds 5 1016 48 10000 3.09 280 16:37 09.03.2021
5501 Clouds 6 1016 49 10000 2.57 290 16:19 09.03.2021
5502 Clouds 6 1016 49 10000 2.57 280 15:44 09.03.2021
5503 Clouds 6 1016 45 10000 1.54 0 15:22 09.03.2021
5504 Clouds 6 1017 45 10000 1.54 270 14:36 09.03.2021
5505 Clouds 6 1017 45 10000 2.57 280 14:18 09.03.2021
5506 Clouds 5 1017 52 10000 2.06 260 13:38 09.03.2021
5507 Clouds 5 1018 56 10000 1.03 0 13:20 09.03.2021
5508 Clouds 5 1018 60 10000 2.06 260 12:40 09.03.2021
5509 Clouds 5 1018 60 10000 1.54 0 12:21 09.03.2021
5510 Clear 4 1018 60 10000 1.54 0 11:42 09.03.2021
5511 Clear 4 1018 65 10000 2.06 170 11:21 09.03.2021
5512 Clear 3 1018 75 10000 2.06 150 10:55 09.03.2021
5513 Clear 2 1018 80 10000 1.54 120 10:36 09.03.2021
5514 Clear 1 1018 80 10000 1.54 120 10:18 09.03.2021
5515 Clear 1 1018 86 10000 1.03 0 09:42 09.03.2021
5516 Clear -1 1018 86 10000 0.51 0 09:23 09.03.2021
5517 Clear -1 1018 93 10000 0.51 0 08:46 09.03.2021
5518 Clear -2 1018 93 10000 0.51 30 08:21 09.03.2021
5519 Clear -3 1018 93 10000 0.51 0 07:38 09.03.2021
5520 Clear -3 1018 93 10000 1 125 07:20 09.03.2021
5521 Clear -4 1018 93 10000 1.03 320 05:55 09.03.2021
5522 Clear -4 1018 93 10000 1.03 320 05:37 09.03.2021
5523 Clear -2 1020 93 10000 1.54 82 00:29 09.03.2021
5524 Clear -2 1020 93 10000 1.03 100 23:43 08.03.2021
5525 Clear -1 1020 86 10000 1.03 100 23:23 08.03.2021
5526 Clear 0 1020 86 10000 2.06 90 22:45 08.03.2021
5527 Clear 0 1020 80 10000 2.06 80 22:27 08.03.2021
5528 Clear 0 1021 80 10000 1.54 80 21:56 08.03.2021
5529 Clear 0 1021 80 10000 1.54 80 21:35 08.03.2021
5530 Clear 1 1021 75 10000 1.03 0 20:48 08.03.2021
5531 Clear 2 1020 75 10000 1.54 40 20:27 08.03.2021
5532 Clouds 2 1021 75 10000 1.54 60 19:59 08.03.2021
5533 Clouds 2 1021 75 10000 1.54 60 19:36 08.03.2021
5534 Clouds 3 1020 70 10000 1.54 20 18:42 08.03.2021
5535 Clouds 3 1020 65 10000 2.57 360 18:21 08.03.2021
5536 Clouds 4 1020 65 10000 1.54 10 17:51 08.03.2021
5537 Clouds 4 1020 65 10000 1.54 330 17:32 08.03.2021
5538 Clouds 4 1020 65 10000 1.03 0 16:49 08.03.2021
5539 Clouds 4 1020 65 10000 2.06 350 16:29 08.03.2021
5540 Clouds 5 1020 65 10000 3.09 10 15:51 08.03.2021
5541 Clouds 4 1020 65 10000 2.57 10 15:29 08.03.2021
5542 Clouds 5 1020 65 10000 2.57 340 14:46 08.03.2021
5543 Clouds 5 1021 56 10000 2.06 330 14:20 08.03.2021
5544 Clouds 5 1021 65 10000 2.06 320 13:40 08.03.2021
5545 Clouds 5 1021 65 10000 2.06 310 13:19 08.03.2021
5546 Clouds 5 1021 65 10000 2.57 310 12:45 08.03.2021
5547 Clouds 4 1021 65 10000 2.06 300 12:26 08.03.2021
5548 Clouds 3 1021 69 10000 2.06 290 11:40 08.03.2021
5549 Clouds 3 1021 69 10000 1.54 330 11:19 08.03.2021
5550 Clouds 2 1021 75 10000 1.03 0 10:43 08.03.2021
5551 Clouds 1 1021 74 10000 1.03 0 10:24 08.03.2021
5552 Clouds 0 1021 80 10000 1.03 0 09:41 08.03.2021
5553 Clouds -1 1021 80 10000 1.03 0 09:22 08.03.2021
5554 Clouds -3 1021 86 10000 1.03 0 08:28 08.03.2021
5555 Clear -5 1020 93 10000 0.51 100 07:24 08.03.2021
5556 Clear -5 1020 93 10000 0.51 100 07:24 08.03.2021
5557 Clear -5 1020 93 10000 1.03 100 06:44 08.03.2021
5558 Clear -4 1019 86 10000 0.51 0 03:39 08.03.2021
5559 Clear -3 1019 86 10000 2.06 350 00:45 08.03.2021
5560 Clear -2 1019 74 10000 0.51 0 23:59 07.03.2021
5561 Clear -2 1019 74 10000 0.51 0 23:39 07.03.2021
5562 Clear -2 1019 74 10000 2.06 340 23:19 07.03.2021
5563 Clear -1 1019 74 10000 1.54 340 22:43 07.03.2021
5564 Clear -2 1019 68 10000 0.51 0 22:25 07.03.2021
5565 Clear -1 1019 64 10000 0.51 0 21:45 07.03.2021
5566 Clear -1 1019 64 10000 0.51 0 21:25 07.03.2021
5567 Clear 0 1019 64 10000 0.51 0 20:48 07.03.2021
5568 Clear 0 1019 64 10000 1.26 340 20:30 07.03.2021
5569 Clear 1 1019 55 10000 1.03 350 19:57 07.03.2021
5570 Clear 2 1019 44 10000 1.03 0 19:38 07.03.2021
5571 Clear 2 1019 44 10000 1.03 0 19:20 07.03.2021
5572 Clear 2 1019 44 10000 1.03 0 19:20 07.03.2021
5573 Clear 3 1018 48 10000 1.54 290 18:42 07.03.2021
5574 Clear 5 1018 36 10000 2.57 300 18:19 07.03.2021
5575 Clear 7 1018 33 10000 3.09 290 17:41 07.03.2021
5576 Clear 7 1018 33 10000 2.06 280 17:20 07.03.2021
5577 Clear 8 1019 29 10000 1.54 0 16:58 07.03.2021
5578 Clear 8 1019 29 10000 1.54 0 16:38 07.03.2021
5579 Clear 8 1019 31 10000 1.54 310 16:19 07.03.2021
5580 Clear 8 1019 31 10000 2.06 0 15:42 07.03.2021
5581 Clear 8 1020 33 10000 2.57 240 15:22 07.03.2021
5582 Clear 8 1021 36 10000 2.57 260 14:30 07.03.2021
5583 Clear 8 1021 36 10000 2.06 270 13:59 07.03.2021
5584 Clear 8 1021 36 10000 2.06 270 13:40 07.03.2021
5585 Clear 6 1022 39 10000 2.06 280 13:20 07.03.2021
5586 Clear 6 1022 39 10000 1.54 0 12:44 07.03.2021
5587 Clear 5 1023 45 10000 1.54 0 12:24 07.03.2021
5588 Clear 4 1023 52 10000 1.54 250 11:25 07.03.2021
5589 Clear 3 1024 55 10000 1.03 0 10:59 07.03.2021
5590 Clear 2 1024 55 10000 1.03 0 10:39 07.03.2021
5591 Clear 2 1024 64 10000 1.54 310 10:19 07.03.2021
5592 Clear -1 1024 69 10000 1.03 0 09:40 07.03.2021
5593 Clear -1 1024 74 10000 0.51 0 09:21 07.03.2021
5594 Clear -3 1025 74 10000 1.03 0 08:45 07.03.2021
5595 Clear -4 1025 80 10000 1.03 90 08:23 07.03.2021
5596 Clear -6 1025 86 10000 0.51 0 07:24 07.03.2021
5597 Clouds -4 1027 80 10000 1.54 120 02:40 07.03.2021
5598 Clear -4 1028 80 10000 1.03 0 00:38 07.03.2021
5599 Clear -3 1028 68 10000 1.54 90 23:41 06.03.2021
5600 Clear -3 1028 64 10000 1.03 100 23:22 06.03.2021
5601 Clear -3 1028 64 10000 2.06 110 22:47 06.03.2021
5602 Clear -2 1028 64 10000 1.03 0 22:25 06.03.2021
5603 Clear -2 1028 69 10000 0.51 0 21:54 06.03.2021
5604 Clouds -2 1031 64 10000 1.03 92 21:21 06.03.2021
5605 Clear -1 1028 64 10000 1.03 0 20:45 06.03.2021
5606 Clear -1 1028 59 10000 1.54 90 20:21 06.03.2021
5607 Clear 1 1029 38 10000 1.54 90 19:41 06.03.2021
5608 Clear 1 1029 41 10000 1.54 80 19:18 06.03.2021
5609 Clear 3 1029 35 10000 2.06 80 18:43 06.03.2021
5610 Clear 4 1029 33 10000 1.54 80 18:23 06.03.2021
5611 Clear 4 1029 33 10000 2.57 100 17:55 06.03.2021
5612 Clear 5 1029 33 10000 2.57 100 17:33 06.03.2021
5613 Clear 6 1029 29 10000 1.54 0 17:00 06.03.2021
5614 Clear 6 1029 29 10000 1.54 0 16:37 06.03.2021
5615 Clear 7 1029 31 10000 2.06 50 16:18 06.03.2021
5616 Clear 6 1030 29 10000 2.57 60 15:41 06.03.2021
5617 Clear 7 1030 31 10000 1.54 0 15:23 06.03.2021
5618 Clear 6 1030 31 10000 2.57 30 14:33 06.03.2021
5619 Clear 6 1031 36 10000 2.57 140 13:56 06.03.2021
5620 Clear 6 1031 36 10000 2.57 140 13:37 06.03.2021
5621 Clear 5 1031 33 10000 3.09 130 13:19 06.03.2021
5622 Clear 5 1032 36 10000 3.09 0 12:43 06.03.2021
5623 Clear 5 1032 42 10000 2.57 0 12:19 06.03.2021
5624 Clear 4 1032 45 10000 2.57 140 11:47 06.03.2021
5625 Clear 3 1032 48 10000 3.6 120 11:21 06.03.2021
5626 Clear 2 1032 60 10000 1.03 0 10:45 06.03.2021
5627 Clear 1 1032 74 10000 1.03 0 10:18 06.03.2021
5628 Clear 0 1032 74 10000 1.03 0 09:40 06.03.2021
5629 Clear -1 1033 80 10000 1.54 340 09:19 06.03.2021
5630 Clear -4 1032 93 10000 0.51 0 08:33 06.03.2021
5631 Clear -6 1032 93 10000 1.03 0 07:56 06.03.2021
5632 Clear -6 1032 93 10000 0.51 360 07:23 06.03.2021
5633 Clear -6 1031 93 10000 0.51 0 06:44 06.03.2021
5634 Clear -4 1031 86 10000 1.5 78 03:49 06.03.2021
5635 Clear -4 1031 93 10000 0.51 0 02:24 06.03.2021
5636 Clear -4 1031 93 10000 1.03 0 00:47 06.03.2021
5637 Clear -4 1031 74 10000 2.06 100 23:51 05.03.2021
5638 Clear -3 1031 80 10000 1.54 110 23:24 05.03.2021
5639 Clear -3 1030 86 10000 1.03 0 22:45 05.03.2021
5640 Clear -3 1030 86 10000 1.03 0 22:45 05.03.2021
5641 Clear -3 1030 80 10000 1.03 0 22:22 05.03.2021
5642 Clear -2 1030 80 10000 2.06 40 21:52 05.03.2021
5643 Clear -2 1029 80 10000 2.06 50 21:32 05.03.2021
5644 Clear -1 1029 59 10000 2.06 60 20:53 05.03.2021
5645 Clear -1 1029 55 10000 2.06 50 20:26 05.03.2021
5646 Clear 0 1028 59 10000 2.06 30 19:56 05.03.2021
5647 Clear 0 1028 55 10000 1.54 40 19:26 05.03.2021
5648 Clear 1 1027 48 10000 2.06 30 18:57 05.03.2021
5649 Clear 2 1027 48 10000 2.06 30 18:39 05.03.2021
5650 Clear 2 1027 51 10000 3.6 30 18:18 05.03.2021
5651 Clouds 2 1026 44 10000 3.6 40 17:35 05.03.2021
5652 Clouds 4 1025 52 10000 2.06 10 16:49 05.03.2021
5653 Clouds 4 1025 48 10000 5.66 360 16:24 05.03.2021
5654 Clouds 4 1025 52 10000 5.66 340 15:58 05.03.2021
5655 Clouds 4 1025 52 10000 5.66 340 15:39 05.03.2021
5656 Clouds 4 1024 56 10000 4.63 360 15:20 05.03.2021
5657 Clouds 4 1024 60 10000 5.14 360 14:38 05.03.2021
5658 Clouds 4 1023 60 10000 4.63 10 14:38 05.03.2021
5659 Clouds 4 1023 65 10000 5.14 10 13:55 05.03.2021
5660 Clouds 4 1023 65 10000 5.14 10 13:55 05.03.2021
5661 Clouds 4 1023 70 10000 4.12 30 13:22 05.03.2021
5662 Clouds 3 1023 75 10000 4.63 20 12:49 05.03.2021
5663 Rain 3 1022 87 10000 4.12 350 11:54 05.03.2021
5664 Clouds 3 1022 81 10000 4.12 340 11:36 05.03.2021
5665 Clouds 4 1022 81 10000 4.12 340 11:18 05.03.2021
5666 Clouds 4 1022 81 10000 4.12 340 11:18 05.03.2021
5667 Snow 3 1021 87 10000 4.12 340 10:40 05.03.2021
5668 Snow 3 1021 87 10000 3.6 330 10:21 05.03.2021
5669 Snow 3 1021 93 10000 4.12 320 09:47 05.03.2021
5670 Clouds 2 1021 93 10000 3.09 330 09:26 05.03.2021
5671 Clouds 2 1020 93 9000 2.57 340 08:40 05.03.2021
5672 Rain 2 1020 93 9000 2.57 330 08:22 05.03.2021
5673 Rain 2 1019 93 9000 2.57 320 07:39 05.03.2021
5674 Snow 1 1019 100 9000 3.6 330 06:49 05.03.2021
5675 Rain 1 1019 100 8000 2.57 330 06:30 05.03.2021
5676 Rain 5 1015 93 7000 4.63 330 01:47 05.03.2021
5677 Drizzle 6 1014 93 10000 4.63 270 00:34 05.03.2021
5678 Rain 6 1015 93 10000 3.09 260 23:31 04.03.2021
5679 Rain 7 1015 87 10000 4.12 300 22:38 04.03.2021
5680 Clouds 7 1014 93 10000 0.51 0 21:56 04.03.2021
5681 Clouds 7 1014 93 10000 0.51 0 21:37 04.03.2021
5682 Clouds 7 1014 93 10000 0.51 260 21:18 04.03.2021
5683 Clear 8 1014 87 10000 1.03 240 20:41 04.03.2021
5684 Clear 8 1015 87 10000 2.06 290 20:21 04.03.2021
5685 Clouds 8 1015 81 10000 3.09 290 19:53 04.03.2021
5686 Clouds 9 1015 81 10000 4.63 320 19:27 04.03.2021
5687 Clouds 9 1015 71 10000 7.72 270 18:54 04.03.2021
5688 Clear 10 1015 54 10000 3.09 260 18:31 04.03.2021
5689 Clouds 12 1015 47 10000 4.12 260 17:58 04.03.2021
5690 Clouds 12 1015 47 10000 4.12 260 17:39 04.03.2021
5691 Clouds 13 1015 47 10000 5.14 270 17:18 04.03.2021
5692 Clouds 14 1015 47 10000 6.17 260 16:43 04.03.2021
5693 Clouds 14 1015 47 10000 6.69 250 16:24 04.03.2021
5694 Clouds 14 1016 44 10000 5.66 280 15:46 04.03.2021
5695 Clouds 14 1016 44 10000 6.69 260 15:27 04.03.2021
5696 Clouds 14 1016 51 10000 5.14 270 14:44 04.03.2021
5697 Clouds 14 1016 51 10000 4.63 260 14:18 04.03.2021
5698 Clear 14 1017 51 10000 5.14 260 13:42 04.03.2021
5699 Clear 13 1017 50 10000 4.63 260 13:22 04.03.2021
5700 Clear 13 1018 50 10000 4.63 270 12:42 04.03.2021
5701 Clear 12 1019 54 10000 4.12 270 11:58 04.03.2021
5702 Clear 11 1019 54 10000 4.12 270 11:40 04.03.2021
5703 Rain 11 1019 54 10000 3.09 260 11:19 04.03.2021
5704 Clear 10 1019 53 10000 2.06 220 10:37 04.03.2021
5705 Clear 8 1020 71 10000 2.06 110 09:55 04.03.2021
5706 Clear 6 1020 81 10000 2.57 100 09:28 04.03.2021
5707 Clear 6 1020 81 10000 2.57 100 09:28 04.03.2021
5708 Clear 5 1020 81 10000 3.09 100 08:53 04.03.2021
5709 Clear 4 1020 87 10000 2.57 100 08:28 04.03.2021
5710 Clear 4 1020 87 10000 2.57 110 07:45 04.03.2021
5711 Clear 4 1021 87 10000 2.57 100 06:48 04.03.2021
5712 Clear 3 1021 93 10000 3.09 130 06:21 04.03.2021
5713 Rain 4 1023 87 10000 3.09 120 02:39 04.03.2021
5714 Clear 4 1024 87 10000 2.57 120 00:21 04.03.2021
5715 Rain 5 1025 81 10000 3.09 110 22:39 03.03.2021
5716 Clear 6 1025 76 10000 2.57 90 22:20 03.03.2021
5717 Clear 5 1025 81 10000 2.57 110 21:41 03.03.2021
5718 Clear 5 1026 81 10000 2.06 110 21:23 03.03.2021
5719 Clear 5 1026 75 10000 2.57 110 20:55 03.03.2021
5720 Clear 5 1026 75 10000 2.57 110 20:36 03.03.2021
5721 Clouds 6 1026 74 10000 1.5 233 19:51 03.03.2021
5722 Clouds 6 1026 74 10000 1.5 233 19:32 03.03.2021
5723 Clear 7 1026 66 10000 2.06 130 18:58 03.03.2021
5724 Clear 8 1026 66 10000 2.06 130 18:39 03.03.2021
5725 Clear 9 1027 62 10000 1.54 160 17:58 03.03.2021
5726 Clear 11 1027 62 10000 2.06 170 17:22 03.03.2021
5727 Clear 11 1027 58 10000 1.54 190 16:55 03.03.2021
5728 Clear 12 1027 58 10000 1.54 190 16:27 03.03.2021
5729 Clear 12 1028 58 10000 1.03 0 15:57 03.03.2021
5730 Clear 12 1028 54 10000 1.03 0 15:33 03.03.2021
5731 Clear 11 1028 57 10000 1.03 0 14:51 03.03.2021
5732 Clear 11 1029 61 10000 1.03 0 14:27 03.03.2021
5733 Clear 11 1029 61 10000 0.51 0 13:47 03.03.2021
5734 Clear 10 1029 61 10000 1.03 0 13:28 03.03.2021
5735 Clear 9 1030 61 10000 1.03 0 12:43 03.03.2021
5736 Clear 9 1030 61 10000 1.54 0 12:23 03.03.2021
5737 Clear 7 1030 65 10000 1.54 140 11:45 03.03.2021
5738 Clear 7 1030 70 10000 2.06 150 11:27 03.03.2021
5739 Clear 5 1030 75 10000 2.57 120 10:46 03.03.2021
5740 Clear 5 1030 75 10000 2.06 120 10:22 03.03.2021
5741 Clear 3 1030 81 10000 2.57 110 09:44 03.03.2021
5742 Clear 1 1030 86 10000 3.09 110 08:55 03.03.2021
5743 Clear 0 1030 86 10000 3.09 110 08:37 03.03.2021
5744 Clear 0 1030 86 10000 3.09 100 08:18 03.03.2021
5745 Clear 0 1030 86 10000 2.57 110 07:34 03.03.2021
5746 Clear 0 1030 93 10000 2.57 120 06:45 03.03.2021
5747 Clear 0 1030 86 10000 3.09 100 05:44 03.03.2021
5748 Clear 0 1030 80 10000 2.06 90 04:49 03.03.2021
5749 Clear 0 1031 80 10000 2.06 130 04:24 03.03.2021
5750 Clear 1 1031 69 10000 2.06 120 00:37 03.03.2021
5751 Clear 2 1032 64 10000 1.54 110 23:35 02.03.2021
5752 Clear 3 1031 65 10000 1.54 120 22:53 02.03.2021
5753 Clear 3 1031 56 10000 2.57 110 22:23 02.03.2021
5754 Clear 3 1031 60 10000 2.57 130 21:55 02.03.2021
5755 Clear 4 1031 60 10000 2.57 130 21:36 02.03.2021
5756 Clear 5 1031 60 10000 1.54 110 20:58 02.03.2021
5757 Clear 5 1031 60 10000 1.54 110 20:40 02.03.2021
5758 Clear 6 1031 60 10000 1.54 100 20:21 02.03.2021
5759 Clear 7 1031 61 10000 0.51 0 19:47 02.03.2021
5760 Clear 7 1031 60 10000 1.66 130 19:28 02.03.2021
5761 Clear 9 1031 32 10000 1.54 110 18:43 02.03.2021
5762 Clear 11 1030 30 10000 1.54 100 18:24 02.03.2021
5763 Clear 14 1030 33 10000 2.06 110 17:58 02.03.2021
5764 Clear 14 1030 33 10000 2.06 110 17:39 02.03.2021
5765 Clear 14 1030 33 10000 1.54 120 17:20 02.03.2021
5766 Clear 15 1030 29 10000 1.03 0 16:47 02.03.2021
5767 Clear 14 1031 31 10000 2.06 140 15:55 02.03.2021
5768 Clear 14 1031 31 10000 2.57 150 15:27 02.03.2021
5769 Clear 14 1031 31 10000 2.57 150 15:27 02.03.2021
5770 Clear 14 1031 31 10000 2.06 170 14:50 02.03.2021
5771 Clear 14 1031 33 10000 1.54 0 14:19 02.03.2021
5772 Clear 13 1031 38 10000 1.54 0 13:47 02.03.2021
5773 Clear 13 1032 41 10000 2.57 100 13:25 02.03.2021
5774 Clear 12 1032 43 10000 3.09 90 12:47 02.03.2021
5775 Clear 11 1032 46 10000 4.12 120 12:25 02.03.2021
5776 Clear 10 1033 46 10000 3.6 100 11:45 02.03.2021
5777 Clear 9 1033 57 10000 2.57 130 11:23 02.03.2021
5778 Clear 7 1033 61 10000 2.06 120 10:49 02.03.2021
5779 Clear 6 1033 70 10000 2.06 120 10:29 02.03.2021
5780 Clear 5 1033 81 10000 1.03 0 09:43 02.03.2021
5781 Clear 3 1033 87 9000 1.03 0 09:24 02.03.2021
5782 Clear 3 1032 87 9000 1.54 90 08:44 02.03.2021
5783 Mist 1 1032 100 9000 1.03 90 08:26 02.03.2021
5784 Mist 0 1032 100 9000 2.06 70 07:43 02.03.2021
5785 Clear -1 1032 100 8000 1.03 10 06:37 02.03.2021
5786 Clear 0 1032 93 10000 1.03 340 05:48 02.03.2021
5787 Clear 1 1032 93 10000 0.51 350 05:30 02.03.2021
5788 Clear 0 1032 86 10000 1.54 60 03:29 02.03.2021
5789 Clear 2 1032 75 10000 2.06 90 01:42 02.03.2021
5790 Clear 2 1032 75 10000 1.03 0 01:19 02.03.2021
5791 Clear 3 1031 70 10000 3.09 100 23:29 01.03.2021
5792 Clear 4 1031 61 10000 4.12 90 22:43 01.03.2021
5793 Clear 4 1031 61 10000 4.12 90 22:43 01.03.2021
5794 Clear 4 1031 65 10000 4.12 90 22:25 01.03.2021
5795 Clear 5 1031 65 10000 3.6 90 21:52 01.03.2021
5796 Clear 5 1031 61 10000 4.12 100 21:24 01.03.2021
5797 Clear 6 1031 57 10000 3.09 100 20:59 01.03.2021
5798 Clear 6 1031 57 10000 3.09 100 20:39 01.03.2021
5799 Clear 8 1031 49 10000 3.09 70 20:18 01.03.2021
5800 Clear 9 1031 46 10000 2.06 70 19:42 01.03.2021
5801 Clear 9 1031 46 10000 3.09 60 19:18 01.03.2021
5802 Clear 11 1031 46 10000 2.06 50 18:40 01.03.2021
5803 Clear 11 1030 41 10000 1.54 70 18:21 01.03.2021
5804 Clear 13 1030 41 10000 1.54 70 17:42 01.03.2021
5805 Clear 13 1030 41 10000 2.57 90 17:20 01.03.2021
5806 Clear 14 1030 38 10000 4.63 100 16:46 01.03.2021
5807 Clear 14 1030 35 10000 4.12 80 16:26 01.03.2021
5808 Clear 14 1031 33 10000 4.12 80 15:46 01.03.2021
5809 Clear 14 1031 33 10000 3.6 80 15:22 01.03.2021
5810 Clear 14 1031 35 10000 3.09 90 14:55 01.03.2021
5811 Clear 14 1031 38 10000 2.06 130 14:36 01.03.2021
5812 Clear 13 1031 41 10000 1.54 0 13:44 01.03.2021
5813 Clear 12 1032 43 10000 3.09 110 13:25 01.03.2021
5814 Clear 11 1032 43 10000 2.06 100 12:59 01.03.2021
5815 Clear 11 1032 43 10000 2.06 100 12:40 01.03.2021
5816 Clear 10 1033 50 10000 1.54 130 12:19 01.03.2021
5817 Clear 9 1033 50 10000 2.06 110 11:42 01.03.2021
5818 Clear 7 1033 61 10000 1.03 0 10:45 01.03.2021
5819 Clear 6 1033 70 10000 1.03 0 10:23 01.03.2021
5820 Clear 4 1033 75 10000 0.51 0 09:59 01.03.2021
5821 Clear 4 1033 75 10000 0.51 0 09:40 01.03.2021
5822 Clear 3 1033 80 10000 0.51 0 09:21 01.03.2021
5823 Clear 3 1033 80 10000 0.51 0 09:21 01.03.2021
5824 Clear 1 1033 86 10000 2.09 76 08:51 01.03.2021
5825 Clear -1 1033 93 10000 0.51 0 08:20 01.03.2021
5826 Clear -2 1032 93 10000 1.03 0 06:53 01.03.2021
5827 Clear -2 1032 93 10000 1.03 110 04:45 01.03.2021
5828 Clear 0 1033 86 10000 1.03 0 00:56 01.03.2021
5829 Clear -1 1033 86 10000 0.51 0 23:37 28.02.2021
5830 Clear 0 1033 86 10000 0.51 0 22:51 28.02.2021
5831 Clear 0 1033 80 10000 1.03 0 22:23 28.02.2021
5832 Clear 0 1033 80 10000 0.51 0 21:51 28.02.2021
5833 Clear 2 1032 80 10000 1.54 30 21:28 28.02.2021
5834 Clear 2 1032 80 10000 1.54 30 21:28 28.02.2021
5835 Clear 2 1032 80 10000 1.03 20 20:56 28.02.2021
5836 Clear 2 1032 80 10000 1.03 20 20:36 28.02.2021
5837 Clear 4 1032 60 10000 1.54 40 19:48 28.02.2021
5838 Clear 5 1032 49 10000 2.06 30 19:28 28.02.2021
5839 Clear 6 1032 45 10000 2.06 30 18:59 28.02.2021
5840 Clear 6 1032 45 10000 2.06 30 18:38 28.02.2021
5841 Clear 8 1032 34 10000 1.54 50 18:19 28.02.2021
5842 Clear 9 1032 34 10000 2.06 50 17:46 28.02.2021
5843 Clear 9 1032 34 10000 2.06 50 17:46 28.02.2021
5844 Clear 9 1032 37 10000 3.09 20 17:27 28.02.2021
5845 Clear 10 1032 37 10000 3.6 50 16:53 28.02.2021
5846 Clear 10 1032 37 10000 3.6 50 16:34 28.02.2021
5847 Clear 10 1033 43 10000 3.09 50 15:53 28.02.2021
5848 Clear 10 1033 40 10000 4.12 70 15:31 28.02.2021
5849 Clear 10 1033 43 10000 3.09 40 14:59 28.02.2021
5850 Clear 10 1033 43 10000 3.09 40 14:40 28.02.2021
5851 Clear 10 1034 46 10000 3.6 10 14:20 28.02.2021
5852 Clear 9 1034 49 10000 2.06 0 13:47 28.02.2021
5853 Clear 9 1035 57 10000 3.09 360 13:19 28.02.2021
5854 Clear 9 1035 57 10000 3.09 360 13:19 28.02.2021
5855 Clear 8 1035 53 10000 2.57 10 12:55 28.02.2021
5856 Clear 8 1035 57 10000 2.57 130 12:37 28.02.2021
5857 Clear 8 1035 57 10000 2.57 130 12:19 28.02.2021
5858 Clear 7 1035 61 10000 3.09 130 11:42 28.02.2021
5859 Clear 6 1036 65 10000 2.57 100 11:24 28.02.2021
5860 Clear 5 1036 65 10000 3.09 100 10:52 28.02.2021
5861 Clear 3 1036 75 10000 1.03 0 10:26 28.02.2021
5862 Clear 2 1036 80 10000 1.03 0 09:42 28.02.2021
5863 Clear 0 1036 86 10000 0.51 0 09:24 28.02.2021
5864 Clear 0 1036 86 10000 1.03 0 08:49 28.02.2021
5865 Clear -1 1036 93 10000 0.51 340 08:31 28.02.2021
5866 Clear -2 1036 93 10000 0.51 0 07:54 28.02.2021
5867 Clear -2 1036 93 10000 0.51 0 07:36 28.02.2021
5868 Clear -3 1036 93 10000 1.03 130 06:29 28.02.2021
5869 Clear -3 1036 93 10000 0.51 0 05:24 28.02.2021
5870 Clear -2 1037 93 10000 0.51 0 03:26 28.02.2021
5871 Clear -2 1037 100 10000 1.03 350 01:41 28.02.2021
5872 Clear -2 1037 93 10000 1.03 340 00:49 28.02.2021
5873 Clear -1 1037 93 10000 1.03 350 00:25 28.02.2021
5874 Clear -1 1037 93 10000 0.51 0 23:44 27.02.2021
5875 Clear -1 1037 93 10000 1.54 360 23:19 27.02.2021
5876 Clear -1 1037 93 10000 1.54 360 22:44 27.02.2021
5877 Clear 0 1037 93 10000 1.54 340 22:19 27.02.2021
5878 Clear 0 1037 86 10000 0.51 320 21:42 27.02.2021
5879 Clear 1 1037 80 10000 1.03 0 21:23 27.02.2021
5880 Clear 1 1037 80 10000 2.06 350 20:48 27.02.2021
5881 Clear 2 1037 80 10000 2.06 360 20:27 27.02.2021
5882 Clouds 2 1037 75 10000 3.09 360 19:45 27.02.2021
5883 Clouds 3 1037 75 10000 3.09 10 19:27 27.02.2021
5884 Clouds 4 1037 70 10000 4.12 10 18:45 27.02.2021
5885 Clouds 5 1037 70 10000 5.14 360 18:21 27.02.2021
5886 Clouds 6 1036 65 10000 5.66 350 17:57 27.02.2021
5887 Clouds 6 1036 65 10000 5.66 350 17:36 27.02.2021
5888 Clouds 6 1036 65 10000 5.14 350 17:18 27.02.2021
5889 Clouds 7 1036 57 10000 3.6 340 16:48 27.02.2021
5890 Clouds 7 1036 61 10000 3.09 350 16:26 27.02.2021
5891 Clouds 7 1036 57 10000 3.6 360 15:43 27.02.2021
5892 Clouds 7 1036 61 10000 2.57 340 15:18 27.02.2021
5893 Clouds 7 1037 57 10000 3.09 350 14:40 27.02.2021
5894 Clouds 7 1037 61 10000 2.57 360 14:20 27.02.2021
5895 Clouds 7 1037 65 10000 3.09 350 13:39 27.02.2021
5896 Clouds 7 1037 65 10000 3.09 10 13:18 27.02.2021
5897 Clouds 7 1037 70 10000 3.09 340 12:45 27.02.2021
5898 Clouds 6 1037 81 10000 2.57 290 12:22 27.02.2021
5899 Clouds 6 1037 93 9000 3.09 320 11:46 27.02.2021
5900 Clouds 5 1037 100 9000 1.54 330 11:27 27.02.2021
5901 Clouds 4 1037 93 6000 2.06 10 10:48 27.02.2021
5902 Mist 3 1037 93 2000 1.03 0 10:29 27.02.2021
5903 Fog 3 1037 100 500 1.54 310 09:52 27.02.2021
5904 Fog 2 1037 100 350 1.03 0 09:31 27.02.2021
5905 Fog 1 1037 100 200 1.03 0 08:43 27.02.2021
5906 Fog 1 1036 100 150 1.54 90 08:22 27.02.2021
5907 Fog 1 1036 100 400 1.03 0 07:42 27.02.2021
5908 Fog 0 1035 100 500 1.03 0 06:21 27.02.2021
5909 Clear 2 1034 100 10000 1.03 10 01:18 27.02.2021
5910 Clear 3 1033 93 10000 1.54 340 23:58 26.02.2021
5911 Clear 3 1033 87 10000 2.57 340 23:40 26.02.2021
5912 Clouds 4 1033 87 10000 3.09 330 23:18 26.02.2021
5913 Clouds 4 1032 81 10000 3.6 330 22:31 26.02.2021
5914 Clouds 5 1032 81 10000 3.6 340 21:49 26.02.2021
5915 Clouds 5 1032 81 10000 3.6 360 21:31 26.02.2021
5916 Clouds 5 1032 81 10000 6.17 340 20:45 26.02.2021
5917 Clouds 5 1031 81 10000 5.66 350 20:24 26.02.2021
5918 Clouds 6 1031 81 10000 5.14 340 19:52 26.02.2021
5919 Clouds 6 1030 87 10000 4.63 340 19:25 26.02.2021
5920 Clouds 7 1030 87 10000 6.17 330 18:48 26.02.2021
5921 Clouds 8 1029 81 10000 7.2 330 18:24 26.02.2021
5922 Clouds 9 1029 76 10000 6.17 320 17:48 26.02.2021
5923 Clouds 10 1028 76 10000 8.23 320 17:29 26.02.2021
5924 Clouds 10 1028 66 10000 6.69 320 16:56 26.02.2021
5925 Clouds 11 1028 66 10000 6.69 320 16:37 26.02.2021
5926 Clear 12 1028 54 10000 5.14 290 16:19 26.02.2021
5927 Clouds 13 1028 54 10000 5.66 310 15:41 26.02.2021
5928 Clouds 14 1028 58 10000 5.14 290 15:22 26.02.2021
5929 Clouds 14 1028 54 10000 5.66 290 14:51 26.02.2021
5930 Clear 15 1028 51 10000 5.14 280 14:30 26.02.2021
5931 Clear 15 1028 51 10000 5.14 280 13:46 26.02.2021
5932 Clear 15 1028 47 10000 3.09 290 13:28 26.02.2021
5933 Clear 14 1029 51 10000 2.57 300 12:43 26.02.2021
5934 Clear 14 1029 54 10000 2.57 310 12:25 26.02.2021
5935 Clear 12 1029 58 10000 1.03 0 11:38 26.02.2021
5936 Clear 11 1029 66 10000 2.06 130 10:54 26.02.2021
5937 Clear 9 1029 76 10000 2.06 110 10:20 26.02.2021
5938 Clear 8 1029 81 10000 2.57 120 09:46 26.02.2021
5939 Clouds 7 1029 87 10000 3.09 110 09:26 26.02.2021
5940 Clear 4 1028 93 10000 3.09 100 08:29 26.02.2021
5941 Clear 4 1028 100 10000 2.57 120 07:54 26.02.2021
5942 Clear 3 1028 93 10000 3.09 110 06:48 26.02.2021
5943 Clear 4 1028 100 10000 3.6 110 05:39 26.02.2021
5944 Clear 4 1028 100 10000 2.06 120 04:49 26.02.2021
5945 Clear 5 1028 87 10000 3.09 110 02:36 26.02.2021
5946 Clear 6 1028 81 10000 1.54 100 00:24 26.02.2021
5947 Clear 7 1028 81 10000 1.54 110 23:30 25.02.2021
5948 Clear 6 1028 75 10000 2.06 120 22:51 25.02.2021
5949 Clear 8 1028 66 10000 2.06 100 22:31 25.02.2021
5950 Clear 7 1028 75 10000 3.6 100 21:47 25.02.2021
5951 Clear 9 1028 58 10000 3.09 100 21:28 25.02.2021
5952 Clear 8 1028 69 10000 1.58 161 20:42 25.02.2021
5953 Clear 8 1028 66 10000 3.09 110 20:23 25.02.2021
5954 Clear 9 1028 62 10000 1.03 0 19:53 25.02.2021
5955 Clear 11 1028 50 10000 2.06 100 19:22 25.02.2021
5956 Clear 11 1028 56 10000 1.52 163 18:58 25.02.2021
5957 Clear 13 1028 47 10000 1.54 60 18:33 25.02.2021
5958 Clear 17 1028 48 10000 0.51 0 17:51 25.02.2021
5959 Clear 17 1028 34 10000 0.51 0 17:29 25.02.2021
5960 Clear 19 1028 34 10000 0.51 40 16:52 25.02.2021
5961 Clear 18 1028 34 10000 1.03 0 16:26 25.02.2021
5962 Clear 18 1028 34 10000 1.03 0 15:36 25.02.2021
5963 Clear 18 1028 34 10000 1.03 0 15:18 25.02.2021
5964 Clear 19 1028 37 10000 1.54 0 14:28 25.02.2021
5965 Clear 19 1029 42 10000 1.54 0 13:56 25.02.2021
5966 Clear 18 1029 42 10000 1.54 0 13:36 25.02.2021
5967 Clear 17 1029 45 10000 1.54 160 13:18 25.02.2021
5968 Clear 16 1030 51 10000 1.03 0 12:22 25.02.2021
5969 Clear 15 1030 54 10000 1.54 160 11:47 25.02.2021
5970 Clear 13 1030 58 10000 2.06 160 11:21 25.02.2021
5971 Clear 11 1030 66 10000 2.57 130 10:46 25.02.2021
5972 Clear 9 1030 71 10000 3.09 140 10:26 25.02.2021
5973 Clear 8 1030 76 10000 2.06 130 09:43 25.02.2021
5974 Clear 5 1030 93 10000 2.57 110 08:56 25.02.2021
5975 Clear 4 1030 100 10000 1.54 120 08:25 25.02.2021
5976 Clear 4 1030 100 10000 1.54 140 07:56 25.02.2021
5977 Clear 4 1030 100 10000 1.54 140 07:34 25.02.2021
5978 Clear 4 1030 100 10000 2.06 130 06:55 25.02.2021
5979 Clear 5 1030 93 10000 3.6 110 02:39 25.02.2021
5980 Clear 5 1030 93 10000 3.09 110 01:38 25.02.2021
5981 Clear 6 1031 87 10000 2.57 110 00:42 25.02.2021
5982 Clear 7 1031 81 10000 2.57 130 23:53 24.02.2021
5983 Clear 7 1031 80 10000 0.89 130 23:28 24.02.2021
5984 Clear 7 1031 81 10000 3.6 120 22:45 24.02.2021
5985 Clear 8 1031 71 10000 3.6 110 22:25 24.02.2021
5986 Clear 8 1031 71 10000 3.09 120 21:46 24.02.2021
5987 Clear 10 1031 62 10000 3.09 110 20:59 24.02.2021
5988 Clear 10 1031 62 10000 3.09 110 20:40 24.02.2021
5989 Clear 10 1031 66 10000 3.6 110 20:20 24.02.2021
5990 Clear 12 1032 62 10000 3.6 120 19:29 24.02.2021
5991 Clear 13 1032 54 10000 3.6 110 18:59 24.02.2021
5992 Clear 14 1032 54 10000 3.6 110 18:34 24.02.2021
5993 Clear 16 1032 48 10000 3.09 150 17:56 24.02.2021
5994 Clear 17 1032 45 10000 2.57 180 17:30 24.02.2021
5995 Clear 17 1032 45 10000 2.57 180 17:30 24.02.2021
5996 Clear 17 1032 45 10000 2.57 180 17:30 24.02.2021
5997 Clear 17 1032 45 10000 2.57 180 17:30 24.02.2021
5998 Clear 18 1032 42 10000 2.57 190 16:57 24.02.2021
5999 Clear 18 1032 42 10000 2.57 190 16:39 24.02.2021
6000 Clear 19 1032 42 10000 2.57 190 16:19 24.02.2021
6001 Clear 18 1032 42 10000 2.06 170 15:38 24.02.2021
6002 Clear 19 1033 42 10000 2.06 140 14:53 24.02.2021
6003 Clear 19 1033 42 10000 2.06 140 14:34 24.02.2021
6004 Clear 18 1033 45 10000 1.54 130 13:58 24.02.2021
6005 Clear 17 1033 45 10000 1.54 130 13:38 24.02.2021
6006 Clear 16 1034 51 10000 2.06 150 13:19 24.02.2021
6007 Clear 15 1034 55 10000 2.06 160 12:43 24.02.2021
6008 Clear 14 1035 58 10000 2.57 140 12:23 24.02.2021
6009 Clear 14 1035 62 10000 1.54 130 11:46 24.02.2021
6010 Clear 11 1035 71 10000 3.09 140 10:51 24.02.2021
6011 Clear 10 1035 76 10000 2.57 130 10:29 24.02.2021
6012 Clear 8 1035 81 10000 2.57 120 09:41 24.02.2021
6013 Clear 7 1035 87 10000 1.54 120 09:19 24.02.2021
6014 Clear 5 1035 93 10000 2.57 140 08:34 24.02.2021
6015 Clear 5 1035 93 10000 3.09 110 07:57 24.02.2021
6016 Clear 3 1035 100 10000 3.09 120 07:20 24.02.2021
6017 Clear 4 1035 93 10000 2.06 140 06:20 24.02.2021
6018 Clear 5 1035 93 10000 2.57 130 03:25 24.02.2021
6019 Clear 5 1035 87 10000 4.12 110 00:20 24.02.2021
6020 Clear 6 1035 76 10000 3.6 110 23:20 23.02.2021
6021 Clear 7 1035 81 10000 3.6 110 22:37 23.02.2021
6022 Clear 7 1035 76 10000 3.09 110 22:18 23.02.2021
6023 Clear 8 1035 71 10000 3.6 110 21:40 23.02.2021
6024 Clear 8 1035 71 10000 3.09 100 21:22 23.02.2021
6025 Clear 9 1035 71 10000 1.03 0 20:47 23.02.2021
6026 Clear 9 1035 71 10000 1.03 0 20:47 23.02.2021
6027 Clear 9 1035 62 10000 2.57 110 20:28 23.02.2021
6028 Clear 11 1034 58 10000 3.09 110 19:47 23.02.2021
6029 Clear 11 1034 62 10000 2.57 110 19:27 23.02.2021
6030 Clear 12 1034 51 10000 1.54 110 18:50 23.02.2021
6031 Clear 13 1034 62 10000 1.91 144 18:29 23.02.2021
6032 Clear 15 1033 42 10000 1.03 160 17:54 23.02.2021
6033 Clear 16 1033 42 10000 1.03 150 17:30 23.02.2021
6034 Clear 17 1033 45 10000 2.06 130 16:48 23.02.2021
6035 Clear 18 1034 42 10000 1.54 140 16:25 23.02.2021
6036 Clear 17 1034 39 10000 1.03 0 15:52 23.02.2021
6037 Clear 17 1034 39 10000 1.03 0 15:34 23.02.2021
6038 Clear 18 1034 42 10000 1.54 140 14:58 23.02.2021
6039 Clear 18 1034 42 10000 1.54 140 14:40 23.02.2021
6040 Clear 17 1034 48 10000 1.54 120 14:19 23.02.2021
6041 Clear 16 1034 51 10000 1.54 160 13:39 23.02.2021
6042 Clear 16 1035 51 10000 1.03 0 13:19 23.02.2021
6043 Clear 15 1035 58 10000 1.54 0 12:46 23.02.2021
6044 Clear 13 1035 62 10000 3.09 110 12:20 23.02.2021
6045 Clear 12 1035 71 10000 2.06 110 11:45 23.02.2021
6046 Clear 12 1035 71 10000 2.06 110 11:45 23.02.2021
6047 Clear 10 1035 76 10000 2.57 150 11:19 23.02.2021
6048 Clear 8 1035 81 10000 3.09 130 10:40 23.02.2021
6049 Clear 7 1035 81 10000 3.09 130 10:19 23.02.2021
6050 Clear 5 1035 93 10000 3.09 110 09:42 23.02.2021
6051 Clear 5 1035 93 10000 2.57 100 09:21 23.02.2021
6052 Clouds 3 1034 93 9000 3.6 110 08:47 23.02.2021
6053 Clouds 3 1034 93 9000 3.09 110 08:21 23.02.2021
6054 Clouds 2 1034 93 9000 2.06 110 07:39 23.02.2021
6055 Clouds 2 1032 100 6000 1.54 110 05:28 23.02.2021
6056 Fog 3 1031 100 9000 4.12 100 02:54 23.02.2021
6057 Fog 3 1031 100 9000 4.12 100 02:54 23.02.2021
6058 Fog 3 1031 100 9000 4.12 100 02:33 23.02.2021
6059 Clear 4 1029 100 10000 2.06 120 00:20 23.02.2021
6060 Clear 4 1029 93 10000 2.06 100 23:43 22.02.2021
6061 Clear 5 1028 93 10000 1.54 120 22:57 22.02.2021
6062 Clear 5 1028 93 10000 1.54 120 22:38 22.02.2021
6063 Clear 5 1028 93 10000 1.54 110 22:19 22.02.2021
6064 Clear 5 1028 87 10000 1.54 110 21:38 22.02.2021
6065 Clear 6 1027 87 10000 2.06 90 21:20 22.02.2021
6066 Clear 5 1027 87 10000 3.09 100 20:48 22.02.2021
6067 Clear 5 1027 87 10000 2.57 90 20:26 22.02.2021
6068 Clear 6 1027 81 10000 0.51 0 19:49 22.02.2021
6069 Clear 6 1026 81 10000 0.51 50 19:30 22.02.2021
6070 Clear 8 1026 76 10000 0.51 90 18:49 22.02.2021
6071 Clear 9 1025 66 10000 1.03 130 18:29 22.02.2021
6072 Clear 10 1025 71 10000 2.06 140 17:49 22.02.2021
6073 Clear 12 1024 62 10000 2.57 150 17:20 22.02.2021
6074 Clear 12 1024 66 10000 2.06 140 16:50 22.02.2021
6075 Clear 12 1024 58 10000 2.06 120 16:29 22.02.2021
6076 Clear 13 1024 58 10000 2.06 130 15:32 22.02.2021
6077 Clear 12 1024 62 10000 2.57 140 14:54 22.02.2021
6078 Clear 12 1024 62 10000 2.57 140 14:35 22.02.2021
6079 Clear 11 1024 66 10000 2.06 160 13:54 22.02.2021
6080 Clear 12 1024 66 10000 2.06 160 13:33 22.02.2021
6081 Clear 11 1024 71 10000 3.09 140 12:48 22.02.2021
6082 Clouds 9 1024 76 10000 3.09 120 12:23 22.02.2021
6083 Clouds 9 1024 75 10000 3.09 140 11:52 22.02.2021
6084 Clouds 7 1024 81 10000 3.6 120 11:31 22.02.2021
6085 Clouds 6 1024 87 10000 3.6 150 10:54 22.02.2021
6086 Clouds 5 1024 87 10000 3.6 150 10:36 22.02.2021
6087 Clouds 5 1023 87 10000 4.63 120 10:18 22.02.2021
6088 Clouds 4 1023 87 10000 3.6 140 09:37 22.02.2021
6089 Clouds 4 1023 87 10000 3.6 140 09:18 22.02.2021
6090 Clouds 4 1023 87 9000 4.12 150 08:44 22.02.2021
6091 Clouds 3 1022 93 9000 4.12 140 08:20 22.02.2021
6092 Clouds 3 1022 93 9000 4.12 140 07:39 22.02.2021
6093 Clouds 3 1022 93 10000 4.12 120 07:18 22.02.2021
6094 Clouds 3 1022 87 10000 3.6 110 06:24 22.02.2021
6095 Clouds 2 1021 93 10000 5.66 130 03:49 22.02.2021
6096 Clouds 2 1021 93 10000 5.66 130 03:20 22.02.2021
6097 Clear 2 1020 93 7000 3.09 100 00:53 22.02.2021
6098 Clear 2 1020 93 9000 3.09 110 00:28 22.02.2021
6099 Clear 2 1020 93 10000 4.12 100 23:50 21.02.2021
6100 Clear 3 1020 93 10000 4.12 90 22:55 21.02.2021
6101 Clear 3 1019 93 10000 4.12 100 22:25 21.02.2021
6102 Clear 4 1019 87 10000 3.6 90 21:50 21.02.2021
6103 Clear 4 1019 81 10000 3.09 90 21:30 21.02.2021
6104 Clear 5 1019 87 10000 2.57 100 20:50 21.02.2021
6105 Clear 5 1019 81 10000 2.57 100 20:21 21.02.2021
6106 Clear 7 1019 71 10000 3.09 80 19:59 21.02.2021
6107 Clear 7 1019 71 10000 3.09 80 19:39 21.02.2021
6108 Clear 7 1019 71 10000 3.09 90 19:21 21.02.2021
6109 Clear 9 1018 66 10000 4.12 90 18:28 21.02.2021
6110 Clear 11 1018 62 10000 4.63 90 17:47 21.02.2021
6111 Clear 13 1018 58 10000 4.12 80 17:21 21.02.2021
6112 Clear 12 1018 54 10000 4.12 90 16:50 21.02.2021
6113 Clear 15 1019 51 10000 3.6 100 16:29 21.02.2021
6114 Clear 14 1019 44 10000 4.12 130 15:26 21.02.2021
6115 Clear 14 1019 47 10000 4.12 130 14:59 21.02.2021
6116 Clear 13 1019 47 10000 4.12 130 14:39 21.02.2021
6117 Clear 13 1019 50 10000 4.12 150 13:59 21.02.2021
6118 Clear 12 1020 50 10000 3.6 150 13:30 21.02.2021
6119 Clear 12 1020 54 10000 3.6 130 12:50 21.02.2021
6120 Clear 11 1020 54 10000 3.6 120 12:26 21.02.2021
6121 Clear 11 1020 57 10000 4.12 140 11:42 21.02.2021
6122 Clear 8 1020 71 10000 4.12 130 10:50 21.02.2021
6123 Clear 7 1020 76 10000 4.12 130 10:22 21.02.2021
6124 Clear 5 1020 81 10000 3.6 120 09:51 21.02.2021
6125 Clear 4 1020 87 10000 3.6 120 09:26 21.02.2021
6126 Clear 3 1020 93 10000 4.12 110 08:43 21.02.2021
6127 Clear 3 1020 93 10000 2.57 110 08:19 21.02.2021
6128 Clear 3 1019 93 10000 3.09 110 07:28 21.02.2021
6129 Clear 3 1019 93 10000 3.09 110 06:45 21.02.2021
6130 Clear 3 1019 93 10000 2.06 100 02:44 21.02.2021
6131 Clear 4 1019 87 10000 1.54 110 01:59 21.02.2021
6132 Clear 4 1019 87 10000 1.54 100 00:22 21.02.2021
6133 Clear 5 1019 81 10000 2.57 100 23:59 20.02.2021
6134 Clear 6 1019 81 10000 2.57 110 22:58 20.02.2021
6135 Clear 6 1019 81 10000 2.57 110 22:34 20.02.2021
6136 Clear 7 1019 87 10000 3.09 110 21:59 20.02.2021
6137 Clear 7 1019 87 10000 3.09 110 21:41 20.02.2021
6138 Clear 8 1019 76 10000 2.06 110 21:18 20.02.2021
6139 Clear 8 1019 76 10000 2.57 110 20:40 20.02.2021
6140 Clear 9 1019 71 10000 2.57 100 20:19 20.02.2021
6141 Clear 9 1019 71 10000 3.6 100 19:42 20.02.2021
6142 Clear 10 1018 66 10000 4.12 120 18:58 20.02.2021
6143 Clear 11 1018 66 10000 4.12 120 18:34 20.02.2021
6144 Clear 13 1018 54 10000 4.63 140 17:59 20.02.2021
6145 Clear 13 1018 54 10000 4.63 140 17:33 20.02.2021
6146 Clear 16 1018 44 10000 5.66 150 16:49 20.02.2021
6147 Clear 15 1018 44 10000 5.66 160 16:26 20.02.2021
6148 Clear 16 1018 44 10000 5.14 140 15:42 20.02.2021
6149 Clear 15 1018 44 10000 5.66 130 14:53 20.02.2021
6150 Clear 15 1018 44 10000 5.66 130 14:27 20.02.2021
6151 Clear 14 1019 47 10000 4.63 150 13:59 20.02.2021
6152 Clear 15 1019 47 10000 4.63 150 13:40 20.02.2021
6153 Clear 15 1020 44 10000 4.12 140 13:21 20.02.2021
6154 Clear 14 1020 51 10000 3.6 140 12:46 20.02.2021
6155 Clear 12 1020 58 10000 3.6 140 11:56 20.02.2021
6156 Clear 12 1020 58 10000 3.6 140 11:36 20.02.2021
6157 Clear 9 1020 71 10000 3.6 120 10:53 20.02.2021
6158 Clear 8 1020 76 10000 3.09 120 10:27 20.02.2021
6159 Clear 7 1020 81 10000 3.09 120 09:47 20.02.2021
6160 Clear 4 1020 93 10000 1.54 130 08:56 20.02.2021
6161 Clear 3 1020 93 10000 2.57 100 08:25 20.02.2021
6162 Clear 3 1019 93 10000 3.09 120 07:19 20.02.2021
6163 Clear 5 1019 87 10000 3.6 100 02:32 20.02.2021
6164 Clear 4 1020 93 10000 2.57 120 01:59 20.02.2021
6165 Clear 4 1020 93 10000 2.06 120 01:18 20.02.2021
6166 Clear 4 1020 93 10000 2.57 110 00:39 20.02.2021
6167 Clear 4 1020 87 10000 3.09 100 23:41 19.02.2021
6168 Clear 4 1020 87 10000 3.09 110 22:48 19.02.2021
6169 Clear 4 1020 87 10000 3.6 100 22:25 19.02.2021
6170 Clear 5 1019 81 10000 3.6 100 21:47 19.02.2021
6171 Clear 5 1019 81 10000 3.09 100 21:25 19.02.2021
6172 Clear 5 1019 75 10000 3.09 110 20:44 19.02.2021
6173 Clear 5 1019 70 10000 3.6 100 20:26 19.02.2021
6174 Clouds 6 1019 70 10000 3.09 100 19:49 19.02.2021
6175 Clouds 7 1019 66 10000 2.06 110 19:20 19.02.2021
6176 Clouds 7 1019 72 10000 2.16 154 18:51 19.02.2021
6177 Clouds 8 1019 62 10000 1.54 190 18:28 19.02.2021
6178 Clouds 9 1019 57 10000 1.54 180 17:43 19.02.2021
6179 Clouds 11 1019 50 10000 2.06 230 16:44 19.02.2021
6180 Clouds 11 1019 50 10000 2.06 220 16:22 19.02.2021
6181 Clouds 11 1019 50 10000 2.06 190 15:55 19.02.2021
6182 Clouds 12 1019 46 10000 2.06 180 15:30 19.02.2021
6183 Clouds 12 1020 50 10000 4.12 190 14:52 19.02.2021
6184 Clouds 11 1020 54 10000 2.57 170 14:33 19.02.2021
6185 Clouds 11 1020 57 10000 4.12 200 13:56 19.02.2021
6186 Clouds 11 1020 57 10000 4.12 200 13:36 19.02.2021
6187 Clouds 10 1020 57 10000 2.57 170 12:54 19.02.2021
6188 Clouds 10 1021 62 10000 1.03 0 12:28 19.02.2021
6189 Clouds 9 1021 66 10000 1.03 0 11:59 19.02.2021
6190 Clouds 9 1021 66 10000 1.03 0 11:34 19.02.2021
6191 Clouds 8 1020 70 10000 1.03 0 10:55 19.02.2021
6192 Clouds 8 1020 70 10000 1.03 0 10:33 19.02.2021
6193 Clouds 6 1020 75 10000 1.54 300 09:58 19.02.2021
6194 Clouds 6 1020 75 10000 2.06 310 09:27 19.02.2021
6195 Clouds 5 1020 75 10000 2.06 300 08:55 19.02.2021
6196 Clouds 5 1019 81 10000 3.09 310 08:28 19.02.2021
6197 Clouds 5 1019 81 10000 3.09 310 08:28 19.02.2021
6198 Clouds 5 1019 84 10000 1.49 238 07:54 19.02.2021
6199 Clouds 5 1018 75 10000 3.6 300 07:36 19.02.2021
6200 Clouds 6 1018 76 10000 4.63 270 06:59 19.02.2021
6201 Clear 7 1018 81 10000 4.63 280 06:31 19.02.2021
6202 Clouds 7 1016 81 10000 3.6 250 04:42 19.02.2021
6203 Clouds 7 1015 71 10000 2.57 200 02:31 19.02.2021
6204 Clear 6 1015 76 10000 3.09 190 00:59 19.02.2021
6205 Clear 6 1014 76 10000 2.57 140 00:26 19.02.2021
6206 Clear 6 1013 76 10000 3.09 130 23:43 18.02.2021
6207 Clear 7 1013 76 10000 3.6 130 23:25 18.02.2021
6208 Clear 6 1013 70 10000 2.57 140 22:36 18.02.2021
6209 Clear 6 1013 81 10000 4.12 120 22:18 18.02.2021
6210 Clear 6 1013 75 10000 4.12 120 21:28 18.02.2021
6211 Clear 6 1013 81 10000 4.12 110 20:58 18.02.2021
6212 Clear 6 1013 81 10000 4.12 110 20:38 18.02.2021
6213 Clear 7 1013 76 10000 4.12 90 20:19 18.02.2021
6214 Clear 7 1014 81 10000 4.12 110 19:43 18.02.2021
6215 Clear 7 1014 81 10000 4.12 110 19:19 18.02.2021
6216 Clear 8 1014 71 10000 4.12 120 18:47 18.02.2021
6217 Clear 8 1014 66 10000 4.63 120 18:26 18.02.2021
6218 Clear 9 1015 66 10000 4.63 120 17:45 18.02.2021
6219 Clear 9 1015 66 10000 4.63 130 17:23 18.02.2021
6220 Clear 9 1015 62 10000 6.17 130 16:45 18.02.2021
6221 Clear 10 1015 57 10000 5.66 130 16:26 18.02.2021
6222 Clear 10 1015 58 10000 4.63 130 15:42 18.02.2021
6223 Clear 10 1015 54 10000 5.14 140 15:22 18.02.2021
6224 Clear 10 1016 58 10000 5.14 140 14:50 18.02.2021
6225 Clear 10 1016 58 10000 5.66 120 14:30 18.02.2021
6226 Clear 10 1016 58 10000 6.17 140 13:49 18.02.2021
6227 Clear 10 1017 57 10000 7.2 140 13:21 18.02.2021
6228 Clear 10 1017 62 10000 6.69 140 12:54 18.02.2021
6229 Clear 9 1018 66 10000 5.66 130 12:28 18.02.2021
6230 Clear 8 1018 66 10000 4.63 140 11:47 18.02.2021
6231 Clear 8 1018 76 10000 5.14 140 11:27 18.02.2021
6232 Clear 7 1018 76 10000 3.6 130 10:53 18.02.2021
6233 Clear 6 1018 76 10000 3.6 130 10:35 18.02.2021
6234 Clear 4 1019 87 10000 2.57 110 09:57 18.02.2021
6235 Clouds 2 1018 89 10000 2.32 139 09:27 18.02.2021
6236 Clear 1 1019 93 10000 2.06 120 08:48 18.02.2021
6237 Clear 1 1019 93 10000 3.09 110 08:30 18.02.2021
6238 Clear 0 1019 93 10000 3.09 110 07:42 18.02.2021
6239 Clear 0 1019 100 10000 2.06 120 07:18 18.02.2021
6240 Clouds 1 1019 93 10000 3.09 110 05:29 18.02.2021
6241 Clouds 4 1021 87 10000 2.57 110 23:57 17.02.2021
6242 Clouds 3 1021 93 10000 2.06 120 23:38 17.02.2021
6243 Clear 3 1021 93 10000 2.57 100 22:56 17.02.2021
6244 Clear 4 1021 81 10000 2.06 120 22:29 17.02.2021
6245 Clear 4 1021 81 10000 2.06 110 21:58 17.02.2021
6246 Clear 5 1021 81 10000 2.06 120 21:23 17.02.2021
6247 Clear 5 1021 76 10000 1.54 120 20:56 17.02.2021
6248 Clouds 5 1023 89 10000 1.9 220 20:37 17.02.2021
6249 Clouds 5 1023 89 10000 1.9 220 19:56 17.02.2021
6250 Clear 6 1021 76 10000 2.06 220 19:36 17.02.2021
6251 Clouds 7 1021 76 10000 2.06 210 18:52 17.02.2021
6252 Clouds 7 1020 76 10000 1.54 230 18:33 17.02.2021
6253 Clouds 8 1020 76 10000 1.54 250 17:46 17.02.2021
6254 Clouds 7 1020 76 10000 3.6 250 17:21 17.02.2021
6255 Clouds 9 1020 71 10000 4.63 260 16:51 17.02.2021
6256 Clouds 8 1020 71 10000 3.6 250 16:29 17.02.2021
6257 Clouds 8 1020 71 10000 4.12 260 15:46 17.02.2021
6258 Clouds 8 1020 71 10000 5.14 240 15:28 17.02.2021
6259 Clouds 8 1020 71 10000 5.66 250 14:59 17.02.2021
6260 Clouds 8 1020 81 10000 3.09 270 14:39 17.02.2021
6261 Clouds 8 1020 81 10000 3.09 270 14:21 17.02.2021
6262 Clouds 8 1020 81 10000 6.69 270 13:40 17.02.2021
6263 Clouds 8 1020 81 10000 5.14 250 12:58 17.02.2021
6264 Clouds 7 1020 87 10000 3.6 240 12:26 17.02.2021
6265 Clouds 7 1020 87 10000 3.09 240 11:48 17.02.2021
6266 Clouds 7 1020 87 10000 4.12 230 11:29 17.02.2021
6267 Clouds 6 1020 87 10000 4.63 230 10:57 17.02.2021
6268 Clouds 6 1020 87 10000 4.63 230 10:39 17.02.2021
6269 Clouds 5 1020 87 10000 4.12 230 10:20 17.02.2021
6270 Clouds 5 1020 93 10000 4.63 240 09:40 17.02.2021
6271 Clouds 5 1019 93 10000 4.12 240 08:58 17.02.2021
6272 Clouds 5 1019 93 10000 4.12 240 08:37 17.02.2021
6273 Clouds 5 1019 93 10000 3.09 230 08:18 17.02.2021
6274 Clouds 4 1018 93 10000 4.12 240 06:48 17.02.2021
6275 Clouds 4 1016 100 6000 2.57 220 03:53 17.02.2021
6276 Rain 3 1015 93 7000 2.06 180 02:33 17.02.2021
6277 Mist 2 1015 100 4500 2.57 120 01:37 17.02.2021
6278 Mist 2 1015 100 1100 3.6 120 00:28 17.02.2021
6279 Mist 2 1015 100 1400 2.57 130 23:43 16.02.2021
6280 Mist 2 1015 100 2900 3.6 130 23:23 16.02.2021
6281 Clouds 1 1015 100 6000 4.63 110 22:41 16.02.2021
6282 Clouds 1 1015 93 8000 3.09 110 22:21 16.02.2021
6283 Clear 2 1015 100 10000 3.6 130 21:40 16.02.2021
6284 Clear 2 1015 93 10000 4.12 110 21:22 16.02.2021
6285 Clear 3 1015 93 10000 3.09 120 20:57 16.02.2021
6286 Clear 3 1015 93 10000 3.09 120 20:38 16.02.2021
6287 Clear 3 1015 93 10000 3.09 130 20:19 16.02.2021
6288 Clear 3 1015 93 10000 5.14 100 19:39 16.02.2021
6289 Clear 3 1016 100 10000 4.12 110 19:20 16.02.2021
6290 Clear 4 1017 100 10000 4.12 110 18:38 16.02.2021
6291 Clear 4 1017 100 10000 4.12 120 18:19 16.02.2021
6292 Clear 4 1018 100 10000 3.6 120 17:48 16.02.2021
6293 Clear 5 1018 87 10000 3.6 120 17:23 16.02.2021
6294 Clear 5 1018 87 10000 1.54 120 16:45 16.02.2021
6295 Clear 6 1019 87 10000 1.03 160 16:24 16.02.2021
6296 Clear 6 1019 87 10000 1.03 160 16:24 16.02.2021
6297 Clouds 6 1019 87 10000 2.06 130 15:47 16.02.2021
6298 Clouds 6 1019 81 10000 3.09 140 15:26 16.02.2021
6299 Clouds 5 1020 87 10000 2.57 140 14:47 16.02.2021
6300 Clouds 6 1020 81 10000 2.06 140 14:28 16.02.2021
6301 Clouds 6 1020 87 10000 2.57 120 13:53 16.02.2021
6302 Clouds 5 1020 93 10000 3.09 130 13:30 16.02.2021
6303 Clouds 5 1021 93 5000 3.09 140 12:44 16.02.2021
6304 Mist 4 1021 93 3400 3.6 110 12:22 16.02.2021
6305 Mist 3 1022 100 2500 4.12 110 11:48 16.02.2021
6306 Mist 3 1022 100 1400 2.06 120 11:23 16.02.2021
6307 Drizzle 2 1022 100 1700 2.57 120 10:51 16.02.2021
6308 Drizzle 2 1022 100 1700 2.57 120 10:32 16.02.2021
6309 Drizzle 2 1022 100 2200 3.09 110 09:56 16.02.2021
6310 Drizzle 2 1022 100 2200 3.09 110 09:36 16.02.2021
6311 Drizzle 2 1023 100 1700 2.57 120 09:18 16.02.2021
6312 Drizzle 1 1023 100 1200 3.09 100 08:39 16.02.2021
6313 Drizzle 1 1023 100 1200 2.57 110 08:18 16.02.2021
6314 Mist 1 1023 100 1700 2.57 110 07:20 16.02.2021
6315 Drizzle 0 1024 100 2000 3.09 100 04:39 16.02.2021
6316 Rain -1 1026 93 5000 3.09 90 00:45 16.02.2021
6317 Clouds -1 1026 93 10000 2.06 110 23:32 15.02.2021
6318 Clouds -1 1026 93 10000 3.6 150 22:59 15.02.2021
6319 Clouds -1 1026 93 10000 3.6 150 22:41 15.02.2021
6320 Rain -1 1026 86 9000 5.66 140 21:59 15.02.2021
6321 Rain -1 1026 86 9000 5.66 140 21:38 15.02.2021
6322 Rain -1 1027 86 6000 4.12 140 21:19 15.02.2021
6323 Snow -1 1027 86 6000 3.6 140 20:45 15.02.2021
6324 Snow -1 1027 80 10000 4.63 150 20:24 15.02.2021
6325 Rain -2 1028 86 6000 3.6 140 19:44 15.02.2021
6326 Snow -2 1028 86 6000 4.12 110 19:22 15.02.2021
6327 Snow -2 1028 80 10000 3.6 130 18:44 15.02.2021
6328 Snow -2 1028 80 10000 6.17 140 18:26 15.02.2021
6329 Snow -1 1029 69 10000 5.14 130 17:42 15.02.2021
6330 Clouds -1 1029 74 10000 4.12 130 17:22 15.02.2021
6331 Snow -1 1030 69 10000 4.63 160 16:55 15.02.2021
6332 Snow -1 1029 64 10000 5.66 140 16:27 15.02.2021
6333 Snow -1 1030 59 10000 5.14 150 15:50 15.02.2021
6334 Snow 0 1030 55 10000 4.12 170 15:22 15.02.2021
6335 Snow 0 1030 55 10000 4.63 140 14:54 15.02.2021
6336 Snow 0 1030 51 10000 5.66 140 14:22 15.02.2021
6337 Snow 0 1031 55 10000 6.17 120 13:58 15.02.2021
6338 Snow -1 1031 55 10000 6.17 120 13:38 15.02.2021
6339 Clear -1 1032 51 10000 4.12 140 13:18 15.02.2021
6340 Clear -1 1032 51 10000 4.12 140 13:18 15.02.2021
6341 Clear -1 1032 51 10000 4.63 140 12:38 15.02.2021
6342 Clear -1 1033 50 10000 4.63 150 12:18 15.02.2021
6343 Clear -2 1033 54 10000 3.6 160 11:40 15.02.2021
6344 Clear -2 1033 54 10000 4.12 140 11:18 15.02.2021
6345 Clear -3 1033 54 10000 3.6 140 10:45 15.02.2021
6346 Clear -4 1034 63 10000 3.09 130 10:21 15.02.2021
6347 Clear -6 1034 73 10000 2.06 150 09:52 15.02.2021
6348 Clouds -7 1034 81 10000 1.79 125 09:32 15.02.2021
6349 Clear -8 1034 73 10000 4.12 110 08:37 15.02.2021
6350 Clear -10 1034 79 10000 3.09 100 07:38 15.02.2021
6351 Clear -9 1034 85 10000 2.57 100 06:45 15.02.2021
6352 Clear -8 1035 86 10000 1.03 0 05:37 15.02.2021
6353 Clear -7 1036 68 10000 2.57 130 02:22 15.02.2021
6354 Clear -7 1037 73 10000 1.03 130 00:33 15.02.2021
6355 Clear -7 1037 73 10000 2.57 120 23:33 14.02.2021
6356 Clear -7 1037 79 10000 3.09 110 22:52 14.02.2021
6357 Clear -8 1037 79 10000 3.09 110 22:34 14.02.2021
6358 Clear -7 1038 79 10000 3.09 100 21:57 14.02.2021
6359 Clear -7 1038 79 10000 3.09 110 21:37 14.02.2021
6360 Clear -7 1038 74 10000 3.09 100 20:56 14.02.2021
6361 Clear -6 1038 74 10000 3.09 100 20:38 14.02.2021
6362 Clear -6 1038 74 10000 2.57 90 20:20 14.02.2021
6363 Clear -6 1038 74 10000 1.54 90 19:38 14.02.2021
6364 Clear -5 1038 68 10000 0.51 0 18:48 14.02.2021
6365 Clear -4 1038 68 10000 0.51 340 18:29 14.02.2021
6366 Clear -2 1038 55 10000 0.51 60 17:48 14.02.2021
6367 Clouds -2 1039 69 10000 1.03 134 17:28 14.02.2021
6368 Clear -1 1038 51 10000 1.54 260 16:42 14.02.2021
6369 Clear 0 1039 55 10000 1.03 290 16:23 14.02.2021
6370 Clear 1 1039 55 10000 1.03 0 15:45 14.02.2021
6371 Clear 1 1039 55 10000 2.06 320 14:59 14.02.2021
6372 Clear 1 1039 55 10000 2.06 320 14:33 14.02.2021
6373 Clear -1 1040 59 10000 1.54 290 13:58 14.02.2021
6374 Clear -2 1040 63 10000 2.06 280 13:32 14.02.2021
6375 Clear -3 1040 63 10000 1.54 260 12:54 14.02.2021
6376 Clear -4 1040 63 10000 0.51 0 12:22 14.02.2021
6377 Clear -4 1040 63 10000 0.51 0 12:22 14.02.2021
6378 Clear -3 1041 73 10000 1.03 280 11:51 14.02.2021
6379 Clear -7 1041 73 10000 1.03 0 11:26 14.02.2021
6380 Clear -7 1041 73 10000 0.51 180 10:53 14.02.2021
6381 Clear -10 1040 92 10000 0.51 350 09:58 14.02.2021
6382 Clear -10 1040 92 10000 0.51 350 09:39 14.02.2021
6383 Clear -12 1041 92 10000 0.51 0 09:21 14.02.2021
6384 Clear -12 1040 85 10000 0.51 110 08:43 14.02.2021
6385 Clear -14 1040 85 10000 0.51 330 07:57 14.02.2021
6386 Clear -14 1039 92 10000 0.51 0 06:52 14.02.2021
6387 Clear -13 1039 92 10000 1.54 120 05:43 14.02.2021
6388 Clear -12 1039 85 10000 1.03 340 03:32 14.02.2021
6389 Clear -11 1039 85 10000 1.54 340 02:22 14.02.2021
6390 Clear -12 1039 85 10000 1.03 0 00:48 14.02.2021
6391 Clear -11 1039 92 10000 0.51 0 00:29 14.02.2021
6392 Clear -11 1039 92 10000 1.03 280 23:41 13.02.2021
6393 Clear -11 1039 92 10000 1.54 40 23:21 13.02.2021
6394 Clear -11 1039 92 10000 1.03 0 22:43 13.02.2021
6395 Clear -11 1039 92 10000 1.03 60 22:20 13.02.2021
6396 Clear -10 1039 85 10000 1.03 50 21:42 13.02.2021
6397 Clear -10 1039 92 10000 0.51 40 21:22 13.02.2021
6398 Clear -8 1038 79 10000 1.54 60 20:30 13.02.2021
6399 Clear -8 1038 79 10000 1.54 50 19:57 13.02.2021
6400 Clear -7 1038 79 10000 1.54 50 19:38 13.02.2021
6401 Clear -7 1038 68 10000 2.06 70 19:18 13.02.2021
6402 Clear -6 1037 68 10000 1.54 70 18:44 13.02.2021
6403 Clear -5 1037 63 10000 0.51 0 18:20 13.02.2021
6404 Clear -4 1037 59 10000 2.06 90 17:42 13.02.2021
6405 Clouds -4 1037 59 10000 4.63 100 17:22 13.02.2021
6406 Clouds -3 1037 54 10000 4.12 90 16:42 13.02.2021
6407 Clouds -2 1037 59 10000 4.12 100 16:20 13.02.2021
6408 Clouds -1 1037 59 10000 4.63 100 15:34 13.02.2021
6409 Clouds -2 1037 59 10000 5.14 90 14:51 13.02.2021
6410 Clouds -2 1037 59 10000 6.69 90 14:31 13.02.2021
6411 Clouds -3 1037 59 10000 6.69 90 13:48 13.02.2021
6412 Clouds -3 1037 68 10000 8.23 100 13:24 13.02.2021
6413 Clouds -4 1037 63 10000 6.69 80 12:45 13.02.2021
6414 Clouds -4 1037 63 10000 7.72 80 12:18 13.02.2021
6415 Clouds -5 1037 68 10000 5.14 100 11:43 13.02.2021
6416 Clear -6 1037 68 10000 2.57 60 11:19 13.02.2021
6417 Clear -6 1037 68 10000 3.6 60 10:44 13.02.2021
6418 Clear -8 1036 67 10000 2.57 60 10:24 13.02.2021
6419 Clear -9 1037 79 10000 1.54 10 09:53 13.02.2021
6420 Clear -11 1037 85 10000 1.03 0 09:30 13.02.2021
6421 Clear -11 1037 85 10000 0.51 0 08:54 13.02.2021
6422 Clear -13 1036 85 10000 1.03 320 08:31 13.02.2021
6423 Clouds -13 1036 85 10000 1.03 0 07:46 13.02.2021
6424 Clear -14 1036 85 10000 1.03 0 06:37 13.02.2021
6425 Clear -13 1035 85 10000 1.03 0 05:19 13.02.2021
6426 Clear -12 1035 79 10000 1.03 0 03:47 13.02.2021
6427 Clear -11 1034 79 10000 3.09 70 01:31 13.02.2021
6428 Clear -11 1033 85 10000 1.54 50 00:23 13.02.2021
6429 Clear -11 1033 85 10000 1.03 0 23:48 12.02.2021
6430 Clear -11 1033 85 10000 1.03 60 23:20 12.02.2021
6431 Clear -10 1033 85 10000 1.54 50 22:38 12.02.2021
6432 Clear -10 1033 79 10000 2.57 40 22:18 12.02.2021
6433 Clear -9 1033 85 10000 2.06 30 21:42 12.02.2021
6434 Clear -9 1032 79 10000 3.09 50 21:23 12.02.2021
6435 Clear -9 1032 79 10000 2.57 50 20:45 12.02.2021
6436 Clear -9 1032 85 10000 1.54 50 20:27 12.02.2021
6437 Clear -8 1032 73 10000 1.54 60 19:55 12.02.2021
6438 Clear -8 1032 73 10000 1.54 60 19:30 12.02.2021
6439 Clear -7 1031 73 10000 1.54 60 18:44 12.02.2021
6440 Clear -7 1031 63 10000 2.57 80 18:25 12.02.2021
6441 Clear -6 1031 58 10000 3.09 80 17:43 12.02.2021
6442 Clouds -5 1030 50 10000 4.63 80 16:56 12.02.2021
6443 Clouds -4 1030 54 10000 4.12 80 16:21 12.02.2021
6444 Clouds -3 1030 58 10000 5.66 90 15:44 12.02.2021
6445 Clouds -3 1030 58 10000 5.14 90 15:20 12.02.2021
6446 Clouds -4 1030 58 10000 3.6 70 14:39 12.02.2021
6447 Clouds -4 1030 63 10000 5.14 60 13:56 12.02.2021
6448 Clouds -4 1030 63 10000 5.14 60 13:37 12.02.2021
6449 Clouds -4 1030 63 10000 5.14 90 12:55 12.02.2021
6450 Clouds -5 1030 63 10000 5.14 90 12:36 12.02.2021
6451 Clouds -5 1030 68 10000 3.6 80 11:48 12.02.2021
6452 Clear -7 1030 73 10000 3.09 90 11:22 12.02.2021
6453 Clear -8 1030 79 10000 1.03 0 10:51 12.02.2021
6454 Clear -8 1030 79 10000 1.03 0 10:33 12.02.2021
6455 Clear -11 1030 85 10000 1.03 320 09:43 12.02.2021
6456 Clear -12 1030 85 10000 1.03 320 09:24 12.02.2021
6457 Clear -13 1029 78 10000 1.03 0 08:47 12.02.2021
6458 Clear -14 1029 85 10000 1.03 360 08:27 12.02.2021
6459 Clear -14 1029 85 10000 1.03 330 07:52 12.02.2021
6460 Clear -14 1029 85 10000 0.51 0 07:27 12.02.2021
6461 Clear -14 1029 85 10000 1.03 360 06:54 12.02.2021
6462 Clear -14 1029 92 10000 1.03 310 05:39 12.02.2021
6463 Clear -15 1029 85 10000 0.51 10 03:48 12.02.2021
6464 Clear -13 1029 92 10000 1.03 360 00:35 12.02.2021
6465 Clouds -12 1029 92 10000 0.51 360 23:38 11.02.2021
6466 Clouds -11 1029 92 10000 0.51 0 23:20 11.02.2021
6467 Clouds -11 1029 92 10000 0.51 0 22:44 11.02.2021
6468 Clouds -11 1029 92 10000 0.51 0 22:23 11.02.2021
6469 Clouds -10 1029 92 10000 0.51 0 21:43 11.02.2021
6470 Clouds -10 1029 92 10000 0.51 50 21:25 11.02.2021
6471 Clouds -9 1029 92 10000 0.51 0 20:56 11.02.2021
6472 Clouds -9 1029 92 10000 0.51 0 20:37 11.02.2021
6473 Clouds -9 1029 92 10000 0.51 200 20:18 11.02.2021
6474 Clouds -8 1028 93 10000 0.51 0 19:46 11.02.2021
6475 Clouds -7 1028 86 10000 0.51 0 19:25 11.02.2021
6476 Clouds -7 1028 86 10000 1.03 0 18:42 11.02.2021
6477 Clouds -7 1028 79 10000 1.03 0 18:19 11.02.2021
6478 Clouds -6 1027 74 10000 1.54 240 17:43 11.02.2021
6479 Clouds -5 1027 68 10000 1.54 260 17:20 11.02.2021
6480 Clouds -3 1027 68 10000 2.06 260 16:44 11.02.2021
6481 Clouds -4 1027 68 10000 1.54 250 16:25 11.02.2021
6482 Clouds -3 1027 68 10000 2.06 250 15:45 11.02.2021
6483 Clouds -3 1026 68 10000 1.54 240 15:26 11.02.2021
6484 Clouds -3 1026 68 10000 1.54 240 15:26 11.02.2021
6485 Clouds -3 1026 68 10000 2.06 240 14:53 11.02.2021
6486 Clouds -4 1026 74 10000 2.57 250 14:31 11.02.2021
6487 Clouds -4 1026 74 10000 1.54 250 13:42 11.02.2021
6488 Clouds -5 1026 74 10000 1.03 260 13:20 11.02.2021
6489 Clouds -5 1026 68 10000 0.51 0 12:56 11.02.2021
6490 Clouds -4 1026 59 10000 0.51 0 12:32 11.02.2021
6491 Snow -6 1026 68 10000 0.51 0 11:47 11.02.2021
6492 Snow -6 1026 73 10000 0.51 0 11:27 11.02.2021
6493 Snow -7 1025 73 10000 0.51 180 10:45 11.02.2021
6494 Snow -8 1025 79 10000 0.51 0 10:26 11.02.2021
6495 Snow -9 1025 86 10000 0.51 0 09:56 11.02.2021
6496 Snow -10 1025 85 10000 0.51 0 09:24 11.02.2021
6497 Clouds -11 1024 92 10000 1.03 250 08:55 11.02.2021
6498 Clouds -11 1024 92 10000 1.03 250 08:55 11.02.2021
6499 Snow -11 1024 85 10000 0.51 0 08:30 11.02.2021
6500 Snow -12 1023 92 10000 1.03 0 07:39 11.02.2021
6501 Snow -12 1022 92 10000 0.51 0 06:41 11.02.2021
6502 Snow -13 1022 92 10000 1.03 260 05:38 11.02.2021
6503 Clear -12 1018 92 10000 1.54 330 02:29 11.02.2021
6504 Clouds -11 1017 85 10000 2.06 310 01:29 11.02.2021
6505 Clouds -11 1016 92 10000 1.03 0 00:22 11.02.2021
6506 Clouds -10 1016 85 10000 1.03 0 23:45 10.02.2021
6507 Clouds -11 1015 85 10000 2.06 330 22:53 10.02.2021
6508 Clouds -11 1015 85 10000 2.06 330 22:31 10.02.2021
6509 Clear -10 1014 79 10000 3.09 360 21:59 10.02.2021
6510 Clear -10 1014 79 10000 3.09 360 21:38 10.02.2021
6511 Clear -9 1013 73 10000 3.09 340 21:19 10.02.2021
6512 Clouds -9 1013 73 10000 4.12 350 20:41 10.02.2021
6513 Clouds -9 1012 73 10000 3.09 360 20:22 10.02.2021
6514 Clouds -8 1012 73 10000 4.12 10 19:46 10.02.2021
6515 Clouds -8 1011 73 10000 5.14 350 19:25 10.02.2021
6516 Clouds -8 1010 73 10000 5.14 350 18:44 10.02.2021
6517 Snow -8 1010 79 10000 5.14 360 18:23 10.02.2021
6518 Snow -8 1009 73 7000 4.63 350 17:57 10.02.2021
6519 Snow -8 1008 79 5000 3.6 350 17:24 10.02.2021
6520 Snow -8 1008 79 5000 3.6 350 17:24 10.02.2021
6521 Snow -8 1008 86 3300 3.09 360 16:53 10.02.2021
6522 Snow -8 1008 86 3300 4.12 350 16:31 10.02.2021
6523 Snow -7 1007 79 3700 5.66 340 15:55 10.02.2021
6524 Snow -7 1007 79 3700 5.14 350 15:23 10.02.2021
6525 Snow -6 1006 73 4000 4.63 340 14:48 10.02.2021
6526 Snow -6 1006 79 3700 4.63 340 14:29 10.02.2021
6527 Snow -6 1005 79 3000 5.14 350 13:52 10.02.2021
6528 Snow -6 1005 79 4000 4.12 340 13:28 10.02.2021
6529 Snow -6 1005 79 4500 4.12 330 12:50 10.02.2021
6530 Snow -7 1005 79 4800 3.6 340 12:30 10.02.2021
6531 Snow -7 1005 79 4800 3.6 340 12:30 10.02.2021
6532 Snow -6 1005 79 4500 3.6 340 11:54 10.02.2021
6533 Snow -6 1005 79 4500 3.6 340 11:36 10.02.2021
6534 Snow -7 1004 86 4000 4.12 340 11:18 10.02.2021
6535 Snow -7 1004 86 4000 3.09 350 10:22 10.02.2021
6536 Snow -7 1004 86 4500 3.09 330 09:45 10.02.2021
6537 Snow -8 1003 86 4500 2.57 340 09:26 10.02.2021
6538 Snow -8 1003 86 6000 3.09 340 08:51 10.02.2021
6539 Clouds -8 1003 86 10000 3.09 350 08:30 10.02.2021
6540 Snow -8 1002 86 10000 2.57 340 07:25 10.02.2021
6541 Clouds -8 1002 86 10000 2.06 20 05:40 10.02.2021
6542 Clouds -8 1004 86 10000 2.57 350 01:21 10.02.2021
6543 Clouds -7 1004 86 10000 2.06 10 23:45 09.02.2021
6544 Clouds -7 1004 86 10000 2.06 350 23:27 09.02.2021
6545 Snow -8 1005 79 10000 1.54 330 22:42 09.02.2021
6546 Clouds -8 1005 79 10000 1.54 350 22:23 09.02.2021
6547 Clouds -8 1005 79 9000 1.54 350 21:47 09.02.2021
6548 Clouds -7 1005 79 9000 1.54 360 21:21 09.02.2021
6549 Snow -7 1005 79 9000 1.54 10 20:43 09.02.2021
6550 Clouds -7 1005 86 9000 1.54 10 20:24 09.02.2021
6551 Clouds -7 1005 86 9000 2.06 360 19:44 09.02.2021
6552 Clouds -7 1005 86 9000 2.57 360 19:22 09.02.2021
6553 Clouds -7 1005 86 9000 2.57 360 18:44 09.02.2021
6554 Snow -7 1005 79 8000 2.57 310 18:26 09.02.2021
6555 Snow -7 1004 86 8000 2.06 310 17:49 09.02.2021
6556 Snow -6 1004 86 7000 2.06 330 17:27 09.02.2021
6557 Snow -6 1004 86 8000 2.06 310 16:53 09.02.2021
6558 Snow -6 1004 86 9000 2.06 320 16:20 09.02.2021
6559 Clouds -6 1003 79 10000 2.57 340 15:51 09.02.2021
6560 Clouds -6 1003 79 10000 1.54 320 15:31 09.02.2021
6561 Snow -5 1003 79 10000 1.54 310 14:59 09.02.2021
6562 Snow -6 1003 79 10000 1.54 310 14:36 09.02.2021
6563 Clouds -6 1003 79 10000 2.57 280 14:18 09.02.2021
6564 Clouds -6 1003 79 10000 2.06 300 13:40 09.02.2021
6565 Clouds -6 1003 79 10000 2.57 300 13:20 09.02.2021
6566 Clouds -6 1002 79 10000 2.57 300 12:43 09.02.2021
6567 Clouds -5 1002 79 10000 2.06 300 12:23 09.02.2021
6568 Clouds -6 1002 79 10000 2.06 310 11:44 09.02.2021
6569 Snow -6 1002 79 10000 2.57 310 11:21 09.02.2021
6570 Clouds -6 1002 86 10000 1.54 320 10:57 09.02.2021
6571 Clouds -7 1002 86 10000 2.06 330 10:20 09.02.2021
6572 Clouds -7 1002 86 10000 1.03 320 09:51 09.02.2021
6573 Clouds -7 1002 86 10000 1.54 300 09:26 09.02.2021
6574 Clouds -7 1001 86 9000 1.54 300 08:54 09.02.2021
6575 Clouds -7 1001 93 9000 1.54 280 08:28 09.02.2021
6576 Clouds -8 1000 93 9000 0.51 290 07:41 09.02.2021
6577 Clouds -8 1000 86 10000 0.51 0 05:33 09.02.2021
6578 Clouds -8 1000 86 10000 0.51 0 03:47 09.02.2021
6579 Clouds -8 999 86 10000 1.54 310 01:50 09.02.2021
6580 Snow -7 998 86 10000 3.09 280 00:18 09.02.2021
6581 Snow -7 998 93 10000 2.57 300 23:23 08.02.2021
6582 Snow -6 997 93 8000 3.6 300 22:59 08.02.2021
6583 Snow -6 997 93 8000 3.6 300 22:39 08.02.2021
6584 Snow -6 997 86 4500 4.63 290 22:21 08.02.2021
6585 Snow -5 996 86 3000 3.09 330 21:39 08.02.2021
6586 Snow -5 997 86 3500 4.12 310 21:20 08.02.2021
6587 Snow -4 996 93 3500 3.6 310 20:44 08.02.2021
6588 Snow -4 995 100 4500 1.03 0 20:23 08.02.2021
6589 Snow -4 995 93 4500 1.54 10 19:49 08.02.2021
6590 Snow -4 996 93 2500 2.06 310 19:27 08.02.2021
6591 Snow -3 995 93 4000 1.54 340 18:50 08.02.2021
6592 Snow -3 995 93 4000 1.54 340 18:50 08.02.2021
6593 Snow -4 996 93 3500 2.06 340 18:25 08.02.2021
6594 Snow -3 996 93 3500 2.57 340 17:47 08.02.2021
6595 Clouds -3 996 86 9000 2.57 350 17:27 08.02.2021
6596 Clouds -3 996 93 9000 2.06 340 16:57 08.02.2021
6597 Clouds -3 996 93 9000 2.06 340 16:39 08.02.2021
6598 Clouds -3 996 86 9000 1.54 10 16:18 08.02.2021
6599 Clouds -3 996 86 9000 1.03 0 15:37 08.02.2021
6600 Snow -2 996 86 8000 1.03 0 15:18 08.02.2021
6601 Snow -2 996 86 2500 0.51 0 14:48 08.02.2021
6602 Clouds -2 996 80 10000 1.54 20 14:28 08.02.2021
6603 Clouds -3 996 86 10000 1.54 340 13:46 08.02.2021
6604 Clouds -3 997 86 10000 2.06 340 13:27 08.02.2021
6605 Clouds -4 996 86 10000 1.54 340 12:39 08.02.2021
6606 Clouds -3 997 80 10000 2.06 340 11:58 08.02.2021
6607 Clouds -4 997 80 10000 2.06 340 11:35 08.02.2021
6608 Clouds -5 997 86 10000 1.54 330 10:46 08.02.2021
6609 Clouds -5 997 86 10000 1.54 340 10:26 08.02.2021
6610 Clouds -5 997 86 10000 2.06 350 09:56 08.02.2021
6611 Clouds -5 997 86 10000 1.54 330 09:36 08.02.2021
6612 Clouds -5 997 86 10000 2.06 350 09:36 08.02.2021
6613 Clouds -5 997 86 10000 2.06 350 09:36 08.02.2021
6614 Snow -5 997 93 5000 1.54 330 08:55 08.02.2021
6615 Snow -5 997 93 4000 1.54 320 08:26 08.02.2021
6616 Clouds -5 997 93 10000 1.54 340 07:40 08.02.2021
6617 Clouds -5 997 86 10000 1.54 330 06:33 08.02.2021
6618 Snow -5 997 93 7000 2.06 350 04:56 08.02.2021
6619 Snow -4 996 93 10000 2.57 310 02:26 08.02.2021
6620 Snow -2 996 93 5000 3.6 350 00:25 08.02.2021
6621 Snow -1 996 93 3100 3.09 350 23:53 07.02.2021
6622 Snow -2 996 100 1200 2.57 340 23:28 07.02.2021
6623 Snow -1 996 100 1900 1.54 360 22:56 07.02.2021
6624 Snow -1 996 100 1900 1.54 360 22:38 07.02.2021
6625 Snow -1 996 93 1100 1.54 10 22:19 07.02.2021
6626 Snow 0 996 100 700 2.06 350 21:49 07.02.2021
6627 Snow 0 996 100 550 1.03 330 21:24 07.02.2021
6628 Snow 0 996 100 800 1.54 330 20:49 07.02.2021
6629 Snow 0 996 100 1100 1.54 10 20:27 07.02.2021
6630 Snow 0 996 100 1000 1.54 10 19:47 07.02.2021
6631 Snow 1 995 93 6000 1.54 360 19:28 07.02.2021
6632 Snow 1 996 93 8000 1.03 0 18:45 07.02.2021
6633 Snow 1 996 93 9000 1.03 0 18:27 07.02.2021
6634 Rain 2 995 93 10000 2.06 100 17:57 07.02.2021
6635 Rain 2 995 93 10000 2.06 100 17:38 07.02.2021
6636 Rain 2 995 93 10000 3.09 70 17:18 07.02.2021
6637 Clouds 2 996 80 10000 3.09 80 16:41 07.02.2021
6638 Rain 2 996 80 10000 2.06 70 16:20 07.02.2021
6639 Rain 3 996 80 10000 2.57 70 15:44 07.02.2021
6640 Rain 3 996 80 10000 3.09 70 15:21 07.02.2021
6641 Clouds 4 996 81 10000 3.09 70 14:44 07.02.2021
6642 Clouds 4 996 81 10000 3.6 80 14:26 07.02.2021
6643 Clouds 3 997 81 10000 3.6 80 13:45 07.02.2021
6644 Clouds 4 997 81 10000 4.12 100 13:26 07.02.2021
6645 Clouds 4 997 81 10000 5.66 90 12:40 07.02.2021
6646 Clouds 4 998 81 10000 5.66 110 12:21 07.02.2021
6647 Clouds 2 998 87 10000 3.6 90 11:42 07.02.2021
6648 Clouds 2 998 87 10000 3.09 80 11:24 07.02.2021
6649 Clouds 2 998 86 10000 3.6 90 10:30 07.02.2021
6650 Clouds 2 998 86 10000 3.6 80 09:57 07.02.2021
6651 Clouds 2 998 86 10000 3.6 80 09:38 07.02.2021
6652 Clouds 1 998 86 10000 3.6 80 09:20 07.02.2021
6653 Clouds 1 999 86 10000 4.63 80 07:58 07.02.2021
6654 Clouds 1 999 93 10000 4.63 80 06:33 07.02.2021
6655 Clouds 1 999 93 10000 4.12 80 05:48 07.02.2021
6656 Clouds 2 1002 87 10000 2.06 40 02:52 07.02.2021
6657 Clouds 3 1002 87 10000 4.63 80 00:41 07.02.2021
6658 Clouds 3 1002 87 10000 4.63 80 23:58 06.02.2021
6659 Clouds 3 1002 87 10000 5.14 90 23:19 06.02.2021
6660 Clouds 3 1003 87 10000 4.63 90 22:25 06.02.2021
6661 Clouds 3 1004 93 10000 4.63 90 21:38 06.02.2021
6662 Clouds 3 1004 93 10000 4.63 90 21:20 06.02.2021
6663 Clouds 3 1004 93 10000 6.69 90 20:44 06.02.2021
6664 Rain 3 1004 93 10000 6.17 90 20:23 06.02.2021
6665 Clouds 4 1004 93 10000